<
# Wetter Temperatur Luftdruck Luftfeuchtigkeit Sichtweite Windgeschwindigkeit Windrichtung Zeit
1 Clear 5 1024 41 10000 1.5 260 07:58 14.07.2020
2 Clear 5 1024 41 10000 1.5 260 07:38 14.07.2020
3 Clear 5 1024 41 10000 1.5 250 07:18 14.07.2020
4 Clear 5 1024 41 10000 1.5 250 06:44 14.07.2020
5 Clear 6 1024 39 10000 2.1 250 06:24 14.07.2020
6 Clear 6 1024 39 10000 2.1 250 05:34 14.07.2020
7 Clear 6 1024 39 10000 3.1 260 04:37 14.07.2020
8 Clear 7 1023 36 10000 2.1 270 03:36 14.07.2020
9 Clear 7 1023 36 10000 2.6 260 02:49 14.07.2020
10 Clear 8 1023 36 10000 2.6 260 02:24 14.07.2020
11 Clear 8 1023 34 10000 3.1 250 01:36 14.07.2020
12 Clear 9 1022 34 10000 3.1 240 00:52 14.07.2020
13 Clear 9 1022 34 10000 3.1 240 00:33 14.07.2020
14 Clear 9 1021 29 10000 4.1 260 23:59 13.07.2020
15 Clear 9 1021 29 10000 4.1 260 23:37 13.07.2020
16 Clear 10 1021 29 10000 4.1 260 23:18 13.07.2020
17 Clear 11 1021 29 10000 3.6 240 22:41 13.07.2020
18 Clear 11 1021 29 10000 3.6 240 22:21 13.07.2020
19 Clear 11 1020 27 10000 4.1 230 21:57 13.07.2020
20 Clear 11 1020 27 10000 4.1 230 21:39 13.07.2020
21 Clear 11 1020 27 10000 4.1 230 21:20 13.07.2020
22 Clear 11 1020 27 10000 5.7 250 20:57 13.07.2020
23 Clouds 11 1020 27 10000 5.7 250 20:39 13.07.2020
24 Clouds 11 1020 27 10000 5.7 250 20:21 13.07.2020
25 Clouds 11 1020 34 10000 5.7 260 19:45 13.07.2020
26 Clouds 11 1020 34 10000 5.7 260 19:26 13.07.2020
27 Clouds 11 1021 62 10000 5.1 240 18:59 13.07.2020
28 Clouds 11 1021 62 10000 5.1 240 18:40 13.07.2020
29 Clouds 11 1021 62 10000 5.1 240 18:21 13.07.2020
30 Clouds 10 1021 43 10000 3.6 250 17:56 13.07.2020
31 Clouds 10 1021 43 10000 3.6 250 17:38 13.07.2020
32 Clouds 10 1021 43 10000 3.6 250 17:19 13.07.2020
33 Clouds 10 1021 46 10000 3.1 250 16:55 13.07.2020
34 Clouds 9 1021 46 10000 3.1 250 16:36 13.07.2020
35 Clouds 9 1021 46 10000 3.1 250 16:18 13.07.2020
36 Clouds 9 1020 49 10000 4.1 270 15:41 13.07.2020
37 Clouds 9 1020 49 10000 4.1 270 15:21 13.07.2020
38 Clouds 9 1020 45 10000 2.6 250 14:59 13.07.2020
39 Clouds 9 1020 45 10000 2.6 250 14:39 13.07.2020
40 Clouds 9 1020 45 10000 2.6 250 14:21 13.07.2020
41 Rain 9 1019 61 9000 3.6 260 13:56 13.07.2020
42 Rain 9 1019 61 9000 3.6 260 13:38 13.07.2020
43 Rain 9 1019 61 9000 3.6 260 13:20 13.07.2020
44 Clouds 9 1018 49 10000 3.1 240 12:44 13.07.2020
45 Clouds 9 1018 49 10000 3.1 240 12:25 13.07.2020
46 Clouds 9 1017 42 10000 3.1 240 11:59 13.07.2020
47 Clouds 9 1017 42 10000 3.1 240 11:39 13.07.2020
48 Clouds 9 1017 42 10000 3.1 240 11:39 13.07.2020
49 Clouds 9 1017 42 10000 3.1 240 11:20 13.07.2020
50 Clouds 9 1017 39 10000 3.1 250 10:40 13.07.2020
51 Clouds 9 1017 39 10000 3.1 250 10:20 13.07.2020
52 Clouds 9 1017 42 10000 3.1 230 09:43 13.07.2020
53 Clouds 9 1017 42 10000 3.1 230 09:25 13.07.2020
54 Clouds 9 1017 61 10000 3.1 230 08:54 13.07.2020
55 Clouds 9 1017 61 10000 3.1 230 08:35 13.07.2020
56 Clouds 9 1017 37 10000 3.6 230 07:46 13.07.2020
57 Clouds 10 1017 37 10000 3.6 230 07:20 13.07.2020
58 Clouds 10 1017 37 10000 3.6 0 06:44 13.07.2020
59 Clouds 10 1017 37 10000 3.6 0 06:24 13.07.2020
60 Clouds 10 1016 37 10000 2.6 250 04:55 13.07.2020
61 Clouds 12 1016 30 10000 3.6 240 01:57 13.07.2020
62 Clouds 12 1016 30 10000 3.6 240 01:31 13.07.2020
63 Clouds 12 1016 30 10000 3.6 240 01:31 13.07.2020
64 Clouds 12 1015 24 10000 2.6 240 00:59 13.07.2020
65 Clouds 12 1015 24 10000 2.6 240 00:28 13.07.2020
66 Clouds 12 1014 22 10000 3.6 260 23:59 12.07.2020
67 Clouds 12 1014 22 10000 3.6 260 23:40 12.07.2020
68 Clouds 13 1014 22 10000 3.6 260 23:22 12.07.2020
69 Clouds 13 1013 22 10000 4.6 230 22:54 12.07.2020
70 Clouds 13 1013 22 10000 4.6 230 22:36 12.07.2020
71 Clouds 13 1013 22 10000 4.6 230 22:36 12.07.2020
72 Clouds 13 1013 22 10000 4.6 230 22:18 12.07.2020
73 Clouds 14 1013 26 10000 3.6 260 21:42 12.07.2020
74 Clouds 14 1013 26 10000 3.6 260 21:20 12.07.2020
75 Clouds 14 1012 35 10000 4.1 270 20:59 12.07.2020
76 Clouds 14 1012 35 10000 4.1 270 20:40 12.07.2020
77 Clouds 14 1012 35 10000 4.1 270 20:20 12.07.2020
78 Clouds 12 1013 37 10000 3.1 260 19:55 12.07.2020
79 Clouds 12 1013 37 10000 3.1 260 19:37 12.07.2020
80 Clouds 12 1013 34 10000 2.6 240 19:18 12.07.2020
81 Clouds 13 1013 34 10000 2.6 240 18:42 12.07.2020
82 Clouds 12 1014 40 10000 2.6 230 18:20 12.07.2020
83 Clouds 12 1014 40 10000 2.6 230 17:58 12.07.2020
84 Clouds 12 1014 40 10000 2.6 230 17:37 12.07.2020
85 Clouds 11 1014 40 10000 2.6 230 17:19 12.07.2020
86 Clouds 10 1014 43 10000 3.1 220 16:44 12.07.2020
87 Clouds 10 1014 43 10000 3.1 220 16:20 12.07.2020
88 Clouds 10 1013 43 10000 3.6 220 15:43 12.07.2020
89 Clouds 10 1013 43 10000 3.6 220 15:25 12.07.2020
90 Clouds 9 1013 43 10000 3.6 230 14:46 12.07.2020
91 Clouds 9 1013 43 10000 3.6 230 14:27 12.07.2020
92 Clouds 9 1012 39 10000 2.1 230 13:57 12.07.2020
93 Clouds 9 1012 39 10000 2.1 230 13:39 12.07.2020
94 Clouds 9 1012 39 10000 2.1 230 13:20 12.07.2020
95 Clouds 9 1012 39 10000 1.5 230 12:47 12.07.2020
96 Clouds 9 1012 39 10000 1.5 230 12:20 12.07.2020
97 Clouds 9 1011 49 10000 1 0 11:59 12.07.2020
98 Clouds 9 1011 49 10000 1 0 11:41 12.07.2020
99 Clouds 9 1011 49 10000 1 0 11:19 12.07.2020
100 Clouds 9 1011 57 10000 2.1 190 10:42 12.07.2020
101 Clouds 8 1011 57 10000 2.1 190 10:20 12.07.2020
102 Clouds 9 1012 46 10000 2.6 200 09:43 12.07.2020
103 Clouds 9 1012 46 10000 2.6 200 09:24 12.07.2020
104 Clouds 9 1012 45 10000 1 0 08:58 12.07.2020
105 Clouds 9 1012 45 10000 1 0 08:40 12.07.2020
106 Clouds 9 1012 46 10000 1 0 08:21 12.07.2020
107 Clouds 9 1011 61 10000 2.1 310 07:50 12.07.2020
108 Clouds 9 1011 61 10000 2.1 310 07:31 12.07.2020
109 Clouds 10 1011 53 10000 1 290 06:56 12.07.2020
110 Clouds 10 1011 53 10000 1 290 06:38 12.07.2020
111 Clouds 10 1011 53 10000 1 290 06:19 12.07.2020
112 Clouds 10 1012 53 10000 1.5 300 06:19 12.07.2020
113 Clouds 10 1011 57 10000 4.1 320 04:59 12.07.2020
114 Clouds 10 1011 57 10000 4.1 320 04:29 12.07.2020
115 Clouds 11 1011 46 10000 3.6 320 03:45 12.07.2020
116 Clouds 11 1011 46 10000 3.6 320 03:24 12.07.2020
117 Clouds 11 1011 53 10000 3.6 320 02:21 12.07.2020
118 Clouds 11 1010 62 10000 5.1 340 01:28 12.07.2020
119 Clouds 12 1010 62 10000 4.1 340 00:39 12.07.2020
120 Clouds 12 1010 62 10000 4.1 340 00:20 12.07.2020
121 Clouds 12 1010 62 10000 3.1 20 23:40 11.07.2020
122 Clouds 12 1010 62 10000 3.1 20 23:21 11.07.2020
123 Clouds 12 1010 62 10000 3.1 20 22:57 11.07.2020
124 Clouds 13 1010 62 10000 3.1 20 22:37 11.07.2020
125 Clouds 13 1010 62 10000 3.1 20 22:19 11.07.2020
126 Clouds 14 1011 47 10000 3.1 360 21:43 11.07.2020
127 Clear 14 1011 47 10000 3.1 360 21:24 11.07.2020
128 Clear 15 1012 24 10000 3.6 320 20:59 11.07.2020
129 Clear 15 1012 24 10000 3.6 320 20:40 11.07.2020
130 Clear 14 1012 24 10000 3.6 320 20:21 11.07.2020
131 Clear 14 1013 41 10000 2.6 360 19:58 11.07.2020
132 Clear 14 1013 41 10000 2.6 360 19:40 11.07.2020
133 Clear 14 1013 41 10000 2.6 360 19:22 11.07.2020
134 Clear 13 1014 50 10000 3.6 360 18:56 11.07.2020
135 Clear 13 1014 50 10000 3.6 360 18:38 11.07.2020
136 Clear 13 1014 50 10000 3.6 360 18:19 11.07.2020
137 Clear 12 1015 53 10000 3.1 360 17:48 11.07.2020
138 Clear 12 1015 53 10000 3.1 360 17:22 11.07.2020
139 Clear 11 1016 40 10000 2.1 290 16:59 11.07.2020
140 Clear 11 1016 40 10000 2.1 290 16:39 11.07.2020
141 Clear 11 1016 40 10000 2.1 290 16:20 11.07.2020
142 Clear 9 1016 49 10000 1.5 250 15:57 11.07.2020
143 Clear 9 1016 49 10000 1.5 250 15:37 11.07.2020
144 Clear 9 1016 49 10000 1.5 250 15:19 11.07.2020
145 Clear 7 1016 51 10000 1 320 14:47 11.07.2020
146 Clear 7 1016 53 10000 1 320 14:24 11.07.2020
147 Clear 5 1016 75 10000 1 250 13:57 11.07.2020
148 Clear 5 1016 75 10000 1 250 13:38 11.07.2020
149 Clouds 5 1016 75 10000 1 250 13:20 11.07.2020
150 Clouds 5 1016 80 10000 1.5 250 12:44 11.07.2020
151 Clouds 4 1016 80 10000 1.5 250 12:23 11.07.2020
152 Clouds 5 1016 75 10000 1 240 11:59 11.07.2020
153 Clouds 5 1016 75 10000 1 240 11:41 11.07.2020
154 Clouds 5 1016 75 10000 1 240 11:19 11.07.2020
155 Clouds 6 1016 81 10000 1 240 10:46 11.07.2020
156 Clouds 6 1016 81 10000 1 240 10:28 11.07.2020
157 Clouds 6 1016 75 10000 1.5 220 09:57 11.07.2020
158 Clouds 6 1016 75 10000 1.5 220 09:37 11.07.2020
159 Clouds 6 1016 75 10000 1.5 220 09:19 11.07.2020
160 Clouds 6 1016 75 10000 2.1 220 08:41 11.07.2020
161 Clouds 7 1016 75 10000 2.1 220 08:20 11.07.2020
162 Clouds 7 1016 81 10000 2.1 220 07:54 11.07.2020
163 Clouds 7 1016 81 10000 2.1 220 07:36 11.07.2020
164 Clouds 8 1015 76 10000 2.6 220 07:18 11.07.2020
165 Clouds 8 1015 76 10000 2.6 220 06:24 11.07.2020
166 Clouds 9 1015 71 10000 2.6 220 05:54 11.07.2020
167 Clouds 9 1015 71 10000 2.6 220 05:18 11.07.2020
168 Clouds 10 1013 66 10000 2.6 220 04:39 11.07.2020
169 Clouds 10 1013 66 10000 2.6 220 04:19 11.07.2020
170 Clouds 11 1011 66 10000 1.5 260 02:52 11.07.2020
171 Clouds 12 1011 66 10000 2.6 270 01:56 11.07.2020
172 Clouds 12 1011 66 10000 2.6 270 01:21 11.07.2020
173 Clouds 12 1010 66 10000 2.1 280 00:41 11.07.2020
174 Clouds 12 1010 66 10000 2.1 280 00:23 11.07.2020
175 Clouds 12 1009 66 10000 3.1 300 23:58 10.07.2020
176 Clouds 13 1009 66 10000 3.1 300 23:40 10.07.2020
177 Clouds 13 1009 66 10000 3.1 300 23:21 10.07.2020
178 Clouds 13 1009 71 10000 2.6 290 22:49 10.07.2020
179 Clouds 13 1009 71 10000 2.6 290 22:24 10.07.2020
180 Clouds 13 1008 71 10000 4.6 310 21:59 10.07.2020
181 Clouds 13 1008 71 10000 4.6 310 21:38 10.07.2020
182 Clouds 13 1008 71 10000 4.6 310 21:20 10.07.2020
183 Clouds 13 1009 66 10000 4.1 290 20:43 10.07.2020
184 Clouds 13 1009 66 10000 4.1 290 20:24 10.07.2020
185 Clouds 13 1009 76 10000 5.1 320 19:59 10.07.2020
186 Clouds 13 1009 76 10000 5.1 320 19:41 10.07.2020
187 Clouds 12 1010 76 10000 5.7 330 19:21 10.07.2020
188 Clouds 12 1010 76 10000 5.7 330 18:42 10.07.2020
189 Clouds 12 1010 76 10000 5.7 330 18:22 10.07.2020
190 Clouds 12 1010 76 10000 5.7 330 17:59 10.07.2020
191 Clouds 12 1010 76 10000 5.7 330 17:41 10.07.2020
192 Clouds 12 1010 76 10000 5.7 330 17:22 10.07.2020
193 Clouds 12 1011 81 10000 5.7 330 16:56 10.07.2020
194 Clouds 11 1011 81 10000 5.7 330 16:37 10.07.2020
195 Clouds 11 1011 81 10000 5.7 330 16:18 10.07.2020
196 Clouds 11 1011 76 10000 5.1 340 15:42 10.07.2020
197 Clouds 11 1011 76 10000 5.1 340 15:18 10.07.2020
198 Clouds 10 1011 76 10000 5.1 330 14:43 10.07.2020
199 Clouds 10 1011 76 10000 5.1 330 14:22 10.07.2020
200 Clouds 10 1011 76 10000 5.7 320 13:58 10.07.2020
201 Clouds 10 1011 76 10000 5.7 320 13:39 10.07.2020
202 Clouds 10 1011 76 10000 5.7 320 13:21 10.07.2020
203 Clouds 10 1011 76 10000 6.7 330 12:58 10.07.2020
204 Clouds 10 1011 76 10000 6.7 330 12:38 10.07.2020
205 Clouds 10 1011 76 10000 6.7 330 12:19 10.07.2020
206 Clouds 11 1011 76 10000 6.2 320 11:42 10.07.2020
207 Clouds 11 1011 76 10000 6.2 320 11:21 10.07.2020
208 Clouds 11 1011 76 10000 5.7 340 10:58 10.07.2020
209 Clouds 11 1011 76 10000 6.2 320 10:39 10.07.2020
210 Clouds 11 1011 76 10000 6.2 320 10:20 10.07.2020
211 Clouds 11 1011 76 10000 6.2 320 09:41 10.07.2020
212 Clouds 11 1011 76 10000 6.2 320 09:23 10.07.2020
213 Clouds 11 1012 76 10000 16.5 340 08:59 10.07.2020
214 Clouds 11 1012 76 10000 16.5 340 08:41 10.07.2020
215 Clouds 11 1012 76 10000 16.5 340 08:22 10.07.2020
216 Clouds 11 1012 76 10000 6.7 340 07:45 10.07.2020
217 Clouds 11 1012 76 10000 6.7 340 07:23 10.07.2020
218 Clouds 11 1013 76 10000 4.6 320 06:54 10.07.2020
219 Clouds 11 1013 76 10000 4.6 320 06:36 10.07.2020
220 Clouds 11 1014 66 10000 5.7 340 05:27 10.07.2020
221 Clouds 11 1014 66 10000 5.7 340 03:44 10.07.2020
222 Clouds 11 1016 62 10000 3.6 320 02:53 10.07.2020
223 Clouds 11 1016 66 10000 3.6 320 01:57 10.07.2020
224 Clear 12 1016 62 10000 2.6 320 00:54 10.07.2020
225 Clear 12 1016 62 10000 2.6 320 00:22 10.07.2020
226 Clear 13 1016 43 10000 3.1 340 23:55 09.07.2020
227 Clear 13 1016 43 10000 3.1 340 23:37 09.07.2020
228 Clear 13 1016 43 10000 3.1 340 23:18 09.07.2020
229 Clear 14 1017 41 10000 5.1 310 22:56 09.07.2020
230 Clear 14 1017 41 10000 5.1 310 22:37 09.07.2020
231 Clear 14 1017 41 10000 5.1 310 22:19 09.07.2020
232 Clear 15 1017 47 10000 3.1 310 21:39 09.07.2020
233 Clear 14 1017 46 10000 3.1 310 21:19 09.07.2020
234 Clear 14 1017 46 10000 3.1 310 21:19 09.07.2020
235 Clear 15 1018 33 10000 2.6 270 20:58 09.07.2020
236 Clear 14 1018 33 10000 2.6 270 20:39 09.07.2020
237 Clouds 14 1018 33 10000 2.6 270 20:21 09.07.2020
238 Clouds 14 1019 33 10000 4.1 260 19:43 09.07.2020
239 Clouds 14 1019 33 10000 4.1 260 19:21 09.07.2020
240 Clouds 14 1020 45 10000 4.1 280 18:56 09.07.2020
241 Clouds 14 1020 45 10000 4.1 280 18:38 09.07.2020
242 Clouds 13 1020 47 10000 4.1 280 18:18 09.07.2020
243 Clouds 12 1021 46 10000 4.6 280 17:42 09.07.2020
244 Clouds 12 1021 46 10000 4.6 280 17:22 09.07.2020
245 Clouds 12 1021 53 10000 5.1 280 16:56 09.07.2020
246 Clouds 11 1021 53 10000 5.1 280 16:38 09.07.2020
247 Clouds 11 1021 53 10000 5.1 280 16:19 09.07.2020
248 Clouds 10 1020 65 10000 3.6 280 15:56 09.07.2020
249 Clouds 10 1020 65 10000 3.6 280 15:37 09.07.2020
250 Clouds 9 1020 65 10000 3.6 280 15:18 09.07.2020
251 Clouds 8 1020 70 10000 4.6 270 14:57 09.07.2020
252 Clouds 8 1020 70 10000 4.6 270 14:39 09.07.2020
253 Clear 8 1020 70 10000 4.6 270 14:20 09.07.2020
254 Clouds 7 1020 75 9000 2.6 270 13:56 09.07.2020
255 Clouds 7 1020 75 9000 2.6 270 13:37 09.07.2020
256 Clear 7 1019 75 10000 2.6 260 13:18 09.07.2020
257 Clear 7 1019 75 10000 2.6 260 12:41 09.07.2020
258 Clear 7 1019 75 10000 2.6 260 12:22 09.07.2020
259 Clear 7 1019 75 10000 3.1 280 11:56 09.07.2020
260 Clear 7 1019 75 10000 3.1 280 11:38 09.07.2020
261 Clear 7 1019 75 10000 3.1 280 11:18 09.07.2020
262 Clear 7 1019 75 8000 2.6 290 10:55 09.07.2020
263 Clear 7 1019 75 8000 2.6 290 10:37 09.07.2020
264 Clear 7 1019 75 8000 2.6 290 10:18 09.07.2020
265 Clear 7 1020 81 7000 1.5 290 09:41 09.07.2020
266 Clear 7 1020 81 7000 1.5 290 09:22 09.07.2020
267 Clouds 8 1020 70 9000 2.1 280 08:45 09.07.2020
268 Clouds 8 1020 70 9000 2.1 280 08:25 09.07.2020
269 Clouds 8 1020 66 10000 2.6 270 07:47 09.07.2020
270 Clouds 8 1020 66 10000 2.6 270 07:26 09.07.2020
271 Clouds 9 1020 61 10000 2.1 290 06:55 09.07.2020
272 Clouds 9 1020 61 10000 2.1 290 06:20 09.07.2020
273 Rain 10 1020 66 9000 1.5 340 05:37 09.07.2020
274 Rain 9 1021 70 9000 1 0 04:28 09.07.2020
275 Clouds 9 1021 61 10000 2.1 247 02:33 09.07.2020
276 Clouds 9 1020 61 10000 1 0 01:39 09.07.2020
277 Clear 10 1020 50 10000 1 180 00:53 09.07.2020
278 Clear 10 1020 50 10000 1 180 00:25 09.07.2020
279 Clear 10 1019 50 10000 1 220 23:47 08.07.2020
280 Clear 11 1019 50 10000 1 220 23:28 08.07.2020
281 Clear 11 1018 47 10000 1 200 22:58 08.07.2020
282 Clear 12 1018 47 10000 1 200 22:40 08.07.2020
283 Clear 12 1018 47 10000 1 200 22:22 08.07.2020
284 Clear 12 1018 66 10000 0.92 211 21:58 08.07.2020
285 Clear 12 1018 66 10000 0.92 211 21:38 08.07.2020
286 Clear 12 1018 66 10000 0.77 170 21:20 08.07.2020
287 Clouds 12 1018 76 10000 2.1 50 20:54 08.07.2020
288 Clouds 12 1018 76 10000 2.1 50 20:36 08.07.2020
289 Clouds 12 1018 76 10000 2.1 50 20:18 08.07.2020
290 Clouds 12 1019 76 10000 2.1 50 19:42 08.07.2020
291 Clouds 12 1019 76 10000 2.1 50 19:22 08.07.2020
292 Clouds 12 1020 76 10000 2.1 60 18:57 08.07.2020
293 Clouds 12 1020 76 10000 2.1 60 18:38 08.07.2020
294 Clouds 12 1020 76 10000 2.1 60 18:19 08.07.2020
295 Clouds 11 1020 76 10000 1.5 80 17:55 08.07.2020
296 Clouds 11 1020 76 10000 1.5 80 17:36 08.07.2020
297 Clouds 11 1020 76 10000 1.5 80 17:18 08.07.2020
298 Clouds 10 1020 81 10000 2.1 130 16:39 08.07.2020
299 Clouds 10 1020 81 10000 2.1 130 16:20 08.07.2020
300 Clouds 9 1020 81 10000 2.6 130 15:58 08.07.2020
301 Clouds 8 1020 81 10000 2.6 130 15:39 08.07.2020
302 Clouds 8 1020 81 10000 2.6 130 15:19 08.07.2020
303 Clouds 6 1020 87 10000 3.6 130 14:44 08.07.2020
304 Clouds 6 1020 87 10000 3.6 130 14:25 08.07.2020
305 Clouds 6 1020 81 10000 3.1 140 13:58 08.07.2020
306 Clouds 6 1020 81 10000 3.1 140 13:40 08.07.2020
307 Clouds 6 1020 81 10000 3.1 140 13:19 08.07.2020
308 Clouds 6 1020 81 10000 3.6 130 12:42 08.07.2020
309 Clouds 5 1020 81 10000 3.6 130 12:20 08.07.2020
310 Clouds 6 1020 81 10000 3.6 130 11:56 08.07.2020
311 Clouds 6 1020 81 10000 3.6 130 11:37 08.07.2020
312 Clouds 6 1020 81 10000 3.6 130 11:19 08.07.2020
313 Clouds 6 1021 81 10000 4.1 120 10:43 08.07.2020
314 Clouds 6 1021 81 10000 4.1 120 10:24 08.07.2020
315 Clouds 6 1022 75 10000 3.1 140 09:46 08.07.2020
316 Clouds 7 1022 75 10000 3.1 140 09:25 08.07.2020
317 Clouds 6 1023 75 10000 1.5 170 08:44 08.07.2020
318 Clouds 6 1023 75 10000 1.5 170 08:25 08.07.2020
319 Clouds 6 1023 75 10000 1 180 07:57 08.07.2020
320 Clouds 7 1023 75 10000 1 180 07:38 08.07.2020
321 Clouds 7 1023 75 10000 2.1 160 07:19 08.07.2020
322 Clouds 7 1023 75 10000 2.1 160 06:43 08.07.2020
323 Clouds 7 1023 75 10000 2.1 160 06:24 08.07.2020
324 Clouds 7 1023 75 10000 3.6 150 05:44 08.07.2020
325 Clouds 7 1023 75 10000 3.6 150 05:44 08.07.2020
326 Clouds 7 1023 75 10000 4.1 140 04:44 08.07.2020
327 Clouds 7 1023 75 10000 3.6 140 03:30 08.07.2020
328 Clouds 7 1023 70 10000 5.1 140 01:59 08.07.2020
329 Clouds 7 1023 70 10000 5.1 140 01:37 08.07.2020
330 Clouds 7 1023 70 10000 5.7 130 00:46 08.07.2020
331 Clouds 8 1023 70 10000 5.7 130 00:19 08.07.2020
332 Clouds 8 1023 66 10000 7.7 130 23:43 07.07.2020
333 Clouds 8 1023 66 10000 7.7 130 23:21 07.07.2020
334 Clouds 9 1022 66 10000 7.7 120 22:54 07.07.2020
335 Clouds 9 1022 66 10000 7.7 120 22:36 07.07.2020
336 Clouds 9 1022 66 10000 7.7 120 22:18 07.07.2020
337 Clouds 9 1022 66 10000 7.2 130 21:41 07.07.2020
338 Clouds 9 1022 66 10000 7.2 130 21:41 07.07.2020
339 Clouds 10 1022 66 10000 7.2 130 21:22 07.07.2020
340 Clouds 10 1023 61 10000 7.7 120 20:59 07.07.2020
341 Clouds 10 1023 61 10000 7.7 120 20:41 07.07.2020
342 Clouds 10 1023 61 10000 7.7 120 20:41 07.07.2020
343 Clouds 10 1023 61 10000 7.7 120 20:23 07.07.2020
344 Clouds 10 1023 66 10000 8.7 100 19:55 07.07.2020
345 Clouds 10 1023 66 10000 8.7 100 19:36 07.07.2020
346 Clouds 10 1024 66 10000 8.7 100 19:18 07.07.2020
347 Clouds 10 1024 66 10000 8.7 100 18:54 07.07.2020
348 Clouds 10 1024 66 10000 8.7 100 18:36 07.07.2020
349 Clouds 10 1024 66 10000 8.7 100 18:18 07.07.2020
350 Clouds 10 1024 66 10000 8.7 100 17:43 07.07.2020
351 Clouds 10 1024 66 10000 8.7 100 17:23 07.07.2020
352 Clouds 9 1024 76 10000 6.7 130 16:58 07.07.2020
353 Clouds 9 1024 76 10000 6.7 130 16:40 07.07.2020
354 Clouds 9 1024 76 10000 6.7 130 16:21 07.07.2020
355 Clouds 9 1024 76 10000 6.7 130 15:44 07.07.2020
356 Clouds 8 1024 76 10000 6.7 130 15:21 07.07.2020
357 Clouds 8 1024 81 10000 5.7 130 14:56 07.07.2020
358 Clouds 8 1024 81 10000 5.7 130 14:38 07.07.2020
359 Clouds 7 1024 81 10000 5.7 130 14:19 07.07.2020
360 Clouds 7 1024 81 10000 4.6 130 13:40 07.07.2020
361 Clouds 7 1024 81 10000 4.6 130 13:19 07.07.2020
362 Clouds 6 1024 87 10000 5.1 120 12:41 07.07.2020
363 Clouds 6 1024 87 10000 5.1 120 12:22 07.07.2020
364 Clouds 7 1024 87 10000 4.6 130 11:58 07.07.2020
365 Clouds 7 1024 87 10000 4.6 130 11:40 07.07.2020
366 Clouds 7 1024 87 10000 4.6 130 11:20 07.07.2020
367 Clouds 7 1024 93 10000 3.1 130 10:57 07.07.2020
368 Clouds 7 1024 93 10000 3.1 130 10:37 07.07.2020
369 Clouds 7 1024 87 10000 3.6 130 10:18 07.07.2020
370 Clouds 7 1024 87 10000 3.6 130 09:40 07.07.2020
371 Clouds 7 1025 81 10000 2.6 150 09:20 07.07.2020
372 Clouds 7 1025 81 10000 2.6 150 08:42 07.07.2020
373 Clouds 7 1025 81 10000 2.1 140 08:23 07.07.2020
374 Clouds 7 1025 81 10000 2.1 140 07:47 07.07.2020
375 Clouds 7 1025 81 10000 2.1 140 07:24 07.07.2020
376 Clouds 7 1026 87 10000 1 0 06:49 07.07.2020
377 Clouds 7 1026 87 10000 1 0 06:31 07.07.2020
378 Clouds 7 1026 75 10000 2.1 130 05:54 07.07.2020
379 Clouds 7 1026 75 10000 2.1 130 05:23 07.07.2020
380 Clouds 8 1025 70 10000 2.1 150 04:40 07.07.2020
381 Clouds 8 1025 70 10000 2.1 160 03:40 07.07.2020
382 Clouds 8 1025 70 10000 2.1 150 02:27 07.07.2020
383 Clear 9 1025 70 10000 2.1 150 01:23 07.07.2020
384 Clear 9 1024 66 10000 2.6 150 00:43 07.07.2020
385 Clear 9 1024 66 10000 2.6 150 00:24 07.07.2020
386 Clear 9 1024 70 10000 3.1 140 23:55 06.07.2020
387 Clear 10 1024 70 10000 3.1 140 23:37 06.07.2020
388 Clear 10 1024 70 10000 3.1 140 23:18 06.07.2020
389 Clear 11 1023 58 10000 2.6 140 22:41 06.07.2020
390 Clear 11 1023 58 10000 2.6 140 22:20 06.07.2020
391 Clear 11 1023 71 10000 2.1 70 21:57 06.07.2020
392 Clear 11 1023 71 10000 2.1 70 21:38 06.07.2020
393 Clear 11 1023 71 10000 2.1 70 21:19 06.07.2020
394 Clear 11 1023 66 10000 2.6 50 20:59 06.07.2020
395 Clear 11 1023 66 10000 2.6 50 20:37 06.07.2020
396 Clouds 11 1023 66 10000 2.6 50 20:19 06.07.2020
397 Clouds 11 1024 66 10000 1.5 110 19:56 06.07.2020
398 Clouds 11 1024 66 10000 1.5 110 19:37 06.07.2020
399 Clouds 11 1024 66 10000 1.5 110 19:19 06.07.2020
400 Clouds 11 1025 62 10000 1.5 120 18:41 06.07.2020
401 Clouds 11 1025 62 10000 1.5 120 18:23 06.07.2020
402 Clouds 10 1025 66 10000 2.6 140 17:59 06.07.2020
403 Clouds 10 1025 66 10000 2.6 140 17:41 06.07.2020
404 Clouds 10 1025 66 10000 2.6 140 17:41 06.07.2020
405 Clouds 10 1025 66 10000 2.6 140 17:20 06.07.2020
406 Clouds 9 1025 70 10000 2.6 170 16:44 06.07.2020
407 Clouds 8 1025 70 10000 2.6 170 16:25 06.07.2020
408 Clouds 8 1025 70 10000 2.6 180 15:59 06.07.2020
409 Clouds 7 1025 70 10000 2.6 180 15:41 06.07.2020
410 Clear 7 1025 70 10000 2.6 180 15:23 06.07.2020
411 Clear 7 1025 81 10000 2.1 200 14:55 06.07.2020
412 Clear 7 1025 81 10000 2.1 200 14:37 06.07.2020
413 Clear 6 1025 81 10000 2.1 200 14:18 06.07.2020
414 Clear 5 1024 81 10000 1.5 200 13:44 06.07.2020
415 Clear 5 1024 81 10000 1.5 200 13:26 06.07.2020
416 Clear 5 1024 75 10000 1.5 200 12:56 06.07.2020
417 Clear 5 1024 75 10000 1.5 200 12:38 06.07.2020
418 Clear 5 1024 75 10000 1.5 200 12:18 06.07.2020
419 Clear 5 1023 75 10000 1.5 180 11:42 06.07.2020
420 Clear 5 1023 75 10000 1.5 180 11:24 06.07.2020
421 Clear 6 1024 81 10000 1.5 200 10:59 06.07.2020
422 Clear 6 1024 81 10000 1.5 200 10:41 06.07.2020
423 Clear 6 1024 81 10000 1.5 200 10:21 06.07.2020
424 Clear 6 1023 81 10000 1.5 190 09:55 06.07.2020
425 Clear 6 1023 81 10000 1.5 190 09:37 06.07.2020
426 Clear 6 1023 81 10000 1.5 190 09:18 06.07.2020
427 Clear 6 1023 75 10000 2.1 180 08:40 06.07.2020
428 Clear 7 1023 75 10000 2.1 180 08:22 06.07.2020
429 Clear 7 1023 75 10000 1.5 190 07:50 06.07.2020
430 Clear 7 1023 75 10000 1.5 190 07:30 06.07.2020
431 Clear 7 1022 75 10000 1 0 06:55 06.07.2020
432 Clear 7 1022 75 10000 1 0 06:37 06.07.2020
433 Clear 8 1022 81 10000 1.5 220 05:53 06.07.2020
434 Clear 8 1022 81 10000 1.5 220 05:27 06.07.2020
435 Clear 8 1021 76 10000 1 0 03:58 06.07.2020
436 Clear 9 1021 76 10000 1.5 0 02:32 06.07.2020
437 Clear 9 1020 71 10000 2.1 200 01:54 06.07.2020
438 Clouds 10 1019 71 10000 2.1 190 00:49 06.07.2020
439 Clouds 10 1019 71 10000 2.1 190 00:24 06.07.2020
440 Clouds 10 1018 66 10000 2.1 180 23:56 05.07.2020
441 Clouds 10 1018 66 10000 2.1 180 23:38 05.07.2020
442 Clouds 11 1018 66 10000 2.1 180 23:19 05.07.2020
443 Clouds 11 1017 62 10000 2.1 200 22:42 05.07.2020
444 Clouds 12 1017 62 10000 2.1 200 22:21 05.07.2020
445 Clouds 12 1017 54 10000 2.6 230 21:59 05.07.2020
446 Clouds 13 1017 54 10000 2.6 230 21:40 05.07.2020
447 Clouds 12 1017 54 10000 2.6 230 21:19 05.07.2020
448 Clouds 13 1016 58 10000 2.1 0 20:58 05.07.2020
449 Clouds 13 1016 58 10000 2.1 0 20:58 05.07.2020
450 Clouds 13 1016 58 10000 2.1 0 20:40 05.07.2020
451 Clouds 13 1016 58 10000 2.1 0 20:21 05.07.2020
452 Clouds 13 1017 62 10000 1.5 190 19:55 05.07.2020
453 Clouds 13 1017 62 10000 1.5 190 19:37 05.07.2020
454 Clouds 13 1017 62 10000 1.5 190 19:19 05.07.2020
455 Clouds 13 1017 62 10000 2.6 180 18:42 05.07.2020
456 Clouds 12 1017 62 10000 2.6 180 18:22 05.07.2020
457 Clouds 12 1017 62 10000 2.6 180 18:22 05.07.2020
458 Clouds 12 1018 66 10000 2.6 200 17:56 05.07.2020
459 Clouds 12 1018 66 10000 2.6 200 17:56 05.07.2020
460 Clouds 12 1018 66 10000 2.6 200 17:38 05.07.2020
461 Clouds 11 1018 66 10000 2.6 200 17:19 05.07.2020
462 Clouds 11 1017 76 10000 2.1 180 16:44 05.07.2020
463 Clouds 11 1017 76 10000 2.1 180 16:25 05.07.2020
464 Clouds 10 1016 76 10000 1 0 15:56 05.07.2020
465 Clouds 10 1016 76 10000 1 0 15:37 05.07.2020
466 Clouds 9 1016 76 10000 1 0 15:18 05.07.2020
467 Clouds 9 1015 76 10000 2.6 150 14:41 05.07.2020
468 Clouds 9 1015 76 10000 2.6 150 14:22 05.07.2020
469 Clouds 9 1015 76 10000 2.1 130 13:42 05.07.2020
470 Clouds 9 1015 76 10000 2.1 130 13:24 05.07.2020
471 Clouds 9 1014 76 10000 4.6 120 12:56 05.07.2020
472 Clouds 9 1014 76 10000 4.6 120 12:38 05.07.2020
473 Clouds 9 1014 76 10000 4.6 120 12:19 05.07.2020
474 Clouds 9 1013 76 10000 4.1 150 11:40 05.07.2020
475 Clouds 9 1013 76 10000 4.1 150 11:21 05.07.2020
476 Clouds 9 1013 81 10000 3.1 170 10:59 05.07.2020
477 Clouds 9 1013 81 10000 3.1 170 10:40 05.07.2020
478 Clouds 9 1013 81 10000 3.1 170 10:19 05.07.2020
479 Rain 9 1013 87 9000 3.6 190 09:56 05.07.2020
480 Rain 10 1013 87 9000 3.6 190 09:37 05.07.2020
481 Rain 10 1013 87 9000 3.6 190 09:19 05.07.2020
482 Rain 10 1013 87 8000 2.6 180 08:46 05.07.2020
483 Rain 10 1013 87 8000 2.6 180 08:46 05.07.2020
484 Rain 10 1013 87 8000 2.6 180 08:27 05.07.2020
485 Rain 11 1013 81 9000 1.5 190 07:47 05.07.2020
486 Rain 11 1013 81 9000 1.5 190 07:29 05.07.2020
487 Rain 11 1013 71 10000 15.4 200 06:50 05.07.2020
488 Clouds 11 1012 71 10000 1 190 05:29 05.07.2020
489 Clouds 12 1011 76 10000 1.5 180 03:24 05.07.2020
490 Clouds 12 1010 71 10000 4.1 120 02:41 05.07.2020
491 Clouds 12 1010 76 10000 3.1 110 01:59 05.07.2020
492 Clouds 12 1010 76 10000 3.1 110 01:32 05.07.2020
493 Clouds 12 1010 76 10000 2.1 110 00:54 05.07.2020
494 Clouds 12 1010 76 10000 2.1 110 00:31 05.07.2020
495 Clouds 12 1009 81 10000 2.1 100 23:59 04.07.2020
496 Clouds 12 1009 81 10000 2.1 100 23:41 04.07.2020
497 Clouds 12 1009 81 10000 2.1 100 23:23 04.07.2020
498 Clouds 12 1009 81 10000 3.1 70 22:43 04.07.2020
499 Clouds 12 1009 81 10000 3.1 70 22:25 04.07.2020
500 Clouds 12 1010 84 0 0.89 90 21:59 04.07.2020
501 Clouds 12 1011 80 0 0.89 0 21:40 04.07.2020
502 Clouds 13 1010 77 0 0.45 135 21:22 04.07.2020
503 Clouds 12 1009 76 10000 2.1 70 20:43 04.07.2020
504 Clouds 13 1009 76 10000 2.1 70 20:22 04.07.2020
505 Clouds 14 1010 67 10000 3.1 20 20:00 04.07.2020
506 Clouds 14 1010 67 10000 3.1 20 19:41 04.07.2020
507 Clouds 14 1012 66 10000 3.6 360 19:21 04.07.2020
508 Clouds 14 1012 66 10000 3.6 360 19:21 04.07.2020
509 Clouds 13 1012 66 10000 3.6 360 18:46 04.07.2020
510 Clouds 14 1012 66 10000 3.1 340 18:24 04.07.2020
511 Clouds 13 1012 66 10000 3.1 340 17:56 04.07.2020
512 Clouds 12 1012 66 10000 3.1 340 17:38 04.07.2020
513 Clouds 12 1012 66 10000 3.1 340 17:19 04.07.2020
514 Clouds 11 1013 71 10000 4.1 320 16:56 04.07.2020
515 Clouds 11 1013 71 10000 4.1 320 16:36 04.07.2020
516 Clouds 11 1013 71 10000 4.1 320 16:18 04.07.2020
517 Clouds 11 1013 76 10000 3.1 320 15:41 04.07.2020
518 Clouds 10 1013 76 10000 3.1 320 15:23 04.07.2020
519 Clouds 10 1012 81 10000 1 270 14:58 04.07.2020
520 Clouds 10 1012 81 10000 1 270 14:37 04.07.2020
521 Clouds 10 1012 81 10000 1 270 14:18 04.07.2020
522 Clouds 10 1011 76 10000 4.1 320 13:42 04.07.2020
523 Clouds 10 1011 76 10000 4.1 320 13:20 04.07.2020
524 Clouds 10 1011 76 10000 4.6 320 12:56 04.07.2020
525 Clouds 10 1011 76 10000 4.6 320 12:38 04.07.2020
526 Clouds 10 1011 76 10000 4.6 320 12:19 04.07.2020
527 Clouds 10 1010 76 10000 5.1 320 11:44 04.07.2020
528 Clouds 10 1010 76 10000 5.1 320 11:23 04.07.2020
529 Clouds 11 1011 66 10000 5.7 320 10:56 04.07.2020
530 Clouds 11 1011 66 10000 5.7 320 10:37 04.07.2020
531 Clouds 11 1011 66 10000 5.7 320 10:18 04.07.2020
532 Clouds 11 1010 71 10000 7.2 320 09:41 04.07.2020
533 Clouds 11 1010 71 10000 7.2 320 09:21 04.07.2020
534 Clouds 11 1011 76 10000 7.2 330 08:57 04.07.2020
535 Clouds 11 1011 76 10000 7.2 330 08:39 04.07.2020
536 Clouds 11 1011 76 10000 7.2 330 08:19 04.07.2020
537 Clouds 11 1012 71 10000 7.7 320 07:39 04.07.2020
538 Clouds 12 1012 76 10000 6.7 330 06:59 04.07.2020
539 Clouds 12 1012 76 10000 6.7 330 06:37 04.07.2020
540 Clouds 12 1012 76 10000 6.7 330 06:18 04.07.2020
541 Clouds 12 1012 81 10000 6.2 330 05:24 04.07.2020
542 Clouds 12 1014 83 0 0.45 45 03:56 04.07.2020
543 Clouds 13 1012 71 10000 5.7 330 02:41 04.07.2020
544 Clouds 13 1012 71 10000 5.1 340 01:40 04.07.2020
545 Clouds 13 1011 71 10000 5.1 350 00:48 04.07.2020
546 Clouds 13 1011 71 10000 5.1 350 00:30 04.07.2020
547 Clouds 13 1012 62 10000 6.7 350 23:57 03.07.2020
548 Clouds 13 1012 62 10000 6.7 350 23:38 03.07.2020
549 Clouds 13 1012 62 10000 6.7 350 23:18 03.07.2020
550 Clouds 14 1012 67 10000 5.1 10 22:41 03.07.2020
551 Clouds 14 1012 67 10000 5.1 10 22:23 03.07.2020
552 Clouds 13 1012 76 10000 4.6 360 21:58 03.07.2020
553 Clouds 13 1012 76 10000 4.6 360 21:37 03.07.2020
554 Clouds 13 1012 76 10000 4.6 360 21:19 03.07.2020
555 Clouds 13 1012 76 10000 4.6 360 21:19 03.07.2020
556 Clouds 14 1013 67 10000 2.6 10 20:42 03.07.2020
557 Clouds 14 1013 67 10000 2.6 10 20:24 03.07.2020
558 Clouds 13 1029 62 0 0.89 318 19:42 03.07.2020
559 Clouds 13 1016 71 10000 4.1 340 19:22 03.07.2020
560 Clouds 13 1016 71 10000 4.1 340 18:59 03.07.2020
561 Clouds 13 1016 71 10000 4.1 340 18:41 03.07.2020
562 Clouds 12 1016 71 10000 4.1 340 18:22 03.07.2020
563 Clouds 12 1017 71 10000 3.6 340 17:46 03.07.2020
564 Clouds 11 1017 71 10000 3.6 340 17:23 03.07.2020
565 Clouds 11 1017 76 10000 4.6 310 16:59 03.07.2020
566 Clouds 11 1017 76 10000 4.6 310 16:39 03.07.2020
567 Clouds 11 1017 76 10000 4.6 310 16:39 03.07.2020
568 Clouds 11 1017 76 10000 4.6 310 16:20 03.07.2020
569 Clouds 9 1017 75 10000 5.1 320 15:42 03.07.2020
570 Clouds 9 1017 75 10000 5.1 320 15:22 03.07.2020
571 Clouds 9 1017 75 10000 5.1 320 15:22 03.07.2020
572 Clouds 8 1017 81 10000 4.1 320 14:55 03.07.2020
573 Clouds 8 1017 81 10000 4.1 320 14:36 03.07.2020
574 Clear 8 1017 81 10000 4.1 320 14:18 03.07.2020
575 Clear 8 1017 81 10000 4.6 320 13:41 03.07.2020
576 Clear 8 1017 81 10000 4.6 320 13:22 03.07.2020
577 Clear 8 1016 81 10000 5.7 310 12:44 03.07.2020
578 Clear 8 1016 81 10000 5.7 310 12:23 03.07.2020
579 Clear 7 1016 81 10000 4.1 320 11:56 03.07.2020
580 Clear 8 1016 81 10000 4.1 320 11:38 03.07.2020
581 Clear 8 1016 81 10000 4.1 320 11:19 03.07.2020
582 Clear 7 1017 81 10000 5.1 320 10:42 03.07.2020
583 Clear 8 1017 81 10000 5.1 320 10:21 03.07.2020
584 Clear 8 1017 75 10000 4.6 320 09:59 03.07.2020
585 Clear 8 1017 75 10000 4.6 320 09:39 03.07.2020
586 Clear 8 1017 75 10000 4.6 320 09:20 03.07.2020
587 Clear 8 1017 75 10000 4.1 320 08:56 03.07.2020
588 Clear 8 1017 75 10000 4.1 320 08:37 03.07.2020
589 Clear 8 1017 75 10000 4.1 320 08:18 03.07.2020
590 Clear 8 1018 81 10000 3.6 320 07:43 03.07.2020
591 Clear 8 1018 81 10000 3.6 320 07:21 03.07.2020
592 Clear 8 1018 81 10000 3.1 320 06:30 03.07.2020
593 Clear 8 1019 75 10000 3.6 320 05:34 03.07.2020
594 Clear 9 1019 81 10000 3.1 320 03:59 03.07.2020
595 Clear 9 1019 81 10000 4.1 320 02:52 03.07.2020
596 Clouds 9 1019 81 10000 4.1 320 02:30 03.07.2020
597 Clouds 10 1019 81 10000 3.6 320 01:30 03.07.2020
598 Clouds 10 1019 76 10000 3.1 320 00:58 03.07.2020
599 Clouds 10 1019 76 10000 3.1 320 00:40 03.07.2020
600 Clouds 10 1019 70 10000 2.6 320 23:53 02.07.2020
601 Clouds 10 1019 70 10000 2.6 320 23:53 02.07.2020
602 Clouds 10 1019 70 10000 2.6 320 23:21 02.07.2020
603 Clouds 11 1019 66 10000 2.6 290 22:59 02.07.2020
604 Clouds 11 1019 66 10000 2.6 290 22:41 02.07.2020
605 Clouds 11 1019 66 10000 2.6 290 22:21 02.07.2020
606 Clouds 11 1020 62 10000 2.6 290 21:57 02.07.2020
607 Clouds 11 1020 62 10000 2.6 290 21:39 02.07.2020
608 Clouds 11 1020 62 10000 2.6 290 21:19 02.07.2020
609 Clouds 11 1020 62 10000 2.1 290 20:57 02.07.2020
610 Clouds 11 1020 62 10000 2.1 290 20:39 02.07.2020
611 Clouds 11 1020 62 10000 2.1 290 20:39 02.07.2020
612 Clouds 11 1020 62 10000 2.1 290 20:18 02.07.2020
613 Clouds 11 1020 57 10000 2.6 290 19:42 02.07.2020
614 Clouds 10 1021 61 10000 2.6 290 19:23 02.07.2020
615 Clouds 11 1020 57 10000 2.6 290 19:23 02.07.2020
616 Clouds 11 1021 61 10000 2.6 290 18:58 02.07.2020
617 Clouds 10 1021 61 10000 2.6 290 18:40 02.07.2020
618 Clouds 10 1021 61 10000 2.6 290 18:21 02.07.2020
619 Clouds 10 1022 66 10000 4.1 280 17:54 02.07.2020
620 Clouds 9 1022 66 10000 4.1 280 17:36 02.07.2020
621 Clouds 9 1022 66 10000 4.1 280 17:36 02.07.2020
622 Clouds 9 1022 66 10000 4.1 280 17:18 02.07.2020
623 Clouds 8 1022 75 10000 2.6 260 16:40 02.07.2020
624 Clouds 8 1022 75 10000 2.6 260 16:20 02.07.2020
625 Clouds 8 1022 75 10000 2.1 270 15:55 02.07.2020
626 Clouds 8 1022 75 10000 2.1 270 15:36 02.07.2020
627 Clouds 7 1022 75 10000 2.1 270 15:18 02.07.2020
628 Clouds 7 1022 81 10000 1.5 260 14:43 02.07.2020
629 Clouds 7 1022 81 10000 1.5 260 14:21 02.07.2020
630 Clouds 7 1021 81 10000 1 0 13:56 02.07.2020
631 Clouds 7 1021 81 10000 1 0 13:37 02.07.2020
632 Clouds 7 1021 81 10000 1 0 13:18 02.07.2020
633 Clouds 7 1021 75 10000 2.1 260 12:41 02.07.2020
634 Clouds 7 1021 75 10000 2.1 260 12:22 02.07.2020
635 Clouds 6 1020 87 10000 1.5 280 11:46 02.07.2020
636 Clouds 6 1020 87 10000 1.5 280 11:27 02.07.2020
637 Clouds 6 1020 75 10000 1 0 10:59 02.07.2020
638 Clouds 6 1020 75 10000 1 0 10:41 02.07.2020
639 Clouds 6 1020 75 10000 1 0 10:23 02.07.2020
640 Clouds 5 1021 87 10000 1.5 240 09:44 02.07.2020
641 Clouds 5 1021 87 10000 1.5 240 09:22 02.07.2020
642 Clouds 5 1020 87 10000 1 0 08:58 02.07.2020
643 Clouds 5 1020 87 10000 1 0 08:40 02.07.2020
644 Clouds 4 1020 87 10000 1 0 08:19 02.07.2020
645 Clouds 6 1021 81 10000 1 240 07:42 02.07.2020
646 Clouds 6 1021 81 10000 1 240 07:21 02.07.2020
647 Clouds 6 1021 75 10000 1.5 250 06:45 02.07.2020
648 Clouds 7 1021 75 10000 1.5 250 06:26 02.07.2020
649 Clouds 7 1021 75 10000 1 0 05:48 02.07.2020
650 Clouds 7 1021 70 10000 1 0 04:50 02.07.2020
651 Clouds 8 1021 70 10000 1.5 230 03:34 02.07.2020
652 Clouds 8 1020 65 10000 1 0 01:50 02.07.2020
653 Clouds 8 1019 65 10000 1 0 00:28 02.07.2020
654 Clouds 8 1019 57 10000 2.6 180 23:57 01.07.2020
655 Clouds 8 1019 57 10000 2.6 180 23:39 01.07.2020
656 Clouds 8 1019 57 10000 2.6 180 23:39 01.07.2020
657 Clouds 8 1019 57 10000 2.6 180 23:21 01.07.2020
658 Clouds 9 1019 61 10000 2.1 180 22:55 01.07.2020
659 Clouds 9 1019 61 10000 2.1 180 22:37 01.07.2020
660 Clouds 9 1019 61 10000 2.1 180 22:18 01.07.2020
661 Clouds 9 1019 61 10000 2.1 180 21:55 01.07.2020
662 Clouds 9 1019 61 10000 2.1 180 21:55 01.07.2020
663 Clouds 9 1019 61 10000 2.1 180 21:37 01.07.2020
664 Clouds 9 1019 61 10000 2.1 180 21:19 01.07.2020
665 Clouds 9 1018 61 10000 3.1 210 20:45 01.07.2020
666 Clouds 9 1018 61 10000 3.1 210 20:26 01.07.2020
667 Clouds 9 1019 61 10000 2.6 220 19:57 01.07.2020
668 Clouds 8 1019 61 10000 2.6 220 19:39 01.07.2020
669 Clouds 8 1019 61 10000 2.6 220 19:20 01.07.2020
670 Clouds 8 1019 65 10000 3.1 170 18:54 01.07.2020
671 Clouds 8 1019 65 10000 3.1 170 18:36 01.07.2020
672 Clouds 8 1019 65 10000 3.1 170 18:18 01.07.2020
673 Clouds 8 1020 70 10000 2.6 0 17:41 01.07.2020
674 Clouds 8 1020 70 10000 2.6 0 17:19 01.07.2020
675 Clouds 7 1019 70 10000 5.1 160 16:48 01.07.2020
676 Clouds 7 1019 70 10000 5.1 160 16:29 01.07.2020
677 Clouds 7 1019 81 10000 2.6 0 15:58 01.07.2020
678 Clouds 7 1019 81 10000 2.6 0 15:39 01.07.2020
679 Clouds 7 1019 81 10000 2.6 0 15:21 01.07.2020
680 Clouds 6 1018 87 10000 3.1 190 14:45 01.07.2020
681 Clouds 6 1018 87 10000 3.1 190 14:22 01.07.2020
682 Clouds 6 1018 87 10000 2.6 210 13:59 01.07.2020
683 Clouds 6 1018 87 10000 2.6 210 13:39 01.07.2020
684 Clouds 6 1017 87 10000 3.6 210 13:20 01.07.2020
685 Clouds 6 1017 87 10000 3.6 210 12:58 01.07.2020
686 Clouds 6 1017 87 10000 3.6 210 12:39 01.07.2020
687 Clouds 6 1017 87 10000 3.6 210 12:20 01.07.2020
688 Clouds 6 1017 87 10000 3.6 210 11:44 01.07.2020
689 Clouds 6 1017 87 10000 3.6 210 11:44 01.07.2020
690 Clouds 6 1017 87 10000 3.6 210 11:44 01.07.2020
691 Clouds 6 1017 87 10000 3.6 210 11:44 01.07.2020
692 Clouds 7 1017 87 10000 3.6 210 11:24 01.07.2020
693 Rain 7 1016 87 10000 3.1 200 10:58 01.07.2020
694 Rain 7 1016 87 10000 3.1 200 10:40 01.07.2020
695 Rain 7 1016 87 10000 3.1 200 10:21 01.07.2020
696 Clouds 7 1015 81 10000 3.6 190 09:54 01.07.2020
697 Clouds 7 1015 81 10000 3.6 190 09:36 01.07.2020
698 Clouds 7 1015 81 10000 3.6 190 09:18 01.07.2020
699 Clouds 8 1015 81 10000 4.1 180 08:41 01.07.2020
700 Clouds 8 1015 81 10000 4.1 180 08:21 01.07.2020
701 Clouds 8 1015 81 10000 4.6 170 07:54 01.07.2020
702 Clouds 8 1015 81 10000 4.6 170 07:36 01.07.2020
703 Clouds 9 1015 81 10000 4.6 170 07:18 01.07.2020
704 Clouds 9 1015 87 10000 3.6 190 06:48 01.07.2020
705 Clouds 9 1015 87 10000 3.6 190 06:25 01.07.2020
706 Clouds 9 1013 81 10000 4.1 170 04:30 01.07.2020
707 Clouds 9 1011 81 10000 6.7 170 03:45 01.07.2020
708 Clouds 9 1011 81 10000 6.7 170 03:26 01.07.2020
709 Rain 9 1011 87 8000 5.1 180 02:35 01.07.2020
710 Rain 9 1011 93 3000 4.6 170 01:26 01.07.2020
711 Rain 10 1009 87 8000 4.6 170 00:40 01.07.2020
712 Rain 10 1009 87 8000 4.6 170 00:21 01.07.2020
713 Rain 10 1008 87 5000 4.6 160 23:40 30.06.2020
714 Rain 10 1008 87 5000 4.6 160 23:40 30.06.2020
715 Rain 10 1008 87 5000 4.6 160 23:20 30.06.2020
716 Drizzle 10 1007 87 8000 6.7 150 22:42 30.06.2020
717 Rain 10 1007 87 8000 6.7 150 22:19 30.06.2020
718 Rain 10 1005 93 6000 6.2 150 21:55 30.06.2020
719 Rain 11 1005 93 6000 6.2 150 21:37 30.06.2020
720 Rain 11 1005 93 6000 6.2 150 21:18 30.06.2020
721 Drizzle 11 1005 93 1800 5.1 170 20:42 30.06.2020
722 Rain 11 1005 93 4800 4.6 160 20:42 30.06.2020
723 Rain 11 1005 93 1800 5.7 170 20:21 30.06.2020
724 Rain 11 1004 93 1400 7.2 140 19:44 30.06.2020
725 Drizzle 11 1004 93 1400 7.2 140 19:21 30.06.2020
726 Rain 12 1005 100 1200 7.7 140 18:58 30.06.2020
727 Mist 12 1005 100 1200 7.7 140 18:40 30.06.2020
728 Rain 12 1005 100 1200 7.7 140 18:20 30.06.2020
729 Rain 12 1006 93 1200 2.1 160 17:39 30.06.2020
730 Rain 12 1006 93 1200 2.1 160 17:20 30.06.2020
731 Rain 13 1006 93 800 2.1 170 16:57 30.06.2020
732 Drizzle 13 1006 93 800 2.1 170 16:39 30.06.2020
733 Drizzle 13 1006 93 800 2.1 170 16:19 30.06.2020
734 Drizzle 12 1007 93 2800 1.5 180 15:54 30.06.2020
735 Rain 12 1007 100 1800 1.5 170 15:36 30.06.2020
736 Rain 12 1007 100 1800 1.5 170 15:18 30.06.2020
737 Rain 12 1008 100 1400 2.1 150 14:42 30.06.2020
738 Drizzle 12 1007 100 1600 2.1 150 14:21 30.06.2020
739 Drizzle 12 1007 93 1600 3.1 150 13:42 30.06.2020
740 Rain 12 1007 93 1600 3.1 150 13:21 30.06.2020
741 Rain 12 1007 93 2000 3.1 130 12:59 30.06.2020
742 Drizzle 12 1006 93 6000 2.1 150 12:41 30.06.2020
743 Drizzle 12 1006 93 6000 2.1 150 12:23 30.06.2020
744 Drizzle 12 1007 93 4500 2.1 150 11:59 30.06.2020
745 Rain 11 1008 100 3300 2.1 130 11:39 30.06.2020
746 Rain 11 1008 100 3300 2.1 130 11:20 30.06.2020
747 Rain 11 1008 100 3300 2.1 130 11:20 30.06.2020
748 Rain 11 1009 100 2500 2.1 100 10:59 30.06.2020
749 Clouds 11 1025 71 9000 2.6 100 16:44 28.06.2020
750 Clouds 11 1025 71 9000 2.6 100 16:26 28.06.2020
751 Mist 9 1025 76 5000 2.6 130 15:57 28.06.2020
752 Mist 9 1025 76 5000 2.6 130 15:38 28.06.2020
753 Mist 8 1025 76 5000 2.6 130 15:19 28.06.2020
754 Clouds 7 1024 70 6000 1.5 290 14:46 28.06.2020
755 Clouds 7 1024 70 6000 1.5 290 14:28 28.06.2020
756 Clouds 6 1024 75 8000 1 0 13:58 28.06.2020
757 Clouds 6 1024 75 8000 1 0 13:38 28.06.2020
758 Clouds 5 1024 75 8000 1 0 13:19 28.06.2020
759 Clouds 4 1024 70 8000 1 180 12:56 28.06.2020
760 Clouds 5 1024 70 8000 1 180 12:37 28.06.2020
761 Clouds 6 1024 70 8000 1 180 12:18 28.06.2020
762 Clouds 6 1023 70 8000 1 0 11:55 28.06.2020
763 Clouds 6 1023 70 8000 1 0 11:37 28.06.2020
764 Clouds 7 1023 70 8000 1 0 11:19 28.06.2020
765 Clouds 7 1023 61 10000 1.5 300 10:41 28.06.2020
766 Clouds 7 1023 61 10000 1.5 300 10:23 28.06.2020
767 Clouds 7 1023 61 10000 1.5 290 09:57 28.06.2020
768 Clouds 7 1023 61 10000 1.5 290 09:39 28.06.2020
769 Clouds 8 1023 61 10000 1.5 290 09:20 28.06.2020
770 Clouds 8 1023 65 10000 1.5 290 08:42 28.06.2020
771 Clear 8 1023 65 10000 1.5 290 08:22 28.06.2020
772 Clear 9 1023 65 10000 2.1 310 07:40 28.06.2020
773 Clear 9 1023 65 10000 2.1 310 07:20 28.06.2020
774 Clear 10 1023 66 10000 1 310 06:34 28.06.2020
775 Clear 10 1024 68 0 0.45 0 05:54 28.06.2020
776 Clear 10 1023 66 10000 2.1 320 05:24 28.06.2020
777 Clear 11 1023 61 10000 1.5 310 03:18 28.06.2020
778 Clouds 11 1023 71 10000 1.5 290 02:23 28.06.2020
779 Clouds 11 1022 62 10000 3.1 330 01:46 28.06.2020
780 Clouds 11 1022 62 10000 3.1 330 01:22 28.06.2020
781 Clouds 11 1022 56 10000 1.5 310 00:31 28.06.2020
782 Clouds 12 1022 37 10000 2.6 310 23:58 27.06.2020
783 Clouds 13 1022 37 10000 2.6 310 23:40 27.06.2020
784 Clouds 13 1022 37 10000 2.6 310 23:21 27.06.2020
785 Clouds 14 1022 41 10000 2.6 330 22:43 27.06.2020
786 Clouds 14 1022 41 10000 2.6 330 22:23 27.06.2020
787 Clouds 14 1022 58 10000 3.1 30 21:59 27.06.2020
788 Clouds 14 1022 58 10000 3.1 30 21:41 27.06.2020
789 Clear 14 1022 58 10000 3.1 30 21:20 27.06.2020
790 Clear 14 1023 62 10000 1.5 20 20:55 27.06.2020
791 Clear 14 1023 62 10000 1.5 20 20:37 27.06.2020
792 Clouds 14 1023 62 10000 1.5 20 20:18 27.06.2020
793 Clouds 14 1023 58 10000 3.1 20 19:37 27.06.2020
794 Clouds 14 1023 58 10000 3.1 20 19:19 27.06.2020
795 Clouds 13 1023 58 10000 3.1 20 19:19 27.06.2020
796 Clouds 13 1024 58 10000 2.1 20 18:48 27.06.2020
797 Clouds 13 1024 58 10000 2.1 20 18:29 27.06.2020
798 Clouds 14 1024 54 10000 2.1 50 17:59 27.06.2020
799 Clouds 14 1024 54 10000 2.1 50 17:40 27.06.2020
800 Clouds 13 1024 54 10000 2.1 50 17:20 27.06.2020
801 Clouds 13 1025 58 10000 2.1 70 16:57 27.06.2020
802 Clouds 13 1025 58 10000 2.1 70 16:38 27.06.2020
803 Clouds 12 1025 58 10000 2.1 70 16:19 27.06.2020
804 Clouds 11 1024 62 10000 1 80 15:42 27.06.2020
805 Clouds 10 1024 62 10000 1 80 15:24 27.06.2020
806 Clouds 9 1024 57 10000 2.36 106 14:56 27.06.2020
807 Clouds 9 1024 57 10000 2.36 106 14:37 27.06.2020
808 Clouds 9 1024 57 10000 2.82 126 14:19 27.06.2020
809 Clouds 8 1023 57 10000 1 210 13:39 27.06.2020
810 Clouds 8 1023 57 10000 1 210 13:20 27.06.2020
811 Clouds 8 1023 65 10000 2.23 126 12:58 27.06.2020
812 Clouds 8 1023 65 10000 2.23 126 12:40 27.06.2020
813 Clouds 8 1023 65 10000 2.09 130 12:21 27.06.2020
814 Clouds 8 1023 57 10000 2.09 130 11:55 27.06.2020
815 Clouds 8 1023 57 10000 2.09 130 11:37 27.06.2020
816 Clouds 8 1023 57 10000 2.33 132 11:18 27.06.2020
817 Clouds 8 1023 57 10000 2.33 132 11:18 27.06.2020
818 Clouds 8 1023 61 10000 2.33 132 10:39 27.06.2020
819 Clouds 8 1023 61 10000 2.14 142 10:19 27.06.2020
820 Clouds 8 1024 61 10000 1 230 09:41 27.06.2020
821 Clouds 8 1024 61 10000 1 230 09:22 27.06.2020
822 Clouds 8 1024 61 10000 1 200 08:58 27.06.2020
823 Clouds 8 1024 61 10000 1 200 08:39 27.06.2020
824 Clouds 8 1024 61 10000 1 200 08:21 27.06.2020
825 Clouds 8 1024 65 10000 2.28 146 07:42 27.06.2020
826 Clouds 8 1024 65 10000 2.28 146 07:42 27.06.2020
827 Clouds 8 1024 65 10000 1.76 164 07:24 27.06.2020
828 Clouds 8 1024 66 10000 1 300 06:38 27.06.2020
829 Clouds 9 1024 66 10000 1.5 310 06:20 27.06.2020
830 Clouds 9 1023 57 10000 1.21 205 04:23 27.06.2020
831 Clouds 9 1023 50 10000 1.21 205 03:52 27.06.2020
832 Clouds 10 1022 48 10000 1 190 02:49 27.06.2020
833 Clouds 10 1022 46 10000 1 190 02:30 27.06.2020
834 Clouds 11 1022 45 10000 1.29 236 01:42 27.06.2020
835 Clouds 11 1022 45 10000 1.24 251 00:56 27.06.2020
836 Clouds 11 1022 44 10000 1.58 241 00:28 27.06.2020
837 Clouds 12 1022 44 10000 1.58 241 23:41 26.06.2020
838 Clouds 12 1022 43 10000 2.03 227 23:22 26.06.2020
839 Clouds 12 1022 37 10000 1 0 22:56 26.06.2020
840 Clouds 13 1022 37 10000 1 0 22:37 26.06.2020
841 Clouds 13 1022 37 10000 1 0 22:19 26.06.2020
842 Clouds 14 1021 41 10000 1.5 0 21:57 26.06.2020
843 Clouds 14 1021 41 10000 1.5 0 21:37 26.06.2020
844 Clouds 14 1021 41 10000 1.5 0 21:18 26.06.2020
845 Clouds 14 1021 35 10000 1.5 210 20:42 26.06.2020
846 Clouds 14 1021 35 10000 1.5 210 20:19 26.06.2020
847 Clouds 14 1022 35 10000 2.6 220 19:42 26.06.2020
848 Clear 14 1022 35 10000 2.6 220 19:23 26.06.2020
849 Clear 13 1023 37 10000 2.6 250 18:54 26.06.2020
850 Clear 13 1023 37 10000 2.6 250 18:36 26.06.2020
851 Clear 13 1023 37 10000 2.6 250 18:18 26.06.2020
852 Clear 12 1024 43 10000 2.6 260 17:43 26.06.2020
853 Clear 12 1024 45 10000 2.6 260 17:23 26.06.2020
854 Clear 11 1024 45 10000 2.6 250 16:47 26.06.2020
855 Clear 10 1024 49 10000 2.6 250 16:25 26.06.2020
856 Clear 9 1023 49 10000 2.1 0 15:54 26.06.2020
857 Clear 8 1023 53 10000 2.1 0 15:36 26.06.2020
858 Clear 8 1023 53 10000 2.1 0 15:18 26.06.2020
859 Clear 7 1023 53 10000 2.1 270 14:40 26.06.2020
860 Clear 6 1023 55 10000 2.1 270 14:22 26.06.2020
861 Clear 6 1022 55 10000 2.1 260 13:57 26.06.2020
862 Clear 6 1022 55 10000 2.1 260 13:38 26.06.2020
863 Clear 6 1022 55 10000 2.1 260 13:18 26.06.2020
864 Clear 6 1022 55 10000 2.1 270 12:41 26.06.2020
865 Clear 6 1022 55 10000 2.1 270 12:41 26.06.2020
866 Clear 6 1022 55 10000 2.1 270 12:23 26.06.2020
867 Clear 6 1021 55 10000 2.1 270 11:58 26.06.2020
868 Clear 6 1021 55 10000 2.1 270 11:39 26.06.2020
869 Clear 6 1021 54 10000 2.1 270 11:21 26.06.2020
870 Clear 6 1021 54 10000 1.5 270 10:57 26.06.2020
871 Clear 6 1021 54 10000 1.5 270 10:38 26.06.2020
872 Clouds 6 1021 54 10000 1.5 270 10:18 26.06.2020
873 Clouds 7 1021 65 10000 2.1 270 09:44 26.06.2020
874 Clouds 7 1022 75 0 4.41 284 09:24 26.06.2020
875 Clouds 7 1021 70 10000 2.1 320 08:56 26.06.2020
876 Clouds 7 1021 70 10000 2.1 320 08:28 26.06.2020
877 Clouds 7 1020 61 10000 1 290 07:53 26.06.2020
878 Clouds 7 1020 61 10000 1 290 07:24 26.06.2020
879 Clouds 7 1020 50 10000 1.5 250 06:58 26.06.2020
880 Clouds 8 1020 50 10000 1.5 250 06:36 26.06.2020
881 Clouds 8 1020 49 10000 1.5 250 06:18 26.06.2020
882 Clouds 8 1020 49 10000 2.1 270 05:40 26.06.2020
883 Clear 8 1020 57 10000 2.1 270 03:30 26.06.2020
884 Clear 9 1020 53 10000 2.1 270 02:22 26.06.2020
885 Clear 9 1019 53 10000 2.1 250 01:19 26.06.2020
886 Clear 10 1020 50 10000 3.1 290 00:39 26.06.2020
887 Clear 10 1020 50 10000 3.1 250 00:18 26.06.2020
888 Clear 10 1020 50 10000 3.1 250 23:39 25.06.2020
889 Clear 11 1020 50 10000 3.1 250 23:18 25.06.2020
890 Clear 11 1019 49 10000 5.1 250 22:54 25.06.2020
891 Clear 11 1019 49 10000 5.1 250 22:54 25.06.2020
892 Clear 11 1019 49 10000 5.1 250 22:36 25.06.2020
893 Clear 11 1019 49 10000 5.1 250 22:18 25.06.2020
894 Clear 12 1020 55 0 1.79 180 21:54 25.06.2020
895 Clear 12 1018 49 10000 4.6 250 21:36 25.06.2020
896 Clear 12 1018 49 10000 4.6 250 21:18 25.06.2020
897 Clear 13 1018 49 10000 4.6 250 20:43 25.06.2020
898 Clear 13 1018 49 10000 4.6 250 20:23 25.06.2020
899 Clear 13 1018 49 10000 3.1 250 19:56 25.06.2020
900 Clear 13 1018 49 10000 3.1 250 19:37 25.06.2020
901 Clouds 12 1018 58 10000 3.6 250 19:18 25.06.2020
902 Clouds 12 1018 58 10000 3.6 250 18:40 25.06.2020
903 Clouds 11 1018 71 10000 4.1 220 18:22 25.06.2020
904 Clouds 11 1018 71 10000 4.1 220 17:55 25.06.2020
905 Clouds 11 1018 71 10000 4.1 220 17:37 25.06.2020
906 Clouds 10 1018 71 10000 4.1 220 17:19 25.06.2020
907 Clouds 11 1018 71 10000 4.1 220 17:19 25.06.2020
908 Clouds 10 1018 76 10000 3.6 230 16:41 25.06.2020
909 Clouds 9 1018 76 10000 3.6 230 16:20 25.06.2020
910 Clouds 9 1017 76 10000 4.1 220 15:45 25.06.2020
911 Clouds 9 1017 76 10000 4.1 220 15:27 25.06.2020
912 Clear 8 1016 75 10000 2.1 230 14:57 25.06.2020
913 Clear 7 1016 75 10000 2.1 230 14:39 25.06.2020
914 Clear 7 1016 75 10000 2.1 230 14:21 25.06.2020
915 Clear 7 1015 70 10000 2.1 230 13:55 25.06.2020
916 Clear 7 1015 70 10000 2.1 230 13:36 25.06.2020
917 Clear 7 1015 70 10000 2.1 230 13:18 25.06.2020
918 Clear 7 1014 70 10000 3.6 210 12:43 25.06.2020
919 Clear 7 1014 70 10000 3.6 210 12:20 25.06.2020
920 Clear 8 1013 70 10000 2.6 220 11:43 25.06.2020
921 Clear 8 1013 70 10000 2.6 220 11:25 25.06.2020
922 Clear 8 1013 66 10000 2.6 0 10:46 25.06.2020
923 Clear 8 1013 66 10000 2.6 0 10:27 25.06.2020
924 Clear 8 1012 66 10000 2.6 180 09:59 25.06.2020
925 Clear 9 1012 66 10000 2.6 180 09:40 25.06.2020
926 Clear 9 1012 66 10000 2.6 180 09:20 25.06.2020
927 Clear 9 1012 66 10000 3.1 190 08:45 25.06.2020
928 Clouds 10 1011 66 10000 3.1 190 08:19 25.06.2020
929 Clouds 10 1011 66 10000 3.1 190 07:45 25.06.2020
930 Clouds 10 1011 66 10000 3.1 190 07:26 25.06.2020
931 Clouds 11 1012 46 10000 3.1 190 06:48 25.06.2020
932 Clouds 11 1012 46 10000 3.1 190 06:26 25.06.2020
933 Clouds 11 1012 58 10000 3.1 180 05:51 25.06.2020
934 Clouds 12 1010 66 10000 3.1 180 03:56 25.06.2020
935 Clouds 12 1010 66 10000 3.1 180 03:26 25.06.2020
936 Clouds 13 1009 66 10000 4.6 170 02:41 25.06.2020
937 Clouds 13 1008 76 10000 3.6 170 01:46 25.06.2020
938 Rain 13 1007 76 7000 3.1 170 01:19 25.06.2020
939 Rain 13 1007 76 7000 3.1 170 01:19 25.06.2020
940 Clouds 13 1007 76 10000 3.1 170 00:40 25.06.2020
941 Clouds 14 1006 76 10000 4.1 170 00:18 25.06.2020
942 Clouds 14 1006 76 10000 4.1 170 23:42 24.06.2020
943 Clouds 14 1006 76 10000 4.1 170 23:23 24.06.2020
944 Clouds 14 1006 77 10000 3.1 170 22:57 24.06.2020
945 Clouds 14 1006 77 10000 3.1 170 22:37 24.06.2020
946 Clouds 14 1006 77 10000 3.1 170 22:37 24.06.2020
947 Clouds 14 1006 77 10000 3.1 170 22:18 24.06.2020
948 Clouds 14 1005 82 10000 3.1 170 21:55 24.06.2020
949 Clouds 14 1005 82 10000 3.1 170 21:36 24.06.2020
950 Clouds 14 1005 82 10000 3.1 170 21:18 24.06.2020
951 Clouds 14 1004 82 10000 4.1 160 20:55 24.06.2020
952 Clouds 14 1004 82 10000 4.1 160 20:37 24.06.2020
953 Clouds 14 1004 82 10000 4.1 160 20:37 24.06.2020
954 Clouds 14 1004 82 10000 4.1 160 20:18 24.06.2020
955 Drizzle 14 1005 93 8000 3.6 150 19:39 24.06.2020
956 Drizzle 13 1005 93 8000 3.6 150 19:21 24.06.2020
957 Drizzle 13 1006 87 2500 5.1 150 18:59 24.06.2020
958 Drizzle 13 1006 87 2500 5.1 150 18:41 24.06.2020
959 Drizzle 13 1006 87 2500 5.1 150 18:23 24.06.2020
960 Clouds 14 1006 76 10000 5.1 150 17:58 24.06.2020
961 Clouds 14 1006 76 10000 5.1 150 17:40 24.06.2020
962 Clouds 14 1006 76 10000 5.1 150 17:19 24.06.2020
963 Clouds 13 1006 82 10000 3.6 150 16:56 24.06.2020
964 Clouds 13 1006 82 10000 3.6 150 16:38 24.06.2020
965 Clouds 13 1006 82 10000 3.6 150 16:20 24.06.2020
966 Clouds 12 1006 81 10000 4.1 170 15:56 24.06.2020
967 Clouds 12 1006 81 10000 4.1 170 15:37 24.06.2020
968 Clouds 12 1006 81 10000 4.1 170 15:37 24.06.2020
969 Clouds 12 1005 81 10000 4.1 150 15:19 24.06.2020
970 Clouds 11 1005 81 10000 4.1 150 14:42 24.06.2020
971 Clouds 11 1005 81 10000 4.1 150 14:23 24.06.2020
972 Clouds 10 1005 87 10000 3.1 170 13:43 24.06.2020
973 Clouds 11 1005 87 10000 3.1 170 13:22 24.06.2020
974 Clouds 11 1005 87 10000 5.1 150 12:55 24.06.2020
975 Clouds 11 1005 87 10000 5.1 150 12:55 24.06.2020
976 Clouds 11 1005 87 10000 5.1 150 12:36 24.06.2020
977 Clouds 11 1004 81 10000 4.6 160 12:18 24.06.2020
978 Clouds 11 1004 81 10000 4.6 160 11:42 24.06.2020
979 Clouds 11 1004 81 10000 4.6 160 11:24 24.06.2020
980 Clouds 11 1005 87 10000 6.2 140 10:59 24.06.2020
981 Clouds 11 1005 87 10000 6.2 140 10:40 24.06.2020
982 Clouds 12 1005 87 10000 6.2 140 10:18 24.06.2020
983 Clouds 12 1005 82 10000 5.1 150 09:42 24.06.2020
984 Clouds 12 1005 82 10000 5.1 150 09:21 24.06.2020
985 Clouds 12 1006 82 10000 6.2 140 08:42 24.06.2020
986 Clouds 12 1006 82 10000 6.2 140 08:20 24.06.2020
987 Clouds 12 1007 76 10000 5.7 130 07:50 24.06.2020
988 Clouds 12 1007 76 10000 5.7 130 07:29 24.06.2020
989 Clouds 13 1007 76 10000 6.7 130 06:49 24.06.2020
990 Clouds 13 1007 76 10000 6.7 130 06:25 24.06.2020
991 Clouds 13 1007 82 10000 5.1 150 05:48 24.06.2020
992 Clouds 13 1008 82 10000 5.1 140 04:42 24.06.2020
993 Clouds 13 1007 76 10000 5.7 150 03:51 24.06.2020
994 Clouds 13 1007 76 10000 5.7 150 03:33 24.06.2020
995 Clouds 13 1008 82 10000 3.6 160 02:41 24.06.2020
996 Clouds 13 1007 82 10000 3.6 160 01:19 24.06.2020
997 Clouds 13 1007 82 10000 3.6 160 00:41 24.06.2020
998 Clouds 13 1007 82 10000 3.6 160 00:21 24.06.2020
999 Clouds 14 1006 87 10000 3.6 170 23:41 23.06.2020
1000 Clouds 14 1006 87 10000 3.6 170 23:19 23.06.2020
1001 Clouds 14 1006 87 8000 2.6 200 22:41 23.06.2020
1002 Clouds 14 1006 87 8000 2.6 200 22:19 23.06.2020
1003 Clouds 13 1005 87 8000 2.1 200 21:59 23.06.2020
1004 Clouds 14 1005 87 8000 2.1 200 21:38 23.06.2020
1005 Clouds 14 1005 87 8000 2.1 200 21:18 23.06.2020
1006 Clouds 14 1005 87 8000 1.5 180 20:55 23.06.2020
1007 Clouds 14 1005 87 8000 1.5 180 20:36 23.06.2020
1008 Clouds 14 1005 87 8000 1.5 180 20:36 23.06.2020
1009 Clouds 14 1005 93 8000 2.1 200 20:18 23.06.2020
1010 Clouds 13 1005 93 8000 2.1 200 19:42 23.06.2020
1011 Clouds 13 1006 93 8000 2.1 200 19:23 23.06.2020
1012 Clouds 13 1006 93 8000 2.1 200 18:39 23.06.2020
1013 Clouds 13 1006 93 8000 3.1 200 18:19 23.06.2020
1014 Clouds 13 1006 93 8000 3.1 200 17:44 23.06.2020
1015 Clouds 13 1006 93 8000 3.1 200 17:25 23.06.2020
1016 Clouds 13 1007 93 8000 2.1 200 16:57 23.06.2020
1017 Clouds 13 1007 93 8000 2.1 200 16:38 23.06.2020
1018 Clouds 13 1007 93 8000 2.1 200 16:20 23.06.2020
1019 Mist 13 1006 100 5000 1.5 200 15:57 23.06.2020
1020 Mist 13 1006 100 5000 1.5 200 15:57 23.06.2020
1021 Drizzle 13 1006 93 6000 1 200 15:39 23.06.2020
1022 Drizzle 13 1006 93 6000 1 200 15:18 23.06.2020
1023 Drizzle 13 1006 93 6000 1 200 14:43 23.06.2020
1024 Rain 13 1006 93 6000 1 200 14:20 23.06.2020
1025 Rain 13 1006 93 5000 1 320 13:58 23.06.2020
1026 Rain 13 1005 93 8000 3.58 164 13:39 23.06.2020
1027 Rain 13 1005 93 3000 1 340 13:20 23.06.2020
1028 Rain 13 1004 100 8000 1.5 140 12:45 23.06.2020
1029 Clouds 13 1004 100 8000 1.5 140 12:23 23.06.2020
1030 Drizzle 13 1004 100 1800 1.5 180 11:58 23.06.2020
1031 Drizzle 13 1004 100 1800 1.5 180 11:40 23.06.2020
1032 Drizzle 13 1004 100 1800 1.5 180 11:19 23.06.2020
1033 Rain 13 1004 93 3000 2.6 200 10:56 23.06.2020
1034 Rain 13 1004 93 3000 2.6 200 10:38 23.06.2020
1035 Rain 13 1004 93 3000 2.6 200 10:20 23.06.2020
1036 Rain 14 1004 100 2200 1 0 09:42 23.06.2020
1037 Rain 14 1004 100 2200 1 0 09:20 23.06.2020
1038 Drizzle 14 1005 100 1800 0.5 210 08:57 23.06.2020
1039 Rain 15 1005 100 1800 0.5 210 08:38 23.06.2020
1040 Rain 15 1005 100 1800 0.5 210 08:19 23.06.2020
1041 Rain 15 1005 93 5000 0.71 51 07:39 23.06.2020
1042 Rain 15 1005 93 10000 2.1 60 07:21 23.06.2020
1043 Clouds 15 1005 93 10000 2.1 60 06:48 23.06.2020
1044 Clouds 15 1005 93 10000 2.1 60 06:30 23.06.2020
1045 Drizzle 14 1006 93 8000 2.6 70 05:39 23.06.2020
1046 Clouds 14 1007 87 10000 4.6 100 03:29 23.06.2020
1047 Clouds 14 1008 93 10000 6.2 100 02:55 23.06.2020
1048 Clouds 14 1008 93 10000 6.2 100 02:36 23.06.2020
1049 Clouds 14 1009 93 10000 4.6 110 01:47 23.06.2020
1050 Clouds 14 1009 93 10000 4.6 110 01:29 23.06.2020
1051 Clouds 14 1009 93 10000 5.7 110 00:56 23.06.2020
1052 Clouds 14 1009 93 10000 5.7 110 00:24 23.06.2020
1053 Clouds 14 1010 87 10000 5.7 120 23:55 22.06.2020
1054 Clouds 14 1010 87 10000 5.7 120 23:55 22.06.2020
1055 Clouds 14 1010 87 10000 5.7 120 23:55 22.06.2020
1056 Clouds 14 1010 87 10000 5.7 120 23:37 22.06.2020
1057 Clouds 14 1010 87 10000 5.7 120 23:19 22.06.2020
1058 Clouds 14 1010 87 10000 7.2 130 22:55 22.06.2020
1059 Clouds 14 1010 87 10000 7.2 130 22:37 22.06.2020
1060 Clouds 14 1010 87 10000 7.2 130 22:18 22.06.2020
1061 Clouds 14 1011 87 10000 6.7 100 21:54 22.06.2020
1062 Clouds 14 1011 87 10000 6.7 100 21:36 22.06.2020
1063 Clouds 14 1011 87 10000 6.7 100 21:18 22.06.2020
1064 Clouds 14 1012 82 10000 6.7 100 20:41 22.06.2020
1065 Clouds 14 1012 82 10000 6.7 100 20:21 22.06.2020
1066 Clouds 14 1014 82 10000 4.1 100 19:44 22.06.2020
1067 Clouds 14 1014 82 10000 4.1 100 19:20 22.06.2020
1068 Clouds 13 1016 82 10000 3.6 50 18:58 22.06.2020
1069 Clouds 13 1016 82 10000 3.6 50 18:38 22.06.2020
1070 Clouds 13 1016 82 10000 3.6 50 18:20 22.06.2020
1071 Clouds 13 1016 82 10000 5.7 50 17:56 22.06.2020
1072 Clouds 14 1017 82 10000 5.7 50 17:37 22.06.2020
1073 Clouds 14 1017 82 10000 5.7 50 17:19 22.06.2020
1074 Clouds 14 1017 87 10000 7.7 60 16:43 22.06.2020
1075 Clouds 13 1017 87 10000 6.7 70 16:20 22.06.2020
1076 Clouds 13 1017 87 10000 6.7 70 15:59 22.06.2020
1077 Clouds 13 1017 87 10000 6.7 70 15:39 22.06.2020
1078 Clouds 13 1017 87 10000 6.7 70 15:21 22.06.2020
1079 Clouds 11 1018 87 10000 5.7 90 14:40 22.06.2020
1080 Clouds 11 1018 93 10000 3.1 130 14:21 22.06.2020
1081 Clouds 10 1018 93 10000 3.1 130 13:58 22.06.2020
1082 Clouds 10 1018 93 10000 3.1 130 13:39 22.06.2020
1083 Clouds 10 1018 93 10000 3.1 130 13:20 22.06.2020
1084 Clouds 10 1017 87 10000 5.1 140 12:44 22.06.2020
1085 Clouds 10 1017 87 10000 5.1 140 12:44 22.06.2020
1086 Clouds 10 1017 87 10000 5.1 140 12:23 22.06.2020
1087 Clouds 10 1018 87 10000 2.6 150 11:59 22.06.2020
1088 Clouds 10 1018 87 10000 2.6 150 11:37 22.06.2020
1089 Clouds 10 1018 87 10000 2.6 150 11:37 22.06.2020
1090 Clouds 9 1019 87 10000 3.1 130 11:18 22.06.2020
1091 Clouds 9 1019 87 10000 3.1 130 10:55 22.06.2020
1092 Clouds 9 1019 87 10000 3.1 130 10:36 22.06.2020
1093 Clouds 9 1020 76 10000 3.6 130 10:18 22.06.2020
1094 Clouds 9 1020 76 10000 3.6 130 09:42 22.06.2020
1095 Clouds 9 1020 76 10000 3.6 130 09:22 22.06.2020
1096 Clouds 10 1020 71 10000 3.1 140 08:59 22.06.2020
1097 Clouds 10 1020 71 10000 3.1 140 08:39 22.06.2020
1098 Clouds 10 1020 71 10000 3.1 140 08:39 22.06.2020
1099 Clouds 10 1020 71 10000 3.1 140 08:39 22.06.2020
1100 Clouds 10 1020 71 10000 3.1 140 08:39 22.06.2020
1101 Clouds 10 1020 76 10000 3.1 130 08:20 22.06.2020
1102 Clouds 10 1020 76 10000 3.1 130 07:52 22.06.2020
1103 Clouds 10 1020 76 10000 3.1 130 07:33 22.06.2020
1104 Clouds 10 1020 76 10000 2.6 120 06:45 22.06.2020
1105 Clouds 11 1020 76 10000 2.6 120 06:26 22.06.2020
1106 Clouds 11 1020 71 10000 2.6 160 05:58 22.06.2020
1107 Clouds 11 1019 66 10000 2.6 170 04:59 22.06.2020
1108 Clouds 13 1018 62 10000 1.5 190 02:54 22.06.2020
1109 Clouds 14 1018 58 10000 2.1 210 01:25 22.06.2020
1110 Clouds 14 1017 58 10000 2.1 230 00:41 22.06.2020
1111 Clouds 15 1016 55 10000 1.5 220 23:59 21.06.2020
1112 Clouds 15 1016 55 10000 1.5 220 23:39 21.06.2020
1113 Clouds 16 1015 52 10000 2.6 220 23:21 21.06.2020
1114 Clouds 17 1015 52 10000 2.6 220 22:57 21.06.2020
1115 Clouds 17 1015 52 10000 2.6 220 22:37 21.06.2020
1116 Clear 17 1015 52 10000 2.6 220 22:19 21.06.2020
1117 Clear 18 1015 59 10000 3.6 230 21:57 21.06.2020
1118 Clear 18 1015 59 10000 3.6 230 21:39 21.06.2020
1119 Clear 18 1015 59 10000 3.6 230 21:39 21.06.2020
1120 Clouds 18 1014 59 10000 3.6 220 21:21 21.06.2020
1121 Clouds 18 1014 59 10000 3.6 220 20:58 21.06.2020
1122 Clouds 18 1014 59 10000 3.6 220 20:38 21.06.2020
1123 Clouds 18 1014 59 10000 3.6 220 20:18 21.06.2020
1124 Clouds 18 1014 59 10000 3.6 220 20:18 21.06.2020
1125 Clouds 18 1014 63 10000 3.1 220 19:55 21.06.2020
1126 Clouds 18 1014 63 10000 3.1 220 19:37 21.06.2020
1127 Clouds 18 1014 63 10000 3.1 220 19:18 21.06.2020
1128 Clouds 17 1014 72 10000 3.1 210 18:40 21.06.2020
1129 Clouds 16 1014 72 10000 3.1 210 18:22 21.06.2020
1130 Clouds 16 1014 77 10000 3.6 220 17:59 21.06.2020
1131 Clouds 16 1014 77 10000 3.6 220 17:38 21.06.2020
1132 Clouds 15 1014 82 10000 2.6 210 17:19 21.06.2020
1133 Clouds 14 1014 82 10000 2.6 210 16:41 21.06.2020
1134 Clouds 14 1014 82 10000 2.6 210 16:23 21.06.2020
1135 Clouds 13 1013 87 9000 3.1 220 15:57 21.06.2020
1136 Clouds 13 1013 87 9000 3.1 220 15:37 21.06.2020
1137 Clouds 13 1012 87 10000 2.1 210 15:18 21.06.2020
1138 Clouds 12 1012 87 10000 2.1 210 14:39 21.06.2020
1139 Clouds 13 1010 93 10000 2.1 210 14:20 21.06.2020
1140 Clouds 13 1010 93 10000 2.1 210 13:56 21.06.2020
1141 Clouds 13 1010 93 10000 2.1 210 13:38 21.06.2020
1142 Clouds 13 1009 93 10000 1 0 13:19 21.06.2020
1143 Clouds 13 1009 93 10000 1 0 12:44 21.06.2020
1144 Clouds 13 1009 93 10000 1 0 12:25 21.06.2020
1145 Clouds 13 1009 93 10000 1 0 12:25 21.06.2020
1146 Clouds 13 1009 93 10000 1 0 12:25 21.06.2020
1147 Clouds 13 1008 93 10000 4.1 110 11:58 21.06.2020
1148 Clouds 13 1008 93 10000 4.1 110 11:39 21.06.2020
1149 Clouds 13 1008 93 10000 4.1 110 11:21 21.06.2020
1150 Clouds 13 1008 87 10000 5.7 110 10:55 21.06.2020
1151 Clouds 13 1008 87 10000 5.7 110 10:36 21.06.2020
1152 Clouds 13 1008 87 10000 7.2 120 10:18 21.06.2020
1153 Clouds 13 1008 87 10000 7.2 120 09:41 21.06.2020
1154 Clouds 13 1008 87 10000 7.2 120 09:19 21.06.2020
1155 Drizzle 12 1009 93 7000 8.7 120 08:56 21.06.2020
1156 Drizzle 12 1009 93 7000 8.7 120 08:37 21.06.2020
1157 Clouds 12 1008 87 10000 9.8 110 08:19 21.06.2020
1158 Clouds 12 1008 87 10000 9.8 110 07:41 21.06.2020
1159 Clouds 12 1009 87 10000 9.8 120 07:22 21.06.2020
1160 Clouds 12 1009 87 10000 9.8 120 06:48 21.06.2020
1161 Clouds 12 1009 93 10000 8.7 130 05:59 21.06.2020
1162 Clouds 12 1009 93 10000 8.7 130 05:30 21.06.2020
1163 Rain 13 1008 87 6000 5.1 140 03:21 21.06.2020
1164 Rain 13 1008 82 7000 5.7 160 02:59 21.06.2020
1165 Clouds 13 1009 82 10000 6.7 120 01:54 21.06.2020
1166 Clouds 13 1009 82 10000 6.7 120 01:21 21.06.2020
1167 Clouds 14 1009 82 10000 5.7 130 00:56 21.06.2020
1168 Clouds 14 1009 82 10000 5.7 130 00:38 21.06.2020
1169 Clouds 13 1009 82 10000 5.7 130 00:18 21.06.2020
1170 Clouds 13 1009 82 10000 6.7 120 23:43 20.06.2020
1171 Clouds 14 1009 82 10000 6.2 110 23:21 20.06.2020
1172 Clouds 14 1009 82 10000 6.2 110 22:55 20.06.2020
1173 Clouds 14 1009 82 10000 6.2 110 22:37 20.06.2020
1174 Clouds 14 1009 82 10000 6.2 110 22:18 20.06.2020
1175 Clouds 14 1009 82 10000 6.2 110 21:56 20.06.2020
1176 Clouds 14 1009 82 10000 6.2 110 21:37 20.06.2020
1177 Clouds 14 1011 82 10000 6.2 110 21:19 20.06.2020
1178 Clouds 14 1011 82 10000 6.2 110 20:55 20.06.2020
1179 Clouds 14 1011 82 10000 6.2 110 20:37 20.06.2020
1180 Clouds 14 1012 87 8000 6.7 110 20:19 20.06.2020
1181 Clouds 14 1012 87 8000 6.7 110 19:42 20.06.2020
1182 Clouds 14 1012 87 8000 6.7 110 19:22 20.06.2020
1183 Clouds 14 1013 87 8000 6.7 110 18:43 20.06.2020
1184 Clouds 14 1013 87 8000 6.7 110 18:21 20.06.2020
1185 Mist 13 1015 93 2500 4.6 110 18:00 20.06.2020
1186 Mist 13 1015 93 2500 4.6 110 17:41 20.06.2020
1187 Mist 13 1015 93 2500 4.6 110 17:21 20.06.2020
1188 Mist 13 1015 100 1500 5.1 110 16:58 20.06.2020
1189 Mist 12 1015 100 1500 5.1 110 16:38 20.06.2020
1190 Mist 12 1015 100 1500 3.1 110 16:18 20.06.2020
1191 Mist 11 1015 100 1500 3.1 110 15:42 20.06.2020
1192 Fog 11 1015 100 200 1.5 70 15:18 20.06.2020
1193 Fog 11 1015 100 200 1.5 70 14:55 20.06.2020
1194 Mist 11 1016 93 2000 1 200 14:36 20.06.2020
1195 Fog 10 1015 100 50 1 320 14:18 20.06.2020
1196 Fog 10 1015 100 50 1 320 13:41 20.06.2020
1197 Fog 10 1014 93 50 1 180 13:19 20.06.2020
1198 Fog 10 1014 93 50 1 180 12:43 20.06.2020
1199 Fog 10 1014 93 50 1 180 12:21 20.06.2020
1200 Fog 10 1014 100 50 1 180 11:58 20.06.2020
1201 Fog 10 1014 93 500 1 180 11:38 20.06.2020
1202 Fog 10 1014 100 500 2.1 210 11:20 20.06.2020
1203 Fog 10 1014 100 500 2.1 210 11:20 20.06.2020
1204 Fog 10 1014 100 500 2.1 210 10:50 20.06.2020
1205 Fog 11 1014 100 500 2.1 210 10:22 20.06.2020
1206 Fog 11 1014 93 2000 1 230 09:56 20.06.2020
1207 Fog 11 1014 93 2000 1 230 09:38 20.06.2020
1208 Fog 11 1014 93 2000 1 230 09:38 20.06.2020
1209 Mist 11 1013 93 2000 1 230 09:20 20.06.2020
1210 Fog 11 1013 100 3000 1.77 178 08:46 20.06.2020
1211 Fog 11 1013 100 3000 1.29 193 08:27 20.06.2020
1212 Mist 11 1014 93 5000 1 210 07:52 20.06.2020
1213 Mist 11 1014 93 5000 1 210 07:28 20.06.2020
1214 Fog 11 1013 100 4000 1 210 06:58 20.06.2020
1215 Fog 11 1013 100 4000 1 210 06:23 20.06.2020
1216 Fog 12 1014 93 4000 0.5 210 05:53 20.06.2020
1217 Fog 12 1014 93 6000 1 220 04:58 20.06.2020
1218 Clouds 13 1013 87 8000 2.1 150 02:50 20.06.2020
1219 Clouds 13 1011 87 10000 4.1 90 01:48 20.06.2020
1220 Clouds 13 1011 93 10000 3.6 110 00:57 20.06.2020
1221 Clouds 13 1011 93 10000 3.6 110 00:21 20.06.2020
1222 Clouds 14 1010 87 10000 3.6 90 23:56 19.06.2020
1223 Clouds 14 1010 87 10000 3.6 90 23:56 19.06.2020
1224 Clouds 14 1010 87 10000 3.6 90 23:37 19.06.2020
1225 Clouds 14 1010 82 10000 2.1 90 23:18 19.06.2020
1226 Clouds 15 1010 82 10000 2.1 90 22:41 19.06.2020
1227 Clouds 15 1010 82 10000 2.1 90 22:41 19.06.2020
1228 Clouds 15 1010 82 10000 2.1 90 22:22 19.06.2020
1229 Clouds 15 1009 77 10000 2.6 90 21:59 19.06.2020
1230 Clouds 15 1009 77 10000 2.6 90 21:38 19.06.2020
1231 Clouds 15 1009 77 10000 2.6 90 21:18 19.06.2020
1232 Clouds 15 1009 82 10000 3.1 110 20:58 19.06.2020
1233 Clouds 15 1009 82 10000 3.1 110 20:40 19.06.2020
1234 Clouds 15 1009 82 10000 3.1 110 20:21 19.06.2020
1235 Clouds 16 1010 82 10000 1 0 19:57 19.06.2020
1236 Clouds 16 1010 82 10000 1 0 19:38 19.06.2020
1237 Clouds 16 1011 87 9000 2.1 340 19:20 19.06.2020
1238 Clouds 15 1011 87 9000 2.1 340 18:41 19.06.2020
1239 Clouds 15 1011 93 8000 3.6 340 18:21 19.06.2020
1240 Clouds 15 1011 93 8000 3.6 340 17:58 19.06.2020
1241 Clouds 14 1011 93 8000 3.6 340 17:38 19.06.2020
1242 Clouds 13 1011 93 8000 3.6 340 17:20 19.06.2020
1243 Clouds 14 1011 100 9000 2.6 360 16:54 19.06.2020
1244 Clouds 13 1011 100 9000 2.6 360 16:36 19.06.2020
1245 Clouds 12 1011 100 6000 4.6 360 16:18 19.06.2020
1246 Mist 12 1012 93 2500 4.1 330 15:42 19.06.2020
1247 Mist 12 1012 93 2500 4.1 330 15:20 19.06.2020
1248 Mist 12 1012 100 1500 4.6 340 14:56 19.06.2020
1249 Fog 12 1011 100 500 3.1 360 14:38 19.06.2020
1250 Fog 11 1011 100 300 3.1 350 14:18 19.06.2020
1251 Fog 11 1011 100 500 4.1 340 13:43 19.06.2020
1252 Fog 12 1011 100 500 4.1 340 13:25 19.06.2020
1253 Clouds 12 1011 99 0 0.89 45 12:48 19.06.2020
1254 Mist 12 1010 100 4000 3.1 350 12:23 19.06.2020
1255 Clouds 12 1010 87 8000 2.1 340 11:58 19.06.2020
1256 Clouds 12 1011 99 0 3 8 11:38 19.06.2020
1257 Clouds 12 1010 93 10000 2.1 320 11:18 19.06.2020
1258 Clouds 12 1010 93 10000 2.1 320 10:45 19.06.2020
1259 Clouds 11 1010 93 10000 2.1 320 10:26 19.06.2020
1260 Clouds 11 1011 93 10000 1 320 09:58 19.06.2020
1261 Clouds 11 1011 93 10000 1 320 09:40 19.06.2020
1262 Clouds 12 1011 87 10000 1 320 09:20 19.06.2020
1263 Clouds 12 1011 87 10000 1 320 08:43 19.06.2020
1264 Clouds 12 1011 87 10000 1 320 08:24 19.06.2020
1265 Clouds 12 1010 81 10000 2.96 354 07:56 19.06.2020
1266 Clouds 12 1010 81 10000 2.96 354 07:37 19.06.2020
1267 Clouds 13 1011 82 10000 3.1 320 07:18 19.06.2020
1268 Clouds 13 1011 82 10000 3.1 320 06:23 19.06.2020
1269 Clouds 14 1011 71 10000 2.1 360 05:43 19.06.2020
1270 Clouds 14 1011 67 10000 1.5 260 04:23 19.06.2020
1271 Clouds 15 1011 67 10000 3.1 290 02:51 19.06.2020
1272 Clouds 16 1010 67 10000 1 290 00:49 19.06.2020
1273 Clouds 16 1010 67 10000 1 290 00:22 19.06.2020
1274 Clouds 17 1012 77 0 3.06 271 23:59 18.06.2020
1275 Clouds 17 1011 77 0 3.06 271 23:41 18.06.2020
1276 Clouds 17 1009 59 10000 4.1 270 23:23 18.06.2020
1277 Clouds 18 1009 59 10000 4.1 270 22:58 18.06.2020
1278 Clouds 18 1009 59 10000 4.1 270 22:36 18.06.2020
1279 Clouds 18 1008 55 10000 2.6 250 22:18 18.06.2020
1280 Clouds 19 1008 55 10000 2.6 250 21:38 18.06.2020
1281 Clouds 18 1008 63 10000 3.1 250 21:19 18.06.2020
1282 Clouds 18 1008 63 10000 3.1 250 20:44 18.06.2020
1283 Clouds 19 1008 63 10000 3.1 250 20:23 18.06.2020
1284 Clouds 18 1008 63 10000 3.6 250 19:59 18.06.2020
1285 Clouds 18 1008 63 10000 3.6 250 19:41 18.06.2020
1286 Clouds 17 1007 72 10000 4.6 250 19:20 18.06.2020
1287 Clouds 18 1007 72 10000 4.6 250 18:56 18.06.2020
1288 Clouds 17 1007 72 10000 4.6 250 18:36 18.06.2020
1289 Clouds 16 1007 72 10000 5.1 230 18:18 18.06.2020
1290 Clouds 16 1007 72 10000 5.1 230 17:43 18.06.2020
1291 Clouds 16 1007 72 10000 5.1 230 17:24 18.06.2020
1292 Rain 15 1007 77 10000 5.1 240 16:44 18.06.2020
1293 Rain 15 1007 77 10000 5.1 240 16:25 18.06.2020
1294 Rain 14 1006 87 10000 4.6 250 15:59 18.06.2020
1295 Clouds 14 1006 87 10000 4.6 250 15:40 18.06.2020
1296 Clouds 14 1006 87 10000 4.6 250 15:20 18.06.2020
1297 Clouds 13 1005 87 10000 5.1 260 14:57 18.06.2020
1298 Clouds 13 1005 87 10000 5.1 260 14:39 18.06.2020
1299 Drizzle 13 1005 93 8000 5.7 250 14:20 18.06.2020
1300 Drizzle 13 1005 93 8000 5.7 250 13:48 18.06.2020
1301 Drizzle 12 1005 93 8000 5.7 250 13:29 18.06.2020
1302 Drizzle 12 1004 93 4000 5.1 260 12:58 18.06.2020
1303 Drizzle 12 1003 93 8000 4.1 240 12:40 18.06.2020
1304 Drizzle 12 1000 100 4000 4.1 220 12:20 18.06.2020
1305 Drizzle 12 1000 100 4000 4.1 220 11:57 18.06.2020
1306 Drizzle 13 1000 100 4000 4.1 220 11:38 18.06.2020
1307 Drizzle 13 1000 100 4000 4.1 220 11:19 18.06.2020
1308 Rain 14 1002 93 5000 3.6 260 10:40 18.06.2020
1309 Rain 15 1002 93 5000 3.6 260 10:19 18.06.2020
1310 Clouds 16 1000 93 10000 2.1 310 09:46 18.06.2020
1311 Clouds 16 1000 93 10000 2.1 310 09:27 18.06.2020
1312 Rain 16 1001 93 3000 3.6 320 08:58 18.06.2020
1313 Rain 16 1001 93 3000 3.6 320 08:38 18.06.2020
1314 Rain 16 1001 93 3000 3.6 320 08:19 18.06.2020
1315 Rain 16 1001 93 7000 2.6 320 07:45 18.06.2020
1316 Rain 17 1002 93 4500 3.1 240 07:25 18.06.2020
1317 Rain 17 1002 93 4500 3.1 240 06:42 18.06.2020
1318 Thunderstorm 20 1001 82 10000 2.1 260 05:31 18.06.2020
1319 Rain 20 1002 88 8000 2.1 330 04:20 18.06.2020
1320 Clouds 21 1003 73 10000 3.6 330 01:49 18.06.2020
1321 Clouds 21 1003 73 10000 3.6 330 01:27 18.06.2020
1322 Rain 21 1002 77 10000 3.1 330 00:52 18.06.2020
1323 Clouds 22 1002 77 10000 3.1 330 00:31 18.06.2020
1324 Clouds 22 1002 82 10000 2.6 330 23:56 17.06.2020
1325 Clouds 21 1002 82 10000 2.6 330 23:37 17.06.2020
1326 Clouds 22 1002 77 10000 2.6 330 23:19 17.06.2020
1327 Clouds 22 1002 77 10000 2.6 330 22:55 17.06.2020
1328 Clouds 22 1002 77 10000 2.6 330 22:37 17.06.2020
1329 Clouds 22 1002 77 10000 2.6 330 22:19 17.06.2020
1330 Clouds 23 1001 68 10000 5.7 360 21:40 17.06.2020
1331 Clouds 22 1002 73 10000 4.1 350 21:21 17.06.2020
1332 Clouds 23 1002 73 10000 4.1 350 20:56 17.06.2020
1333 Clouds 23 1002 73 10000 4.1 350 20:37 17.06.2020
1334 Clouds 23 1002 73 10000 4.1 350 20:19 17.06.2020
1335 Clouds 23 1004 73 10000 5.1 350 19:43 17.06.2020
1336 Clouds 22 1004 73 10000 5.1 350 19:22 17.06.2020
1337 Clouds 22 1005 73 10000 5.1 350 18:56 17.06.2020
1338 Clouds 22 1005 73 10000 5.1 350 18:37 17.06.2020
1339 Clouds 20 1007 77 10000 4.1 350 18:19 17.06.2020
1340 Clouds 21 1007 77 10000 4.1 350 17:42 17.06.2020
1341 Rain 21 1007 77 10000 4.1 350 17:21 17.06.2020
1342 Rain 20 1008 82 10000 3.1 360 16:56 17.06.2020
1343 Rain 20 1008 82 10000 3.1 360 16:38 17.06.2020
1344 Clouds 20 1008 82 10000 3.1 360 16:19 17.06.2020
1345 Clouds 19 1008 88 10000 3.1 350 15:40 17.06.2020
1346 Clouds 19 1008 88 10000 3.1 350 15:21 17.06.2020
1347 Clouds 18 1008 93 10000 1.5 360 14:59 17.06.2020
1348 Clouds 19 1008 93 10000 1.5 360 14:40 17.06.2020
1349 Clouds 18 1008 93 10000 1.5 360 14:20 17.06.2020
1350 Clouds 18 1009 93 10000 2.1 340 13:58 17.06.2020
1351 Clouds 18 1009 93 10000 2.1 340 13:40 17.06.2020
1352 Clouds 18 1009 93 10000 2.1 340 13:21 17.06.2020
1353 Clouds 18 1009 93 10000 3.6 330 12:55 17.06.2020
1354 Clouds 18 1009 93 10000 3.6 330 12:36 17.06.2020
1355 Clouds 18 1009 93 10000 2.6 330 12:18 17.06.2020
1356 Clouds 18 1009 93 10000 2.6 330 11:44 17.06.2020
1357 Clouds 18 1010 93 10000 1.5 330 11:24 17.06.2020
1358 Clouds 18 1010 93 10000 1.5 330 10:39 17.06.2020
1359 Clouds 18 1011 93 10000 2.1 70 10:20 17.06.2020
1360 Clouds 17 1011 93 10000 2.1 70 09:59 17.06.2020
1361 Clouds 17 1011 93 10000 2.1 70 09:41 17.06.2020
1362 Clouds 18 1011 93 10000 2.1 70 09:21 17.06.2020
1363 Clouds 18 1012 93 10000 1 50 08:55 17.06.2020
1364 Clouds 18 1012 93 10000 1 50 08:36 17.06.2020
1365 Clouds 18 1012 88 10000 2.1 60 08:18 17.06.2020
1366 Clouds 18 1012 88 10000 2.1 60 07:42 17.06.2020
1367 Clouds 17 1013 93 10000 1 80 07:21 17.06.2020
1368 Clouds 17 1013 93 10000 1 80 06:55 17.06.2020
1369 Clouds 18 1013 93 10000 1 80 06:37 17.06.2020
1370 Clouds 18 1013 93 10000 1 80 06:19 17.06.2020
1371 Clouds 18 1012 93 10000 2.1 90 04:56 17.06.2020
1372 Clouds 19 1012 82 10000 3.6 100 02:55 17.06.2020
1373 Clear 19 1013 82 10000 3.6 100 01:29 17.06.2020
1374 Clear 19 1012 82 10000 4.1 110 00:38 17.06.2020
1375 Clear 19 1012 82 10000 4.6 120 00:20 17.06.2020
1376 Clear 19 1012 82 10000 4.6 120 23:56 16.06.2020
1377 Clear 19 1012 82 10000 4.6 120 23:37 16.06.2020
1378 Clear 19 1012 82 10000 4.6 120 23:19 16.06.2020
1379 Clear 20 1012 72 10000 4.6 110 22:54 16.06.2020
1380 Clear 20 1012 72 10000 4.6 110 22:36 16.06.2020
1381 Clear 20 1012 77 10000 3.6 110 22:18 16.06.2020
1382 Clear 21 1012 77 10000 3.6 110 21:44 16.06.2020
1383 Clear 20 1012 77 10000 3.6 110 21:23 16.06.2020
1384 Clouds 21 1013 72 10000 2.6 100 20:57 16.06.2020
1385 Clouds 20 1013 72 10000 2.6 100 20:39 16.06.2020
1386 Clouds 20 1014 77 10000 3.1 90 20:18 16.06.2020
1387 Clouds 20 1014 77 10000 3.1 90 19:56 16.06.2020
1388 Clouds 20 1014 77 10000 3.1 90 19:38 16.06.2020
1389 Clouds 20 1015 82 10000 2.6 70 19:18 16.06.2020
1390 Clouds 19 1015 82 10000 2.6 70 18:44 16.06.2020
1391 Clouds 20 1015 82 10000 2.6 70 18:21 16.06.2020
1392 Clouds 19 1016 82 10000 2.6 90 17:58 16.06.2020
1393 Clouds 18 1016 82 10000 2.6 90 17:39 16.06.2020
1394 Clouds 18 1017 87 10000 2.6 70 17:21 16.06.2020
1395 Clouds 17 1017 87 10000 2.6 70 16:58 16.06.2020
1396 Clouds 17 1017 87 10000 2.6 70 16:39 16.06.2020
1397 Clouds 16 1017 93 10000 2.6 80 16:19 16.06.2020
1398 Clouds 16 1017 93 10000 2.6 80 16:19 16.06.2020
1399 Clouds 16 1017 93 10000 2.6 80 15:57 16.06.2020
1400 Clouds 16 1017 93 10000 2.6 80 15:57 16.06.2020
1401 Clouds 16 1017 93 10000 2.6 80 15:57 16.06.2020
1402 Clouds 16 1017 93 10000 2.6 80 15:38 16.06.2020
1403 Clouds 15 1017 93 10000 2.6 80 15:20 16.06.2020
1404 Clouds 15 1017 93 10000 2.6 80 14:55 16.06.2020
1405 Clouds 15 1017 93 10000 2.6 80 14:36 16.06.2020
1406 Clouds 15 1016 93 10000 3.1 80 14:18 16.06.2020
1407 Clouds 14 1016 93 10000 3.1 80 13:44 16.06.2020
1408 Clouds 14 1016 93 10000 3.1 80 13:24 16.06.2020
1409 Clouds 14 1016 93 10000 2.6 80 12:42 16.06.2020
1410 Clouds 14 1016 93 10000 2.6 80 12:22 16.06.2020
1411 Clouds 14 1016 87 10000 1.5 40 11:57 16.06.2020
1412 Clouds 14 1016 87 10000 1.5 40 11:39 16.06.2020
1413 Clouds 15 1016 87 10000 1.5 40 11:20 16.06.2020
1414 Clouds 15 1016 87 10000 1.5 50 10:56 16.06.2020
1415 Clouds 15 1016 87 10000 1.5 50 10:37 16.06.2020
1416 Clouds 15 1016 87 10000 1.5 50 10:18 16.06.2020
1417 Clouds 15 1017 87 10000 3.1 360 09:43 16.06.2020
1418 Clouds 15 1017 87 10000 3.1 360 09:22 16.06.2020
1419 Clouds 15 1017 87 10000 3.6 360 08:48 16.06.2020
1420 Clouds 15 1017 87 10000 3.6 360 08:30 16.06.2020
1421 Clouds 14 1017 93 10000 1.5 50 07:51 16.06.2020
1422 Clouds 14 1017 93 10000 1.5 50 07:29 16.06.2020
1423 Clouds 14 1017 87 10000 2.6 70 06:56 16.06.2020
1424 Clouds 14 1017 87 10000 2.6 70 06:29 16.06.2020
1425 Clouds 14 1018 82 10000 2.6 80 05:47 16.06.2020
1426 Rain 14 1018 82 10000 3.6 60 04:42 16.06.2020
1427 Clouds 14 1018 82 10000 2.6 40 03:48 16.06.2020
1428 Clouds 14 1018 82 10000 2.6 40 02:19 16.06.2020
1429 Clouds 14 1018 76 10000 3.6 60 01:31 16.06.2020
1430 Clouds 13 1018 76 10000 2.6 80 00:52 16.06.2020
1431 Clouds 14 1018 76 10000 2.6 80 00:22 16.06.2020
1432 Clouds 14 1018 71 10000 3.6 100 23:43 15.06.2020
1433 Clouds 14 1018 71 10000 3.6 100 23:23 15.06.2020
1434 Clouds 14 1018 76 10000 4.6 100 22:56 15.06.2020
1435 Clouds 14 1018 76 10000 4.6 100 22:38 15.06.2020
1436 Clouds 14 1019 71 10000 6.7 100 22:19 15.06.2020
1437 Clouds 14 1019 71 10000 6.7 100 21:56 15.06.2020
1438 Clouds 13 1019 71 10000 6.7 100 21:37 15.06.2020
1439 Clouds 13 1019 71 10000 6.7 100 21:19 15.06.2020
1440 Clouds 13 1019 71 10000 6.7 100 21:19 15.06.2020
1441 Clouds 13 1019 71 10000 6.7 100 20:55 15.06.2020
1442 Clouds 13 1019 71 10000 6.7 100 20:37 15.06.2020
1443 Clouds 13 1021 62 10000 6.2 110 20:18 15.06.2020
1444 Clouds 13 1021 62 10000 6.2 110 19:54 15.06.2020
1445 Clouds 12 1021 62 10000 6.2 110 19:36 15.06.2020
1446 Clouds 13 1022 58 10000 5.1 90 19:18 15.06.2020
1447 Clouds 12 1022 58 10000 5.1 90 18:43 15.06.2020
1448 Clouds 12 1022 58 10000 5.1 90 18:22 15.06.2020
1449 Clouds 12 1023 54 10000 4.6 90 17:59 15.06.2020
1450 Clouds 12 1023 54 10000 4.6 90 17:40 15.06.2020
1451 Clouds 12 1023 54 10000 4.6 90 17:20 15.06.2020
1452 Clouds 11 1024 62 10000 4.6 70 16:57 15.06.2020
1453 Clouds 11 1024 62 10000 4.6 70 16:39 15.06.2020
1454 Clouds 11 1024 66 10000 4.6 60 16:18 15.06.2020
1455 Clouds 10 1024 66 10000 4.6 60 15:41 15.06.2020
1456 Clouds 11 1024 66 10000 4.6 60 15:21 15.06.2020
1457 Clouds 11 1024 57 10000 4.6 50 14:58 15.06.2020
1458 Clouds 10 1024 57 10000 4.6 50 14:40 15.06.2020
1459 Clouds 10 1024 53 10000 5.1 50 14:19 15.06.2020
1460 Clouds 10 1024 53 10000 5.1 50 13:56 15.06.2020
1461 Clouds 10 1024 53 10000 5.1 50 13:38 15.06.2020
1462 Clouds 10 1024 57 10000 4.1 40 13:18 15.06.2020
1463 Clouds 10 1024 57 10000 4.1 40 12:42 15.06.2020
1464 Clouds 10 1024 57 10000 4.1 40 12:22 15.06.2020
1465 Clouds 10 1024 61 10000 4.6 50 12:22 15.06.2020
1466 Clouds 10 1024 61 10000 4.6 50 11:47 15.06.2020
1467 Clouds 10 1024 61 10000 4.6 50 11:27 15.06.2020
1468 Clouds 10 1024 62 10000 3.6 40 10:59 15.06.2020
1469 Clouds 10 1024 62 10000 3.6 40 10:41 15.06.2020
1470 Clouds 10 1025 57 10000 4.6 40 10:20 15.06.2020
1471 Clouds 10 1025 57 10000 4.6 40 09:43 15.06.2020
1472 Clouds 10 1025 57 10000 4.6 40 09:23 15.06.2020
1473 Clouds 10 1025 62 10000 5.1 40 08:46 15.06.2020
1474 Clouds 10 1025 62 10000 5.1 40 08:26 15.06.2020
1475 Clouds 10 1026 57 10000 5.1 40 07:53 15.06.2020
1476 Clouds 10 1026 57 10000 5.1 40 07:34 15.06.2020
1477 Clear 10 1026 57 10000 4.6 40 06:58 15.06.2020
1478 Clear 10 1026 57 10000 4.6 40 06:27 15.06.2020
1479 Clear 10 1026 57 10000 4.1 40 05:50 15.06.2020
1480 Clear 11 1026 57 10000 4.1 40 05:28 15.06.2020
1481 Clear 11 1027 57 10000 3.1 10 04:22 15.06.2020
1482 Clear 11 1026 58 10000 2.6 10 03:48 15.06.2020
1483 Clear 10 1026 71 10000 4.1 60 02:56 15.06.2020
1484 Clear 10 1026 71 10000 4.1 60 02:24 15.06.2020
1485 Clear 10 1026 62 10000 4.6 60 01:41 15.06.2020
1486 Clear 10 1026 62 10000 4.6 60 01:23 15.06.2020
1487 Clear 10 1026 57 10000 2.6 60 00:43 15.06.2020
1488 Clear 10 1026 57 10000 2.6 60 00:23 15.06.2020
1489 Clear 10 1026 53 10000 1.5 40 23:56 14.06.2020
1490 Clear 10 1026 53 10000 1.5 40 23:38 14.06.2020
1491 Clear 10 1026 53 10000 1.5 40 23:20 14.06.2020
1492 Clear 11 1026 50 10000 2.6 50 22:56 14.06.2020
1493 Clear 12 1026 50 10000 2.6 50 22:37 14.06.2020
1494 Clear 12 1026 42 10000 3.6 50 22:18 14.06.2020
1495 Clear 12 1026 42 10000 3.6 50 21:55 14.06.2020
1496 Clear 13 1026 42 10000 3.6 50 21:37 14.06.2020
1497 Clear 13 1027 46 10000 2.6 30 21:18 14.06.2020
1498 Clear 12 1027 46 10000 2.6 30 20:55 14.06.2020
1499 Clear 12 1027 46 10000 2.6 30 20:36 14.06.2020
1500 Clear 12 1028 50 10000 2.6 20 20:18 14.06.2020
1501 Clear 12 1028 50 10000 2.6 20 19:55 14.06.2020
1502 Clear 12 1028 50 10000 2.6 20 19:36 14.06.2020
1503 Clear 12 1029 50 10000 3.1 360 19:18 14.06.2020
1504 Clear 12 1029 50 10000 3.1 360 18:55 14.06.2020
1505 Clear 12 1029 50 10000 3.1 360 18:36 14.06.2020
1506 Clear 12 1029 53 10000 3.6 360 18:18 14.06.2020
1507 Clear 11 1029 53 10000 3.6 360 17:40 14.06.2020
1508 Clear 11 1030 43 10000 3.1 340 17:20 14.06.2020
1509 Clear 11 1030 43 10000 3.1 340 17:20 14.06.2020
1510 Clear 11 1030 43 10000 3.1 340 16:58 14.06.2020
1511 Clear 11 1030 43 10000 3.1 340 16:39 14.06.2020
1512 Clear 11 1029 45 10000 2.1 320 16:19 14.06.2020
1513 Clear 10 1029 45 10000 2.1 320 15:41 14.06.2020
1514 Clear 9 1029 45 10000 2.1 320 15:20 14.06.2020
1515 Clear 8 1029 56 10000 1 320 15:00 14.06.2020
1516 Clear 7 1029 56 10000 1 320 14:41 14.06.2020
1517 Clear 6 1029 56 10000 1 320 14:22 14.06.2020
1518 Clear 5 1028 64 10000 2.41 319 13:58 14.06.2020
1519 Clear 5 1028 64 10000 2.41 319 13:40 14.06.2020
1520 Clear 3 1028 64 10000 2.18 305 13:21 14.06.2020
1521 Clear 4 1028 60 10000 1 320 12:57 14.06.2020
1522 Clear 5 1028 60 10000 1 320 12:38 14.06.2020
1523 Clear 5 1028 56 10000 1 270 12:18 14.06.2020
1524 Clear 5 1028 56 10000 1 270 11:56 14.06.2020
1525 Clear 5 1028 56 10000 1 270 11:38 14.06.2020
1526 Clear 5 1028 60 10000 2.6 310 11:18 14.06.2020
1527 Clear 5 1028 60 10000 2.6 310 10:42 14.06.2020
1528 Clear 5 1028 60 10000 2.1 310 10:19 14.06.2020
1529 Clear 5 1028 60 10000 2.1 310 09:45 14.06.2020
1530 Clear 5 1028 60 10000 2.1 310 09:25 14.06.2020
1531 Clear 6 1030 57 0 2.3 287 08:56 14.06.2020
1532 Clear 6 1029 52 10000 1.5 310 08:38 14.06.2020
1533 Clear 6 1028 52 10000 2.28 274 08:18 14.06.2020
1534 Clear 6 1028 52 10000 2.28 274 07:44 14.06.2020
1535 Clear 6 1028 52 10000 2.7 249 07:26 14.06.2020
1536 Clear 7 1029 42 10000 1 260 06:26 14.06.2020
1537 Clear 7 1029 36 10000 1.5 260 05:40 14.06.2020
1538 Clear 7 1028 41 10000 1.5 290 04:53 14.06.2020
1539 Clear 7 1028 41 10000 1.5 290 04:28 14.06.2020
1540 Clear 8 1028 31 10000 2.6 240 02:53 14.06.2020
1541 Clear 8 1027 26 10000 2.1 230 02:23 14.06.2020
1542 Clear 8 1027 26 10000 2.1 230 01:36 14.06.2020
1543 Clear 8 1026 26 10000 2.6 230 00:52 14.06.2020
1544 Clear 9 1026 26 10000 2.6 230 00:34 14.06.2020
1545 Clear 9 1026 24 10000 3.1 250 23:59 13.06.2020
1546 Clear 9 1026 24 10000 3.1 250 23:41 13.06.2020
1547 Clear 9 1026 24 10000 3.1 250 23:22 13.06.2020
1548 Clear 10 1025 20 10000 3.6 250 22:54 13.06.2020
1549 Clear 10 1025 20 10000 3.6 250 22:36 13.06.2020
1550 Clear 10 1024 18 10000 3.1 230 22:18 13.06.2020
1551 Clear 11 1024 18 10000 3.1 230 21:43 13.06.2020
1552 Clear 11 1024 18 10000 3.1 230 21:24 13.06.2020
1553 Clear 11 1024 18 10000 5.1 250 20:57 13.06.2020
1554 Clear 11 1024 18 10000 5.1 250 20:39 13.06.2020
1555 Clear 11 1024 21 10000 5.1 250 20:18 13.06.2020
1556 Clear 11 1024 21 10000 5.1 250 19:41 13.06.2020
1557 Clear 11 1024 21 10000 5.1 250 19:41 13.06.2020
1558 Clear 11 1024 23 10000 5.1 250 19:20 13.06.2020
1559 Clear 11 1024 23 10000 5.1 250 18:59 13.06.2020
1560 Clear 10 1024 23 10000 5.1 250 18:40 13.06.2020
1561 Clear 10 1024 31 10000 4.6 250 18:20 13.06.2020
1562 Clear 10 1024 31 10000 4.6 250 17:57 13.06.2020
1563 Clear 10 1024 31 10000 4.6 250 17:39 13.06.2020
1564 Clear 10 1024 36 10000 5.1 250 17:20 13.06.2020
1565 Clear 9 1024 36 10000 5.1 250 16:54 13.06.2020
1566 Clear 9 1024 36 10000 5.1 250 16:36 13.06.2020
1567 Clear 9 1022 39 10000 5.1 250 16:18 13.06.2020
1568 Clear 8 1022 39 10000 5.1 250 15:42 13.06.2020
1569 Clear 8 1022 39 10000 5.1 250 15:21 13.06.2020
1570 Clear 7 1022 42 10000 4.1 250 14:44 13.06.2020
1571 Clear 7 1022 42 10000 4.1 250 14:24 13.06.2020
1572 Clear 7 1020 42 10000 5.1 250 13:57 13.06.2020
1573 Clear 7 1020 42 10000 5.1 250 13:38 13.06.2020
1574 Clear 8 1020 39 10000 5.1 230 13:19 13.06.2020
1575 Clear 8 1020 39 10000 5.1 230 12:43 13.06.2020
1576 Clear 8 1020 39 10000 5.1 230 12:25 13.06.2020
1577 Clear 8 1018 39 10000 5.1 250 11:57 13.06.2020
1578 Clear 8 1018 39 10000 5.1 250 11:37 13.06.2020
1579 Clear 9 1018 37 10000 5.1 240 11:19 13.06.2020
1580 Clear 9 1018 37 10000 5.1 240 10:54 13.06.2020
1581 Clear 9 1018 37 10000 5.1 240 10:36 13.06.2020
1582 Clear 10 1017 40 10000 5.1 240 10:18 13.06.2020
1583 Clear 11 1017 40 10000 5.1 240 09:42 13.06.2020
1584 Clear 11 1016 37 10000 5.1 250 09:20 13.06.2020
1585 Clear 12 1016 37 10000 5.1 250 08:46 13.06.2020
1586 Clouds 12 1016 37 10000 5.1 250 08:26 13.06.2020
1587 Clouds 13 1015 38 10000 4.1 250 07:45 13.06.2020
1588 Clouds 13 1015 37 10000 4.1 250 07:27 13.06.2020
1589 Clouds 13 1014 33 10000 4.6 240 06:45 13.06.2020
1590 Clouds 13 1014 33 10000 4.6 240 06:26 13.06.2020
1591 Clouds 13 1014 37 10000 5.1 220 05:30 13.06.2020
1592 Clouds 13 1012 43 10000 3.1 230 04:41 13.06.2020
1593 Clouds 13 1012 50 10000 4.1 220 03:43 13.06.2020
1594 Clouds 14 1011 51 10000 3.6 220 02:52 13.06.2020
1595 Clouds 15 1010 59 10000 3.6 220 01:50 13.06.2020
1596 Clouds 15 1010 59 10000 3.6 220 01:24 13.06.2020
1597 Clouds 16 1009 67 10000 5.1 240 00:55 13.06.2020
1598 Rain 16 1008 67 5000 6.7 220 00:29 13.06.2020
1599 Rain 16 1008 67 5000 6.7 220 23:59 12.06.2020
1600 Rain 17 1008 72 10000 4.6 220 23:38 12.06.2020
1601 Clouds 17 1006 63 10000 2.6 200 23:18 12.06.2020
1602 Clouds 17 1006 63 10000 2.6 200 22:54 12.06.2020
1603 Clouds 18 1006 63 10000 2.6 200 22:36 12.06.2020
1604 Clouds 18 1005 72 10000 1 0 22:18 12.06.2020
1605 Clouds 19 1005 72 10000 1 0 21:42 12.06.2020
1606 Clouds 18 1005 82 10000 3.1 10 21:23 12.06.2020
1607 Clouds 18 1005 82 10000 3.1 10 20:56 12.06.2020
1608 Clouds 19 1005 82 10000 3.1 10 20:37 12.06.2020
1609 Clouds 19 1006 63 10000 1 0 20:19 12.06.2020
1610 Clouds 19 1006 63 10000 1 0 19:40 12.06.2020
1611 Clouds 19 1007 63 10000 1 0 19:21 12.06.2020
1612 Clouds 19 1007 63 10000 1 0 18:58 12.06.2020
1613 Clouds 19 1007 63 10000 1 0 18:36 12.06.2020
1614 Clouds 18 1007 68 10000 1.5 0 18:18 12.06.2020
1615 Clouds 18 1007 68 10000 1.5 0 17:40 12.06.2020
1616 Clouds 18 1007 68 10000 1.5 0 17:22 12.06.2020
1617 Clouds 17 1007 82 9000 1.5 330 16:45 12.06.2020
1618 Clouds 16 1007 93 6000 4.1 257 16:21 12.06.2020
1619 Clouds 15 1007 93 6000 4.1 257 15:50 12.06.2020
1620 Clouds 15 1007 93 6000 3.45 266 15:28 12.06.2020
1621 Mist 14 1006 93 5000 1 0 14:59 12.06.2020
1622 Mist 14 1006 93 5000 1 0 14:39 12.06.2020
1623 Mist 14 1006 93 5000 1 0 14:21 12.06.2020
1624 Mist 14 1006 93 4000 0.5 210 13:43 12.06.2020
1625 Clouds 14 1005 93 6000 1.5 320 13:22 12.06.2020
1626 Clouds 13 1005 93 6000 1.5 320 12:55 12.06.2020
1627 Clouds 13 1005 93 6000 1.5 320 12:37 12.06.2020
1628 Fog 13 1004 93 5000 0.5 360 12:18 12.06.2020
1629 Fog 13 1004 93 5000 0.5 360 11:43 12.06.2020
1630 Fog 12 1004 93 5000 0.5 360 11:23 12.06.2020
1631 Fog 12 1004 93 4000 2.11 317 10:49 12.06.2020
1632 Clouds 12 1004 87 8000 2.83 334 10:26 12.06.2020
1633 Clouds 13 1005 82 10000 1 320 09:58 12.06.2020
1634 Clouds 13 1005 82 10000 1 320 09:39 12.06.2020
1635 Clear 13 1005 82 10000 1 320 09:19 12.06.2020
1636 Clouds 14 1005 82 10000 2.6 250 08:41 12.06.2020
1637 Clouds 15 1004 87 10000 2.6 360 08:22 12.06.2020
1638 Clouds 15 1004 87 10000 2.6 360 07:41 12.06.2020
1639 Clouds 15 1005 87 10000 5.7 20 07:23 12.06.2020
1640 Clouds 15 1005 87 10000 5.7 20 06:41 12.06.2020
1641 Clouds 15 1005 87 10000 5.7 20 06:20 12.06.2020
1642 Clouds 15 1006 87 10000 3.1 50 05:49 12.06.2020
1643 Clouds 14 1007 93 10000 3.6 70 05:23 12.06.2020
1644 Clouds 14 1008 87 10000 2.1 360 03:52 12.06.2020
1645 Clouds 13 1008 87 10000 1 320 02:25 12.06.2020
1646 Clouds 13 1008 87 10000 1 290 01:35 12.06.2020
1647 Clouds 14 1008 87 10000 2.6 340 00:58 12.06.2020
1648 Clouds 14 1008 87 10000 2.6 340 00:38 12.06.2020
1649 Clouds 13 1008 87 10000 2.6 340 00:19 12.06.2020
1650 Clouds 13 1007 87 10000 2.1 340 00:19 12.06.2020
1651 Clouds 14 1007 87 10000 2.1 340 23:56 11.06.2020
1652 Clouds 13 1007 87 10000 2.1 340 23:36 11.06.2020
1653 Clouds 14 1007 87 10000 5.1 20 23:18 11.06.2020
1654 Clouds 14 1007 87 10000 5.1 20 22:40 11.06.2020
1655 Clouds 14 1007 87 10000 5.1 20 22:20 11.06.2020
1656 Clouds 14 1008 87 9000 4.1 20 21:57 11.06.2020
1657 Clouds 14 1008 87 9000 4.1 20 21:38 11.06.2020
1658 Mist 14 1008 93 5000 4.1 20 21:20 11.06.2020
1659 Mist 14 1008 93 3000 4.1 20 20:45 11.06.2020
1660 Mist 14 1008 93 3000 4.1 20 20:22 11.06.2020
1661 Clouds 15 1009 82 10000 3.1 50 19:58 11.06.2020
1662 Clouds 15 1009 82 10000 3.1 50 19:40 11.06.2020
1663 Clouds 15 1010 82 10000 3.1 50 19:21 11.06.2020
1664 Clouds 16 1010 82 10000 3.1 50 18:42 11.06.2020
1665 Clear 15 1011 82 10000 2.1 70 18:24 11.06.2020
1666 Clear 16 1011 82 10000 2.1 70 17:57 11.06.2020
1667 Clear 16 1011 82 10000 2.1 70 17:57 11.06.2020
1668 Clear 16 1011 82 10000 2.1 70 17:38 11.06.2020
1669 Clear 16 1012 82 10000 2.1 350 17:19 11.06.2020
1670 Clear 16 1012 82 10000 2.1 350 16:56 11.06.2020
1671 Clear 15 1012 82 10000 2.1 350 16:38 11.06.2020
1672 Clear 15 1012 82 10000 2.1 350 16:20 11.06.2020
1673 Clear 14 1012 87 10000 1.5 360 15:42 11.06.2020
1674 Clear 14 1012 87 10000 1.5 360 15:24 11.06.2020
1675 Fog 13 1012 93 10000 1 0 14:56 11.06.2020
1676 Fog 13 1012 93 10000 1 0 14:56 11.06.2020
1677 Clear 13 1014 99 0 2.71 33 14:38 11.06.2020
1678 Fog 12 1012 100 10000 1.5 200 14:20 11.06.2020
1679 Fog 12 1012 93 10000 1 0 14:20 11.06.2020
1680 Fog 12 1012 100 10000 1.5 200 13:54 11.06.2020
1681 Fog 12 1012 100 10000 1.5 200 13:36 11.06.2020
1682 Fog 12 1012 100 10000 1.5 200 13:18 11.06.2020
1683 Clear 11 1014 99 0 0.45 270 12:39 11.06.2020
1684 Clear 11 1014 99 0 2.04 5 12:21 11.06.2020
1685 Clear 12 1014 99 0 2.04 5 11:59 11.06.2020
1686 Clear 12 1013 99 0 2.04 5 11:40 11.06.2020
1687 Clear 12 1013 99 0 0.45 45 11:22 11.06.2020
1688 Clear 12 1013 99 0 1.92 346 10:57 11.06.2020
1689 Clear 12 1013 99 0 1.92 346 10:39 11.06.2020
1690 Clear 12 1013 99 0 2.03 346 10:18 11.06.2020
1691 Clear 12 1014 99 0 2.03 346 09:43 11.06.2020
1692 Clear 12 1014 99 0 2.82 14 09:25 11.06.2020
1693 Clear 12 1014 99 0 0.45 45 08:44 11.06.2020
1694 Clear 12 1015 99 0 2.45 17 08:21 11.06.2020
1695 Clear 12 1015 99 0 2.45 17 07:59 11.06.2020
1696 Clear 12 1015 99 0 2.45 17 07:41 11.06.2020
1697 Clear 12 1015 99 0 2.18 8 07:20 11.06.2020
1698 Clear 12 1015 99 0 2.04 1 06:29 11.06.2020
1699 Clear 13 1015 99 0 2.04 1 05:46 11.06.2020
1700 Clear 13 1014 99 0 1.5 5 03:56 11.06.2020
1701 Clear 13 1012 100 5000 1.5 200 03:24 11.06.2020
1702 Clear 13 1012 100 5000 1.5 200 02:32 11.06.2020
1703 Fog 14 1012 87 10000 0.5 330 01:53 11.06.2020
1704 Fog 14 1012 87 10000 0.5 330 01:31 11.06.2020
1705 Clear 14 1012 87 10000 1 0 00:51 11.06.2020
1706 Clear 15 1012 87 10000 1 0 00:30 11.06.2020
1707 Clear 15 1011 87 10000 1 320 23:49 10.06.2020
1708 Clear 16 1011 87 10000 1 320 23:27 10.06.2020
1709 Clear 17 1011 82 10000 1 360 22:57 10.06.2020
1710 Clear 17 1011 82 10000 1 360 22:38 10.06.2020
1711 Clear 17 1011 82 10000 1 360 22:19 10.06.2020
1712 Clear 18 1011 77 10000 2.1 10 21:56 10.06.2020
1713 Clear 18 1011 77 10000 2.1 10 21:38 10.06.2020
1714 Clear 18 1011 77 10000 2.1 10 21:18 10.06.2020
1715 Clear 18 1011 77 10000 2.1 350 20:56 10.06.2020
1716 Clear 18 1011 77 10000 2.1 350 20:38 10.06.2020
1717 Clear 18 1011 77 10000 2.1 350 20:20 10.06.2020
1718 Clear 18 1011 82 10000 2.6 360 19:41 10.06.2020
1719 Clear 17 1012 87 10000 3.1 350 19:20 10.06.2020
1720 Clear 17 1012 87 10000 3.1 350 18:59 10.06.2020
1721 Clear 17 1012 87 10000 3.1 350 18:40 10.06.2020
1722 Clear 16 1013 93 10000 3.1 360 18:19 10.06.2020
1723 Clear 16 1013 93 10000 3.1 360 17:56 10.06.2020
1724 Clear 16 1013 93 10000 3.1 360 17:37 10.06.2020
1725 Clear 16 1013 93 10000 3.1 360 17:19 10.06.2020
1726 Clear 16 1013 87 10000 3.1 340 16:57 10.06.2020
1727 Clear 16 1013 87 10000 3.1 340 16:39 10.06.2020
1728 Clear 15 1013 87 10000 3.1 340 16:19 10.06.2020
1729 Clear 14 1013 87 10000 2.6 310 15:41 10.06.2020
1730 Clear 14 1013 87 10000 2.6 310 15:22 10.06.2020
1731 Clear 13 1012 87 10000 1 330 14:56 10.06.2020
1732 Clear 13 1012 87 10000 1 330 14:38 10.06.2020
1733 Clouds 12 1012 87 10000 1 330 14:20 10.06.2020
1734 Clouds 11 1012 93 10000 2.1 310 13:41 10.06.2020
1735 Clouds 11 1012 93 10000 3.6 320 13:21 10.06.2020
1736 Clouds 12 1012 93 10000 3.6 320 12:45 10.06.2020
1737 Clouds 12 1012 87 10000 3.6 320 12:23 10.06.2020
1738 Clouds 12 1013 99 0 2.19 315 11:58 10.06.2020
1739 Clouds 12 1012 87 10000 3.6 320 11:40 10.06.2020
1740 Clouds 12 1012 87 10000 3.6 320 11:19 10.06.2020
1741 Clouds 12 1012 93 10000 4.1 320 10:57 10.06.2020
1742 Clouds 12 1012 93 10000 4.1 320 10:39 10.06.2020
1743 Clouds 12 1013 99 0 0.45 0 10:20 10.06.2020
1744 Clouds 12 1013 99 0 0.45 315 09:41 10.06.2020
1745 Clouds 12 1012 93 10000 2.6 310 09:23 10.06.2020
1746 Clouds 12 1012 93 9000 2.6 310 08:44 10.06.2020
1747 Clouds 12 1012 93 9000 2.6 310 08:24 10.06.2020
1748 Fog 11 1012 100 8000 2.1 340 07:58 10.06.2020
1749 Fog 12 1012 100 8000 2.1 340 07:38 10.06.2020
1750 Fog 12 1012 100 2000 1 0 07:20 10.06.2020
1751 Fog 12 1012 100 2000 1 0 06:44 10.06.2020
1752 Fog 12 1013 100 2000 2.94 3 06:22 10.06.2020
1753 Mist 12 1013 100 2000 2.94 3 05:55 10.06.2020
1754 Fog 12 1013 100 2000 2.9 6 05:25 10.06.2020
1755 Fog 12 1013 100 500 0.5 310 04:34 10.06.2020
1756 Mist 12 1013 93 1200 2.51 16 02:55 10.06.2020
1757 Fog 13 1013 93 3000 2.07 30 01:59 10.06.2020
1758 Fog 13 1013 93 3000 2.07 30 01:35 10.06.2020
1759 Mist 14 1013 93 3000 1.5 120 00:39 10.06.2020
1760 Fog 14 1013 93 3000 1.5 120 00:21 10.06.2020
1761 Mist 14 1013 87 3000 1 90 23:55 09.06.2020
1762 Mist 14 1013 87 3000 1 90 23:37 09.06.2020
1763 Mist 14 1013 87 3000 1 90 23:18 09.06.2020
1764 Mist 15 1013 87 2000 2.6 60 22:55 09.06.2020
1765 Mist 15 1013 87 2000 2.6 60 22:36 09.06.2020
1766 Mist 16 1013 87 2000 2.6 60 22:18 09.06.2020
1767 Mist 17 1013 82 1500 1.5 30 21:55 09.06.2020
1768 Mist 17 1013 82 1500 1.5 30 21:37 09.06.2020
1769 Mist 17 1013 82 1500 1.5 30 21:36 09.06.2020
1770 Mist 17 1013 82 1500 1.5 30 21:18 09.06.2020
1771 Mist 17 1013 82 2000 2.1 60 20:56 09.06.2020
1772 Mist 17 1013 82 3500 2.1 60 20:37 09.06.2020
1773 Mist 17 1014 82 5000 2.6 60 20:18 09.06.2020
1774 Mist 18 1014 82 5000 2.6 60 19:55 09.06.2020
1775 Mist 18 1014 82 5000 2.6 60 19:36 09.06.2020
1776 Clouds 18 1015 82 8000 3.1 50 19:18 09.06.2020
1777 Clouds 18 1015 82 8000 3.1 50 18:43 09.06.2020
1778 Clouds 18 1015 82 8000 3.1 50 18:25 09.06.2020
1779 Clouds 17 1015 67 10000 1.5 180 17:57 09.06.2020
1780 Clouds 16 1015 67 10000 1.5 180 17:38 09.06.2020
1781 Clouds 16 1015 67 10000 1.5 180 17:38 09.06.2020
1782 Clouds 15 1016 77 10000 1.5 210 17:20 09.06.2020
1783 Clouds 15 1016 77 10000 1.5 210 16:55 09.06.2020
1784 Clouds 14 1016 77 10000 1.5 210 16:36 09.06.2020
1785 Clouds 14 1016 77 10000 1.5 210 16:18 09.06.2020
1786 Clouds 13 1016 82 9000 2.1 220 15:39 09.06.2020
1787 Clouds 13 1016 82 9000 2.1 220 15:21 09.06.2020
1788 Clouds 13 1016 87 9000 1.5 260 14:57 09.06.2020
1789 Clouds 13 1016 87 9000 1.5 260 14:37 09.06.2020
1790 Clouds 13 1016 87 9000 1.5 260 14:18 09.06.2020
1791 Clouds 12 1015 87 9000 1.5 280 13:43 09.06.2020
1792 Clouds 12 1015 87 8000 2.1 300 13:21 09.06.2020
1793 Clouds 12 1015 87 8000 2.1 300 12:59 09.06.2020
1794 Clouds 12 1015 87 8000 2.1 300 12:41 09.06.2020
1795 Clouds 12 1015 87 8000 2.1 300 12:19 09.06.2020
1796 Clouds 12 1015 87 8000 2.1 300 11:55 09.06.2020
1797 Clouds 12 1015 87 8000 2.1 300 11:37 09.06.2020
1798 Clouds 12 1017 99 0 2.73 278 11:19 09.06.2020
1799 Clouds 12 1016 99 0 2.73 278 10:44 09.06.2020
1800 Clouds 12 1016 99 0 0.45 0 10:25 09.06.2020
1801 Clouds 12 1015 93 6000 0.5 300 09:44 09.06.2020
1802 Clouds 12 1015 93 6000 0.5 300 09:25 09.06.2020
1803 Fog 12 1015 93 7000 1.5 300 08:58 09.06.2020
1804 Fog 12 1015 93 7000 1.5 300 08:39 09.06.2020
1805 Fog 13 1015 100 7000 1 300 08:20 09.06.2020
1806 Fog 13 1015 100 7000 1 300 07:40 09.06.2020
1807 Fog 13 1015 100 7000 1 300 07:21 09.06.2020
1808 Fog 13 1015 100 6000 1 300 06:54 09.06.2020
1809 Fog 13 1015 100 6000 1 300 06:35 09.06.2020
1810 Fog 13 1015 93 4000 2.37 304 05:36 09.06.2020
1811 Fog 13 1015 93 4000 1.42 281 03:50 09.06.2020
1812 Fog 14 1015 93 4500 1 310 01:45 09.06.2020
1813 Fog 14 1014 93 6000 1.62 297 01:20 09.06.2020
1814 Fog 14 1014 93 6000 1.62 297 00:55 09.06.2020
1815 Fog 14 1014 93 6000 1.62 297 00:37 09.06.2020
1816 Clouds 15 1014 87 9000 1.52 309 00:18 09.06.2020
1817 Clouds 15 1014 87 9000 1.52 309 23:40 08.06.2020
1818 Clouds 16 1014 72 10000 1 210 23:19 08.06.2020
1819 Clouds 16 1014 72 10000 1 210 22:54 08.06.2020
1820 Clouds 16 1014 72 10000 1 210 22:36 08.06.2020
1821 Clouds 17 1016 92 0 1.54 295 22:18 08.06.2020
1822 Clouds 17 1014 77 10000 1 0 21:54 08.06.2020
1823 Clouds 18 1014 77 10000 1 0 21:36 08.06.2020
1824 Clouds 17 1014 72 8000 1.5 270 21:18 08.06.2020
1825 Clouds 17 1014 72 8000 1.5 270 20:54 08.06.2020
1826 Clouds 17 1014 72 8000 1.5 270 20:36 08.06.2020
1827 Clouds 17 1014 72 8000 1.5 270 20:18 08.06.2020
1828 Clouds 17 1015 77 8000 1 0 19:41 08.06.2020
1829 Mist 16 1016 82 4000 1.5 260 19:20 08.06.2020
1830 Mist 16 1016 82 4000 1.5 260 18:41 08.06.2020
1831 Mist 16 1017 87 3000 1.5 260 18:20 08.06.2020
1832 Mist 16 1017 87 3000 1.5 260 17:57 08.06.2020
1833 Mist 16 1017 87 3000 1.5 260 17:39 08.06.2020
1834 Mist 15 1017 87 3000 2.1 270 17:20 08.06.2020
1835 Mist 15 1017 87 3000 2.1 270 16:46 08.06.2020
1836 Mist 15 1017 87 3000 2.1 270 16:25 08.06.2020
1837 Mist 15 1017 93 4000 2.1 290 15:59 08.06.2020
1838 Mist 15 1017 93 4000 2.1 290 15:41 08.06.2020
1839 Mist 14 1016 93 4000 2.1 310 15:20 08.06.2020
1840 Mist 14 1016 93 4000 2.1 310 14:56 08.06.2020
1841 Mist 14 1016 93 4000 2.1 310 14:38 08.06.2020
1842 Mist 14 1016 93 5000 2.1 320 14:18 08.06.2020
1843 Mist 14 1016 93 5000 2.1 320 14:18 08.06.2020
1844 Mist 14 1016 93 5000 2.1 320 13:42 08.06.2020
1845 Mist 14 1016 93 5000 2.1 320 13:20 08.06.2020
1846 Clouds 14 1015 100 7000 2.1 330 12:40 08.06.2020
1847 Clouds 14 1015 100 7000 2.1 330 12:19 08.06.2020
1848 Mist 14 1016 100 5000 2.1 320 11:57 08.06.2020
1849 Mist 14 1016 100 5000 2.1 320 11:38 08.06.2020
1850 Mist 14 1016 100 5000 2.1 320 11:38 08.06.2020
1851 Mist 14 1016 100 5000 2.1 320 11:20 08.06.2020
1852 Rain 14 1016 100 4700 1.5 320 10:56 08.06.2020
1853 Rain 14 1016 100 4700 1.5 320 10:37 08.06.2020
1854 Rain 14 1016 100 4700 1.5 320 10:19 08.06.2020
1855 Drizzle 14 1017 100 3800 1 0 09:43 08.06.2020
1856 Drizzle 14 1017 100 3800 1 0 09:23 08.06.2020
1857 Clouds 14 1018 99 0 2.5 307 08:50 08.06.2020
1858 Drizzle 15 1017 93 2600 2.1 310 08:24 08.06.2020
1859 Drizzle 15 1017 93 2600 2.1 310 07:56 08.06.2020
1860 Drizzle 15 1017 93 2600 2.1 310 07:37 08.06.2020
1861 Drizzle 15 1017 93 2600 2.1 310 07:37 08.06.2020
1862 Drizzle 15 1017 93 2900 2.1 320 07:18 08.06.2020
1863 Rain 15 1017 93 2900 2.1 320 06:38 08.06.2020
1864 Drizzle 15 1017 93 3700 1.5 290 05:54 08.06.2020
1865 Drizzle 15 1017 93 3400 1.5 320 04:36 08.06.2020
1866 Drizzle 15 1017 93 6000 1 0 03:22 08.06.2020
1867 Clouds 16 1017 87 8000 1 0 02:26 08.06.2020
1868 Clouds 16 1016 87 8000 1 270 01:42 08.06.2020
1869 Clouds 16 1016 87 8000 1.5 310 00:45 08.06.2020
1870 Clouds 16 1016 87 8000 1.5 310 00:23 08.06.2020
1871 Clouds 16 1016 87 10000 1 260 23:38 07.06.2020
1872 Clouds 16 1016 87 10000 1 260 23:18 07.06.2020
1873 Clouds 16 1015 87 10000 1 230 22:56 07.06.2020
1874 Clouds 16 1015 87 10000 1 230 22:36 07.06.2020
1875 Clouds 16 1015 87 10000 1 230 22:18 07.06.2020
1876 Clouds 16 1015 87 10000 1.5 270 21:57 07.06.2020
1877 Clouds 16 1015 87 10000 1.5 270 21:36 07.06.2020
1878 Rain 16 1015 87 10000 1.5 270 21:18 07.06.2020
1879 Rain 16 1015 87 10000 1 250 20:39 07.06.2020
1880 Clouds 16 1015 87 10000 1 250 20:20 07.06.2020
1881 Clouds 16 1016 87 10000 1.5 230 19:56 07.06.2020
1882 Clouds 16 1016 87 10000 1.5 230 19:38 07.06.2020
1883 Clouds 16 1017 87 10000 1.5 230 19:19 07.06.2020
1884 Clouds 16 1017 87 10000 1.5 230 18:56 07.06.2020
1885 Clouds 16 1017 87 10000 1.5 230 18:37 07.06.2020
1886 Clouds 16 1017 87 10000 1 220 18:19 07.06.2020
1887 Clouds 16 1017 87 10000 1 220 17:55 07.06.2020
1888 Clouds 16 1017 87 10000 1 220 17:37 07.06.2020
1889 Clouds 16 1017 87 10000 1 220 17:19 07.06.2020
1890 Clouds 16 1017 93 10000 1.5 200 16:42 07.06.2020
1891 Clouds 15 1017 93 10000 1.5 200 16:21 07.06.2020
1892 Clouds 15 1017 93 10000 1.5 200 16:21 07.06.2020
1893 Clouds 15 1017 93 9000 1.5 200 15:40 07.06.2020
1894 Clouds 15 1017 93 9000 1.5 200 15:20 07.06.2020
1895 Mist 14 1017 100 2000 1.5 240 14:40 07.06.2020
1896 Mist 14 1017 100 2000 1.5 240 14:21 07.06.2020
1897 Mist 14 1016 100 1300 1 230 13:48 07.06.2020
1898 Mist 14 1016 100 1600 1 200 13:21 07.06.2020
1899 Mist 14 1016 100 3000 1.5 200 12:55 07.06.2020
1900 Clouds 14 1015 100 8000 1 190 12:36 07.06.2020
1901 Clouds 14 1015 93 7000 1.5 230 12:18 07.06.2020
1902 Clouds 14 1015 93 7000 1.5 230 11:55 07.06.2020
1903 Clouds 14 1015 93 7000 1.5 230 11:36 07.06.2020
1904 Clouds 14 1015 93 7000 1.5 230 11:18 07.06.2020
1905 Clouds 14 1014 93 10000 1 0 10:42 07.06.2020
1906 Clouds 14 1014 93 10000 1 0 10:20 07.06.2020
1907 Clouds 14 1014 93 10000 1 0 09:57 07.06.2020
1908 Clouds 14 1014 93 10000 1 0 09:38 07.06.2020
1909 Clouds 14 1014 93 10000 1 0 09:20 07.06.2020
1910 Clouds 14 1016 99 0 2.55 174 08:48 07.06.2020
1911 Drizzle 15 1015 93 4500 1 0 08:24 07.06.2020
1912 Drizzle 15 1015 93 4500 1 0 08:24 07.06.2020
1913 Drizzle 15 1014 93 6000 1 0 07:50 07.06.2020
1914 Drizzle 15 1014 93 6000 1 0 07:29 07.06.2020
1915 Clouds 15 1014 93 6000 1.5 160 06:48 07.06.2020
1916 Clouds 15 1014 93 7000 2.1 140 05:41 07.06.2020
1917 Clouds 15 1014 93 6000 3.1 130 04:20 07.06.2020
1918 Clouds 15 1014 93 10000 4.6 140 02:34 07.06.2020
1919 Clouds 15 1014 93 10000 4.6 130 01:50 07.06.2020
1920 Clouds 16 1014 93 10000 4.6 130 01:25 07.06.2020
1921 Clouds 16 1013 93 9000 6.2 140 00:45 07.06.2020
1922 Clouds 16 1013 93 9000 6.2 140 00:19 07.06.2020
1923 Clouds 15 1013 93 10000 6.7 140 23:57 06.06.2020
1924 Clouds 15 1013 93 10000 6.7 140 23:36 06.06.2020
1925 Clouds 15 1013 93 10000 6.7 140 23:36 06.06.2020
1926 Clouds 15 1013 93 10000 6.7 140 23:18 06.06.2020
1927 Clouds 16 1013 93 10000 7.7 140 22:56 06.06.2020
1928 Rain 16 1013 93 10000 7.7 140 22:37 06.06.2020
1929 Rain 16 1013 93 10000 7.7 140 22:18 06.06.2020
1930 Rain 16 1013 93 10000 7.7 140 22:18 06.06.2020
1931 Rain 16 1013 93 1100 5.7 140 21:43 06.06.2020
1932 Rain 16 1013 93 3000 6.7 140 21:22 06.06.2020
1933 Rain 16 1013 87 3000 6.2 140 20:55 06.06.2020
1934 Rain 16 1013 87 3000 6.2 140 20:36 06.06.2020
1935 Rain 16 1013 87 3000 7.7 140 20:18 06.06.2020
1936 Clouds 16 1013 87 4000 7.7 140 19:56 06.06.2020
1937 Clouds 16 1013 87 4000 7.7 140 19:36 06.06.2020
1938 Drizzle 16 1014 87 4000 9.3 140 19:18 06.06.2020
1939 Clouds 16 1014 87 10000 8.7 140 18:42 06.06.2020
1940 Clouds 16 1014 87 10000 8.7 140 18:23 06.06.2020
1941 Clouds 16 1014 87 10000 8.7 140 18:23 06.06.2020
1942 Clouds 17 1014 82 10000 9.3 140 17:44 06.06.2020
1943 Clouds 17 1014 82 10000 9.3 140 17:21 06.06.2020
1944 Clouds 17 1014 82 10000 8.2 140 16:58 06.06.2020
1945 Clouds 17 1014 82 10000 8.2 140 16:39 06.06.2020
1946 Clouds 17 1014 82 10000 8.2 140 16:21 06.06.2020
1947 Clouds 16 1014 87 10000 7.7 140 15:54 06.06.2020
1948 Clouds 16 1014 87 10000 7.7 140 15:36 06.06.2020
1949 Clouds 16 1014 87 10000 7.7 140 15:18 06.06.2020
1950 Drizzle 16 1014 87 5000 8.7 140 14:39 06.06.2020
1951 Drizzle 16 1014 87 5000 8.7 140 14:20 06.06.2020
1952 Clouds 16 1014 87 10000 6.2 140 13:49 06.06.2020
1953 Clouds 15 1014 87 10000 5.7 160 13:20 06.06.2020
1954 Clouds 15 1014 87 10000 5.7 160 12:58 06.06.2020
1955 Clouds 15 1014 87 10000 5.7 160 12:39 06.06.2020
1956 Clouds 15 1014 87 10000 5.7 160 12:20 06.06.2020
1957 Clouds 15 1014 87 10000 7.2 140 11:56 06.06.2020
1958 Clouds 15 1014 87 10000 7.2 140 11:37 06.06.2020
1959 Clouds 15 1014 87 10000 7.2 140 11:18 06.06.2020
1960 Clouds 15 1014 87 10000 9.3 130 10:56 06.06.2020
1961 Clouds 15 1014 87 10000 9.3 130 10:38 06.06.2020
1962 Clouds 15 1014 87 10000 9.3 130 10:19 06.06.2020
1963 Drizzle 15 1014 93 8000 7.2 130 09:43 06.06.2020
1964 Drizzle 15 1014 93 8000 7.2 130 09:24 06.06.2020
1965 Rain 15 1015 93 6000 4.1 130 08:48 06.06.2020
1966 Rain 15 1015 93 6000 4.1 130 08:25 06.06.2020
1967 Clouds 15 1015 93 10000 7.7 130 07:57 06.06.2020
1968 Clouds 15 1015 93 10000 7.7 130 07:38 06.06.2020
1969 Clouds 15 1015 93 10000 7.7 130 07:20 06.06.2020
1970 Clouds 15 1015 93 10000 7.7 130 06:44 06.06.2020
1971 Clouds 15 1015 93 10000 7.7 130 06:26 06.06.2020
1972 Clouds 15 1016 87 10000 5.7 130 05:41 06.06.2020
1973 Drizzle 15 1016 100 6000 4.6 140 04:51 06.06.2020
1974 Drizzle 15 1016 93 6000 4.1 150 03:45 06.06.2020
1975 Clouds 15 1016 87 10000 3.1 150 02:35 06.06.2020
1976 Clouds 15 1016 82 10000 4.1 150 01:23 06.06.2020
1977 Clouds 15 1016 82 10000 4.1 150 00:57 06.06.2020
1978 Clouds 15 1016 82 10000 4.1 150 00:39 06.06.2020
1979 Clouds 15 1016 82 10000 4.1 150 00:20 06.06.2020
1980 Clouds 15 1016 82 8000 5.7 140 23:40 05.06.2020
1981 Clouds 15 1016 82 8000 5.7 140 23:20 05.06.2020
1982 Mist 15 1017 93 5000 2.1 150 22:56 05.06.2020
1983 Mist 15 1017 93 5000 2.1 150 22:38 05.06.2020
1984 Mist 15 1017 93 5000 2.1 150 22:19 05.06.2020
1985 Mist 15 1017 93 5000 2.1 150 22:19 05.06.2020
1986 Mist 15 1017 93 3700 3.1 160 21:43 05.06.2020
1987 Mist 15 1017 93 3700 3.1 160 21:43 05.06.2020
1988 Mist 15 1017 93 3700 3.1 160 21:23 05.06.2020
1989 Mist 15 1018 93 3000 4.6 150 20:58 05.06.2020
1990 Mist 15 1018 93 4500 4.6 140 20:39 05.06.2020
1991 Mist 15 1018 93 4500 4.6 140 20:21 05.06.2020
1992 Clouds 15 1020 99 0 0.45 0 19:43 05.06.2020
1993 Clouds 15 1018 93 9000 6.2 130 19:23 05.06.2020
1994 Clouds 14 1019 93 6000 6.2 140 18:57 05.06.2020
1995 Mist 14 1019 93 4000 5.7 140 18:38 05.06.2020
1996 Drizzle 14 1020 93 1200 6.7 140 18:19 05.06.2020
1997 Drizzle 13 1020 93 1200 6.7 140 17:57 05.06.2020
1998 Mist 14 1020 93 4000 6.7 130 17:39 05.06.2020
1999 Mist 13 1020 93 4000 6.7 130 17:19 05.06.2020
2000 Clouds 14 1020 87 10000 4.6 130 16:39 05.06.2020
2001 Clouds 14 1020 87 10000 4.6 130 16:39 05.06.2020
2002 Clouds 14 1020 87 10000 4.6 130 16:20 05.06.2020
2003 Clouds 13 1021 93 10000 5.7 110 15:47 05.06.2020
2004 Clouds 13 1021 93 10000 5.7 110 15:23 05.06.2020
2005 Clouds 12 1020 93 10000 6.7 110 14:59 05.06.2020
2006 Clouds 12 1020 93 10000 6.7 110 14:40 05.06.2020
2007 Clouds 12 1020 93 10000 6.7 110 14:22 05.06.2020
2008 Clouds 12 1021 87 10000 7.7 100 13:58 05.06.2020
2009 -273 0 0 0 0 0 13:58 05.06.2020
2010 Clouds 12 1021 87 10000 7.7 100 13:38 05.06.2020
2011 Clouds 11 1021 93 10000 4.6 120 13:19 05.06.2020
2012 Clouds 11 1021 93 10000 4.6 120 12:42 05.06.2020
2013 Clouds 11 1020 93 8000 3.1 140 12:20 05.06.2020
2014 Clouds 11 1020 93 8000 3.1 140 11:55 05.06.2020
2015 Clouds 11 1020 93 8000 3.1 140 11:37 05.06.2020
2016 Clouds 11 1020 93 8000 3.1 140 11:18 05.06.2020
2017 Mist 11 1021 100 5000 4.1 110 10:42 05.06.2020
2018 Mist 10 1021 100 5000 4.1 110 10:21 05.06.2020
2019 Mist 11 1022 100 4000 4.6 110 09:58 05.06.2020
2020 Mist 10 1022 100 4000 4.6 110 09:39 05.06.2020
2021 Mist 11 1022 100 4000 4.6 110 09:21 05.06.2020
2022 Fog 11 1022 100 900 3.6 140 08:58 05.06.2020
2023 Fog 10 1022 100 900 3.6 140 08:40 05.06.2020
2024 Fog 11 1022 100 900 3.6 140 08:18 05.06.2020
2025 Fog 11 1022 93 600 3.6 140 07:52 05.06.2020
2026 Fog 11 1022 93 600 3.6 140 07:32 05.06.2020
2027 Mist 10 1023 93 5000 4.1 140 06:49 05.06.2020
2028 Mist 10 1023 93 5000 3.6 140 05:23 05.06.2020
2029 Clouds 10 1023 93 8000 3.1 140 04:28 05.06.2020
2030 Clear 10 1024 93 9000 2.6 110 03:30 05.06.2020
2031 Clear 11 1023 87 9000 1.5 160 02:30 05.06.2020
2032 Clear 11 1024 87 10000 1.5 140 01:58 05.06.2020
2033 Clear 11 1024 87 10000 1.5 140 01:31 05.06.2020
2034 Clear 11 1023 87 9000 2.6 110 00:44 05.06.2020
2035 Clear 11 1023 87 9000 2.6 110 00:22 05.06.2020
2036 Clouds 11 1023 87 9000 2.6 110 23:48 04.06.2020
2037 Clouds 11 1023 87 9000 2.6 110 23:48 04.06.2020
2038 Clouds 11 1023 87 9000 2.6 110 23:29 04.06.2020
2039 Clouds 12 1023 81 9000 4.1 110 22:57 04.06.2020
2040 Clouds 12 1023 81 9000 4.1 110 22:39 04.06.2020
2041 Clouds 12 1023 81 9000 4.1 110 22:21 04.06.2020
2042 Clouds 13 1024 82 9000 4.6 110 21:58 04.06.2020
2043 Clouds 13 1024 82 9000 4.6 110 21:38 04.06.2020
2044 Clouds 13 1024 82 9000 4.6 110 21:19 04.06.2020
2045 Clouds 13 1024 82 9000 4.6 100 20:55 04.06.2020
2046 Clouds 14 1024 82 9000 4.6 100 20:37 04.06.2020
2047 Clouds 14 1024 82 9000 4.6 100 20:19 04.06.2020
2048 Clouds 14 1025 82 9000 4.6 110 19:40 04.06.2020
2049 Clouds 14 1026 82 9000 4.6 100 19:21 04.06.2020
2050 Clouds 14 1026 82 9000 4.6 100 18:57 04.06.2020
2051 Clouds 13 1026 82 9000 4.6 100 18:38 04.06.2020
2052 Clouds 13 1026 82 9000 4.6 100 18:20 04.06.2020
2053 Clouds 14 1027 82 10000 4.1 90 17:43 04.06.2020
2054 Clouds 13 1027 82 10000 4.1 90 17:21 04.06.2020
2055 Clouds 13 1027 82 10000 4.1 100 16:56 04.06.2020
2056 Clouds 13 1027 82 10000 4.1 100 16:38 04.06.2020
2057 Clouds 12 1027 82 10000 4.1 100 16:18 04.06.2020
2058 Clouds 11 1027 87 9000 3.1 110 15:43 04.06.2020
2059 Clouds 11 1027 87 9000 3.1 110 15:24 04.06.2020
2060 Clouds 11 1027 93 8000 1.5 130 14:40 04.06.2020
2061 Clouds 10 1027 93 8000 1.5 130 14:21 04.06.2020
2062 Clouds 10 1027 93 7000 1.5 130 13:56 04.06.2020
2063 Mist 10 1027 100 3000 1 0 13:38 04.06.2020
2064 Mist 10 1027 100 3000 1 0 13:20 04.06.2020
2065 Mist 10 1026 93 1500 2.6 50 12:56 04.06.2020
2066 Fog 10 1026 93 600 2.6 50 12:38 04.06.2020
2067 Fog 10 1026 93 600 2.6 50 12:19 04.06.2020
2068 Clouds 10 1025 93 7000 1.5 190 11:41 04.06.2020
2069 Clouds 10 1025 93 7000 1.5 190 11:20 04.06.2020
2070 Clouds 10 1026 100 10000 2.6 120 10:59 04.06.2020
2071 Clouds 10 1026 100 10000 2.6 120 10:38 04.06.2020
2072 Clouds 10 1026 100 10000 2.6 120 10:38 04.06.2020
2073 Clouds 10 1026 100 10000 2.6 120 10:20 04.06.2020
2074 Clouds 10 1026 93 10000 1.5 140 09:46 04.06.2020
2075 Clouds 11 1026 93 10000 1.5 140 09:28 04.06.2020
2076 Clouds 11 1027 93 10000 2.1 140 08:50 04.06.2020
2077 Clouds 11 1027 93 10000 2.1 140 08:30 04.06.2020
2078 Clouds 11 1027 93 10000 4.1 120 07:59 04.06.2020
2079 Clouds 11 1027 93 10000 4.1 120 07:30 04.06.2020
2080 Clouds 11 1027 93 10000 3.6 130 06:45 04.06.2020
2081 Clouds 11 1027 93 10000 3.6 130 06:26 04.06.2020
2082 Clouds 11 1027 93 10000 3.6 130 05:51 04.06.2020
2083 Clouds 11 1027 93 10000 3.6 130 05:30 04.06.2020
2084 Clouds 12 1026 62 10000 3.1 130 03:31 04.06.2020
2085 Clouds 12 1026 71 10000 1.5 120 01:58 04.06.2020
2086 Clouds 12 1025 76 10000 1 180 01:20 04.06.2020
2087 Clouds 12 1025 76 10000 1 180 00:50 04.06.2020
2088 Clouds 13 1025 71 10000 1 80 23:56 03.06.2020
2089 Clouds 13 1025 71 10000 1 80 23:36 03.06.2020
2090 Clouds 14 1024 71 10000 1.5 50 23:18 03.06.2020
2091 Clouds 14 1024 71 10000 1.5 50 22:40 03.06.2020
2092 Clouds 15 1024 71 10000 1.5 50 22:19 03.06.2020
2093 Clouds 15 1024 71 10000 1.5 50 22:19 03.06.2020
2094 Clouds 15 1024 71 10000 1.5 50 22:19 03.06.2020
2095 Clouds 15 1024 67 10000 2.1 40 21:58 03.06.2020
2096 Clouds 15 1024 67 10000 2.1 40 21:39 03.06.2020
2097 Clouds 15 1024 67 10000 2.1 40 21:21 03.06.2020
2098 Clouds 15 1024 67 10000 1.5 10 20:56 03.06.2020
2099 Clouds 15 1024 67 10000 1.5 10 20:38 03.06.2020
2100 Clouds 15 1024 67 10000 1.5 10 20:38 03.06.2020
2101 Clouds 15 1024 71 10000 2.1 30 20:19 03.06.2020
2102 Clouds 15 1024 71 10000 2.1 30 19:56 03.06.2020
2103 Clouds 15 1024 71 10000 2.1 30 19:37 03.06.2020
2104 Clouds 15 1025 67 10000 2.6 20 19:19 03.06.2020
2105 Clouds 15 1025 67 10000 2.6 20 18:54 03.06.2020
2106 Clouds 15 1025 67 10000 2.6 20 18:36 03.06.2020
2107 Clouds 15 1025 71 10000 2.1 30 18:18 03.06.2020
2108 Clouds 15 1025 71 10000 2.1 30 17:41 03.06.2020
2109 Clouds 14 1025 71 10000 2.1 30 17:21 03.06.2020
2110 Clouds 14 1025 66 10000 3.1 350 16:55 03.06.2020
2111 Clouds 13 1025 66 10000 3.1 350 16:37 03.06.2020
2112 Clouds 13 1025 66 10000 3.1 350 16:18 03.06.2020
2113 Clouds 12 1024 62 10000 1.5 350 15:41 03.06.2020
2114 Clouds 12 1024 62 10000 1.5 350 15:20 03.06.2020
2115 Clouds 11 1023 76 10000 1.5 310 14:47 03.06.2020
2116 Clouds 10 1023 76 10000 1.5 310 14:25 03.06.2020
2117 Clouds 9 1023 75 10000 1 280 13:56 03.06.2020
2118 Clouds 8 1023 75 10000 1 280 13:38 03.06.2020
2119 Clouds 8 1023 75 10000 1 280 13:18 03.06.2020
2120 Clouds 8 1022 70 10000 1 290 12:42 03.06.2020
2121 Clouds 8 1022 70 10000 1 290 12:21 03.06.2020
2122 Clouds 9 1021 70 10000 1 310 11:45 03.06.2020
2123 Clouds 9 1021 70 10000 1 310 11:26 03.06.2020
2124 Clouds 9 1021 70 10000 2.1 290 10:56 03.06.2020
2125 Clouds 9 1021 70 10000 2.1 290 10:56 03.06.2020
2126 Clouds 9 1021 70 10000 2.1 290 10:38 03.06.2020
2127 Clear 10 1021 70 10000 2.1 290 10:20 03.06.2020
2128 Clear 10 1021 71 10000 2.6 300 09:42 03.06.2020
2129 Clear 10 1021 71 10000 2.6 300 09:19 03.06.2020
2130 Clear 10 1021 71 10000 2.6 300 08:47 03.06.2020
2131 Clear 11 1021 71 10000 2.6 300 08:24 03.06.2020
2132 Clear 11 1021 76 10000 3.1 310 07:58 03.06.2020
2133 Clear 11 1021 76 10000 3.1 320 07:39 03.06.2020
2134 Clouds 11 1021 76 10000 3.1 320 07:18 03.06.2020
2135 Clouds 12 1021 76 10000 3.1 320 06:45 03.06.2020
2136 Clouds 12 1021 76 10000 3.1 320 06:27 03.06.2020
2137 Clouds 12 1020 76 10000 3.1 310 05:45 03.06.2020
2138 Clouds 11 1020 76 10000 2.6 320 04:30 03.06.2020
2139 Clouds 11 1020 76 10000 2.1 310 03:42 03.06.2020
2140 Clouds 12 1020 81 10000 3.1 310 02:42 03.06.2020
2141 Clouds 12 1019 76 10000 3.1 310 01:46 03.06.2020
2142 Clouds 12 1019 71 10000 2.1 330 00:39 03.06.2020
2143 Clouds 12 1019 71 10000 2.1 330 00:21 03.06.2020
2144 Clouds 13 1018 66 10000 2.6 340 23:46 02.06.2020
2145 Clear 13 1018 66 10000 2.6 340 23:27 02.06.2020
2146 Clear 14 1018 71 10000 2.6 20 22:55 02.06.2020
2147 Clear 14 1018 71 10000 2.6 20 22:36 02.06.2020
2148 Clear 14 1019 71 10000 2.6 20 22:18 02.06.2020
2149 Clear 15 1019 71 10000 2.6 20 21:54 02.06.2020
2150 Clear 15 1019 71 10000 2.6 20 21:36 02.06.2020
2151 Clear 15 1019 71 10000 2.6 20 21:36 02.06.2020
2152 Clear 14 1019 71 10000 2.6 20 21:18 02.06.2020
2153 Clear 14 1019 67 10000 2.6 20 20:42 02.06.2020
2154 Clear 14 1019 67 10000 2.6 20 20:23 02.06.2020
2155 Clear 14 1019 67 10000 2.6 20 20:23 02.06.2020
2156 Clear 14 1020 62 10000 2.6 20 19:58 02.06.2020
2157 Clear 14 1020 62 10000 2.6 20 19:39 02.06.2020
2158 Clear 14 1020 62 10000 2.6 20 19:21 02.06.2020
2159 Clear 14 1021 66 10000 3.6 20 18:55 02.06.2020
2160 Clear 13 1021 66 10000 3.6 20 18:37 02.06.2020
2161 Clear 13 1022 71 10000 3.6 360 18:18 02.06.2020
2162 Clear 13 1022 71 10000 3.6 360 17:41 02.06.2020
2163 Clear 12 1022 71 10000 3.6 360 17:23 02.06.2020
2164 Clear 12 1022 76 10000 4.1 360 16:57 02.06.2020
2165 -273 0 0 0 0 0 16:38 02.06.2020
2166 Clear 11 1022 76 10000 4.1 360 16:20 02.06.2020
2167 Clear 11 1023 76 10000 3.6 320 15:44 02.06.2020
2168 Clear 11 1023 76 10000 3.6 320 15:24 02.06.2020
2169 Clear 9 1022 65 10000 2.6 320 14:49 02.06.2020
2170 Clear 9 1022 65 10000 2.6 320 14:30 02.06.2020
2171 Clear 8 1022 87 8000 1 320 13:58 02.06.2020
2172 Clear 7 1022 87 8000 1 320 13:39 02.06.2020
2173 Clear 7 1022 87 8000 1 320 13:19 02.06.2020
2174 Clear 7 1022 87 8000 1 320 12:58 02.06.2020
2175 Clear 7 1022 87 8000 1 320 12:39 02.06.2020
2176 Clear 7 1021 87 8000 1 290 12:20 02.06.2020
2177 Clear 7 1021 87 8000 1 290 11:55 02.06.2020
2178 Clear 7 1021 87 8000 1 290 11:36 02.06.2020
2179 Clear 7 1021 87 8000 1 290 11:18 02.06.2020
2180 Clear 7 1023 99 0 0.45 315 10:44 02.06.2020
2181 Clear 7 1023 99 0 0.45 315 10:25 02.06.2020
2182 Clear 7 1023 99 0 2.53 292 09:44 02.06.2020
2183 Clear 7 1022 81 7000 1.5 310 09:22 02.06.2020
2184 Clear 5 1022 87 10000 1 0 08:57 02.06.2020
2185 Clear 7 1022 87 10000 1 0 08:29 02.06.2020
2186 Clear 7 1023 87 10000 0.5 270 07:59 02.06.2020
2187 Clear 7 1023 87 10000 0.5 270 07:38 02.06.2020
2188 Clear 7 1023 87 10000 0.5 240 07:18 02.06.2020
2189 Clear 8 1023 87 10000 0.5 240 06:39 02.06.2020
2190 Clear 7 1023 81 10000 0.5 270 05:38 02.06.2020
2191 Clear 8 1023 81 10000 0.5 170 04:41 02.06.2020
2192 Clouds 10 1023 71 10000 1 240 02:37 02.06.2020
2193 Clouds 10 1023 66 10000 1 0 01:55 02.06.2020
2194 Clouds 10 1022 62 10000 1 0 00:51 02.06.2020
2195 Clouds 11 1022 62 10000 1 0 00:21 02.06.2020
2196 Clouds 11 1022 57 10000 1.5 210 23:39 01.06.2020
2197 Clouds 11 1022 57 10000 1.5 210 23:20 01.06.2020
2198 Clouds 12 1022 54 10000 2.1 190 22:58 01.06.2020
2199 Clouds 12 1022 54 10000 2.1 190 22:39 01.06.2020
2200 Clouds 12 1022 54 10000 2.1 190 22:19 01.06.2020
2201 Clouds 13 1022 54 10000 2.1 210 21:42 01.06.2020
2202 Clouds 13 1022 54 10000 2.1 210 21:21 01.06.2020
2203 Clouds 13 1022 54 10000 2.6 200 20:59 01.06.2020
2204 Clouds 14 1022 50 10000 2.6 200 20:41 01.06.2020
2205 Clouds 13 1022 50 10000 2.6 200 20:20 01.06.2020
2206 Clouds 14 1022 50 10000 2.6 200 19:58 01.06.2020
2207 Clouds 13 1022 50 10000 2.6 200 19:39 01.06.2020
2208 Clouds 13 1023 58 10000 3.6 170 19:20 01.06.2020
2209 Clouds 13 1023 58 10000 3.6 170 18:57 01.06.2020
2210 Clouds 13 1023 58 10000 3.6 170 18:38 01.06.2020
2211 Clouds 12 1024 62 10000 3.1 190 18:19 01.06.2020
2212 Clouds 11 1024 62 10000 3.1 190 17:41 01.06.2020
2213 Clouds 11 1024 62 10000 3.1 190 17:21 01.06.2020
2214 Clear 11 1024 66 10000 2.1 200 16:58 01.06.2020
2215 Clear 11 1024 66 10000 2.1 200 16:39 01.06.2020
2216 Clear 10 1024 71 10000 2.1 220 16:18 01.06.2020
2217 Clear 9 1024 71 10000 2.1 220 15:45 01.06.2020
2218 Clear 9 1024 71 10000 2.1 220 15:21 01.06.2020
2219 Clear 8 1024 81 10000 2.1 220 14:59 01.06.2020
2220 Clear 8 1024 81 10000 2.1 220 14:41 01.06.2020
2221 Clear 7 1024 81 10000 2.1 220 14:21 01.06.2020
2222 Clear 7 1023 87 10000 2.1 220 13:56 01.06.2020
2223 Clear 6 1023 87 10000 2.1 220 13:38 01.06.2020
2224 Clear 6 1023 87 10000 2.1 220 13:19 01.06.2020
2225 Clouds 7 1023 81 10000 1.5 220 12:57 01.06.2020
2226 Clouds 7 1023 81 10000 1.5 220 12:38 01.06.2020
2227 Clouds 7 1023 81 10000 1.5 220 12:20 01.06.2020
2228 Clouds 7 1022 81 10000 2.1 200 11:40 01.06.2020
2229 Clear 7 1022 81 10000 2.1 200 11:22 01.06.2020
2230 Clear 7 1022 81 10000 2.1 200 10:57 01.06.2020
2231 Clear 7 1022 81 10000 2.1 200 10:38 01.06.2020
2232 Clear 7 1022 76 10000 2.1 200 10:19 01.06.2020
2233 Clear 8 1022 76 10000 2.1 200 09:55 01.06.2020
2234 Clear 8 1022 76 10000 2.1 200 09:37 01.06.2020
2235 Clear 8 1022 76 10000 2.1 200 09:37 01.06.2020
2236 Clear 9 1022 76 10000 2.6 210 09:19 01.06.2020
2237 Clear 9 1022 76 10000 2.6 210 08:42 01.06.2020
2238 Clouds 9 1022 76 10000 2.6 210 08:23 01.06.2020
2239 Clouds 9 1021 76 10000 2.6 220 07:44 01.06.2020
2240 Clouds 9 1021 76 10000 2.6 220 07:26 01.06.2020
2241 Clouds 10 1022 71 10000 1.5 200 06:52 01.06.2020
2242 Clouds 10 1021 66 10000 2.1 200 06:20 01.06.2020
2243 Clouds 10 1021 66 10000 2.1 200 05:49 01.06.2020
2244 Clouds 11 1021 58 10000 2.1 200 04:23 01.06.2020
2245 Clouds 12 1021 58 10000 1.5 190 03:44 01.06.2020
2246 Clouds 12 1021 58 10000 2.1 230 02:59 01.06.2020
2247 Clouds 12 1020 58 10000 2.1 220 01:47 01.06.2020
2248 Clouds 12 1020 58 10000 2.1 220 01:27 01.06.2020
2249 Clouds 12 1020 58 10000 3.1 210 00:57 01.06.2020
2250 Clouds 12 1020 58 10000 3.1 210 00:57 01.06.2020
2251 Clouds 12 1020 58 10000 3.1 210 00:38 01.06.2020
2252 Clouds 12 1019 58 10000 3.6 190 00:20 01.06.2020
2253 Clouds 12 1019 58 10000 3.6 190 23:42 31.05.2020
2254 Clouds 12 1019 58 10000 3.6 190 23:23 31.05.2020
2255 Clouds 12 1019 54 10000 4.1 220 22:59 31.05.2020
2256 Clouds 12 1019 54 10000 4.1 220 22:41 31.05.2020
2257 Clouds 13 1019 54 10000 4.1 220 22:22 31.05.2020
2258 Clouds 13 1018 50 10000 3.1 220 21:57 31.05.2020
2259 Clouds 13 1018 50 10000 3.1 220 21:39 31.05.2020
2260 Clouds 13 1018 54 10000 4.6 200 21:21 31.05.2020
2261 Clouds 13 1018 50 10000 3.1 220 21:21 31.05.2020
2262 Clouds 13 1018 54 10000 4.6 200 20:47 31.05.2020
2263 Clouds 13 1018 54 10000 4.6 200 20:25 31.05.2020
2264 Clouds 13 1018 54 10000 3.6 220 19:56 31.05.2020
2265 Clouds 13 1018 54 10000 3.6 220 19:38 31.05.2020
2266 Clouds 13 1018 54 10000 3.6 220 19:20 31.05.2020
2267 Clouds 13 1019 58 10000 4.1 220 18:46 31.05.2020
2268 Clouds 12 1019 58 10000 4.1 220 18:25 31.05.2020
2269 Clouds 11 1019 62 10000 4.1 230 17:59 31.05.2020
2270 Clouds 11 1019 62 10000 4.1 230 17:40 31.05.2020
2271 Clouds 11 1019 62 10000 4.1 230 17:21 31.05.2020
2272 Clouds 10 1019 66 10000 4.6 240 16:41 31.05.2020
2273 Clouds 10 1018 70 10000 4.6 230 16:21 31.05.2020
2274 Clouds 10 1018 70 10000 4.6 230 15:55 31.05.2020
2275 Clouds 9 1018 70 10000 4.6 230 15:36 31.05.2020
2276 Clouds 9 1018 70 10000 4.6 230 15:18 31.05.2020
2277 Clouds 8 1018 75 10000 5.1 240 14:40 31.05.2020
2278 Clouds 8 1017 75 10000 4.1 260 14:19 31.05.2020
2279 Clouds 8 1017 75 10000 4.1 260 13:55 31.05.2020
2280 Clouds 8 1017 75 10000 4.1 260 13:37 31.05.2020
2281 Clouds 7 1017 75 10000 4.1 260 13:18 31.05.2020
2282 Clouds 7 1017 75 10000 4.1 250 12:42 31.05.2020
2283 Clouds 8 1017 75 10000 4.1 250 12:23 31.05.2020
2284 Clouds 8 1017 75 10000 4.1 250 12:23 31.05.2020
2285 Clouds 8 1017 75 10000 4.1 260 11:54 31.05.2020
2286 Clouds 8 1017 75 10000 4.1 260 11:36 31.05.2020
2287 Clouds 8 1017 75 10000 4.6 260 11:18 31.05.2020
2288 Clouds 8 1017 75 10000 4.6 260 10:42 31.05.2020
2289 Clouds 8 1017 75 10000 4.6 260 10:23 31.05.2020
2290 Clouds 8 1017 75 10000 5.7 260 09:57 31.05.2020
2291 Clouds 8 1017 75 10000 5.7 260 09:39 31.05.2020
2292 Clouds 8 1017 75 10000 5.7 260 09:19 31.05.2020
2293 Clouds 8 1017 75 10000 4.6 270 08:42 31.05.2020
2294 Clouds 8 1017 75 10000 4.6 270 08:23 31.05.2020
2295 Clouds 8 1017 75 10000 5.7 270 07:48 31.05.2020
2296 Clouds 8 1017 75 10000 5.7 270 07:22 31.05.2020
2297 Clouds 8 1017 75 10000 5.7 270 07:22 31.05.2020
2298 Clouds 8 1017 66 10000 6.2 260 06:56 31.05.2020
2299 Clouds 8 1017 66 10000 6.2 260 06:34 31.05.2020
2300 Clouds 8 1016 66 10000 5.7 260 05:48 31.05.2020
2301 Clouds 8 1016 66 10000 5.7 260 05:30 31.05.2020
2302 Clouds 9 1016 66 10000 6.7 270 03:57 31.05.2020
2303 Clear 10 1016 71 10000 4.1 270 02:59 31.05.2020
2304 Clear 10 1016 71 10000 4.1 270 02:33 31.05.2020
2305 Clouds 11 1016 66 10000 3.6 260 01:39 31.05.2020
2306 Clouds 10 1015 76 10000 3.6 280 00:33 31.05.2020
2307 Clouds 11 1014 76 10000 4.1 260 23:59 30.05.2020
2308 Clouds 11 1014 76 10000 4.1 260 23:41 30.05.2020
2309 Clouds 11 1014 76 10000 4.1 260 23:23 30.05.2020
2310 Clouds 11 1014 76 10000 4.6 250 22:42 30.05.2020
2311 Clouds 11 1014 76 10000 4.6 250 22:23 30.05.2020
2312 Clouds 12 1014 76 10000 4.1 260 21:56 30.05.2020
2313 Clouds 12 1014 76 10000 4.1 260 21:38 30.05.2020
2314 Clouds 12 1014 76 10000 4.1 260 21:20 30.05.2020
2315 Clouds 13 1014 82 10000 4.1 260 20:57 30.05.2020
2316 Clouds 13 1014 82 10000 4.1 260 20:38 30.05.2020
2317 Clouds 13 1014 82 10000 4.1 260 20:20 30.05.2020
2318 Clouds 14 1013 82 10000 2.6 260 19:43 30.05.2020
2319 Clouds 14 1014 87 9000 3.1 260 19:22 30.05.2020
2320 Clouds 14 1014 87 9000 3.1 260 18:46 30.05.2020
2321 Clouds 14 1014 87 9000 3.1 260 18:25 30.05.2020
2322 Clouds 14 1014 87 9000 3.1 260 18:25 30.05.2020
2323 Mist 14 1014 87 5000 3.6 250 17:56 30.05.2020
2324 Mist 14 1014 87 5000 3.6 250 17:38 30.05.2020
2325 Mist 14 1014 87 5000 3.6 250 17:19 30.05.2020
2326 Mist 14 1014 87 5000 3.1 240 16:43 30.05.2020
2327 Mist 15 1014 87 5000 3.1 240 16:23 30.05.2020
2328 Mist 14 1014 93 5000 3.1 290 15:56 30.05.2020
2329 Clouds 15 1013 87 7000 2.1 290 15:37 30.05.2020
2330 Clouds 15 1013 87 7000 2.1 290 15:19 30.05.2020
2331 Clear 15 1013 100 7000 2.1 300 14:42 30.05.2020
2332 Clouds 15 1013 100 7000 2.1 300 14:20 30.05.2020
2333 Fog 14 1013 93 6000 2.1 330 13:41 30.05.2020
2334 Fog 14 1013 93 6000 2.1 330 13:19 30.05.2020
2335 Fog 14 1012 93 4000 0.5 330 12:40 30.05.2020
2336 Fog 14 1012 93 4000 0.5 330 12:20 30.05.2020
2337 Fog 14 1013 93 900 0.5 310 11:55 30.05.2020
2338 Fog 14 1013 93 900 0.5 310 11:55 30.05.2020
2339 Fog 14 1013 93 900 0.5 310 11:37 30.05.2020
2340 Fog 14 1013 93 900 0.5 310 11:19 30.05.2020
2341 Mist 14 1013 93 4000 0.98 330 10:39 30.05.2020
2342 Fog 14 1013 93 4000 1.08 337 10:20 30.05.2020
2343 Fog 14 1013 93 4000 1.08 337 09:46 30.05.2020
2344 Fog 14 1013 93 4000 1.54 321 09:28 30.05.2020
2345 Fog 14 1013 93 4000 1 150 08:46 30.05.2020
2346 Fog 14 1013 93 4000 1 150 08:27 30.05.2020
2347 Mist 15 1013 93 4000 1.5 110 07:43 30.05.2020
2348 Mist 15 1013 93 4000 1.5 110 07:20 30.05.2020
2349 Clouds 15 1013 93 6000 2.1 100 06:31 30.05.2020
2350 Clouds 15 1013 100 8000 2.6 130 05:52 30.05.2020
2351 Clouds 15 1013 100 8000 2.6 130 05:20 30.05.2020
2352 Clouds 15 1014 93 10000 4.1 120 03:35 30.05.2020
2353 Clouds 15 1013 87 10000 3.6 120 02:29 30.05.2020
2354 Clouds 15 1013 82 10000 1 160 01:30 30.05.2020
2355 Clouds 16 1013 77 10000 2.1 120 00:36 30.05.2020
2356 Clouds 16 1013 77 10000 3.1 110 00:18 30.05.2020
2357 Clouds 16 1013 77 10000 3.1 110 23:41 29.05.2020
2358 Clouds 17 1013 72 10000 3.6 110 23:20 29.05.2020
2359 Clouds 17 1013 72 10000 3.6 110 22:56 29.05.2020
2360 Clouds 18 1013 72 10000 3.6 110 22:38 29.05.2020
2361 Clouds 18 1013 77 10000 3.1 110 22:18 29.05.2020
2362 Clouds 18 1013 77 10000 3.1 110 21:41 29.05.2020
2363 Clouds 18 1013 72 10000 3.6 110 21:21 29.05.2020
2364 Clouds 19 1013 72 10000 3.6 110 20:58 29.05.2020
2365 Clouds 19 1013 72 10000 3.6 110 20:39 29.05.2020
2366 Clouds 19 1013 72 10000 3.6 110 20:19 29.05.2020
2367 Clouds 19 1014 68 10000 2.6 110 19:43 29.05.2020
2368 Clouds 19 1014 68 10000 2.6 110 19:25 29.05.2020
2369 Clouds 18 1015 72 10000 2.6 110 18:48 29.05.2020
2370 Clouds 18 1015 72 10000 2.6 110 18:24 29.05.2020
2371 Clouds 17 1016 82 10000 2.6 90 17:59 29.05.2020
2372 Clouds 17 1016 82 10000 2.6 90 17:39 29.05.2020
2373 Clouds 17 1016 82 10000 2.6 90 17:20 29.05.2020
2374 Clouds 16 1016 93 9000 3.6 110 16:54 29.05.2020
2375 Clouds 16 1016 93 9000 3.6 110 16:36 29.05.2020
2376 Mist 16 1016 100 5000 4.1 110 16:18 29.05.2020
2377 Mist 16 1016 100 5000 4.1 110 15:41 29.05.2020
2378 Mist 15 1016 93 3000 3.1 110 15:21 29.05.2020
2379 Mist 15 1016 93 3000 3.1 110 14:57 29.05.2020
2380 Mist 14 1016 93 3000 3.1 110 14:38 29.05.2020
2381 Mist 14 1016 93 3000 3.1 110 14:19 29.05.2020
2382 Mist 12 1016 93 5000 2.6 140 13:43 29.05.2020
2383 Mist 12 1016 93 5000 2.6 140 13:22 29.05.2020
2384 Clear 12 1015 100 6000 2.6 140 12:55 29.05.2020
2385 Clear 12 1015 100 6000 2.6 140 12:55 29.05.2020
2386 Clear 12 1015 100 6000 2.6 140 12:37 29.05.2020
2387 Clear 12 1015 100 6000 2.6 140 12:18 29.05.2020
2388 Fog 13 1015 93 4000 1.91 24 11:42 29.05.2020
2389 Fog 13 1015 93 4000 1.91 24 11:42 29.05.2020
2390 Fog 13 1015 93 4000 1.56 25 11:24 29.05.2020
2391 Fog 13 1015 100 4000 1.56 25 10:43 29.05.2020
2392 Fog 13 1015 100 4000 0.94 21 10:24 29.05.2020
2393 Fog 13 1015 100 7000 0.94 21 09:56 29.05.2020
2394 Fog 13 1015 100 8000 0.94 21 09:38 29.05.2020
2395 Fog 13 1015 100 8000 1.19 351 09:19 29.05.2020
2396 Fog 13 1015 93 10000 1.19 351 08:46 29.05.2020
2397 Fog 13 1015 93 10000 1.08 342 08:23 29.05.2020
2398 Fog 13 1015 93 10000 1.08 342 07:47 29.05.2020
2399 Fog 13 1015 93 10000 1.08 342 07:29 29.05.2020
2400 Fog 14 1015 93 10000 1.09 357 06:55 29.05.2020
2401 Fog 14 1015 93 10000 1.09 357 06:37 29.05.2020
2402 Fog 14 1015 93 4500 1.46 359 06:18 29.05.2020
2403 Fog 14 1015 93 10000 2.03 6 05:24 29.05.2020
2404 Clear 15 1015 87 10000 3.1 120 01:48 29.05.2020
2405 Clear 15 1015 87 10000 3.1 120 01:26 29.05.2020
2406 Clear 15 1015 82 10000 3.6 110 00:50 29.05.2020
2407 Clear 15 1015 82 10000 3.6 110 00:23 29.05.2020
2408 Clear 16 1015 82 10000 3.1 130 23:41 28.05.2020
2409 Clear 16 1015 82 10000 3.1 130 23:20 28.05.2020
2410 Clear 16 1015 82 10000 2.6 100 22:59 28.05.2020
2411 Clear 16 1015 82 10000 2.6 100 22:40 28.05.2020
2412 Clear 17 1015 82 10000 2.6 100 22:20 28.05.2020
2413 Clear 17 1015 82 10000 2.6 80 21:55 28.05.2020
2414 Clear 18 1015 82 10000 2.6 80 21:36 28.05.2020
2415 Clear 17 1015 82 10000 2.6 70 21:18 28.05.2020
2416 Clear 17 1015 82 10000 2.6 70 20:41 28.05.2020
2417 Clear 18 1015 82 10000 2.6 70 20:20 28.05.2020
2418 Clear 18 1015 77 10000 2.6 50 19:58 28.05.2020
2419 Clear 18 1015 77 10000 2.6 50 19:40 28.05.2020
2420 Clear 18 1015 77 10000 2.6 50 19:20 28.05.2020
2421 Clear 17 1016 82 10000 2.6 50 18:57 28.05.2020
2422 Clear 17 1016 82 10000 2.6 50 18:38 28.05.2020
2423 Clear 17 1016 82 10000 2.6 50 18:20 28.05.2020
2424 Clear 17 1017 82 10000 2.1 30 17:40 28.05.2020
2425 Clear 18 1017 82 10000 2.1 30 17:21 28.05.2020
2426 Clear 17 1017 82 10000 2.1 360 16:47 28.05.2020
2427 Clear 17 1017 82 10000 2.6 350 16:21 28.05.2020
2428 Clear 16 1017 82 10000 2.6 350 15:55 28.05.2020
2429 Clear 16 1017 82 10000 2.6 350 15:36 28.05.2020
2430 Clear 15 1016 87 10000 1.5 350 15:18 28.05.2020
2431 Clear 15 1016 87 10000 1.5 350 14:42 28.05.2020
2432 Clear 12 1016 87 10000 1.5 350 14:22 28.05.2020
2433 Fog 14 1016 93 9000 1.5 360 13:46 28.05.2020
2434 Fog 13 1016 93 9000 1.5 360 13:27 28.05.2020
2435 Fog 12 1016 93 9000 1.5 0 12:44 28.05.2020
2436 Fog 12 1016 87 9000 2.6 320 12:20 28.05.2020
2437 Fog 13 1016 87 9000 2.6 320 11:57 28.05.2020
2438 Fog 13 1016 87 9000 2.6 320 11:57 28.05.2020
2439 Fog 13 1016 87 9000 2.6 320 11:39 28.05.2020
2440 Fog 13 1016 87 9000 2.6 320 11:20 28.05.2020
2441 Clear 13 1016 82 10000 1 0 10:43 28.05.2020
2442 Clear 13 1016 82 10000 1 0 10:25 28.05.2020
2443 Clear 14 1015 76 10000 2.6 320 09:56 28.05.2020
2444 Clear 14 1015 76 10000 2.6 320 09:38 28.05.2020
2445 Clear 14 1015 76 10000 2.6 320 09:18 28.05.2020
2446 Clear 14 1015 76 10000 2.6 300 08:43 28.05.2020
2447 Clear 14 1015 76 10000 2.6 300 08:22 28.05.2020
2448 Clear 15 1015 77 10000 4.6 320 07:41 28.05.2020
2449 Clear 15 1015 77 10000 4.6 320 07:23 28.05.2020
2450 Clear 15 1015 77 10000 3.6 320 06:44 28.05.2020
2451 Clear 15 1015 77 10000 3.6 320 06:26 28.05.2020
2452 Clear 16 1015 77 10000 4.6 330 05:39 28.05.2020
2453 Clear 16 1015 82 10000 3.6 320 04:37 28.05.2020
2454 Clear 16 1015 77 10000 4.1 320 04:18 28.05.2020
2455 Clear 17 1015 82 10000 2.6 330 02:56 28.05.2020
2456 Clear 17 1015 82 10000 2.6 330 02:29 28.05.2020
2457 Clear 17 1015 82 10000 2.1 330 01:45 28.05.2020
2458 Clear 17 1015 82 10000 2.1 330 00:47 28.05.2020
2459 Clear 17 1015 82 10000 2.1 330 00:19 28.05.2020
2460 Clear 17 1015 77 10000 3.1 360 23:56 27.05.2020
2461 Clear 17 1015 77 10000 3.1 360 23:37 27.05.2020
2462 Clear 17 1015 77 10000 3.1 360 23:19 27.05.2020
2463 Clear 18 1015 77 10000 2.1 10 22:41 27.05.2020
2464 Clear 18 1015 77 10000 2.1 10 22:23 27.05.2020
2465 Clear 19 1015 72 10000 2.6 50 21:56 27.05.2020
2466 Clear 19 1015 72 10000 2.6 50 21:37 27.05.2020
2467 Clear 19 1015 72 10000 2.6 50 21:19 27.05.2020
2468 Clear 19 1015 72 10000 2.1 10 20:57 27.05.2020
2469 Clear 19 1015 72 10000 2.1 10 20:38 27.05.2020
2470 Clear 19 1015 77 10000 2.1 30 20:18 27.05.2020
2471 Clear 18 1015 77 10000 2.1 30 19:43 27.05.2020
2472 Clear 18 1015 77 10000 2.1 30 19:20 27.05.2020
2473 Clear 17 1016 77 10000 2.6 10 18:45 27.05.2020
2474 Clear 17 1017 77 10000 2.1 10 18:20 27.05.2020
2475 Clear 17 1017 77 10000 2.1 10 17:58 27.05.2020
2476 Clear 17 1017 77 10000 2.1 10 17:39 27.05.2020
2477 Clear 16 1017 82 10000 3.1 340 17:21 27.05.2020
2478 Clear 16 1017 82 10000 3.1 340 16:56 27.05.2020
2479 Clear 16 1017 82 10000 3.1 340 16:38 27.05.2020
2480 Clear 15 1017 82 10000 3.6 330 16:19 27.05.2020
2481 Clear 15 1017 82 10000 3.6 330 15:47 27.05.2020
2482 Clear 14 1017 82 10000 3.6 330 15:22 27.05.2020
2483 Clear 13 1017 87 10000 3.1 340 14:46 27.05.2020
2484 Clear 13 1017 87 10000 3.1 340 14:22 27.05.2020
2485 Clear 13 1016 93 10000 3.6 320 13:58 27.05.2020
2486 Clear 12 1016 93 10000 3.6 320 13:39 27.05.2020
2487 Clear 12 1016 93 10000 3.6 320 13:39 27.05.2020
2488 Clear 12 1016 93 10000 3.6 320 13:20 27.05.2020
2489 Clear 12 1016 87 10000 4.1 320 12:42 27.05.2020
2490 Clear 12 1016 87 10000 4.1 320 12:23 27.05.2020
2491 Clear 12 1016 87 10000 3.1 320 11:42 27.05.2020
2492 Clear 12 1016 87 10000 3.1 320 11:24 27.05.2020
2493 Clear 12 1015 87 10000 2.6 330 10:59 27.05.2020
2494 Clear 12 1015 87 10000 2.6 330 10:41 27.05.2020
2495 Clear 12 1016 81 10000 3.1 320 10:23 27.05.2020
2496 Clear 12 1016 81 10000 3.1 320 09:55 27.05.2020
2497 Clear 12 1016 81 10000 3.1 320 09:37 27.05.2020
2498 Clear 12 1016 87 10000 2.6 320 09:18 27.05.2020
2499 Clear 12 1016 87 10000 2.6 320 08:40 27.05.2020
2500 Clear 12 1016 87 10000 2.6 320 08:22 27.05.2020
2501 Clear 12 1016 87 10000 3.1 320 07:51 27.05.2020
2502 Clear 12 1016 87 10000 3.1 320 07:33 27.05.2020
2503 Clear 12 1016 82 10000 3.1 360 06:52 27.05.2020
2504 Clear 12 1016 82 10000 3.1 360 06:24 27.05.2020
2505 Clear 12 1016 93 10000 1.5 10 05:50 27.05.2020
2506 Clear 12 1016 93 10000 1.5 10 05:23 27.05.2020
2507 Fog 12 1016 93 10000 1.99 0 02:46 27.05.2020
2508 Fog 13 1016 93 10000 1.25 346 02:24 27.05.2020
2509 Clear 13 1016 87 10000 1.5 130 01:31 27.05.2020
2510 Clear 13 1016 87 10000 1 70 00:47 27.05.2020
2511 Clear 13 1016 87 10000 1 70 00:20 27.05.2020
2512 Clear 14 1016 82 10000 1.5 40 23:57 26.05.2020
2513 Clear 14 1016 82 10000 1.5 40 23:39 26.05.2020
2514 Clear 15 1016 82 10000 1.5 40 23:20 26.05.2020
2515 Clear 15 1016 77 10000 2.1 20 22:41 26.05.2020
2516 Clear 15 1016 77 10000 2.1 20 22:23 26.05.2020
2517 Clear 15 1016 77 10000 2.1 20 22:23 26.05.2020
2518 Clear 16 1016 77 10000 2.6 360 21:59 26.05.2020
2519 Clear 16 1016 77 10000 2.6 360 21:40 26.05.2020
2520 Clear 16 1016 77 10000 2.6 360 21:22 26.05.2020
2521 Clear 16 1017 77 10000 2.6 20 20:57 26.05.2020
2522 Clear 16 1017 77 10000 2.6 20 20:39 26.05.2020
2523 Clear 16 1017 67 10000 2.6 10 20:19 26.05.2020
2524 Clear 16 1017 67 10000 2.6 10 19:40 26.05.2020
2525 Clear 16 1017 67 10000 2.6 10 19:20 26.05.2020
2526 Clouds 16 1018 63 10000 2.6 290 18:57 26.05.2020
2527 Clouds 16 1018 63 10000 2.6 290 18:39 26.05.2020
2528 Clouds 16 1018 63 10000 2.6 290 18:20 26.05.2020
2529 Clouds 14 1019 67 10000 2.6 290 17:39 26.05.2020
2530 Clouds 14 1019 67 10000 2.6 290 17:20 26.05.2020
2531 Clear 13 1019 71 10000 2.1 250 16:47 26.05.2020
2532 Clear 13 1019 71 10000 2.1 250 16:22 26.05.2020
2533 Clear 12 1019 71 10000 1.5 230 15:56 26.05.2020
2534 Clear 12 1019 71 10000 1.5 230 15:38 26.05.2020
2535 Clear 11 1019 71 10000 1.5 230 15:19 26.05.2020
2536 Clear 11 1019 76 10000 1.5 230 14:43 26.05.2020
2537 Clear 10 1019 81 10000 1.5 250 14:23 26.05.2020
2538 Clear 10 1019 81 10000 1.5 250 13:56 26.05.2020
2539 Clear 10 1019 81 10000 1.5 250 13:37 26.05.2020
2540 Clear 10 1019 81 10000 1.5 250 13:18 26.05.2020
2541 Clear 10 1018 87 10000 1.5 250 12:42 26.05.2020
2542 Clear 10 1018 87 10000 1.5 250 12:22 26.05.2020
2543 Clear 10 1018 87 10000 1 250 11:58 26.05.2020
2544 Clear 10 1018 87 10000 1 250 11:40 26.05.2020
2545 Clear 10 1018 87 10000 1 250 11:18 26.05.2020
2546 Clear 11 1018 81 10000 1.5 240 10:42 26.05.2020
2547 Clear 11 1018 81 10000 1.5 240 10:19 26.05.2020
2548 Clouds 11 1018 81 10000 2.1 220 09:40 26.05.2020
2549 Clouds 12 1018 81 10000 2.1 220 09:20 26.05.2020
2550 Clouds 12 1018 76 10000 1 0 08:43 26.05.2020
2551 Clouds 12 1018 76 10000 1 0 08:22 26.05.2020
2552 Clouds 12 1018 76 10000 2.1 200 07:57 26.05.2020
2553 Clouds 12 1018 76 10000 2.1 200 07:37 26.05.2020
2554 Clouds 13 1018 76 10000 2.1 200 07:18 26.05.2020
2555 Clouds 13 1018 71 10000 3.6 200 06:44 26.05.2020
2556 Clouds 13 1019 67 10000 3.6 210 05:55 26.05.2020
2557 Clouds 13 1019 67 10000 3.6 210 05:33 26.05.2020
2558 Clouds 14 1018 67 10000 2.6 0 04:54 26.05.2020
2559 Clouds 14 1018 67 10000 2.6 0 04:33 26.05.2020
2560 Clouds 14 1018 67 10000 3.1 210 03:55 26.05.2020
2561 Clouds 14 1018 67 10000 3.1 220 02:45 26.05.2020
2562 Clouds 15 1017 59 10000 3.1 230 01:48 26.05.2020
2563 Clouds 15 1017 59 10000 3.1 230 01:27 26.05.2020
2564 Clouds 15 1016 63 10000 3.1 220 00:37 26.05.2020
2565 Clouds 16 1016 63 10000 3.1 220 00:18 26.05.2020
2566 Clouds 16 1016 55 10000 3.6 220 23:55 25.05.2020
2567 Clouds 16 1016 55 10000 3.6 220 23:36 25.05.2020
2568 Clouds 16 1016 55 10000 3.6 220 23:18 25.05.2020
2569 Clouds 16 1016 55 10000 3.6 220 23:18 25.05.2020
2570 Clouds 17 1015 55 10000 4.6 220 22:54 25.05.2020
2571 Clouds 17 1015 55 10000 4.6 220 22:36 25.05.2020
2572 Clouds 17 1015 55 10000 5.1 220 22:18 25.05.2020
2573 Clouds 17 1015 55 10000 5.1 220 21:54 25.05.2020
2574 Clouds 17 1015 55 10000 5.1 220 21:36 25.05.2020
2575 Clouds 17 1014 59 10000 4.6 220 21:18 25.05.2020
2576 Clouds 17 1014 59 10000 4.6 220 20:41 25.05.2020
2577 Clouds 17 1014 59 10000 4.6 220 20:21 25.05.2020
2578 Clouds 17 1014 59 10000 5.1 220 19:58 25.05.2020
2579 Clouds 17 1014 59 10000 5.1 220 19:39 25.05.2020
2580 Clouds 17 1014 59 10000 5.1 220 19:18 25.05.2020
2581 Clouds 17 1013 59 10000 4.1 220 18:45 25.05.2020
2582 Clouds 17 1013 59 10000 4.1 220 18:22 25.05.2020
2583 Clouds 17 1013 63 10000 5.1 220 17:58 25.05.2020
2584 Clouds 16 1013 63 10000 5.1 220 17:39 25.05.2020
2585 Clouds 15 1013 67 10000 6.2 220 17:21 25.05.2020
2586 Clouds 15 1013 67 10000 6.2 220 16:56 25.05.2020
2587 Clouds 15 1013 67 10000 6.2 220 16:56 25.05.2020
2588 Clouds 14 1013 67 10000 6.2 220 16:37 25.05.2020
2589 Clouds 14 1013 66 10000 4.6 220 16:19 25.05.2020
2590 Clouds 13 1013 66 10000 4.6 220 15:42 25.05.2020
2591 Clouds 13 1011 62 10000 4.6 230 15:19 25.05.2020
2592 Clouds 13 1011 62 10000 4.6 230 14:44 25.05.2020
2593 Clouds 13 1011 62 10000 4.6 230 14:26 25.05.2020
2594 Clouds 12 1011 66 10000 4.6 230 13:59 25.05.2020
2595 Clouds 12 1011 66 10000 4.6 230 13:39 25.05.2020
2596 Clouds 12 1011 66 10000 4.6 230 13:20 25.05.2020
2597 Clouds 12 1010 62 10000 4.1 230 12:57 25.05.2020
2598 Clouds 12 1010 62 10000 4.1 230 12:37 25.05.2020
2599 Clouds 12 1010 62 10000 4.1 230 12:19 25.05.2020
2600 Clouds 13 1009 62 10000 4.1 230 11:39 25.05.2020
2601 Clouds 13 1008 54 10000 4.6 230 11:19 25.05.2020
2602 Clouds 13 1008 54 10000 4.6 230 11:19 25.05.2020
2603 Clouds 13 1008 54 10000 4.6 230 10:54 25.05.2020
2604 Clouds 13 1008 54 10000 4.6 230 10:54 25.05.2020
2605 Clouds 13 1008 54 10000 4.6 230 10:36 25.05.2020
2606 Clouds 13 1008 54 10000 4.6 230 10:36 25.05.2020
2607 Clouds 13 1008 54 10000 4.6 230 10:18 25.05.2020
2608 Clouds 14 1008 51 10000 5.1 230 09:41 25.05.2020
2609 Clouds 14 1008 51 10000 5.1 230 09:20 25.05.2020
2610 Clouds 14 1008 47 10000 3.6 260 08:59 25.05.2020
2611 Clouds 15 1008 47 10000 3.6 260 08:38 25.05.2020
2612 Clouds 15 1007 44 10000 4.6 260 08:19 25.05.2020
2613 Clouds 15 1007 44 10000 4.6 260 07:46 25.05.2020
2614 Clouds 15 1006 51 10000 6.7 300 07:21 25.05.2020
2615 Clouds 15 1006 51 10000 6.7 300 06:54 25.05.2020
2616 Clouds 15 1006 51 10000 6.7 300 06:33 25.05.2020
2617 Clouds 15 1008 54 10000 5.1 290 04:19 25.05.2020
2618 Clouds 15 1007 54 10000 7.2 300 03:23 25.05.2020
2619 Clouds 15 1007 54 10000 6.7 310 02:45 25.05.2020
2620 Clouds 16 1008 51 10000 6.2 310 01:57 25.05.2020
2621 Clouds 16 1008 51 10000 6.2 310 01:29 25.05.2020
2622 Clouds 16 1009 48 10000 6.7 300 00:42 25.05.2020
2623 Clouds 16 1009 48 10000 5.7 310 00:20 25.05.2020
2624 Clouds 16 1009 48 10000 5.7 310 23:56 24.05.2020
2625 Clouds 16 1009 48 10000 5.7 310 23:37 24.05.2020
2626 Clouds 16 1009 48 10000 5.7 310 23:37 24.05.2020
2627 Clouds 16 1009 48 10000 5.7 310 23:18 24.05.2020
2628 Clouds 16 1010 48 10000 6.2 310 22:41 24.05.2020
2629 Clouds 16 1010 48 10000 6.2 310 22:19 24.05.2020
2630 Clouds 16 1010 48 10000 7.2 310 21:56 24.05.2020
2631 Clouds 16 1010 48 10000 7.2 310 21:38 24.05.2020
2632 Clouds 17 1010 48 10000 7.2 310 21:20 24.05.2020
2633 Clouds 17 1011 45 10000 6.7 310 20:44 24.05.2020
2634 Clouds 17 1011 45 10000 6.7 310 20:23 24.05.2020
2635 Clouds 17 1012 44 10000 6.2 310 19:59 24.05.2020
2636 Clouds 16 1012 44 10000 6.2 310 19:41 24.05.2020
2637 Clouds 16 1013 47 10000 6.7 310 19:20 24.05.2020
2638 Clouds 15 1013 47 10000 6.7 310 18:59 24.05.2020
2639 Clouds 15 1013 47 10000 6.7 310 18:40 24.05.2020
2640 Clouds 15 1013 47 10000 6.7 310 18:22 24.05.2020
2641 Clouds 14 1014 54 10000 6.7 310 17:55 24.05.2020
2642 Clouds 14 1014 54 10000 6.7 310 17:36 24.05.2020
2643 Clouds 14 1014 54 10000 6.7 310 17:36 24.05.2020
2644 Clouds 14 1014 54 10000 6.7 310 17:18 24.05.2020
2645 Clouds 13 1016 54 10000 6.7 310 16:39 24.05.2020
2646 Clouds 13 1016 54 10000 6.7 310 16:20 24.05.2020
2647 Clouds 13 1016 62 10000 5.1 310 16:20 24.05.2020
2648 Clouds 13 1016 62 10000 5.1 310 15:57 24.05.2020
2649 Clouds 12 1016 62 10000 5.1 310 15:38 24.05.2020
2650 Clouds 12 1016 62 10000 5.1 310 15:38 24.05.2020
2651 Clouds 12 1016 62 10000 5.1 310 15:19 24.05.2020
2652 Clouds 12 1016 62 10000 5.1 310 15:19 24.05.2020
2653 Clouds 11 1016 71 10000 4.1 310 14:46 24.05.2020
2654 Clouds 10 1016 71 10000 4.1 310 14:24 24.05.2020
2655 Clouds 10 1016 66 10000 3.6 310 13:59 24.05.2020
2656 Clouds 10 1016 66 10000 3.6 310 13:41 24.05.2020
2657 Clouds 10 1016 66 10000 3.6 310 13:21 24.05.2020
2658 Clouds 10 1017 71 10000 2.6 310 12:59 24.05.2020
2659 Clouds 10 1017 71 10000 2.6 310 12:40 24.05.2020
2660 Clouds 10 1017 71 10000 2.6 310 12:22 24.05.2020
2661 Clouds 10 1017 66 10000 1.5 250 11:59 24.05.2020
2662 Clouds 10 1017 66 10000 1.5 250 11:41 24.05.2020
2663 Clouds 10 1017 66 10000 1.5 250 11:41 24.05.2020
2664 Clouds 10 1017 66 10000 1.5 250 11:22 24.05.2020
2665 Clouds 10 1019 66 10000 2.1 250 10:56 24.05.2020
2666 Clouds 10 1019 66 10000 2.1 250 10:56 24.05.2020
2667 Clouds 10 1019 66 10000 2.1 250 10:37 24.05.2020
2668 Clouds 11 1018 66 10000 1.5 270 10:19 24.05.2020
2669 Clouds 11 1018 66 10000 1.5 270 09:41 24.05.2020
2670 Clouds 11 1019 66 10000 2.1 250 09:18 24.05.2020
2671 Clouds 11 1019 66 10000 2.1 250 08:56 24.05.2020
2672 Clouds 11 1019 66 10000 2.1 250 08:38 24.05.2020
2673 Clouds 11 1019 66 10000 2.1 250 08:19 24.05.2020
2674 Clouds 11 1018 66 10000 1 0 07:44 24.05.2020
2675 Clouds 11 1018 66 10000 1 0 07:25 24.05.2020
2676 Clouds 11 1019 66 9000 1 0 06:49 24.05.2020
2677 Clouds 11 1019 66 9000 1 0 06:29 24.05.2020
2678 Clouds 12 1020 66 10000 1 0 04:54 24.05.2020
2679 Clouds 12 1020 62 10000 1 230 03:41 24.05.2020
2680 Clouds 12 1022 72 0 0.98 210 02:42 24.05.2020
2681 Clouds 13 1021 54 10000 1 230 01:46 24.05.2020
2682 Clouds 14 1022 51 10000 2.6 220 00:39 24.05.2020
2683 Clouds 14 1022 51 10000 2.6 220 00:21 24.05.2020
2684 Clouds 15 1021 47 10000 1.5 200 23:44 23.05.2020
2685 Clouds 15 1021 47 10000 1.5 200 23:24 23.05.2020
2686 Clouds 16 1021 44 10000 2.1 210 22:58 23.05.2020
2687 Clouds 16 1021 44 10000 2.1 210 22:38 23.05.2020
2688 Clouds 17 1021 42 10000 2.6 160 22:20 23.05.2020
2689 Clouds 17 1021 42 10000 2.6 160 21:57 23.05.2020
2690 Clouds 17 1021 42 10000 2.6 160 21:38 23.05.2020
2691 Clouds 17 1021 42 10000 2.6 160 21:19 23.05.2020
2692 Clouds 17 1021 42 10000 2.6 160 21:19 23.05.2020
2693 Clouds 17 1021 48 10000 3.1 160 20:57 23.05.2020
2694 Clouds 17 1021 48 10000 3.1 160 20:38 23.05.2020
2695 Clouds 17 1022 48 10000 3.1 180 20:18 23.05.2020
2696 Clouds 16 1022 48 10000 3.1 180 19:42 23.05.2020
2697 Clouds 16 1022 48 10000 3.1 180 19:20 23.05.2020
2698 Clouds 16 1023 55 10000 3.6 170 18:57 23.05.2020
2699 Clouds 16 1023 55 10000 3.6 170 18:39 23.05.2020
2700 Clouds 16 1023 55 10000 3.6 170 18:21 23.05.2020
2701 Clear 15 1024 62 10000 4.1 170 17:55 23.05.2020
2702 Clear 15 1024 62 10000 4.1 170 17:37 23.05.2020
2703 Clear 15 1024 62 10000 4.1 170 17:37 23.05.2020
2704 Clear 15 1024 62 10000 4.1 170 17:19 23.05.2020
2705 Clear 14 1024 71 10000 2.6 190 16:55 23.05.2020
2706 Clear 13 1024 81 10000 3.1 200 16:37 23.05.2020
2707 Clear 12 1024 81 10000 3.1 200 16:18 23.05.2020
2708 Clear 12 1024 81 10000 3.1 200 15:42 23.05.2020
2709 Clear 11 1024 81 10000 3.1 200 15:23 23.05.2020
2710 Clear 10 1024 81 10000 3.1 190 14:55 23.05.2020
2711 Clear 10 1024 81 10000 3.1 190 14:36 23.05.2020
2712 Clouds 9 1024 87 10000 3.1 190 14:18 23.05.2020
2713 Clouds 9 1024 87 10000 3.1 190 13:39 23.05.2020
2714 Clouds 8 1024 87 10000 3.1 190 13:19 23.05.2020
2715 Clouds 8 1023 87 10000 3.6 190 12:43 23.05.2020
2716 Clouds 8 1023 87 10000 3.6 190 12:20 23.05.2020
2717 Clouds 8 1023 87 10000 3.6 190 11:59 23.05.2020
2718 Clouds 8 1023 87 10000 3.6 190 11:41 23.05.2020
2719 Clear 9 1023 87 10000 3.6 180 11:19 23.05.2020
2720 Clear 9 1023 87 10000 3.6 180 10:56 23.05.2020
2721 Clear 9 1023 87 10000 3.6 180 10:37 23.05.2020
2722 Clear 9 1023 87 10000 3.6 180 10:18 23.05.2020
2723 Clouds 9 1024 87 10000 3.1 190 09:43 23.05.2020
2724 Clouds 9 1024 87 10000 3.1 190 09:24 23.05.2020
2725 Clouds 10 1024 81 10000 3.6 180 08:58 23.05.2020
2726 Clouds 10 1024 81 10000 3.6 180 08:38 23.05.2020
2727 Clouds 10 1024 81 10000 3.6 180 08:19 23.05.2020
2728 Clouds 10 1024 87 10000 4.1 170 07:45 23.05.2020
2729 Clouds 10 1024 87 10000 4.1 170 07:23 23.05.2020
2730 Clouds 11 1024 81 10000 3.6 180 06:43 23.05.2020
2731 Clouds 11 1024 81 10000 4.6 170 05:59 23.05.2020
2732 Clouds 12 1024 76 10000 5.7 170 03:55 23.05.2020
2733 Clouds 12 1024 76 10000 5.7 170 03:24 23.05.2020
2734 Clouds 13 1024 76 10000 6.2 160 02:40 23.05.2020
2735 Clouds 13 1023 76 10000 5.7 170 01:48 23.05.2020
2736 Clouds 14 1023 76 10000 5.7 170 01:18 23.05.2020
2737 Clouds 14 1023 72 10000 5.7 170 00:42 23.05.2020
2738 Clouds 15 1023 72 10000 3.6 160 23:59 22.05.2020
2739 Clouds 15 1023 72 10000 3.6 160 23:41 22.05.2020
2740 Clouds 15 1023 72 10000 3.6 160 23:22 22.05.2020
2741 Clouds 15 1023 72 10000 6.7 160 22:58 22.05.2020
2742 Clouds 15 1023 72 10000 6.7 160 22:39 22.05.2020
2743 Clouds 15 1022 67 10000 4.1 180 22:20 22.05.2020
2744 Clouds 15 1022 67 10000 4.1 180 21:46 22.05.2020
2745 Clouds 15 1022 67 10000 4.1 180 21:22 22.05.2020
2746 Clouds 15 1021 72 10000 4.1 200 20:56 22.05.2020
2747 Clouds 15 1021 72 10000 4.1 200 20:38 22.05.2020
2748 Clouds 15 1021 72 10000 4.1 200 20:19 22.05.2020
2749 Clouds 15 1021 76 10000 6.2 160 19:44 22.05.2020
2750 Clouds 15 1021 76 10000 5.1 180 19:25 22.05.2020
2751 Clouds 14 1021 76 10000 5.1 180 18:54 22.05.2020
2752 Clouds 14 1021 76 10000 5.1 180 18:36 22.05.2020
2753 Clouds 14 1022 76 10000 5.7 160 18:18 22.05.2020
2754 Clouds 14 1022 76 10000 5.7 160 17:39 22.05.2020
2755 Clouds 14 1022 76 10000 5.7 160 17:39 22.05.2020
2756 Clouds 13 1022 82 10000 5.7 180 17:19 22.05.2020
2757 Clouds 13 1022 82 10000 5.7 180 16:55 22.05.2020
2758 Clouds 13 1022 82 10000 5.7 180 16:37 22.05.2020
2759 Clouds 14 1021 82 10000 6.2 160 16:19 22.05.2020
2760 Clouds 14 1021 82 10000 6.2 160 15:42 22.05.2020
2761 Clouds 14 1021 82 10000 6.2 160 15:42 22.05.2020
2762 Clouds 14 1021 82 10000 6.2 160 15:21 22.05.2020
2763 Clouds 13 1021 82 10000 5.7 180 14:45 22.05.2020
2764 Clouds 13 1021 82 10000 5.7 180 14:45 22.05.2020
2765 Clouds 13 1021 82 10000 5.7 180 14:26 22.05.2020
2766 Clouds 13 1021 82 10000 5.7 180 14:26 22.05.2020
2767 Drizzle 12 1021 93 9000 5.1 170 13:50 22.05.2020
2768 Drizzle 12 1021 93 9000 5.1 170 13:22 22.05.2020
2769 Drizzle 12 1021 93 9000 5.1 170 13:22 22.05.2020
2770 Drizzle 12 1020 87 9000 6.2 180 12:59 22.05.2020
2771 Drizzle 12 1020 87 9000 6.2 180 12:39 22.05.2020
2772 Drizzle 11 1020 87 9000 6.2 180 12:21 22.05.2020
2773 Drizzle 11 1019 87 8000 4.6 170 11:44 22.05.2020
2774 Drizzle 11 1019 87 8000 4.6 170 11:22 22.05.2020
2775 Clouds 11 1019 93 9000 4.1 170 10:57 22.05.2020
2776 Clouds 11 1019 93 9000 4.1 170 10:38 22.05.2020
2777 Clouds 11 1019 93 9000 4.1 170 10:19 22.05.2020
2778 Drizzle 11 1019 87 5000 3.6 180 09:47 22.05.2020
2779 Mist 11 1019 87 5000 3.6 180 09:21 22.05.2020
2780 Drizzle 12 1019 87 5000 4.1 170 08:57 22.05.2020
2781 Clouds 12 1019 87 10000 4.1 170 08:39 22.05.2020
2782 Clouds 12 1019 87 10000 4.6 160 08:18 22.05.2020
2783 Clouds 12 1019 87 10000 4.6 160 07:48 22.05.2020
2784 Clouds 12 1019 87 10000 4.6 160 07:22 22.05.2020
2785 Clouds 12 1019 82 10000 6.7 160 06:46 22.05.2020
2786 Clouds 12 1019 82 10000 6.7 160 06:28 22.05.2020
2787 Clouds 13 1019 82 10000 6.2 160 05:35 22.05.2020
2788 Clouds 13 1019 82 10000 4.6 160 04:48 22.05.2020
2789 Clouds 13 1019 82 10000 6.2 160 03:50 22.05.2020
2790 Clouds 13 1019 82 10000 6.2 160 03:29 22.05.2020
2791 Clouds 14 1016 82 10000 5.1 170 01:58 22.05.2020
2792 Clouds 14 1016 82 10000 5.1 170 01:32 22.05.2020
2793 Clouds 14 1016 87 10000 4.1 170 00:52 22.05.2020
2794 Clouds 14 1016 87 10000 4.1 170 00:30 22.05.2020
2795 Drizzle 14 1013 93 5000 5.1 160 23:56 21.05.2020
2796 Drizzle 14 1013 93 5000 5.1 160 23:37 21.05.2020
2797 Drizzle 14 1013 93 5000 5.1 160 23:37 21.05.2020
2798 Drizzle 14 1015 87 3000 4.6 170 23:19 21.05.2020
2799 Drizzle 14 1015 87 3000 4.6 170 22:57 21.05.2020
2800 Drizzle 14 1015 87 5000 4.6 170 22:37 21.05.2020
2801 Drizzle 14 1015 87 5000 4.6 170 22:18 21.05.2020
2802 Drizzle 14 1014 93 5000 4.1 170 21:43 21.05.2020
2803 Drizzle 14 1014 93 5000 4.1 170 21:43 21.05.2020
2804 Drizzle 14 1014 93 5000 4.1 170 21:25 21.05.2020
2805 Rain 14 1014 87 3000 4.6 180 20:55 21.05.2020
2806 Mist 14 1014 87 1500 3.1 180 20:37 21.05.2020
2807 Drizzle 14 1014 87 3000 5.1 170 20:18 21.05.2020
2808 Drizzle 15 1014 87 5000 4.6 170 19:39 21.05.2020
2809 Drizzle 15 1014 82 5000 5.1 180 19:19 21.05.2020
2810 Clouds 15 1014 77 10000 5.1 180 18:40 21.05.2020
2811 Clouds 15 1014 77 10000 5.1 180 18:20 21.05.2020
2812 -273 0 0 0 0 0 17:58 21.05.2020
2813 Clouds 15 1014 82 10000 4.1 180 17:58 21.05.2020
2814 Clouds 15 1014 82 10000 4.1 180 17:40 21.05.2020
2815 Clouds 15 1014 82 10000 4.1 180 17:22 21.05.2020
2816 Clouds 15 1013 82 10000 3.6 180 16:47 21.05.2020
2817 Clouds 14 1013 82 10000 3.6 180 16:25 21.05.2020
2818 Clouds 14 1013 87 10000 5.1 170 15:55 21.05.2020
2819 Clouds 14 1013 87 10000 4.6 170 15:37 21.05.2020
2820 Clouds 14 1013 87 10000 4.1 170 15:18 21.05.2020
2821 Clouds 13 1013 93 10000 4.1 170 14:39 21.05.2020
2822 Drizzle 13 1012 87 8000 4.1 180 14:18 21.05.2020
2823 Drizzle 13 1012 87 8000 4.1 180 13:41 21.05.2020
2824 Drizzle 14 1012 87 8000 4.1 180 13:22 21.05.2020
2825 Clouds 14 1011 93 10000 4.6 170 12:58 21.05.2020
2826 Clouds 14 1011 93 10000 4.6 170 12:37 21.05.2020
2827 Clouds 14 1011 93 10000 4.6 170 12:19 21.05.2020
2828 Clouds 14 1011 87 10000 4.1 170 11:42 21.05.2020
2829 Clouds 14 1011 87 10000 4.1 170 11:23 21.05.2020
2830 Clouds 15 1010 93 8000 3.6 190 10:58 21.05.2020
2831 Clouds 15 1010 93 8000 3.6 190 10:39 21.05.2020
2832 Clouds 15 1010 93 8000 3.6 190 10:19 21.05.2020
2833 Clouds 16 1010 100 7000 2.6 0 09:55 21.05.2020
2834 Clouds 16 1010 100 7000 2.6 0 09:36 21.05.2020
2835 Clouds 16 1010 93 5000 2.1 190 09:18 21.05.2020
2836 Clouds 16 1010 93 5000 2.1 190 08:45 21.05.2020
2837 Clouds 17 1010 93 5000 2.1 190 08:26 21.05.2020
2838 Clouds 17 1010 88 7000 2.1 190 07:46 21.05.2020
2839 Clouds 18 1010 88 7000 2.1 190 07:27 21.05.2020
2840 Clouds 18 1010 88 10000 2.6 130 06:52 21.05.2020
2841 Clouds 19 1009 88 10000 2.1 110 05:54 21.05.2020
2842 Clouds 19 1009 88 9000 3.1 110 04:58 21.05.2020
2843 Clouds 19 1008 93 8000 1 170 03:22 21.05.2020
2844 Clouds 19 1008 93 8000 1 170 03:22 21.05.2020
2845 Clouds 19 1008 93 8000 1 170 03:22 21.05.2020
2846 Clouds 19 1009 88 8000 1.5 110 02:42 21.05.2020
2847 Clouds 19 1009 88 8000 1.5 110 02:21 21.05.2020
2848 Thunderstorm 19 1009 88 8000 1 0 01:43 21.05.2020
2849 Thunderstorm 19 1009 88 8000 1 0 01:19 21.05.2020
2850 Clouds 19 1008 82 10000 1.5 160 00:45 21.05.2020
2851 Clouds 19 1008 82 10000 1.5 160 00:22 21.05.2020
2852 Rain 19 1008 68 10000 2.1 200 23:41 20.05.2020
2853 Rain 19 1008 68 10000 2.1 200 23:20 20.05.2020
2854 Rain 20 1007 77 10000 3.6 110 22:57 20.05.2020
2855 Clouds 21 1008 73 10000 2.6 110 22:38 20.05.2020
2856 Clouds 21 1008 73 10000 2.6 110 22:20 20.05.2020
2857 Clouds 21 1008 73 10000 2.6 110 21:40 20.05.2020
2858 Clouds 21 1008 73 10000 2.6 110 21:21 20.05.2020
2859 Clouds 21 1009 72 10000 2.1 100 20:44 20.05.2020
2860 Clouds 21 1009 72 10000 2.1 100 20:24 20.05.2020
2861 Clouds 21 1009 72 10000 2.1 100 20:24 20.05.2020
2862 Clouds 21 1010 72 10000 2.6 70 19:56 20.05.2020
2863 Clouds 21 1010 72 10000 2.6 70 19:37 20.05.2020
2864 Clouds 22 1010 72 10000 2.6 70 19:19 20.05.2020
2865 Clouds 22 1011 72 10000 1.5 60 18:43 20.05.2020
2866 Clouds 22 1011 72 10000 1.5 60 18:23 20.05.2020
2867 Clouds 21 1012 72 10000 2.6 70 17:42 20.05.2020
2868 Clouds 21 1012 72 10000 2.6 70 17:22 20.05.2020
2869 Clouds 20 1012 77 10000 1.5 10 16:57 20.05.2020
2870 Clouds 20 1012 77 10000 1.5 10 16:39 20.05.2020
2871 Clouds 20 1012 77 10000 1.5 10 16:20 20.05.2020
2872 Clouds 20 1013 77 10000 1.5 10 15:44 20.05.2020
2873 Clouds 19 1013 77 10000 1.5 10 15:25 20.05.2020
2874 Clouds 19 1013 82 10000 1.5 20 14:45 20.05.2020
2875 Clouds 19 1013 82 10000 1.5 20 14:26 20.05.2020
2876 Clouds 17 1012 93 10000 0.5 20 13:59 20.05.2020
2877 Clouds 17 1012 93 10000 0.5 20 13:39 20.05.2020
2878 Clouds 17 1012 93 10000 0.5 20 13:18 20.05.2020
2879 Clouds 17 1012 88 10000 0.5 340 12:42 20.05.2020
2880 Clouds 17 1012 88 10000 0.5 340 12:21 20.05.2020
2881 Clouds 17 1012 88 10000 1.5 340 11:38 20.05.2020
2882 Clouds 17 1012 88 10000 1.5 340 11:20 20.05.2020
2883 Clouds 17 1012 88 10000 1.5 30 10:44 20.05.2020
2884 Clouds 17 1012 88 10000 1.5 30 10:23 20.05.2020
2885 Clouds 17 1012 88 10000 1.5 30 10:23 20.05.2020
2886 Clouds 17 1012 88 10000 1 0 09:58 20.05.2020
2887 Clouds 18 1012 88 10000 1 0 09:40 20.05.2020
2888 Clouds 18 1013 82 10000 1 0 09:20 20.05.2020
2889 Clouds 18 1013 82 10000 1 0 08:42 20.05.2020
2890 Clouds 18 1013 82 10000 1 0 08:19 20.05.2020
2891 Clouds 17 1013 87 10000 4.81 1 07:50 20.05.2020
2892 Clouds 17 1013 87 10000 5.16 3 07:23 20.05.2020
2893 Clouds 18 1013 88 10000 0.5 0 06:52 20.05.2020
2894 Clouds 18 1013 82 10000 1 0 05:59 20.05.2020
2895 Clouds 18 1012 82 10000 1 220 04:38 20.05.2020
2896 Clouds 18 1012 82 10000 1.5 150 03:58 20.05.2020
2897 Clear 18 1012 82 10000 1.5 150 03:27 20.05.2020
2898 Clear 18 1012 82 10000 2.1 130 01:33 20.05.2020
2899 Clear 19 1012 82 10000 3.1 120 00:57 20.05.2020
2900 Clear 19 1012 82 10000 3.1 120 00:38 20.05.2020
2901 Clear 19 1012 82 10000 3.1 120 00:19 20.05.2020
2902 Clear 20 1012 68 10000 4.54 26 23:36 19.05.2020
2903 Clear 20 1012 68 10000 1.5 140 23:18 19.05.2020
2904 Clear 21 1012 68 10000 1.5 140 22:54 19.05.2020
2905 Clear 22 1012 68 10000 1.5 140 22:36 19.05.2020
2906 Clear 22 1012 64 10000 2.1 70 22:18 19.05.2020
2907 Clear 23 1012 64 10000 2.1 70 21:54 19.05.2020
2908 Clear 23 1012 64 10000 2.1 70 21:36 19.05.2020
2909 Clear 23 1012 68 10000 2.6 70 21:18 19.05.2020
2910 Clear 23 1012 68 10000 2.6 70 20:54 19.05.2020
2911 Clear 23 1012 68 10000 2.6 70 20:36 19.05.2020
2912 Clear 23 1012 68 10000 2.6 70 20:36 19.05.2020
2913 Clear 23 1012 68 10000 2.6 70 20:18 19.05.2020
2914 Clear 22 1013 68 10000 2.6 70 19:37 19.05.2020
2915 Clear 22 1013 68 10000 2.6 70 19:19 19.05.2020
2916 Clear 22 1014 68 10000 1.5 70 18:43 19.05.2020
2917 Clear 21 1014 68 10000 1.5 70 18:22 19.05.2020
2918 Clear 20 1015 77 10000 2.1 70 17:56 19.05.2020
2919 Clear 20 1015 77 10000 2.1 70 17:38 19.05.2020
2920 Clear 20 1015 77 10000 2.1 70 17:18 19.05.2020
2921 Clear 19 1016 82 10000 2.1 20 16:40 19.05.2020
2922 Clear 19 1016 77 10000 2.6 350 16:21 19.05.2020
2923 Clear 19 1016 77 10000 2.6 350 15:56 19.05.2020
2924 Clear 19 1016 77 10000 2.6 350 15:37 19.05.2020
2925 Clear 17 1016 77 10000 3.6 350 15:19 19.05.2020
2926 Clear 17 1016 77 10000 3.6 350 14:43 19.05.2020
2927 Clear 17 1016 77 10000 3.6 350 14:21 19.05.2020
2928 Clear 16 1015 82 10000 3.6 350 13:59 19.05.2020
2929 Clear 16 1015 82 10000 3.6 350 13:40 19.05.2020
2930 Clear 15 1015 82 10000 3.6 350 13:22 19.05.2020
2931 Clear 15 1015 72 10000 3.6 350 12:58 19.05.2020
2932 Clear 15 1015 72 10000 3.6 350 12:39 19.05.2020
2933 Clear 15 1015 72 10000 3.6 350 12:21 19.05.2020
2934 Clear 16 1015 82 10000 3.6 350 11:55 19.05.2020
2935 Clear 16 1015 82 10000 3.6 350 11:37 19.05.2020
2936 Clear 16 1015 77 10000 3.6 350 11:19 19.05.2020
2937 Clear 16 1015 77 10000 3.6 350 10:45 19.05.2020
2938 Clear 16 1015 77 10000 3.6 350 10:27 19.05.2020
2939 Clear 16 1015 77 10000 3.6 350 09:56 19.05.2020
2940 Clear 16 1015 77 10000 3.6 350 09:38 19.05.2020
2941 Clear 16 1015 77 10000 3.6 350 09:20 19.05.2020
2942 Clear 16 1015 82 10000 3.1 360 08:42 19.05.2020
2943 Clear 16 1015 88 10000 3.6 360 08:23 19.05.2020
2944 Clear 16 1015 88 10000 3.6 360 07:43 19.05.2020
2945 Clear 16 1015 88 10000 3.6 360 07:25 19.05.2020
2946 Clear 17 1015 88 10000 1.5 10 06:45 19.05.2020
2947 Clear 17 1015 88 10000 1.5 10 06:24 19.05.2020
2948 Clear 17 1016 82 10000 2.1 10 05:40 19.05.2020
2949 Clear 18 1016 88 10000 1.5 30 04:55 19.05.2020
2950 Clear 18 1016 88 10000 1.5 30 04:55 19.05.2020
2951 Clear 18 1016 82 10000 1 0 03:45 19.05.2020
2952 Clear 18 1016 82 10000 1 0 01:23 19.05.2020
2953 Clear 18 1016 82 10000 3.1 110 00:43 19.05.2020
2954 Clear 18 1016 77 10000 3.1 110 00:21 19.05.2020
2955 Clear 18 1016 77 10000 3.1 110 23:40 18.05.2020
2956 Clear 18 1016 77 10000 3.1 110 23:21 18.05.2020
2957 Clear 19 1016 68 10000 3.1 100 22:59 18.05.2020
2958 Clear 20 1016 68 10000 3.1 100 22:39 18.05.2020
2959 Clear 20 1016 68 10000 3.1 100 22:21 18.05.2020
2960 Clear 21 1016 68 10000 1.5 100 21:43 18.05.2020
2961 Clear 21 1016 68 10000 1.5 100 21:22 18.05.2020
2962 Clear 21 1017 68 10000 1.5 70 20:58 18.05.2020
2963 Clear 22 1017 68 10000 1.5 70 20:39 18.05.2020
2964 Clear 21 1018 68 10000 2.1 60 20:20 18.05.2020
2965 Clear 21 1018 68 10000 2.1 60 19:56 18.05.2020
2966 Clear 21 1018 68 10000 2.1 60 19:38 18.05.2020
2967 Clear 20 1018 72 10000 2.1 60 19:18 18.05.2020
2968 Clear 20 1018 72 10000 2.1 60 18:44 18.05.2020
2969 Clear 19 1019 77 10000 2.1 50 18:22 18.05.2020
2970 Clear 18 1019 77 10000 2.1 50 17:40 18.05.2020
2971 Clear 18 1020 72 10000 3.1 50 17:18 18.05.2020
2972 Clear 18 1020 72 10000 3.1 50 16:56 18.05.2020
2973 Clear 18 1020 72 10000 3.1 50 16:38 18.05.2020
2974 Clear 18 1020 72 10000 3.1 50 16:18 18.05.2020
2975 Clear 17 1020 77 10000 4.1 70 15:55 18.05.2020
2976 Clear 16 1020 77 10000 4.1 70 15:37 18.05.2020
2977 Clear 17 1020 77 10000 4.1 70 15:18 18.05.2020
2978 Clear 16 1020 72 10000 4.1 80 14:42 18.05.2020
2979 Clear 16 1020 72 10000 4.1 80 14:23 18.05.2020
2980 Clear 15 1020 77 10000 5.7 100 13:57 18.05.2020
2981 Clear 15 1020 77 10000 5.7 100 13:38 18.05.2020
2982 Clear 15 1020 77 10000 5.7 100 13:19 18.05.2020
2983 Clear 15 1020 77 10000 6.7 100 12:55 18.05.2020
2984 Clear 15 1020 77 10000 6.7 100 12:37 18.05.2020
2985 Clear 15 1019 82 10000 6.2 100 12:18 18.05.2020
2986 Clear 15 1019 82 10000 6.2 100 11:46 18.05.2020
2987 Clear 15 1019 82 10000 6.2 100 11:26 18.05.2020
2988 Clear 15 1019 77 10000 7.2 90 10:47 18.05.2020
2989 Clear 15 1019 77 10000 7.2 90 10:28 18.05.2020
2990 Clear 15 1019 82 10000 5.1 90 09:57 18.05.2020
2991 Clear 15 1019 82 10000 5.1 90 09:39 18.05.2020
2992 Clear 15 1019 77 10000 5.7 100 09:20 18.05.2020
2993 Clear 15 1019 77 10000 5.7 100 08:42 18.05.2020
2994 Clear 15 1019 77 10000 5.7 100 08:23 18.05.2020
2995 Clear 15 1019 82 10000 5.7 100 07:50 18.05.2020
2996 Clear 15 1019 82 10000 5.7 100 07:26 18.05.2020
2997 Clear 15 1019 82 10000 5.1 100 06:48 18.05.2020
2998 Clear 16 1019 82 10000 5.1 100 06:25 18.05.2020
2999 Clear 16 1019 82 10000 4.6 100 05:46 18.05.2020
3000 Clear 16 1019 82 10000 4.6 110 04:26 18.05.2020
3001 Clear 17 1018 77 10000 3.1 110 03:30 18.05.2020
3002 Clear 18 1017 72 10000 4.6 110 01:57 18.05.2020
3003 Clear 18 1016 63 10000 2.6 120 00:50 18.05.2020
3004 Clear 18 1016 63 10000 2.6 120 00:19 18.05.2020
3005 Clear 18 1016 72 8000 1.5 80 23:56 17.05.2020
3006 Clear 18 1016 72 8000 1.5 80 23:56 17.05.2020
3007 Clear 18 1016 72 8000 1.5 80 23:38 17.05.2020
3008 Clear 19 1016 72 8000 1.5 80 23:19 17.05.2020
3009 Clear 20 1015 68 8000 2.1 40 22:54 17.05.2020
3010 Clear 20 1015 68 8000 2.1 40 22:36 17.05.2020
3011 Clear 21 1015 68 8000 2.6 40 22:18 17.05.2020
3012 Clear 21 1015 68 8000 2.6 40 21:41 17.05.2020
3013 Clear 22 1015 68 8000 2.6 40 21:20 17.05.2020
3014 Clear 23 1014 68 8000 2.6 30 20:56 17.05.2020
3015 Clear 23 1014 68 8000 2.6 30 20:38 17.05.2020
3016 Clear 23 1014 68 8000 2.6 30 20:19 17.05.2020
3017 Clear 23 1014 64 10000 3.1 360 19:47 17.05.2020
3018 Clear 23 1014 64 10000 3.1 360 19:28 17.05.2020
3019 Clear 25 1014 41 10000 2.1 220 18:57 17.05.2020
3020 Clear 25 1014 41 10000 2.1 220 18:38 17.05.2020
3021 Clear 23 1015 49 10000 2.1 290 18:20 17.05.2020
3022 Clear 23 1015 49 10000 2.1 290 17:41 17.05.2020
3023 Clear 21 1015 52 10000 3.1 290 17:23 17.05.2020
3024 Clear 22 1015 52 10000 3.1 290 16:57 17.05.2020
3025 Clear 22 1015 52 10000 3.1 290 16:39 17.05.2020
3026 Clear 21 1015 63 10000 2.6 310 16:20 17.05.2020
3027 Clear 20 1015 63 10000 2.6 310 15:46 17.05.2020
3028 Clear 18 1015 63 10000 2.6 310 15:24 17.05.2020
3029 Clear 19 1014 72 10000 2.6 320 14:58 17.05.2020
3030 Clear 18 1014 72 10000 2.6 320 14:39 17.05.2020
3031 Clear 17 1014 72 10000 2.6 320 14:20 17.05.2020
3032 Clear 16 1013 77 8000 1 0 13:42 17.05.2020
3033 Clear 16 1013 77 8000 1 0 13:20 17.05.2020
3034 Clear 21 1011 52 10000 6.2 310 05:22 17.05.2020
3035 Clear 21 1010 49 9000 3.6 330 03:31 17.05.2020
3036 Clear 22 1010 43 9000 5.1 320 02:26 17.05.2020
3037 Clear 21 1009 56 10000 3.6 330 01:54 17.05.2020
3038 Clear 21 1009 60 10000 4.1 320 00:48 17.05.2020
3039 Clear 21 1009 60 10000 4.1 320 00:30 17.05.2020
3040 Clear 23 1009 46 10000 3.1 320 23:43 16.05.2020
3041 Clear 23 1009 46 10000 3.1 320 23:24 16.05.2020
3042 Clear 24 1009 47 10000 3.6 330 22:59 16.05.2020
3043 Clear 24 1009 47 10000 3.6 330 22:41 16.05.2020
3044 Clear 25 1009 47 10000 3.6 330 22:22 16.05.2020
3045 Clear 24 1009 65 10000 4.1 330 21:56 16.05.2020
3046 Clear 25 1009 65 10000 4.1 330 21:38 16.05.2020
3047 Clear 26 1009 65 10000 4.1 330 21:19 16.05.2020
3048 Clear 27 1009 32 10000 6.2 300 20:55 16.05.2020
3049 Clear 27 1009 32 10000 6.2 300 20:36 16.05.2020
3050 Clear 26 1010 36 10000 4.1 310 20:18 16.05.2020
3051 Clear 26 1010 36 10000 4.1 310 19:41 16.05.2020
3052 Clear 26 1010 36 10000 4.1 310 19:23 16.05.2020
3053 Clear 25 1011 36 10000 3.1 290 18:57 16.05.2020
3054 Clear 25 1011 36 10000 3.1 290 18:37 16.05.2020
3055 Clear 22 1011 49 10000 3.6 330 18:18 16.05.2020
3056 Clear 22 1011 49 10000 3.6 330 17:41 16.05.2020
3057 Clear 21 1011 49 10000 3.6 330 17:20 16.05.2020
3058 Clear 21 1011 49 10000 3.6 330 17:20 16.05.2020
3059 Clear 21 1012 43 10000 3.6 300 16:43 16.05.2020
3060 Clear 21 1012 43 10000 3.6 300 16:24 16.05.2020
3061 Clear 20 1011 48 10000 4.1 290 15:59 16.05.2020
3062 Clear 20 1011 48 10000 4.1 290 15:41 16.05.2020
3063 Clear 18 1011 48 10000 4.1 290 15:20 16.05.2020
3064 Clear 18 1011 55 10000 3.1 300 14:55 16.05.2020
3065 Clear 18 1011 55 10000 3.1 300 14:37 16.05.2020
3066 Clear 17 1011 55 10000 3.1 300 14:19 16.05.2020
3067 Clear 16 1012 62 10000 3.6 290 13:42 16.05.2020
3068 Clear 16 1012 62 10000 3.6 290 13:23 16.05.2020
3069 Clear 16 1011 62 10000 3.1 280 12:56 16.05.2020
3070 Clear 16 1011 62 10000 3.1 280 12:38 16.05.2020
3071 Clear 16 1011 62 10000 3.6 280 12:18 16.05.2020
3072 Clear 16 1011 62 10000 3.6 280 11:40 16.05.2020
3073 Clear 16 1011 62 10000 3.6 280 11:22 16.05.2020
3074 Clear 16 1011 59 10000 4.1 280 10:56 16.05.2020
3075 Clear 16 1011 59 10000 4.1 280 10:37 16.05.2020
3076 Clear 16 1011 59 10000 4.1 280 10:19 16.05.2020
3077 Clear 16 1012 59 10000 4.6 280 09:45 16.05.2020
3078 Clear 16 1012 59 10000 4.6 280 09:27 16.05.2020
3079 Clear 17 1012 55 10000 4.1 280 08:45 16.05.2020
3080 Clear 17 1012 55 10000 4.1 280 08:23 16.05.2020
3081 Clear 17 1012 55 10000 3.6 290 07:55 16.05.2020
3082 Clear 17 1012 55 10000 3.6 290 07:37 16.05.2020
3083 Clear 17 1012 55 10000 3.6 290 07:19 16.05.2020
3084 Clear 18 1013 52 10000 3.6 290 06:44 16.05.2020
3085 Clear 18 1013 52 10000 3.6 290 06:18 16.05.2020
3086 Clear 18 1013 52 10000 3.6 280 05:40 16.05.2020
3087 Clear 18 1013 52 10000 4.1 290 04:31 16.05.2020
3088 Clear 18 1013 52 10000 5.1 290 03:21 16.05.2020
3089 Clouds 18 1013 52 10000 5.1 310 02:27 16.05.2020
3090 Clouds 18 1013 52 10000 5.1 300 01:56 16.05.2020
3091 Clouds 18 1013 52 10000 5.1 300 01:33 16.05.2020
3092 Clouds 18 1013 52 10000 4.1 310 00:54 16.05.2020
3093 Clouds 18 1013 52 10000 4.1 310 00:24 16.05.2020
3094 Clouds 18 1013 48 10000 4.6 310 23:56 15.05.2020
3095 Clouds 19 1013 48 10000 4.6 310 23:37 15.05.2020
3096 Clouds 20 1013 43 10000 6.2 320 23:18 15.05.2020
3097 Clouds 21 1013 43 10000 6.2 320 22:40 15.05.2020
3098 Clouds 21 1012 40 10000 7.2 320 22:19 15.05.2020
3099 Clouds 21 1012 40 10000 7.2 320 21:40 15.05.2020
3100 Clouds 21 1012 40 10000 7.2 320 21:22 15.05.2020
3101 Clear 21 1013 40 10000 6.2 320 20:59 15.05.2020
3102 Clouds 21 1013 40 10000 6.2 320 20:41 15.05.2020
3103 Clouds 21 1013 40 10000 6.2 320 20:22 15.05.2020
3104 Clouds 20 1014 42 10000 5.7 320 19:58 15.05.2020
3105 Clouds 20 1014 42 10000 5.7 320 19:58 15.05.2020
3106 Clouds 21 1014 42 10000 5.7 320 19:40 15.05.2020
3107 Clouds 20 1014 42 10000 5.7 320 19:21 15.05.2020
3108 Clouds 19 1015 42 10000 6.2 320 18:45 15.05.2020
3109 Clouds 19 1015 42 10000 6.2 320 18:27 15.05.2020
3110 Clouds 17 1016 51 10000 5.1 320 17:40 15.05.2020
3111 Clouds 17 1016 51 10000 5.1 320 17:20 15.05.2020
3112 Clouds 16 1016 51 10000 8.2 320 16:58 15.05.2020
3113 Clouds 16 1016 51 10000 8.2 320 16:39 15.05.2020
3114 Clouds 16 1016 51 10000 8.2 320 16:19 15.05.2020
3115 Clouds 15 1017 58 10000 5.1 320 15:58 15.05.2020
3116 Clouds 15 1017 58 10000 5.1 320 15:39 15.05.2020
3117 Clouds 14 1017 62 10000 5.7 320 15:19 15.05.2020
3118 Clouds 13 1017 62 10000 5.7 320 14:42 15.05.2020
3119 Clouds 13 1017 62 10000 5.7 320 14:24 15.05.2020
3120 Clouds 13 1017 58 10000 4.6 320 13:58 15.05.2020
3121 Clouds 12 1017 58 10000 4.6 320 13:39 15.05.2020
3122 Clouds 12 1017 58 10000 4.6 320 13:20 15.05.2020
3123 Clouds 12 1017 58 10000 6.2 320 12:39 15.05.2020
3124 Clouds 12 1017 58 10000 4.6 320 12:18 15.05.2020
3125 Clouds 12 1017 58 10000 4.6 320 11:57 15.05.2020
3126 Clouds 12 1017 58 10000 4.6 320 11:38 15.05.2020
3127 Clouds 12 1017 71 10000 4.1 320 11:20 15.05.2020
3128 Clouds 12 1017 71 10000 4.1 320 10:58 15.05.2020
3129 Clouds 11 1017 71 10000 4.1 320 10:39 15.05.2020
3130 Clouds 11 1017 76 10000 3.1 320 10:20 15.05.2020
3131 Clouds 11 1017 76 10000 3.1 320 09:57 15.05.2020
3132 Clouds 11 1017 76 10000 3.1 320 09:36 15.05.2020
3133 Clouds 12 1017 76 10000 3.1 320 09:18 15.05.2020
3134 Clouds 12 1018 76 10000 5.1 330 08:38 15.05.2020
3135 Clouds 12 1018 76 10000 5.1 330 08:20 15.05.2020
3136 Clouds 12 1018 76 10000 5.1 330 08:20 15.05.2020
3137 Clouds 13 1019 76 10000 4.6 330 07:47 15.05.2020
3138 Clear 12 1019 76 10000 4.6 330 07:29 15.05.2020
3139 Clear 12 1019 76 10000 4.1 320 06:59 15.05.2020
3140 Clear 13 1019 76 10000 4.1 320 06:32 15.05.2020
3141 Clear 13 1019 71 10000 4.6 330 05:33 15.05.2020
3142 Clear 12 1022 74 0 4.93 331 03:51 15.05.2020
3143 Clear 12 1020 71 10000 3.6 320 02:55 15.05.2020
3144 Clear 12 1020 66 10000 2.1 310 01:37 15.05.2020
3145 Clear 12 1020 66 10000 3.1 340 01:18 15.05.2020
3146 Clear 13 1020 66 10000 3.1 340 00:40 15.05.2020
3147 Clear 13 1020 66 10000 3.1 340 00:21 15.05.2020
3148 Clear 13 1021 62 10000 3.6 20 23:41 14.05.2020
3149 Clear 13 1021 58 10000 3.1 20 23:19 14.05.2020
3150 Clear 14 1021 58 10000 3.1 20 22:42 14.05.2020
3151 Clear 14 1021 58 10000 3.1 20 22:23 14.05.2020
3152 Clear 14 1022 54 10000 2.1 20 21:58 14.05.2020
3153 Clear 14 1022 54 10000 2.1 20 21:40 14.05.2020
3154 Clear 14 1022 54 10000 2.1 20 21:40 14.05.2020
3155 Clear 14 1022 54 10000 2.1 20 21:20 14.05.2020
3156 Clear 14 1022 54 10000 2.1 20 21:20 14.05.2020
3157 Clear 14 1022 58 10000 2.6 20 20:57 14.05.2020
3158 Clear 14 1022 58 10000 2.6 20 20:38 14.05.2020
3159 Clear 15 1023 54 10000 2.6 20 20:19 14.05.2020
3160 Clear 15 1023 54 10000 2.6 20 19:56 14.05.2020
3161 Clear 14 1023 54 10000 2.6 20 19:37 14.05.2020
3162 Clear 14 1023 54 10000 2.6 20 19:19 14.05.2020
3163 Clear 14 1024 58 10000 2.6 70 18:54 14.05.2020
3164 Clear 14 1024 58 10000 2.6 70 18:36 14.05.2020
3165 Clear 14 1025 54 10000 2.6 70 18:18 14.05.2020
3166 Clear 14 1025 54 10000 2.6 70 17:55 14.05.2020
3167 Clear 13 1025 54 10000 2.6 70 17:36 14.05.2020
3168 Clear 13 1025 50 10000 1.1 153 17:18 14.05.2020
3169 Clear 13 1025 50 10000 1.1 153 17:18 14.05.2020
3170 Clear 12 1025 50 10000 1.1 153 16:39 14.05.2020
3171 Clear 11 1025 62 10000 1.5 230 16:20 14.05.2020
3172 Clear 11 1025 62 10000 1.5 230 15:57 14.05.2020
3173 Clear 11 1025 62 10000 1.5 230 15:39 14.05.2020
3174 Clear 10 1025 66 10000 1 200 15:19 14.05.2020
3175 Clear 9 1025 66 10000 1 200 14:56 14.05.2020
3176 Clear 9 1025 66 10000 1 200 14:37 14.05.2020
3177 Clear 8 1024 70 10000 1 200 14:19 14.05.2020
3178 Clear 8 1024 70 10000 1 200 13:55 14.05.2020
3179 Clear 8 1024 70 10000 1 200 13:37 14.05.2020
3180 Clear 8 1024 75 10000 1 200 13:18 14.05.2020
3181 Clear 7 1024 75 10000 1 200 12:55 14.05.2020
3182 Clear 7 1024 75 10000 1 200 12:36 14.05.2020
3183 Clear 6 1024 75 10000 1 200 12:18 14.05.2020
3184 Clear 7 1024 75 10000 1 200 11:42 14.05.2020
3185 Clear 7 1024 75 10000 1 200 11:24 14.05.2020
3186 Clear 8 1024 70 10000 1.5 0 10:58 14.05.2020
3187 Clear 8 1024 70 10000 1.5 0 10:39 14.05.2020
3188 Clear 8 1024 70 10000 1.5 0 10:21 14.05.2020
3189 Clear 9 1024 71 10000 1.5 170 09:43 14.05.2020
3190 Clear 9 1024 71 10000 1.5 170 09:23 14.05.2020
3191 Clear 9 1024 71 10000 1.5 150 08:43 14.05.2020
3192 Clear 9 1024 71 10000 1.5 150 08:21 14.05.2020
3193 Clear 9 1024 71 10000 3.6 150 07:47 14.05.2020
3194 Clear 10 1024 71 10000 3.6 150 07:26 14.05.2020
3195 Clear 10 1023 71 10000 2.6 160 06:59 14.05.2020
3196 Clear 10 1023 71 10000 2.6 160 06:34 14.05.2020
3197 Clear 10 1023 71 10000 3.1 150 05:59 14.05.2020
3198 Clear 11 1023 71 10000 3.1 150 05:37 14.05.2020
3199 Clear 11 1023 71 10000 4.1 150 04:42 14.05.2020
3200 Clear 12 1022 66 10000 4.6 150 03:32 14.05.2020
3201 Clear 13 1022 62 10000 3.6 160 02:43 14.05.2020
3202 Clear 13 1022 62 10000 3.6 160 02:19 14.05.2020
3203 Clear 14 1021 48 10000 2.1 170 01:35 14.05.2020
3204 Clear 16 1020 45 10000 2.6 190 00:50 14.05.2020
3205 Clear 16 1020 45 10000 2.6 190 00:25 14.05.2020
3206 Clear 17 1019 42 10000 3.1 170 23:45 13.05.2020
3207 Clear 17 1019 42 10000 3.1 170 23:22 13.05.2020
3208 Clear 18 1019 39 10000 2.6 190 22:56 13.05.2020
3209 Clear 18 1019 39 10000 2.6 190 22:38 13.05.2020
3210 Clear 19 1018 37 10000 3.6 230 22:19 13.05.2020
3211 Clear 19 1018 37 10000 3.6 230 21:57 13.05.2020
3212 Clear 19 1018 37 10000 3.6 230 21:38 13.05.2020
3213 Clear 19 1018 37 10000 3.6 230 21:18 13.05.2020
3214 Clear 20 1018 37 10000 3.6 230 20:41 13.05.2020
3215 Clear 20 1018 37 10000 3.6 230 20:23 13.05.2020
3216 Clear 20 1018 40 10000 4.1 230 19:44 13.05.2020
3217 Clear 20 1018 40 10000 4.1 230 19:25 13.05.2020
3218 Clear 20 1019 40 10000 2.6 230 18:58 13.05.2020
3219 Clear 19 1019 40 10000 2.6 230 18:39 13.05.2020
3220 Clear 19 1019 40 10000 2.6 230 18:21 13.05.2020
3221 Clear 19 1019 40 10000 2.6 230 18:21 13.05.2020
3222 Clear 19 1019 40 10000 2.6 230 18:20 13.05.2020
3223 Clear 19 1019 45 10000 3.1 270 17:39 13.05.2020
3224 Clear 19 1019 45 10000 3.1 270 17:20 13.05.2020
3225 Clear 18 1019 48 10000 3.1 240 16:56 13.05.2020
3226 Clear 17 1019 48 10000 3.1 240 16:37 13.05.2020
3227 Clear 17 1019 48 10000 3.1 240 16:18 13.05.2020
3228 Clear 16 1019 55 10000 2.1 240 15:42 13.05.2020
3229 Clear 15 1019 55 10000 2.1 250 15:20 13.05.2020
3230 Clear 14 1019 55 10000 2.1 250 14:57 13.05.2020
3231 Clear 14 1019 67 9000 1.5 230 14:39 13.05.2020
3232 Clouds 13 1019 67 9000 1.5 230 14:21 13.05.2020
3233 Clouds 12 1018 81 8000 1 240 13:57 13.05.2020
3234 Clouds 12 1018 81 8000 1 240 13:38 13.05.2020
3235 Clouds 12 1018 81 8000 1 240 13:19 13.05.2020
3236 Clouds 12 1018 81 10000 1 230 12:43 13.05.2020
3237 Clear 11 1018 87 10000 1 280 12:23 13.05.2020
3238 Clear 11 1018 87 10000 1 280 11:57 13.05.2020
3239 Clear 11 1018 87 10000 1 280 11:39 13.05.2020
3240 Clear 12 1018 87 10000 1 280 11:20 13.05.2020
3241 Clear 12 1017 87 10000 1 230 10:59 13.05.2020
3242 Clear 12 1017 87 10000 1 230 10:39 13.05.2020
3243 Clear 12 1017 87 10000 1 230 10:20 13.05.2020
3244 Clear 12 1017 87 10000 1.89 213 09:57 13.05.2020
3245 Clouds 12 1017 87 10000 2.08 205 09:38 13.05.2020
3246 Clouds 12 1017 87 10000 2.04 181 09:20 13.05.2020
3247 Clouds 12 1017 87 10000 2.04 181 08:40 13.05.2020
3248 Clouds 12 1017 87 10000 1.83 163 08:21 13.05.2020
3249 -273 0 0 0 0 0 07:59 13.05.2020
3250 Clouds 12 1017 87 10000 1.83 163 07:59 13.05.2020
3251 Clouds 12 1017 87 10000 1.83 163 07:36 13.05.2020
3252 Clouds 11 1017 81 10000 1.73 155 06:55 13.05.2020
3253 Clouds 11 1017 81 10000 1.73 155 06:36 13.05.2020
3254 Clouds 11 1017 87 10000 1.69 148 05:48 13.05.2020
3255 Clear 13 1017 76 10000 1.6 118 04:21 13.05.2020
3256 Clear 13 1017 76 10000 2.18 96 02:43 13.05.2020
3257 Clear 14 1016 71 10000 1 140 01:47 13.05.2020
3258 Clear 15 1016 67 10000 2.1 110 00:59 13.05.2020
3259 Clear 14 1016 67 10000 2.1 110 00:28 13.05.2020
3260 Clear 15 1016 71 10000 3.1 100 23:59 12.05.2020
3261 Clear 14 1016 71 10000 3.1 100 23:39 12.05.2020
3262 Clear 15 1016 71 10000 3.1 100 23:20 12.05.2020
3263 Clear 16 1016 63 10000 2.6 90 22:42 12.05.2020
3264 Clear 16 1016 63 10000 2.6 90 22:23 12.05.2020
3265 Clear 16 1016 63 10000 2.6 90 22:23 12.05.2020
3266 Clear 17 1016 63 10000 3.1 100 21:57 12.05.2020
3267 Clear 17 1016 63 10000 3.1 100 21:38 12.05.2020
3268 Clear 17 1016 63 10000 3.1 100 21:20 12.05.2020
3269 Clear 17 1016 59 10000 2.6 90 20:59 12.05.2020
3270 Clear 17 1016 59 10000 2.6 90 20:59 12.05.2020
3271 Clear 17 1016 59 10000 2.6 90 20:40 12.05.2020
3272 Clear 17 1016 59 10000 2.6 90 20:21 12.05.2020
3273 Clear 17 1017 63 10000 2.6 90 19:58 12.05.2020
3274 Clear 17 1017 63 10000 2.6 90 19:40 12.05.2020
3275 Clear 17 1017 63 10000 2.6 90 19:21 12.05.2020
3276 Clear 17 1017 59 10000 3.1 50 18:56 12.05.2020
3277 Clear 17 1017 59 10000 3.1 50 18:38 12.05.2020
3278 Clear 17 1017 59 10000 3.1 50 18:19 12.05.2020
3279 Clouds 16 1018 67 10000 2.6 60 17:42 12.05.2020
3280 Clouds 16 1018 67 10000 2.6 60 17:24 12.05.2020
3281 Clouds 16 1018 82 10000 3.6 90 16:47 12.05.2020
3282 Clouds 16 1018 82 10000 3.6 90 16:26 12.05.2020
3283 Clouds 16 1019 77 9000 2.6 100 15:56 12.05.2020
3284 Clouds 16 1019 77 9000 2.6 100 15:38 12.05.2020
3285 Clouds 16 1019 77 9000 2.6 100 15:38 12.05.2020
3286 Clear 14 1019 71 9000 1 0 15:19 12.05.2020
3287 Clear 14 1019 71 9000 1 0 14:57 12.05.2020
3288 Clear 13 1019 71 9000 1 0 14:37 12.05.2020
3289 Clear 13 1019 71 9000 1 0 14:19 12.05.2020
3290 Clouds 12 1018 76 9000 1.5 200 13:57 12.05.2020
3291 Clouds 12 1018 76 9000 1.5 200 13:39 12.05.2020
3292 Clouds 12 1018 76 9000 1.5 200 13:19 12.05.2020
3293 Clouds 11 1017 76 9000 1 230 12:57 12.05.2020
3294 Clouds 11 1017 76 9000 1 230 12:39 12.05.2020
3295 Clouds 11 1017 76 9000 1 230 12:39 12.05.2020
3296 Clouds 10 1017 76 9000 1 230 12:21 12.05.2020
3297 Clouds 11 1017 76 10000 1 220 11:58 12.05.2020
3298 Clouds 11 1017 76 10000 1 220 11:38 12.05.2020
3299 Clouds 12 1017 76 10000 1 220 11:20 12.05.2020
3300 Clouds 12 1017 81 10000 1.79 102 10:58 12.05.2020
3301 Clouds 12 1017 81 10000 1.79 102 10:39 12.05.2020
3302 Clear 11 1017 81 10000 1.53 123 10:20 12.05.2020
3303 Clear 11 1017 81 9000 1.53 123 09:58 12.05.2020
3304 Clear 11 1017 81 9000 1.53 123 09:39 12.05.2020
3305 Clear 11 1017 81 9000 1.71 132 09:20 12.05.2020
3306 Clouds 11 1018 71 9000 1.5 100 08:42 12.05.2020
3307 Clouds 11 1018 71 9000 2.05 107 08:21 12.05.2020
3308 Clouds 11 1018 71 9000 2.05 107 07:57 12.05.2020
3309 Clouds 11 1018 71 9000 2.05 107 07:39 12.05.2020
3310 Clouds 11 1018 71 9000 2.71 129 07:19 12.05.2020
3311 Clouds 11 1018 62 10000 2.71 129 06:38 12.05.2020
3312 Clouds 11 1018 62 10000 2.71 129 06:38 12.05.2020
3313 Clouds 12 1018 54 10000 2.75 141 06:19 12.05.2020
3314 Clouds 13 1018 54 10000 2.75 141 05:45 12.05.2020
3315 Clouds 14 1017 47 10000 1.5 160 03:57 12.05.2020
3316 Clouds 14 1017 47 10000 1.5 160 03:19 12.05.2020
3317 Clouds 15 1017 71 10000 2.8 161 02:27 12.05.2020
3318 Clouds 15 1016 71 10000 2.66 164 01:40 12.05.2020
3319 Clouds 15 1016 67 10000 2.97 175 00:58 12.05.2020
3320 Clouds 16 1016 67 10000 3.14 187 00:24 12.05.2020
3321 Clouds 16 1016 63 10000 1.5 10 23:57 11.05.2020
3322 Clouds 17 1016 63 10000 1.5 10 23:37 11.05.2020
3323 Clouds 17 1016 63 10000 1.5 10 23:19 11.05.2020
3324 Clouds 18 1015 59 10000 2.1 70 22:55 11.05.2020
3325 Clouds 18 1015 59 10000 2.1 70 22:37 11.05.2020
3326 Clouds 18 1015 59 10000 2.1 70 22:19 11.05.2020
3327 Clouds 19 1015 30 10000 2.1 120 21:54 11.05.2020
3328 Clouds 20 1015 30 10000 2.1 120 21:36 11.05.2020
3329 Clouds 20 1015 30 10000 2.1 120 21:18 11.05.2020
3330 Clouds 20 1015 32 10000 2.1 190 20:42 11.05.2020
3331 Clouds 20 1015 32 10000 2.1 190 20:21 11.05.2020
3332 Clouds 20 1015 30 10000 2.6 210 19:59 11.05.2020
3333 Clouds 20 1015 30 10000 2.6 210 19:41 11.05.2020
3334 Clouds 20 1015 30 10000 2.6 210 19:22 11.05.2020
3335 Clouds 19 1016 34 10000 2.6 185 18:57 11.05.2020
3336 Clouds 19 1016 34 10000 2.6 185 18:38 11.05.2020
3337 Clouds 18 1016 34 10000 2.6 190 18:19 11.05.2020
3338 Clouds 18 1016 34 10000 2.6 190 17:57 11.05.2020
3339 Clouds 18 1016 34 10000 2.6 190 17:57 11.05.2020
3340 Clouds 18 1016 34 10000 2.6 190 17:38 11.05.2020
3341 Clear 18 1016 34 10000 2.6 190 17:19 11.05.2020
3342 Clear 17 1016 36 10000 3.1 170 16:45 11.05.2020
3343 Clear 17 1015 36 10000 1.5 180 16:23 11.05.2020
3344 Clear 17 1015 36 10000 1.5 180 15:59 11.05.2020
3345 Clear 17 1015 36 10000 1.5 180 15:40 11.05.2020
3346 Clouds 16 1015 39 10000 2.6 180 15:19 11.05.2020
3347 Clouds 16 1015 39 10000 2.6 180 14:56 11.05.2020
3348 Clouds 16 1015 39 10000 2.6 180 14:56 11.05.2020
3349 Clouds 16 1015 39 10000 2.6 180 14:38 11.05.2020
3350 Clouds 16 1015 39 10000 2.6 180 14:19 11.05.2020
3351 Clouds 16 1014 39 10000 3.6 190 13:42 11.05.2020
3352 Clouds 16 1014 39 10000 3.6 190 13:22 11.05.2020
3353 Clouds 17 1012 42 10000 3.1 0 12:58 11.05.2020
3354 Clouds 17 1012 42 10000 3.1 0 12:40 11.05.2020
3355 Clouds 17 1012 42 10000 3.1 0 12:22 11.05.2020
3356 Clouds 18 1012 37 10000 2.1 190 11:57 11.05.2020
3357 Clouds 18 1012 37 10000 2.1 190 11:57 11.05.2020
3358 Clouds 18 1012 37 10000 2.1 190 11:38 11.05.2020
3359 Clouds 18 1012 37 10000 2.1 190 11:20 11.05.2020
3360 Clouds 18 1011 37 10000 2.6 180 10:56 11.05.2020
3361 Clouds 18 1011 37 10000 2.6 180 10:38 11.05.2020
3362 Clouds 18 1011 37 10000 2.6 180 10:19 11.05.2020
3363 Clouds 19 1011 40 10000 3.1 190 09:56 11.05.2020
3364 Clouds 19 1011 40 10000 3.1 190 09:37 11.05.2020
3365 Clouds 19 1011 40 10000 3.1 190 09:37 11.05.2020
3366 Clouds 19 1010 45 10000 3.1 180 09:18 11.05.2020
3367 Clouds 19 1010 45 10000 3.1 180 08:40 11.05.2020
3368 Clouds 19 1010 49 10000 2.6 180 08:21 11.05.2020
3369 Clouds 19 1010 49 10000 2.6 180 07:50 11.05.2020
3370 Clouds 19 1010 49 10000 2.6 180 07:32 11.05.2020
3371 Clouds 20 1009 49 10000 2.6 170 06:55 11.05.2020
3372 Clouds 20 1009 49 10000 2.6 170 06:31 11.05.2020
3373 Clouds 20 1009 56 10000 2.6 180 05:31 11.05.2020
3374 Clouds 21 1008 56 10000 2.1 170 04:58 11.05.2020
3375 Clouds 21 1008 60 10000 1 0 03:46 11.05.2020
3376 Clouds 21 1007 60 10000 1.5 190 02:35 11.05.2020
3377 Clouds 21 1006 64 10000 1.5 160 01:47 11.05.2020
3378 Clouds 22 1005 68 10000 1.5 200 00:54 11.05.2020
3379 Clouds 22 1005 68 10000 1.5 200 00:24 11.05.2020
3380 Clouds 21 1005 68 10000 1 20 23:45 10.05.2020
3381 Clear 21 1005 68 10000 1 20 23:26 10.05.2020
3382 Clear 23 1004 64 10000 1 50 22:58 10.05.2020
3383 Clear 23 1004 64 10000 1 50 22:40 10.05.2020
3384 Clear 23 1004 64 10000 1 50 22:22 10.05.2020
3385 Clear 23 1004 73 10000 2.1 20 21:44 10.05.2020
3386 Clear 23 1004 73 10000 2.1 20 21:20 10.05.2020
3387 Clear 23 1005 68 10000 2.1 50 20:56 10.05.2020
3388 Clear 23 1005 68 10000 2.1 50 20:38 10.05.2020
3389 Clear 22 1005 72 10000 2.1 70 20:20 10.05.2020
3390 Clear 22 1005 72 10000 2.1 70 19:42 10.05.2020
3391 Clear 22 1005 72 10000 2.1 70 19:24 10.05.2020
3392 Clear 22 1006 68 10000 2.6 50 18:57 10.05.2020
3393 Clear 22 1006 68 10000 2.6 50 18:39 10.05.2020
3394 Clear 21 1006 68 10000 2.6 50 18:20 10.05.2020
3395 Clear 21 1007 64 10000 2.1 360 17:59 10.05.2020
3396 Clear 21 1007 64 10000 2.1 360 17:41 10.05.2020
3397 Clear 21 1007 64 10000 2.1 360 17:22 10.05.2020
3398 Clear 20 1007 72 10000 2.1 360 16:59 10.05.2020
3399 Clear 19 1007 72 10000 2.1 360 16:40 10.05.2020
3400 Clear 18 1008 77 10000 4.1 340 16:19 10.05.2020
3401 Clear 18 1008 77 10000 4.1 340 16:19 10.05.2020
3402 Clear 18 1008 77 10000 4.1 340 15:55 10.05.2020
3403 Clear 17 1008 77 10000 4.1 340 15:36 10.05.2020
3404 Clear 17 1008 77 10000 4.1 340 15:36 10.05.2020
3405 Clear 17 1008 77 10000 5.1 340 15:18 10.05.2020
3406 Clear 16 1008 77 10000 5.1 340 14:39 10.05.2020
3407 Clear 16 1008 77 10000 5.1 340 14:39 10.05.2020
3408 Clouds 16 1008 77 10000 5.1 340 14:20 10.05.2020
3409 Clouds 16 1008 72 10000 5.1 340 13:59 10.05.2020
3410 Clouds 16 1008 72 10000 5.1 340 13:39 10.05.2020
3411 Clouds 16 1008 72 10000 5.1 340 13:20 10.05.2020
3412 Clouds 15 1008 77 10000 3.6 340 12:58 10.05.2020
3413 Clouds 15 1008 77 10000 3.6 340 12:40 10.05.2020
3414 Clouds 15 1008 77 10000 3.6 340 12:21 10.05.2020
3415 Clouds 15 1009 77 10000 3.6 340 11:57 10.05.2020
3416 Clouds 15 1009 77 10000 3.6 340 11:39 10.05.2020
3417 Clouds 15 1009 77 10000 3.6 340 11:20 10.05.2020
3418 Clouds 16 1009 72 10000 4.1 330 10:47 10.05.2020
3419 Clouds 16 1009 72 10000 4.1 330 10:29 10.05.2020
3420 Clouds 16 1009 72 10000 4.6 340 09:58 10.05.2020
3421 Clouds 16 1009 72 10000 4.6 340 09:40 10.05.2020
3422 Clouds 16 1009 72 10000 4.6 340 09:20 10.05.2020
3423 Clouds 16 1010 72 10000 3.6 330 08:50 10.05.2020
3424 Clear 16 1010 72 10000 3.6 330 08:24 10.05.2020
3425 Clear 16 1010 72 10000 3.6 330 07:45 10.05.2020
3426 Clear 16 1010 72 10000 3.6 330 07:21 10.05.2020
3427 Clear 16 1011 67 10000 3.1 350 06:57 10.05.2020
3428 Clear 16 1011 67 10000 3.1 350 06:32 10.05.2020
3429 Clear 16 1011 72 10000 3.6 360 05:51 10.05.2020
3430 Clear 17 1011 67 10000 4.6 350 04:54 10.05.2020
3431 Clear 17 1011 67 10000 4.6 350 04:34 10.05.2020
3432 Clear 17 1011 67 10000 5.7 350 03:54 10.05.2020
3433 Clear 17 1011 67 10000 5.7 350 03:36 10.05.2020
3434 Clear 17 1011 68 9000 4.6 360 02:41 10.05.2020
3435 Clear 18 1011 68 9000 4.6 360 02:19 10.05.2020
3436 Clear 17 1011 72 10000 1.5 320 01:41 10.05.2020
3437 Clear 18 1011 72 10000 2.6 340 01:19 10.05.2020
3438 Clear 17 1011 72 10000 2.6 340 00:54 10.05.2020
3439 Clear 18 1011 72 10000 2.6 340 00:24 10.05.2020
3440 Clear 18 1011 72 10000 3.1 350 23:58 09.05.2020
3441 Clear 18 1011 72 10000 3.1 350 23:39 09.05.2020
3442 Clear 19 1011 72 10000 3.1 350 23:20 09.05.2020
3443 Clear 20 1011 52 10000 3.6 340 22:42 09.05.2020
3444 Clear 20 1011 52 10000 3.6 340 22:23 09.05.2020
3445 Clear 20 1011 60 10000 3.6 340 21:58 09.05.2020
3446 Clear 20 1011 60 10000 3.6 340 21:40 09.05.2020
3447 Clear 20 1011 60 10000 3.6 340 21:21 09.05.2020
3448 Clear 20 1012 56 10000 4.1 340 20:57 09.05.2020
3449 Clear 20 1012 56 10000 4.1 340 20:38 09.05.2020
3450 Clouds 20 1012 56 10000 4.1 340 20:20 09.05.2020
3451 Clouds 20 1013 52 10000 3.6 340 19:55 09.05.2020
3452 Clouds 20 1013 52 10000 3.6 340 19:37 09.05.2020
3453 Clouds 20 1014 55 10000 4.1 340 19:18 09.05.2020
3454 Clouds 19 1014 55 10000 4.1 340 18:42 09.05.2020
3455 Clouds 19 1014 55 10000 4.1 340 18:21 09.05.2020
3456 Clouds 18 1015 63 10000 4.6 350 17:44 09.05.2020
3457 Clouds 17 1015 63 10000 4.6 350 17:23 09.05.2020
3458 Clouds 16 1015 67 10000 3.6 340 16:56 09.05.2020
3459 Clouds 16 1015 67 10000 3.6 340 16:38 09.05.2020
3460 Clouds 16 1015 67 10000 3.6 340 16:18 09.05.2020
3461 Clouds 15 1016 71 10000 4.1 340 15:42 09.05.2020
3462 Clouds 14 1015 76 10000 4.1 320 15:22 09.05.2020
3463 Clouds 14 1015 76 10000 4.1 320 14:56 09.05.2020
3464 Clouds 14 1015 76 10000 4.1 320 14:37 09.05.2020
3465 Clouds 13 1014 76 10000 5.1 330 14:18 09.05.2020
3466 Clouds 13 1014 76 10000 5.1 330 13:43 09.05.2020
3467 Clouds 13 1014 76 10000 5.1 330 13:22 09.05.2020
3468 Clouds 13 1014 76 10000 5.7 340 12:58 09.05.2020
3469 Clouds 13 1014 76 10000 5.7 340 12:39 09.05.2020
3470 Clouds 13 1014 76 10000 5.7 340 12:21 09.05.2020
3471 Clouds 13 1014 76 10000 5.7 330 11:44 09.05.2020
3472 Clouds 13 1014 81 10000 4.6 330 11:20 09.05.2020
3473 Clouds 13 1014 81 10000 4.6 330 10:54 09.05.2020
3474 Clouds 13 1014 81 10000 4.6 330 10:36 09.05.2020
3475 Clouds 13 1014 82 10000 6.2 330 10:18 09.05.2020
3476 Clouds 13 1014 82 10000 6.2 330 09:41 09.05.2020
3477 Clouds 13 1014 82 10000 6.2 330 09:20 09.05.2020
3478 Clouds 14 1015 76 10000 6.2 330 08:52 09.05.2020
3479 Clouds 14 1015 76 10000 6.2 330 08:34 09.05.2020
3480 Clouds 14 1015 76 10000 6.7 340 07:55 09.05.2020
3481 Clouds 14 1015 76 10000 6.7 340 07:37 09.05.2020
3482 Clouds 14 1015 76 10000 6.7 340 07:19 09.05.2020
3483 Clouds 15 1016 72 10000 6.2 340 06:26 09.05.2020
3484 Clouds 15 1016 72 10000 7.2 340 05:50 09.05.2020
3485 Clouds 15 1016 67 10000 7.2 350 04:58 09.05.2020
3486 Clear 15 1016 67 10000 6.7 350 03:39 09.05.2020
3487 Clear 15 1017 67 10000 6.2 350 02:53 09.05.2020
3488 Clouds 16 1017 67 10000 6.2 350 02:23 09.05.2020
3489 Clouds 16 1017 63 10000 5.7 350 01:47 09.05.2020
3490 Clouds 16 1017 63 10000 4.6 340 01:20 09.05.2020
3491 Clouds 16 1017 63 10000 4.6 340 00:40 09.05.2020
3492 Clouds 16 1017 55 10000 4.1 330 23:58 08.05.2020
3493 Clouds 16 1017 55 10000 4.1 330 23:39 08.05.2020
3494 Clouds 17 1017 55 10000 4.6 340 23:20 08.05.2020
3495 Clouds 17 1017 55 10000 4.6 340 22:55 08.05.2020
3496 Clouds 17 1017 55 10000 4.6 340 22:36 08.05.2020
3497 Clouds 17 1018 55 10000 4.6 340 22:18 08.05.2020
3498 Clouds 18 1018 55 10000 4.6 340 21:54 08.05.2020
3499 Clouds 18 1018 55 10000 4.6 340 21:36 08.05.2020
3500 Clouds 18 1019 55 10000 5.1 350 21:18 08.05.2020
3501 Clouds 18 1019 55 10000 5.1 350 20:41 08.05.2020
3502 Clouds 18 1019 55 10000 5.1 350 20:23 08.05.2020
3503 Clouds 18 1020 59 10000 5.1 340 19:55 08.05.2020
3504 Clouds 18 1020 59 10000 5.1 340 19:37 08.05.2020
3505 Clouds 18 1021 59 10000 5.7 340 19:19 08.05.2020
3506 Clouds 17 1021 59 10000 5.7 340 18:43 08.05.2020
3507 Clouds 17 1021 59 10000 5.7 340 18:25 08.05.2020
3508 Clouds 17 1022 63 10000 4.1 340 17:42 08.05.2020
3509 Clear 16 1022 63 10000 4.1 340 17:19 08.05.2020
3510 Clear 16 1022 67 10000 4.1 340 16:48 08.05.2020
3511 Clear 16 1022 67 10000 4.1 340 16:27 08.05.2020
3512 Clear 15 1022 66 10000 3.6 340 15:59 08.05.2020
3513 Clear 14 1022 66 10000 3.6 340 15:41 08.05.2020
3514 Clear 14 1022 66 10000 3.6 340 15:19 08.05.2020
3515 Clear 13 1022 76 10000 2.6 340 14:54 08.05.2020
3516 Clear 13 1022 76 10000 2.6 340 14:36 08.05.2020
3517 Clouds 12 1022 71 10000 3.6 320 14:18 08.05.2020
3518 Clouds 12 1022 71 10000 3.6 320 13:41 08.05.2020
3519 Clouds 12 1022 71 10000 3.6 320 13:20 08.05.2020
3520 Clouds 11 1021 71 10000 2.6 320 12:55 08.05.2020
3521 Clouds 11 1021 71 10000 2.6 320 12:36 08.05.2020
3522 Clouds 11 1021 71 10000 2.6 320 12:18 08.05.2020
3523 Clouds 11 1021 76 10000 1.5 320 11:43 08.05.2020
3524 Clouds 11 1021 76 10000 1.5 320 11:22 08.05.2020
3525 Clouds 11 1021 76 10000 2.1 310 10:58 08.05.2020
3526 Clouds 11 1021 76 10000 2.1 310 10:40 08.05.2020
3527 Clouds 12 1021 71 10000 2.6 310 10:19 08.05.2020
3528 Clouds 11 1021 71 10000 2.6 310 09:42 08.05.2020
3529 Clear 12 1021 71 10000 2.6 310 09:20 08.05.2020
3530 Clear 12 1022 76 10000 3.1 320 08:59 08.05.2020
3531 Clear 12 1022 76 10000 3.1 320 08:40 08.05.2020
3532 Clouds 12 1022 76 10000 3.1 320 08:20 08.05.2020
3533 Clouds 12 1022 71 10000 3.1 320 07:40 08.05.2020
3534 Clouds 12 1022 71 10000 3.1 320 07:20 08.05.2020
3535 Clouds 12 1023 66 10000 1 310 06:48 08.05.2020
3536 Clouds 12 1023 66 10000 1 310 06:20 08.05.2020
3537 Clouds 13 1023 66 10000 2.6 320 05:34 08.05.2020
3538 Clouds 14 1023 62 10000 1 310 03:50 08.05.2020
3539 Clouds 14 1022 62 10000 2.6 320 02:30 08.05.2020
3540 Clouds 14 1023 58 10000 2.6 320 01:41 08.05.2020
3541 Clouds 15 1023 51 10000 2.1 320 01:21 08.05.2020
3542 Clouds 15 1023 51 10000 2.1 320 00:48 08.05.2020
3543 Clouds 15 1023 51 10000 2.1 320 00:27 08.05.2020
3544 Clouds 16 1023 42 10000 2.6 300 23:57 07.05.2020
3545 Clouds 16 1023 42 10000 2.6 300 23:38 07.05.2020
3546 Clouds 17 1024 51 0 0.45 270 23:20 07.05.2020
3547 Clouds 18 1023 39 10000 3.1 290 22:42 07.05.2020
3548 Clouds 18 1023 39 10000 3.1 290 22:42 07.05.2020
3549 Clouds 18 1023 39 10000 3.1 290 22:20 07.05.2020
3550 Clouds 18 1023 42 10000 3.1 280 21:57 07.05.2020
3551 Clouds 18 1023 42 10000 3.1 280 21:38 07.05.2020
3552 Clouds 18 1023 45 10000 3.1 290 21:20 07.05.2020
3553 Clouds 18 1023 45 10000 3.1 290 20:57 07.05.2020
3554 Clouds 18 1023 45 10000 3.1 290 20:37 07.05.2020
3555 Clear 18 1023 45 10000 3.1 290 20:19 07.05.2020
3556 Clouds 18 1024 42 10000 3.1 290 19:46 07.05.2020
3557 Clouds 18 1024 42 10000 3.1 290 19:22 07.05.2020
3558 Clouds 18 1025 48 10000 4.1 310 18:55 07.05.2020
3559 Clouds 17 1025 48 10000 4.1 310 18:36 07.05.2020
3560 Clouds 17 1025 48 10000 4.1 310 18:36 07.05.2020
3561 Clouds 17 1026 51 10000 4.1 320 18:18 07.05.2020
3562 Clouds 17 1026 51 10000 4.1 320 17:41 07.05.2020
3563 Clouds 17 1026 51 10000 4.1 320 17:20 07.05.2020
3564 Clear 17 1026 51 10000 3.6 350 16:42 07.05.2020
3565 Clear 16 1026 55 10000 0.5 270 16:19 07.05.2020
3566 Clear 16 1026 55 10000 0.5 270 15:57 07.05.2020
3567 Clear 16 1026 55 10000 0.5 270 15:37 07.05.2020
3568 Clear 16 1026 55 10000 0.5 270 15:18 07.05.2020
3569 Clear 14 1026 66 10000 1 0 15:18 07.05.2020
3570 Clear 13 1026 66 10000 1 0 14:55 07.05.2020
3571 Clear 13 1026 66 10000 1 0 14:37 07.05.2020
3572 Clouds 12 1025 71 10000 1.5 220 14:18 07.05.2020
3573 Clouds 11 1025 71 10000 1.5 220 13:40 07.05.2020
3574 Clouds 11 1025 71 10000 1.5 220 13:21 07.05.2020
3575 Clouds 11 1025 76 10000 1 0 12:41 07.05.2020
3576 Clouds 11 1025 76 10000 1 0 12:20 07.05.2020
3577 Clouds 11 1024 76 10000 1 0 11:39 07.05.2020
3578 Clouds 11 1024 76 10000 1 0 11:21 07.05.2020
3579 Clouds 12 1024 71 10000 1.5 220 10:57 07.05.2020
3580 Clouds 11 1024 71 10000 1.5 220 10:38 07.05.2020
3581 Clouds 11 1024 71 10000 1.5 220 10:18 07.05.2020
3582 Clouds 13 1025 71 10000 1 0 09:39 07.05.2020
3583 Clouds 13 1025 76 10000 1 0 09:19 07.05.2020
3584 Clouds 12 1026 87 0 1.71 210 08:46 07.05.2020
3585 Clouds 13 1025 76 10000 1 230 08:24 07.05.2020
3586 Clouds 13 1025 76 10000 1 230 07:59 07.05.2020
3587 Clouds 13 1025 76 10000 1 230 07:41 07.05.2020
3588 Clouds 13 1025 76 10000 1 230 07:20 07.05.2020
3589 Clouds 12 1025 81 10000 1 0 06:38 07.05.2020
3590 Clouds 12 1025 81 10000 0.5 230 06:19 07.05.2020
3591 Clouds 12 1025 81 10000 1 0 04:41 07.05.2020
3592 Clouds 12 1025 76 10000 0.5 260 03:40 07.05.2020
3593 Clouds 13 1024 62 10000 1 270 03:18 07.05.2020
3594 Clouds 13 1024 62 10000 1 270 02:35 07.05.2020
3595 Clouds 14 1024 58 10000 0.5 230 01:37 07.05.2020
3596 Clouds 14 1024 58 10000 1 0 01:19 07.05.2020
3597 Clouds 15 1024 58 10000 1 0 00:42 07.05.2020
3598 Clouds 15 1024 58 10000 1 0 00:21 07.05.2020
3599 Clouds 15 1024 54 10000 2.1 220 23:44 06.05.2020
3600 Clouds 15 1024 51 10000 2.6 230 23:22 06.05.2020
3601 Clouds 15 1024 51 10000 2.6 230 22:56 06.05.2020
3602 Clouds 16 1024 51 10000 2.6 230 22:37 06.05.2020
3603 Clouds 16 1024 51 10000 2.6 230 22:19 06.05.2020
3604 Clouds 16 1024 51 10000 3.1 210 21:55 06.05.2020
3605 Clouds 16 1024 51 10000 3.1 210 21:36 06.05.2020
3606 Clouds 16 1024 62 10000 2.1 180 21:18 06.05.2020
3607 Clouds 15 1024 62 10000 2.1 180 20:39 06.05.2020
3608 Clouds 16 1024 62 10000 2.1 180 20:21 06.05.2020
3609 Clouds 15 1025 67 10000 2.1 220 19:56 06.05.2020
3610 Clouds 16 1025 67 10000 2.1 220 19:38 06.05.2020
3611 Clouds 15 1025 67 10000 2.1 220 19:18 06.05.2020
3612 Clouds 15 1025 67 10000 2.1 220 19:18 06.05.2020
3613 Clouds 15 1025 67 10000 2.1 230 18:58 06.05.2020
3614 Clouds 15 1025 67 10000 2.1 230 18:37 06.05.2020
3615 Clouds 14 1025 67 10000 2.1 230 18:19 06.05.2020
3616 Clouds 14 1026 67 10000 2.6 230 17:55 06.05.2020
3617 Clouds 14 1026 67 10000 2.6 230 17:36 06.05.2020
3618 Clouds 14 1026 71 10000 3.1 220 17:18 06.05.2020
3619 Clouds 13 1026 71 10000 3.1 220 16:57 06.05.2020
3620 Clouds 13 1026 71 10000 3.1 220 16:39 06.05.2020
3621 Clouds 13 1026 71 10000 3.1 220 16:19 06.05.2020
3622 Clouds 11 1026 81 10000 2.6 210 15:47 06.05.2020
3623 Clouds 11 1026 81 10000 2.6 210 15:23 06.05.2020
3624 Clouds 11 1025 87 10000 3.1 220 14:58 06.05.2020
3625 Clouds 11 1025 87 10000 3.1 220 14:39 06.05.2020
3626 Clouds 10 1024 87 10000 3.1 230 14:19 06.05.2020
3627 Clouds 10 1025 87 10000 3.1 220 14:19 06.05.2020
3628 Clouds 10 1024 87 10000 3.1 230 13:58 06.05.2020
3629 Clouds 9 1024 87 10000 3.1 230 13:38 06.05.2020
3630 Clouds 9 1024 87 10000 2.6 220 13:19 06.05.2020
3631 Clouds 9 1024 87 10000 2.6 220 12:43 06.05.2020
3632 Clouds 9 1024 87 10000 2.6 220 12:24 06.05.2020
3633 Clouds 9 1023 81 10000 2.1 220 11:42 06.05.2020
3634 Clouds 9 1023 81 10000 2.1 220 11:23 06.05.2020
3635 Clear 9 1023 81 10000 2.6 220 10:58 06.05.2020
3636 Clear 9 1023 81 10000 2.6 220 10:39 06.05.2020
3637 Clear 9 1022 81 10000 3.1 230 10:19 06.05.2020
3638 Clear 9 1022 81 10000 3.1 230 09:57 06.05.2020
3639 Clear 9 1022 81 10000 3.1 230 09:37 06.05.2020
3640 Clear 9 1022 81 10000 3.1 220 09:19 06.05.2020
3641 Clear 9 1022 81 10000 3.1 220 08:42 06.05.2020
3642 Clear 10 1022 81 10000 3.1 220 08:20 06.05.2020
3643 Clear 10 1022 81 10000 3.1 220 07:56 06.05.2020
3644 Clear 10 1022 81 10000 3.1 220 07:37 06.05.2020
3645 Clear 10 1021 71 10000 2.6 220 07:18 06.05.2020
3646 Clear 10 1021 71 10000 2.6 220 06:45 06.05.2020
3647 Clear 10 1021 71 10000 2.6 220 06:20 06.05.2020
3648 Clear 11 1021 71 10000 2.6 210 05:37 06.05.2020
3649 Clear 11 1020 62 10000 2.1 200 04:49 06.05.2020
3650 Clear 11 1020 62 10000 2.6 200 03:49 06.05.2020
3651 Clear 12 1020 62 10000 2.6 200 03:24 06.05.2020
3652 Clear 12 1019 58 10000 2.6 210 02:38 06.05.2020
3653 Clouds 13 1018 54 10000 2.6 180 02:20 06.05.2020
3654 Clouds 13 1018 54 10000 2.6 180 01:41 06.05.2020
3655 Clouds 14 1017 58 10000 3.6 200 00:56 06.05.2020
3656 Clouds 14 1017 58 10000 3.6 200 00:31 06.05.2020
3657 Clouds 15 1016 58 10000 3.1 200 23:58 05.05.2020
3658 Clouds 15 1016 58 10000 3.1 200 23:39 05.05.2020
3659 Clouds 15 1016 58 10000 3.1 200 23:19 05.05.2020
3660 Clouds 15 1016 58 10000 3.1 200 23:19 05.05.2020
3661 Clouds 15 1015 55 10000 5.1 230 22:42 05.05.2020
3662 Clouds 16 1015 55 10000 5.1 230 22:20 05.05.2020
3663 Clouds 16 1015 59 10000 5.1 230 21:58 05.05.2020
3664 Clouds 16 1015 59 10000 5.1 230 21:40 05.05.2020
3665 Clouds 16 1015 59 10000 5.1 230 21:21 05.05.2020
3666 Clouds 16 1014 59 10000 4.1 250 20:58 05.05.2020
3667 Clouds 16 1014 59 10000 4.1 250 20:39 05.05.2020
3668 Clouds 16 1014 59 10000 5.1 200 20:19 05.05.2020
3669 Clouds 16 1014 59 10000 5.1 200 19:54 05.05.2020
3670 Clouds 16 1014 59 10000 5.1 200 19:36 05.05.2020
3671 Clouds 16 1014 62 10000 6.7 230 19:18 05.05.2020
3672 Clouds 15 1014 62 10000 6.7 230 18:42 05.05.2020
3673 Clouds 15 1014 62 10000 6.7 230 18:20 05.05.2020
3674 Clouds 15 1014 62 10000 3.6 230 17:59 05.05.2020
3675 Clouds 15 1014 62 10000 3.6 230 17:41 05.05.2020
3676 Clouds 15 1014 62 10000 3.6 230 17:23 05.05.2020
3677 Clouds 15 1013 62 10000 7.2 250 16:57 05.05.2020
3678 Clouds 15 1013 62 10000 7.2 250 16:36 05.05.2020
3679 Clouds 14 1013 71 10000 6.2 250 16:18 05.05.2020
3680 Clouds 14 1013 71 10000 6.2 250 16:18 05.05.2020
3681 Clouds 14 1013 71 10000 6.2 250 16:18 05.05.2020
3682 Clouds 13 1013 71 10000 6.2 250 15:41 05.05.2020
3683 Clouds 13 1013 71 10000 6.2 250 15:22 05.05.2020
3684 Clouds 13 1012 62 10000 6.2 250 14:58 05.05.2020
3685 Clouds 13 1012 62 10000 6.2 250 14:39 05.05.2020
3686 Clouds 13 1010 77 10000 4.1 250 14:20 05.05.2020
3687 Clouds 14 1010 77 10000 4.1 250 13:58 05.05.2020
3688 Clouds 14 1010 77 10000 4.1 250 13:39 05.05.2020
3689 Clouds 15 1010 77 10000 4.1 250 13:21 05.05.2020
3690 Clouds 15 1009 82 10000 6.2 250 12:58 05.05.2020
3691 Rain 15 1009 82 10000 4.1 250 12:39 05.05.2020
3692 Rain 15 1009 82 10000 4.1 250 12:19 05.05.2020
3693 Clouds 15 1008 62 10000 3.1 290 11:42 05.05.2020
3694 Clouds 15 1008 62 10000 3.1 290 11:20 05.05.2020
3695 Clouds 15 1008 62 10000 3.1 290 11:20 05.05.2020
3696 Clouds 15 1008 87 10000 4.1 270 10:59 05.05.2020
3697 Clouds 15 1008 87 10000 4.1 270 10:38 05.05.2020
3698 Clouds 14 1008 87 10000 4.1 270 10:19 05.05.2020
3699 Clouds 14 1009 93 10000 3.6 290 09:55 05.05.2020
3700 Clouds 14 1009 93 10000 3.6 290 09:37 05.05.2020
3701 Clouds 14 1009 93 10000 3.6 290 09:19 05.05.2020
3702 Clouds 14 1009 93 10000 3.6 280 08:41 05.05.2020
3703 Clear 14 1009 93 10000 3.6 280 08:20 05.05.2020
3704 Clear 14 1008 93 10000 3.1 300 07:56 05.05.2020
3705 Clear 14 1008 93 10000 3.1 300 07:38 05.05.2020
3706 Clouds 14 1008 93 10000 3.1 300 07:18 05.05.2020
3707 Clouds 15 1007 93 10000 4.6 330 06:40 05.05.2020
3708 Clouds 15 1008 93 10000 4.1 300 06:20 05.05.2020
3709 Clouds 15 1008 93 10000 4.1 300 05:30 05.05.2020
3710 Clouds 16 1009 82 10000 5.7 360 03:19 05.05.2020
3711 Clouds 16 1009 82 10000 5.1 360 01:23 05.05.2020
3712 Clouds 16 1009 88 10000 2.6 40 00:49 05.05.2020
3713 Rain 16 1010 87 10000 3.1 80 00:18 05.05.2020
3714 Rain 16 1010 87 10000 3.1 80 23:42 04.05.2020
3715 Rain 15 1010 93 5000 1.5 0 23:21 04.05.2020
3716 Rain 15 1010 93 5000 1.5 0 22:55 04.05.2020
3717 Rain 15 1010 93 5000 1.5 0 22:37 04.05.2020
3718 Rain 16 1011 87 3000 1.5 180 22:18 04.05.2020
3719 Rain 16 1011 87 3000 1.5 180 21:52 04.05.2020
3720 Rain 16 1011 87 3000 1.5 180 21:52 04.05.2020
3721 Rain 16 1011 87 3000 1.5 180 21:52 04.05.2020
3722 Rain 16 1011 87 3000 1.5 180 21:52 04.05.2020
3723 Rain 16 1011 87 3000 1.5 180 21:52 04.05.2020
3724 Rain 16 1011 87 3000 1.5 180 21:27 04.05.2020
3725 Rain 16 1011 87 3000 1.5 180 21:26 04.05.2020
3726 Rain 16 1011 87 3000 1.5 180 21:26 04.05.2020
3727 Thunderstorm 17 1010 82 1500 3.1 0 20:43 04.05.2020
3728 Thunderstorm 17 1010 82 1500 3.1 0 20:43 04.05.2020
3729 Thunderstorm 16 1010 82 1500 3.1 0 20:22 04.05.2020
3730 Thunderstorm 16 1010 82 1500 3.1 0 20:22 04.05.2020
3731 Clouds 17 1011 82 10000 2.1 0 19:59 04.05.2020
3732 Clouds 17 1011 82 10000 2.1 0 19:59 04.05.2020
3733 Clouds 18 1011 82 10000 2.1 0 19:40 04.05.2020
3734 Clouds 17 1011 82 10000 2.1 0 19:19 04.05.2020
3735 Rain 17 1012 82 8000 2.1 330 18:54 04.05.2020
3736 Rain 17 1012 82 4000 2.6 340 18:36 04.05.2020
3737 Clouds 17 1013 77 10000 2.6 350 18:18 04.05.2020
3738 Clouds 18 1013 77 10000 2.6 350 17:41 04.05.2020
3739 Clouds 19 1013 77 10000 2.6 350 17:21 04.05.2020
3740 Clouds 19 1014 77 10000 2.6 340 16:59 04.05.2020
3741 Clouds 19 1014 77 10000 2.6 340 16:41 04.05.2020
3742 Clouds 19 1014 77 10000 2.6 340 16:20 04.05.2020
3743 Clouds 19 1013 72 10000 1.5 50 15:43 04.05.2020
3744 Clouds 19 1013 72 10000 1.5 50 15:24 04.05.2020
3745 Clouds 18 1014 82 10000 0.5 0 14:54 04.05.2020
3746 Clouds 18 1014 82 10000 0.5 0 14:54 04.05.2020
3747 Clouds 18 1014 82 10000 0.5 0 14:54 04.05.2020
3748 Clouds 18 1014 82 10000 0.5 0 14:54 04.05.2020
3749 Clouds 17 1014 82 10000 0.5 0 14:31 04.05.2020
3750 Clouds 17 1014 82 10000 0.5 0 14:31 04.05.2020
3751 Clouds 17 1014 82 10000 0.5 0 14:31 04.05.2020
3752 Clouds 17 1014 82 10000 0.5 0 14:31 04.05.2020
3753 Clouds 17 1014 82 10000 0.5 0 14:31 04.05.2020
3754 Clouds 16 1014 87 10000 1 0 13:40 04.05.2020
3755 Clouds 16 1014 87 10000 1 0 13:40 04.05.2020
3756 Clouds 16 1014 87 10000 1 0 13:40 04.05.2020
3757 Clouds 16 1014 87 10000 1 0 13:40 04.05.2020
3758 Clouds 15 1013 87 10000 0.5 0 12:44 04.05.2020
3759 Clouds 15 1013 87 10000 0.5 0 12:44 04.05.2020
3760 Clouds 15 1013 87 10000 0.5 0 12:44 04.05.2020
3761 Clouds 15 1013 87 10000 0.5 0 12:44 04.05.2020
3762 Clouds 15 1013 87 10000 0.5 0 12:44 04.05.2020
3763 Clouds 16 1013 87 10000 0.5 0 11:29 04.05.2020
3764 Clouds 16 1013 87 10000 0.5 0 11:29 04.05.2020
3765 Clouds 16 1013 87 10000 0.5 0 11:29 04.05.2020
3766 Clouds 16 1013 82 10000 3.6 330 09:32 04.05.2020
3767 Clouds 17 1014 72 10000 3.1 360 07:59 04.05.2020
3768 Clouds 17 1014 72 10000 3.1 360 07:40 04.05.2020
3769 Clouds 17 1016 99 0 0.45 45 06:31 04.05.2020
3770 Clouds 17 1016 99 0 0.45 45 06:31 04.05.2020
3771 Clouds 17 1016 99 0 0.45 45 06:30 04.05.2020
3772 Clouds 17 1016 99 0 0.45 45 06:29 04.05.2020
3773 Clouds 17 1016 99 0 0.45 45 06:29 04.05.2020
3774 Clouds 16 1015 82 10000 2.6 110 04:53 04.05.2020
3775 Clouds 17 1016 88 10000 1.5 160 03:18 04.05.2020
3776 Clouds 17 1016 88 10000 1.5 160 02:29 04.05.2020
3777 Clouds 18 1015 77 10000 1.5 120 00:33 04.05.2020
3778 Clouds 18 1015 77 10000 1.5 120 00:33 04.05.2020
3779 Clouds 18 1015 77 10000 2.6 110 23:45 03.05.2020
3780 Clouds 18 1015 77 10000 2.6 110 23:24 03.05.2020
3781 Clouds 19 1015 64 10000 2.1 110 22:44 03.05.2020
3782 Clouds 20 1015 64 10000 2.1 110 22:25 03.05.2020
3783 Clouds 20 1015 72 10000 2.6 50 21:57 03.05.2020
3784 Clouds 19 1015 72 10000 2.6 50 21:39 03.05.2020
3785 Clouds 20 1016 72 10000 2.6 50 21:20 03.05.2020
3786 Clouds 19 1016 72 10000 2.6 50 20:43 03.05.2020
3787 Clouds 19 1016 72 10000 2.6 50 20:43 03.05.2020
3788 Clouds 19 1016 72 10000 2.6 50 20:21 03.05.2020
3789 Clouds 19 1017 68 10000 3.1 30 19:50 03.05.2020
3790 Clouds 20 1017 68 10000 3.1 30 19:50 03.05.2020
3791 Clouds 19 1017 68 10000 3.1 30 19:50 03.05.2020
3792 Clouds 19 1017 68 10000 3.1 30 19:31 03.05.2020
3793 Clouds 19 1019 72 10000 3.6 360 18:58 03.05.2020
3794 Clouds 19 1019 72 10000 3.6 360 18:38 03.05.2020
3795 Clouds 19 1019 72 10000 3.6 360 18:38 03.05.2020
3796 Clouds 19 1019 72 10000 3.6 360 18:38 03.05.2020
3797 Clouds 19 1019 72 10000 3.6 360 18:38 03.05.2020
3798 Clouds 19 1019 72 10000 3.6 360 18:38 03.05.2020
3799 Clouds 19 1019 72 10000 3.6 360 18:19 03.05.2020
3800 Clouds 18 1019 72 10000 3.6 10 17:41 03.05.2020
3801 Clouds 18 1019 72 10000 3.6 10 17:21 03.05.2020
3802 Clouds 18 1020 72 10000 4.1 360 16:45 03.05.2020
3803 Clear 18 1020 72 10000 4.1 360 16:21 03.05.2020
3804 Clear 17 1020 77 10000 4.6 360 15:59 03.05.2020
3805 Clear 17 1020 77 10000 4.6 360 15:40 03.05.2020
3806 Clear 17 1020 77 10000 4.6 360 15:20 03.05.2020
3807 Clear 16 1020 72 10000 5.7 20 14:58 03.05.2020
3808 Clear 16 1020 72 10000 5.7 20 14:58 03.05.2020
3809 Clear 16 1020 72 10000 5.7 20 14:40 03.05.2020
3810 Clear 16 1020 72 10000 5.7 20 14:40 03.05.2020
3811 Clear 16 1020 72 10000 5.7 20 14:21 03.05.2020
3812 Clear 15 1020 77 10000 4.6 20 13:53 03.05.2020
3813 Clear 15 1020 77 10000 4.6 20 13:53 03.05.2020
3814 Clear 15 1020 77 10000 4.6 20 13:53 03.05.2020
3815 Clear 15 1020 77 10000 4.6 360 13:20 03.05.2020
3816 -273 0 0 0 0 0 13:19 03.05.2020
3817 Clear 15 1020 77 10000 4.6 360 13:19 03.05.2020
3818 Clear 15 1020 77 10000 4.6 360 12:44 03.05.2020
3819 Clear 15 1020 72 10000 5.1 10 12:18 03.05.2020
3820 Clear 15 1020 72 10000 5.1 10 11:56 03.05.2020
3821 Clear 15 1020 72 10000 5.1 10 11:37 03.05.2020
3822 Clear 15 1020 72 10000 5.1 20 11:18 03.05.2020
3823 Clear 15 1020 72 10000 5.1 20 10:46 03.05.2020
3824 Clear 15 1020 72 10000 5.1 20 10:46 03.05.2020
3825 Clear 15 1020 72 10000 5.1 20 10:46 03.05.2020
3826 Clear 15 1020 72 10000 5.1 20 10:46 03.05.2020
3827 Clear 15 1020 72 10000 5.1 20 10:46 03.05.2020
3828 Clear 15 1020 72 10000 5.7 40 09:57 03.05.2020
3829 Clear 15 1020 72 10000 5.7 40 09:34 03.05.2020
3830 Clear 15 1020 72 10000 5.7 40 09:34 03.05.2020
3831 Clear 15 1020 72 10000 5.7 40 09:34 03.05.2020
3832 Clear 15 1020 72 10000 5.7 40 09:34 03.05.2020
3833 Clear 15 1020 72 10000 5.7 40 09:34 03.05.2020
3834 Clear 16 1021 77 10000 6.2 50 08:55 03.05.2020
3835 Clear 16 1021 77 10000 6.2 50 08:55 03.05.2020
3836 Clear 16 1021 77 10000 6.2 50 08:55 03.05.2020
3837 Clear 16 1021 77 10000 6.2 50 08:55 03.05.2020
3838 Clear 16 1021 77 10000 6.2 50 08:26 03.05.2020
3839 Clear 16 1021 77 10000 6.2 50 08:26 03.05.2020
3840 Clear 16 1021 77 10000 6.2 50 08:26 03.05.2020
3841 Clear 16 1021 77 10000 6.2 50 08:26 03.05.2020
3842 Clear 16 1021 77 10000 6.2 50 08:26 03.05.2020
3843 Clear 16 1021 77 10000 7.2 60 07:39 03.05.2020
3844 Clear 16 1022 82 10000 6.7 70 06:19 03.05.2020
3845 Clear 16 1022 82 10000 6.7 70 05:46 03.05.2020
3846 Clouds 16 1022 77 10000 6.2 70 04:46 03.05.2020
3847 Clouds 16 1022 77 10000 6.2 70 04:23 03.05.2020
3848 Clear 16 1021 82 10000 7.7 100 02:58 03.05.2020
3849 Clouds 16 1021 82 10000 7.7 100 02:24 03.05.2020
3850 Clouds 16 1022 77 10000 7.2 100 01:44 03.05.2020
3851 Clouds 17 1022 77 10000 7.2 100 01:24 03.05.2020
3852 Clouds 16 1022 82 10000 5.1 110 00:41 03.05.2020
3853 Clouds 16 1022 77 10000 4.6 110 00:21 03.05.2020
3854 Clouds 16 1022 77 10000 4.6 110 00:21 03.05.2020
3855 Clouds 16 1022 77 10000 4.6 110 23:56 02.05.2020
3856 Clouds 17 1022 77 10000 4.6 110 23:38 02.05.2020
3857 Clouds 17 1021 77 10000 5.1 110 23:19 02.05.2020
3858 Clouds 17 1021 77 10000 5.1 110 22:42 02.05.2020
3859 Clouds 17 1021 77 10000 5.1 110 22:23 02.05.2020
3860 Clouds 18 1022 77 10000 5.1 90 21:56 02.05.2020
3861 Clouds 18 1022 77 10000 5.1 90 21:37 02.05.2020
3862 Clouds 18 1022 72 10000 4.6 100 21:18 02.05.2020
3863 Clouds 18 1022 72 10000 4.6 100 20:55 02.05.2020
3864 Clouds 18 1022 72 10000 4.6 100 20:37 02.05.2020
3865 Clouds 18 1022 72 10000 4.6 100 20:18 02.05.2020
3866 Clouds 18 1023 77 10000 3.6 90 19:55 02.05.2020
3867 Clouds 18 1023 77 10000 3.6 90 19:36 02.05.2020
3868 Clouds 18 1024 77 10000 4.1 110 19:18 02.05.2020
3869 Clouds 18 1024 77 10000 4.1 110 18:40 02.05.2020
3870 Clouds 18 1024 77 10000 4.1 110 18:21 02.05.2020
3871 Clouds 18 1024 77 10000 3.6 110 17:57 02.05.2020
3872 Clouds 18 1024 77 10000 3.6 110 17:38 02.05.2020
3873 Clouds 18 1025 77 10000 3.6 90 17:19 02.05.2020
3874 Clouds 17 1025 77 10000 3.6 90 16:56 02.05.2020
3875 Clouds 17 1025 77 10000 3.6 90 16:38 02.05.2020
3876 Clouds 17 1025 77 10000 3.6 90 16:20 02.05.2020
3877 Clouds 16 1025 82 10000 1 270 15:41 02.05.2020
3878 Clouds 14 1024 87 10000 1 0 15:20 02.05.2020
3879 Clouds 13 1024 87 10000 1 0 14:44 02.05.2020
3880 Clouds 13 1024 87 10000 1 0 14:26 02.05.2020
3881 Clouds 13 1024 87 10000 1 0 13:59 02.05.2020
3882 Clouds 12 1024 87 10000 1 0 13:39 02.05.2020
3883 Clouds 11 1024 87 10000 1 0 13:19 02.05.2020
3884 Clouds 11 1024 87 10000 1 0 12:41 02.05.2020
3885 Clouds 11 1024 87 10000 1 0 12:21 02.05.2020
3886 Clear 11 1023 87 10000 2.1 190 11:57 02.05.2020
3887 Clear 11 1023 87 10000 2.1 190 11:39 02.05.2020
3888 Clear 11 1023 87 10000 2.1 190 11:20 02.05.2020
3889 Clear 12 1023 82 10000 2.1 160 10:40 02.05.2020
3890 Clear 12 1023 82 10000 2.1 160 10:22 02.05.2020
3891 Clear 12 1024 76 10000 2.1 160 09:59 02.05.2020
3892 Clear 12 1024 76 10000 2.1 160 09:41 02.05.2020
3893 Clear 12 1024 76 10000 2.1 160 09:23 02.05.2020
3894 Clear 13 1024 76 10000 3.1 150 08:55 02.05.2020
3895 Clear 13 1024 76 10000 3.1 150 08:37 02.05.2020
3896 Clear 13 1024 76 10000 3.1 150 08:37 02.05.2020
3897 Clear 13 1024 76 10000 2.1 160 08:19 02.05.2020
3898 Clear 13 1024 76 10000 2.1 160 07:42 02.05.2020
3899 Clear 13 1024 71 10000 1 0 07:23 02.05.2020
3900 Clear 13 1024 71 10000 1 0 06:43 02.05.2020
3901 Clear 14 1024 67 10000 1.5 180 05:28 02.05.2020
3902 Clear 14 1023 62 10000 1.5 190 04:27 02.05.2020
3903 Clear 15 1023 59 10000 2.1 170 03:40 02.05.2020
3904 Clear 16 1022 59 10000 1.5 180 02:41 02.05.2020
3905 Clouds 16 1022 59 10000 2.1 170 01:56 02.05.2020
3906 Clouds 16 1022 59 10000 2.1 170 01:20 02.05.2020
3907 Clouds 17 1022 59 10000 2.1 170 00:42 02.05.2020
3908 Clouds 17 1022 59 10000 2.1 170 00:21 02.05.2020
3909 Clouds 18 1021 52 10000 2.6 170 23:41 01.05.2020
3910 Clouds 18 1021 49 10000 3.6 200 23:21 01.05.2020
3911 Clouds 19 1021 49 10000 3.6 200 22:58 01.05.2020
3912 Clouds 19 1021 49 10000 3.6 200 22:38 01.05.2020
3913 Clouds 19 1021 49 10000 3.6 200 22:19 01.05.2020
3914 Clouds 20 1020 46 10000 4.1 200 21:57 01.05.2020
3915 Clouds 20 1020 46 10000 4.1 200 21:39 01.05.2020
3916 Clouds 21 1020 52 10000 4.1 200 21:19 01.05.2020
3917 Clouds 21 1020 52 10000 4.1 200 20:57 01.05.2020
3918 Clouds 21 1020 52 10000 4.1 200 20:37 01.05.2020
3919 Clouds 21 1020 56 10000 3.1 230 20:19 01.05.2020
3920 Clouds 21 1020 56 10000 3.1 230 19:42 01.05.2020
3921 Clouds 21 1020 56 10000 3.1 230 19:23 01.05.2020
3922 Clouds 21 1020 60 10000 3.6 250 18:59 01.05.2020
3923 Clouds 21 1020 60 10000 3.6 250 18:40 01.05.2020
3924 Clouds 21 1020 60 10000 3.6 250 18:21 01.05.2020
3925 Clouds 21 1020 49 10000 4.1 250 17:57 01.05.2020
3926 Clouds 21 1020 49 10000 4.1 250 17:39 01.05.2020
3927 Clouds 20 1020 56 10000 5.1 290 17:20 01.05.2020
3928 Clouds 20 1020 56 10000 5.1 290 16:55 01.05.2020
3929 Clouds 20 1020 56 10000 5.1 290 16:55 01.05.2020
3930 Clouds 20 1020 56 10000 5.1 290 16:37 01.05.2020
3931 Clouds 19 1021 63 10000 3.1 290 16:19 01.05.2020
3932 Clouds 19 1021 63 10000 3.1 290 15:42 01.05.2020
3933 Clouds 18 1021 63 10000 3.1 290 15:24 01.05.2020
3934 Clouds 18 1021 67 10000 1.5 320 14:59 01.05.2020
3935 Clouds 17 1021 67 10000 1.5 320 14:40 01.05.2020
3936 Clouds 17 1021 77 9000 2.1 320 14:22 01.05.2020
3937 Clouds 16 1021 77 9000 2.1 320 13:41 01.05.2020
3938 Clouds 16 1021 77 9000 2.1 320 13:22 01.05.2020
3939 Clouds 16 1021 77 9000 2.1 320 13:22 01.05.2020
3940 Clouds 16 1021 77 9000 1.5 290 12:58 01.05.2020
3941 Clouds 15 1021 77 9000 1.5 290 12:40 01.05.2020
3942 Clouds 15 1021 77 9000 1.5 290 12:19 01.05.2020
3943 Clouds 15 1020 77 9000 1.5 290 11:57 01.05.2020
3944 Clouds 15 1020 77 9000 1.5 290 11:39 01.05.2020
3945 Fog 14 1020 93 9000 1.5 270 11:19 01.05.2020
3946 Fog 14 1020 93 9000 1.5 270 10:41 01.05.2020
3947 Fog 14 1020 93 9000 1.5 270 10:20 01.05.2020
3948 Clear 15 1020 93 10000 2.1 320 09:54 01.05.2020
3949 Clear 15 1020 93 10000 2.1 320 09:36 01.05.2020
3950 Clear 15 1020 93 10000 2.1 320 09:18 01.05.2020
3951 Clear 15 1021 93 10000 1.77 198 08:42 01.05.2020
3952 Clear 15 1021 93 10000 1.54 191 08:24 01.05.2020
3953 Clear 15 1021 93 9000 1.54 191 07:46 01.05.2020
3954 Clear 15 1021 93 9000 2.26 190 07:23 01.05.2020
3955 Fog 15 1021 93 9000 1.5 270 06:54 01.05.2020
3956 Fog 15 1021 93 9000 2.15 200 05:38 01.05.2020
3957 Fog 15 1021 93 10000 2.1 186 04:49 01.05.2020
3958 Fog 16 1021 87 10000 1.89 181 03:31 01.05.2020
3959 Clear 16 1020 82 10000 1 130 02:45 01.05.2020
3960 Clouds 16 1020 82 10000 1 130 02:25 01.05.2020
3961 Clouds 16 1020 82 10000 1.32 223 01:29 01.05.2020
3962 Clouds 17 1020 77 10000 1.32 223 00:59 01.05.2020
3963 Clouds 17 1020 77 10000 1.32 223 00:37 01.05.2020
3964 Clouds 18 1020 72 10000 2.1 350 00:19 01.05.2020
3965 Clouds 18 1020 72 10000 2.1 350 23:55 30.04.2020
3966 Clouds 19 1020 72 10000 2.1 350 23:37 30.04.2020
3967 Clouds 19 1020 72 10000 2.1 350 23:18 30.04.2020
3968 Clouds 20 1019 68 10000 2.6 10 22:41 30.04.2020
3969 Clouds 20 1019 68 10000 2.6 10 22:20 30.04.2020
3970 Clouds 21 1019 60 10000 2.1 40 21:56 30.04.2020
3971 Clouds 21 1019 60 10000 2.1 40 21:37 30.04.2020
3972 Clear 21 1019 60 10000 2.1 40 21:19 30.04.2020
3973 Clear 21 1019 59 10000 2.6 40 20:43 30.04.2020
3974 Clear 20 1020 59 10000 2.6 40 20:19 30.04.2020
3975 Clear 20 1020 59 10000 2.6 40 19:58 30.04.2020
3976 Clear 20 1020 59 10000 2.6 40 19:40 30.04.2020
3977 Clear 20 1020 59 10000 2.6 40 19:22 30.04.2020
3978 Clear 20 1020 49 10000 1.5 200 18:56 30.04.2020
3979 Clear 20 1020 49 10000 1.5 200 18:37 30.04.2020
3980 Clear 19 1021 55 10000 2.6 160 18:18 30.04.2020
3981 Clear 19 1021 55 10000 2.6 160 17:42 30.04.2020
3982 Clear 18 1021 55 10000 2.1 190 17:22 30.04.2020
3983 Clear 18 1021 55 10000 2.1 190 16:59 30.04.2020
3984 Clear 18 1021 55 10000 2.1 190 16:40 30.04.2020
3985 Clear 18 1021 55 10000 2.1 190 16:20 30.04.2020
3986 Clear 17 1020 63 10000 1.5 200 15:57 30.04.2020
3987 Clear 17 1020 63 10000 1.5 200 15:39 30.04.2020
3988 Clear 15 1020 72 10000 1 220 15:21 30.04.2020
3989 Clear 15 1020 72 10000 1 220 14:40 30.04.2020
3990 Clear 15 1020 72 10000 1 220 14:20 30.04.2020
3991 Clear 14 1019 76 10000 1 240 13:57 30.04.2020
3992 Clear 14 1019 76 10000 1 240 13:39 30.04.2020
3993 Clear 13 1019 76 10000 1 260 13:20 30.04.2020
3994 Clear 12 1019 76 10000 1 260 12:42 30.04.2020
3995 Clear 12 1019 76 10000 1 260 12:42 30.04.2020
3996 Clear 13 1019 76 10000 1 260 12:21 30.04.2020
3997 Clear 13 1018 67 10000 1.5 220 11:59 30.04.2020
3998 Clear 13 1018 67 10000 1.5 220 11:37 30.04.2020
3999 Clear 14 1018 67 10000 1.5 220 11:18 30.04.2020
4000 Clear 14 1018 67 10000 1.5 180 10:54 30.04.2020
4001 Clear 14 1018 67 10000 1.5 180 10:36 30.04.2020
4002 Clear 14 1018 67 10000 1 0 10:18 30.04.2020
4003 Clear 14 1018 67 10000 1 0 10:18 30.04.2020
4004 Clear 14 1018 67 10000 1 0 09:41 30.04.2020
4005 Clear 14 1018 67 10000 1.5 200 09:22 30.04.2020
4006 Clear 14 1018 67 10000 1.5 200 08:49 30.04.2020
4007 Clear 14 1018 67 10000 1.5 200 08:27 30.04.2020
4008 Clear 15 1018 63 10000 1.5 210 07:58 30.04.2020
4009 Clear 15 1018 63 10000 1.5 210 07:39 30.04.2020
4010 Clear 15 1018 63 10000 1.5 210 07:20 30.04.2020
4011 Clear 15 1018 63 10000 1.5 240 06:33 30.04.2020
4012 Clear 15 1018 63 10000 1.5 0 05:47 30.04.2020
4013 Clear 16 1018 67 10000 1.5 250 04:48 30.04.2020
4014 Clear 16 1018 67 10000 1.5 250 04:24 30.04.2020
4015 Clear 16 1017 59 10000 1 0 02:52 30.04.2020
4016 Clear 17 1017 59 10000 1 0 02:28 30.04.2020
4017 Clear 17 1017 55 10000 1.5 290 01:37 30.04.2020
4018 Clear 18 1016 48 10000 2.6 270 00:53 30.04.2020
4019 Clear 18 1016 48 10000 2.6 270 00:53 30.04.2020
4020 Clear 19 1016 48 10000 2.6 270 00:24 30.04.2020
4021 Clear 19 1016 40 10000 3.1 24 23:58 29.04.2020
4022 Clear 20 1016 40 10000 3.1 24 23:40 29.04.2020
4023 Clear 20 1016 40 10000 3.1 24 23:22 29.04.2020
4024 Clear 21 1016 40 10000 3.1 250 22:58 29.04.2020
4025 Clear 21 1016 40 10000 3.1 250 22:38 29.04.2020
4026 Clear 21 1016 40 10000 4.1 250 22:18 29.04.2020
4027 Clear 22 1016 40 10000 4.1 250 21:38 29.04.2020
4028 Clear 22 1016 37 10000 5.1 250 21:20 29.04.2020
4029 Clear 22 1016 37 10000 5.1 250 20:58 29.04.2020
4030 Clear 22 1016 37 10000 5.1 250 20:38 29.04.2020
4031 Clear 22 1016 40 10000 4.6 290 20:19 29.04.2020
4032 Clear 22 1016 40 10000 4.6 290 20:19 29.04.2020
4033 Clear 22 1016 40 10000 4.6 290 20:19 29.04.2020
4034 Clear 22 1016 40 10000 4.6 290 19:43 29.04.2020
4035 Clear 22 1016 40 10000 4.6 290 19:22 29.04.2020
4036 Clear 21 1017 46 10000 4.6 290 18:57 29.04.2020
4037 Clear 21 1017 46 10000 4.6 290 18:39 29.04.2020
4038 Clear 20 1017 49 10000 5.1 290 18:19 29.04.2020
4039 Clear 20 1017 49 10000 5.1 290 17:42 29.04.2020
4040 Clear 19 1017 49 10000 5.1 290 17:22 29.04.2020
4041 Clear 18 1017 59 10000 4.6 290 16:57 29.04.2020
4042 Clear 18 1017 59 10000 4.6 290 16:36 29.04.2020
4043 Clear 17 1017 63 10000 4.6 290 16:18 29.04.2020
4044 Clear 16 1017 63 10000 4.6 290 15:55 29.04.2020
4045 Clear 16 1017 63 10000 4.6 290 15:36 29.04.2020
4046 Clear 16 1016 72 10000 3.6 270 15:18 29.04.2020
4047 Clear 15 1016 72 10000 3.6 270 14:42 29.04.2020
4048 Clear 15 1016 72 10000 3.6 270 14:23 29.04.2020
4049 Clear 14 1017 82 10000 3.6 290 13:56 29.04.2020
4050 Clear 13 1017 82 10000 3.6 290 13:38 29.04.2020
4051 Clear 13 1017 82 10000 3.6 290 13:38 29.04.2020
4052 Clear 13 1017 82 10000 3.6 290 13:18 29.04.2020
4053 Clear 13 1016 87 10000 4.1 290 12:41 29.04.2020
4054 Clear 14 1015 82 10000 4.1 290 12:19 29.04.2020
4055 Clear 14 1015 82 10000 4.1 290 12:19 29.04.2020
4056 Clear 14 1015 82 10000 4.1 290 11:58 29.04.2020
4057 Clear 14 1015 82 10000 4.1 290 11:38 29.04.2020
4058 Clear 14 1015 82 10000 4.1 290 11:19 29.04.2020
4059 Clear 14 1016 82 10000 3.6 270 10:38 29.04.2020
4060 Clear 14 1016 82 10000 3.6 270 10:20 29.04.2020
4061 Clear 14 1016 77 10000 2.6 260 09:59 29.04.2020
4062 Clear 14 1016 77 10000 2.6 260 09:40 29.04.2020
4063 Clear 14 1016 77 10000 2.6 260 09:19 29.04.2020
4064 Clear 14 1015 77 10000 3.6 250 08:43 29.04.2020
4065 Clear 15 1015 77 10000 3.1 260 08:25 29.04.2020
4066 Clear 15 1015 77 10000 3.1 260 07:51 29.04.2020
4067 Clear 15 1015 77 10000 3.1 260 07:27 29.04.2020
4068 Clear 15 1015 77 10000 2.6 260 06:52 29.04.2020
4069 Clear 15 1015 77 10000 2.6 260 06:31 29.04.2020
4070 Clear 16 1015 82 10000 2.6 260 05:38 29.04.2020
4071 Clear 16 1014 77 10000 2.6 270 05:18 29.04.2020
4072 Clear 16 1014 77 10000 2.6 270 04:19 29.04.2020
4073 Clear 17 1013 88 10000 3.6 250 02:50 29.04.2020
4074 Clouds 17 1012 93 10000 1.5 290 01:45 29.04.2020
4075 Clouds 17 1012 93 10000 1.5 290 01:26 29.04.2020
4076 Clouds 17 1012 88 10000 1.5 240 00:50 29.04.2020
4077 Clouds 17 1012 88 10000 1.5 240 00:20 29.04.2020
4078 Clouds 17 1010 88 10000 2.6 230 23:56 28.04.2020
4079 Clouds 17 1010 88 10000 2.6 230 23:37 28.04.2020
4080 Clouds 18 1010 88 10000 3.6 220 23:18 28.04.2020
4081 Clouds 17 1010 88 10000 3.6 220 22:38 28.04.2020
4082 Clouds 17 1010 88 10000 3.6 220 22:38 28.04.2020
4083 Clouds 18 1010 88 10000 3.6 220 22:19 28.04.2020
4084 Rain 18 1010 93 8000 2.6 260 21:57 28.04.2020
4085 Rain 18 1010 93 8000 2.6 260 21:57 28.04.2020
4086 Rain 18 1010 93 8000 2.6 260 21:39 28.04.2020
4087 Rain 18 1010 93 8000 2.6 260 21:21 28.04.2020
4088 Rain 19 1010 88 700 4.1 290 20:55 28.04.2020
4089 Rain 19 1009 93 10000 5.1 320 20:37 28.04.2020
4090 Clouds 19 1009 93 10000 5.1 320 20:19 28.04.2020
4091 Rain 19 1010 93 10000 3.1 290 19:43 28.04.2020
4092 Rain 19 1010 93 10000 3.1 290 19:22 28.04.2020
4093 Rain 19 1010 93 6000 5.1 320 18:59 28.04.2020
4094 Rain 19 1010 93 3800 6.7 330 18:41 28.04.2020
4095 Rain 19 1010 93 3800 6.7 330 18:19 28.04.2020
4096 Rain 19 1010 93 3800 6.7 330 18:19 28.04.2020
4097 Rain 19 1009 93 6000 8.2 340 17:58 28.04.2020
4098 Rain 19 1005 93 5000 6.7 30 17:36 28.04.2020
4099 Rain 19 1009 93 900 9.3 340 17:18 28.04.2020
4100 Rain 19 1009 93 900 9.3 340 17:18 28.04.2020
4101 Thunderstorm 19 1009 94 3000 9.3 10 16:43 28.04.2020
4102 Rain 19 1009 94 3000 9.3 10 16:23 28.04.2020
4103 Rain 19 1009 94 4000 8.2 20 15:58 28.04.2020
4104 Rain 19 1010 94 3000 9.3 360 15:39 28.04.2020
4105 Rain 19 1010 94 3000 9.3 360 15:21 28.04.2020
4106 Rain 19 1009 94 4800 7.2 20 14:59 28.04.2020
4107 Rain 19 1009 94 4800 7.2 20 14:40 28.04.2020
4108 Rain 20 1009 94 4800 7.2 20 14:21 28.04.2020
4109 Rain 20 1008 94 5000 9.8 20 13:58 28.04.2020
4110 Rain 20 1008 94 1600 10.3 10 13:38 28.04.2020
4111 Thunderstorm 20 1008 94 1600 10.3 10 13:19 28.04.2020
4112 Rain 20 1008 94 8000 6.2 10 12:44 28.04.2020
4113 Rain 20 1008 94 8000 6.2 10 12:25 28.04.2020
4114 Rain 20 1011 88 5000 6.7 330 11:46 28.04.2020
4115 Rain 20 1011 88 5000 6.7 330 11:26 28.04.2020
4116 Rain 20 1010 94 8000 6.7 350 10:59 28.04.2020
4117 Rain 20 1010 94 8000 6.7 350 10:59 28.04.2020
4118 Thunderstorm 20 1010 94 8000 6.7 350 10:39 28.04.2020
4119 Rain 19 1010 94 8000 6.7 350 10:19 28.04.2020
4120 Rain 19 1011 94 6000 3.6 360 09:57 28.04.2020
4121 Rain 19 1011 94 10000 3.6 350 09:39 28.04.2020
4122 Rain 19 1011 94 10000 3.6 350 09:20 28.04.2020
4123 Rain 19 1011 100 10000 3.1 30 08:45 28.04.2020
4124 Rain 19 1011 100 10000 3.1 30 08:26 28.04.2020
4125 Rain 19 1012 100 10000 4.6 60 07:45 28.04.2020
4126 Rain 19 1012 100 10000 4.6 60 07:20 28.04.2020
4127 Rain 19 1013 93 8000 4.6 80 06:50 28.04.2020
4128 Rain 19 1013 93 8000 4.6 80 06:22 28.04.2020
4129 Rain 19 1015 93 8000 3.1 70 05:41 28.04.2020
4130 Rain 19 1015 93 6000 2.6 20 04:56 28.04.2020
4131 Rain 19 1015 88 7000 4.6 50 02:59 28.04.2020
4132 Rain 19 1015 88 7000 4.6 50 02:28 28.04.2020
4133 Clouds 19 1015 88 10000 2.1 50 01:23 28.04.2020
4134 Clouds 19 1016 93 10000 2.1 30 00:51 28.04.2020
4135 Rain 19 1016 93 9000 3.1 40 00:20 28.04.2020
4136 Rain 19 1016 93 9000 3.1 40 23:44 27.04.2020
4137 Rain 19 1016 93 9000 3.1 40 23:23 27.04.2020
4138 Rain 19 1016 93 9000 3.1 40 23:23 27.04.2020
4139 Rain 19 1016 93 5000 4.1 50 22:55 27.04.2020
4140 Rain 19 1016 93 10000 3.6 40 22:37 27.04.2020
4141 Clouds 19 1016 93 10000 4.6 60 22:18 27.04.2020
4142 Clouds 19 1016 93 10000 4.6 60 21:55 27.04.2020
4143 Rain 19 1016 93 1600 4.6 50 21:37 27.04.2020
4144 Rain 19 1016 88 6000 4.1 60 21:18 27.04.2020
4145 Thunderstorm 20 1017 82 5000 3.1 30 20:42 27.04.2020
4146 Clouds 21 1018 82 10000 4.6 70 20:21 27.04.2020
4147 Clouds 21 1018 82 10000 4.6 70 19:57 27.04.2020
4148 Clouds 21 1018 82 10000 4.6 70 19:38 27.04.2020
4149 Clouds 21 1018 82 10000 4.6 70 19:19 27.04.2020
4150 Clouds 21 1019 77 10000 5.1 70 18:56 27.04.2020
4151 Clouds 20 1019 77 10000 5.1 70 18:37 27.04.2020
4152 Clouds 20 1019 77 10000 5.1 70 18:18 27.04.2020
4153 Clouds 20 1019 77 10000 5.1 70 18:18 27.04.2020
4154 Clouds 19 1021 82 10000 4.6 70 17:41 27.04.2020
4155 Clouds 19 1021 82 10000 4.6 70 17:20 27.04.2020
4156 Clouds 19 1021 82 10000 6.2 80 16:56 27.04.2020
4157 Clouds 18 1021 82 10000 6.2 80 16:37 27.04.2020
4158 Clouds 18 1022 88 10000 5.7 90 16:19 27.04.2020
4159 Clouds 18 1022 88 10000 5.7 90 15:56 27.04.2020
4160 Clouds 17 1022 88 10000 5.7 90 15:37 27.04.2020
4161 Clouds 18 1023 88 10000 5.1 90 15:18 27.04.2020
4162 Clouds 17 1023 88 10000 5.1 90 14:41 27.04.2020
4163 Clouds 17 1023 88 10000 5.1 90 14:20 27.04.2020
4164 Clouds 17 1023 88 10000 5.7 80 13:57 27.04.2020
4165 Clouds 17 1023 88 10000 5.7 80 13:38 27.04.2020
4166 Clouds 17 1023 88 10000 5.1 80 13:18 27.04.2020
4167 Clouds 17 1023 88 10000 5.1 80 12:43 27.04.2020
4168 Clouds 17 1023 88 10000 5.1 80 12:22 27.04.2020
4169 Clouds 17 1023 88 10000 5.1 70 11:56 27.04.2020
4170 Clouds 17 1023 88 10000 5.1 70 11:37 27.04.2020
4171 Clouds 17 1024 88 10000 6.7 70 11:18 27.04.2020
4172 Clouds 17 1024 88 10000 6.7 70 10:42 27.04.2020
4173 Clouds 17 1024 88 10000 6.7 70 10:24 27.04.2020
4174 Clouds 17 1024 82 10000 7.7 80 09:58 27.04.2020
4175 Clouds 17 1024 82 10000 7.7 80 09:39 27.04.2020
4176 Clouds 17 1024 82 10000 7.7 80 09:18 27.04.2020
4177 Clouds 17 1024 82 10000 8.2 90 08:48 27.04.2020
4178 Clouds 17 1024 82 10000 8.2 90 08:30 27.04.2020
4179 Clouds 17 1025 82 10000 6.7 80 07:45 27.04.2020
4180 Clouds 17 1025 82 10000 6.7 80 07:25 27.04.2020
4181 Rain 18 1025 82 10000 7.2 90 06:58 27.04.2020
4182 Rain 18 1025 82 10000 7.2 90 06:30 27.04.2020
4183 Rain 18 1025 77 10000 7.7 90 05:56 27.04.2020
4184 Rain 18 1025 82 10000 8.2 100 05:18 27.04.2020
4185 Rain 18 1025 82 10000 8.2 100 04:39 27.04.2020
4186 Clouds 18 1025 82 10000 9.8 110 03:45 27.04.2020
4187 Clouds 18 1025 88 10000 9.3 130 01:53 27.04.2020
4188 Clouds 18 1025 88 10000 9.3 130 01:20 27.04.2020
4189 Clouds 18 1025 88 10000 8.2 130 00:21 27.04.2020
4190 Clouds 18 1025 88 10000 8.2 130 00:21 27.04.2020
4191 Clouds 18 1025 88 10000 8.2 130 23:59 26.04.2020
4192 Clouds 18 1025 88 10000 8.2 130 23:41 26.04.2020
4193 Clouds 19 1025 88 10000 8.2 130 23:22 26.04.2020
4194 Clouds 20 1025 82 10000 9.3 130 22:59 26.04.2020
4195 Clouds 20 1025 82 10000 9.3 130 22:40 26.04.2020
4196 Clouds 20 1025 82 10000 9.3 130 22:40 26.04.2020
4197 Clouds 20 1025 77 10000 10.3 120 22:21 26.04.2020
4198 Clouds 20 1025 77 10000 10.3 120 21:58 26.04.2020
4199 Clouds 21 1025 77 10000 10.3 120 21:39 26.04.2020
4200 Clouds 20 1025 77 10000 10.3 110 21:18 26.04.2020
4201 Clouds 21 1025 77 10000 10.3 110 20:55 26.04.2020
4202 Clouds 21 1025 77 10000 10.3 110 20:37 26.04.2020
4203 Clouds 21 1025 77 10000 10.3 110 20:37 26.04.2020
4204 Clouds 21 1025 77 10000 10.3 110 20:18 26.04.2020
4205 Clouds 20 1025 77 10000 10.3 110 19:56 26.04.2020
4206 Clouds 20 1025 77 10000 10.3 110 19:36 26.04.2020
4207 Clouds 20 1026 77 10000 12.3 110 19:18 26.04.2020
4208 Clouds 20 1026 77 10000 12.3 110 19:18 26.04.2020
4209 Clouds 20 1026 77 10000 12.3 110 19:18 26.04.2020
4210 Clouds 20 1026 77 10000 12.3 110 18:41 26.04.2020
4211 Clouds 20 1026 77 10000 12.3 110 18:23 26.04.2020
4212 Clouds 20 1026 77 10000 10.3 110 17:42 26.04.2020
4213 Clouds 20 1026 77 10000 10.3 110 17:22 26.04.2020
4214 Clouds 19 1026 77 10000 10.3 110 16:56 26.04.2020
4215 Clouds 19 1026 77 10000 10.3 110 16:38 26.04.2020
4216 Clouds 19 1026 77 10000 10.3 110 16:19 26.04.2020
4217 Clouds 19 1026 77 10000 10.3 120 15:56 26.04.2020
4218 Clouds 19 1026 77 10000 10.3 120 15:37 26.04.2020
4219 Clouds 18 1026 82 10000 9.8 110 15:18 26.04.2020
4220 Clouds 18 1026 82 10000 9.8 110 14:40 26.04.2020
4221 Clouds 17 1026 82 10000 9.8 110 14:19 26.04.2020
4222 Clouds 17 1025 82 10000 9.3 110 13:58 26.04.2020
4223 Clouds 17 1025 82 10000 9.3 110 13:39 26.04.2020
4224 Clouds 17 1025 82 10000 9.3 110 13:21 26.04.2020
4225 Clouds 16 1024 88 10000 7.2 120 12:55 26.04.2020
4226 Clouds 16 1024 88 10000 7.2 120 12:37 26.04.2020
4227 Clouds 16 1024 88 10000 7.2 120 12:18 26.04.2020
4228 Clouds 16 1024 88 10000 6.7 130 11:44 26.04.2020
4229 Clouds 16 1024 88 10000 6.7 130 11:23 26.04.2020
4230 Clouds 16 1023 88 10000 7.2 130 10:59 26.04.2020
4231 Clouds 16 1023 88 10000 7.2 130 10:59 26.04.2020
4232 Clouds 16 1023 88 10000 7.2 130 10:59 26.04.2020
4233 Clouds 16 1023 88 10000 7.2 130 10:59 26.04.2020
4234 Clouds 16 1023 88 10000 7.2 130 10:41 26.04.2020
4235 Clouds 16 1023 88 10000 7.2 130 10:23 26.04.2020
4236 Clouds 16 1023 88 10000 6.7 130 09:57 26.04.2020
4237 Clouds 16 1023 88 10000 6.7 130 09:37 26.04.2020
4238 Clouds 16 1023 88 10000 6.7 130 09:18 26.04.2020
4239 Clouds 16 1023 88 10000 6.2 140 08:41 26.04.2020
4240 Clouds 16 1023 88 10000 6.2 140 08:41 26.04.2020
4241 Clouds 16 1023 88 10000 6.2 140 08:21 26.04.2020
4242 Clouds 16 1024 88 10000 6.2 130 07:48 26.04.2020
4243 Clouds 16 1024 88 10000 6.2 130 07:23 26.04.2020
4244 Clouds 16 1023 88 10000 5.1 140 06:46 26.04.2020
4245 Clouds 16 1023 88 10000 5.1 140 06:20 26.04.2020
4246 Clouds 16 1023 88 10000 6.7 130 05:47 26.04.2020
4247 Clouds 17 1023 88 10000 5.1 130 05:28 26.04.2020
4248 Clouds 17 1023 88 10000 5.1 130 04:30 26.04.2020
4249 Clouds 17 1021 88 10000 5.1 130 03:33 26.04.2020
4250 Clouds 17 1020 93 10000 4.6 150 02:33 26.04.2020
4251 Clouds 17 1019 88 10000 6.2 140 01:54 26.04.2020
4252 Clouds 17 1019 88 10000 6.2 140 01:35 26.04.2020
4253 Clouds 17 1018 88 10000 7.7 110 00:41 26.04.2020
4254 Clouds 17 1018 88 10000 7.7 110 00:20 26.04.2020
4255 Clouds 18 1017 88 10000 8.2 100 23:40 25.04.2020
4256 Clouds 17 1017 88 10000 8.2 100 23:21 25.04.2020
4257 Clouds 17 1016 93 10000 7.2 110 22:59 25.04.2020
4258 Clouds 17 1016 93 10000 7.2 110 22:41 25.04.2020
4259 Clouds 17 1016 93 10000 7.2 110 22:19 25.04.2020
4260 Clouds 16 1016 88 10000 7.2 140 21:57 25.04.2020
4261 Rain 16 1018 88 8000 8.2 120 21:37 25.04.2020
4262 Rain 16 1018 88 8000 8.2 120 21:18 25.04.2020
4263 Rain 16 1017 88 2200 6.7 120 20:42 25.04.2020
4264 Rain 16 1017 88 2200 6.7 120 20:22 25.04.2020
4265 Rain 17 1018 77 2000 8.2 140 19:58 25.04.2020
4266 Rain 17 1018 77 7000 8.2 140 19:38 25.04.2020
4267 Rain 17 1018 77 7000 8.2 140 19:19 25.04.2020
4268 Rain 18 1017 77 10000 8.2 140 18:43 25.04.2020
4269 Clouds 18 1017 77 10000 5.7 160 18:21 25.04.2020
4270 Clouds 18 1017 77 10000 5.7 160 17:59 25.04.2020
4271 Clouds 18 1017 77 10000 5.7 160 17:39 25.04.2020
4272 Rain 18 1017 77 10000 5.7 160 17:20 25.04.2020
4273 Rain 19 1018 77 10000 3.1 190 16:58 25.04.2020
4274 Rain 19 1018 77 10000 3.1 190 16:40 25.04.2020
4275 Clouds 19 1018 77 10000 3.1 190 16:21 25.04.2020
4276 Clouds 19 1016 88 10000 4.1 170 15:42 25.04.2020
4277 Clouds 19 1014 88 10000 4.6 150 15:21 25.04.2020
4278 Clouds 19 1014 88 10000 4.6 150 14:58 25.04.2020
4279 Clouds 19 1014 88 10000 4.6 150 14:58 25.04.2020
4280 Clouds 20 1014 88 10000 4.6 150 14:39 25.04.2020
4281 Clouds 20 1014 82 10000 4.1 160 14:20 25.04.2020
4282 Clouds 19 1014 82 10000 4.1 160 14:20 25.04.2020
4283 Clouds 19 1014 82 10000 4.1 160 13:54 25.04.2020
4284 Rain 19 1013 82 10000 4.6 140 13:36 25.04.2020
4285 Clouds 19 1012 94 10000 2.6 140 13:18 25.04.2020
4286 Rain 20 1012 83 10000 5.1 160 12:42 25.04.2020
4287 Rain 20 1012 83 10000 5.1 160 12:21 25.04.2020
4288 Rain 20 1011 83 8000 2.6 180 11:59 25.04.2020
4289 Rain 20 1011 83 10000 2.6 180 11:41 25.04.2020
4290 Rain 20 1011 83 10000 2.6 180 11:23 25.04.2020
4291 Rain 20 1010 88 10000 6.2 120 10:45 25.04.2020
4292 Rain 20 1010 88 10000 6.2 120 10:26 25.04.2020
4293 Clouds 20 1010 88 10000 6.2 120 09:57 25.04.2020
4294 Clouds 20 1010 88 10000 6.2 120 09:39 25.04.2020
4295 Rain 20 1010 88 10000 4.6 130 09:21 25.04.2020
4296 Rain 20 1010 88 10000 4.6 130 08:41 25.04.2020
4297 Rain 20 1010 88 10000 4.6 130 08:41 25.04.2020
4298 Rain 20 1010 88 10000 4.6 130 08:22 25.04.2020
4299 Rain 21 1010 77 10000 2.1 150 07:59 25.04.2020
4300 Rain 20 1010 77 10000 2.1 150 07:41 25.04.2020
4301 Rain 20 1010 73 10000 3.1 130 06:56 25.04.2020
4302 Rain 21 1010 73 10000 3.1 130 06:36 25.04.2020
4303 Rain 21 1010 77 10000 4.1 110 05:42 25.04.2020
4304 Rain 21 1010 77 10000 4.1 110 05:23 25.04.2020
4305 Clouds 21 1010 73 10000 2.1 140 03:29 25.04.2020
4306 Thunderstorm 21 1009 77 10000 3.1 120 02:28 25.04.2020
4307 Clouds 21 1008 77 10000 3.6 120 01:55 25.04.2020
4308 Clouds 21 1008 77 10000 3.6 120 01:37 25.04.2020
4309 Clouds 21 1008 77 10000 4.6 110 01:18 25.04.2020
4310 Clouds 21 1008 77 10000 4.6 110 00:37 25.04.2020
4311 Clouds 21 1008 77 10000 4.6 100 23:55 24.04.2020
4312 Clouds 21 1008 77 10000 4.6 100 23:37 24.04.2020
4313 Rain 21 1007 77 10000 6.2 110 23:19 24.04.2020
4314 Rain 21 1007 77 10000 6.2 110 22:40 24.04.2020
4315 Rain 21 1007 77 10000 6.2 110 22:20 24.04.2020
4316 Clouds 21 1007 83 10000 6.2 110 21:57 24.04.2020
4317 Clouds 21 1007 83 10000 6.2 110 21:39 24.04.2020
4318 Thunderstorm 21 1008 82 8000 6.7 120 21:20 24.04.2020
4319 Thunderstorm 21 1008 82 8000 6.7 120 20:56 24.04.2020
4320 Thunderstorm 20 1008 82 8000 6.7 120 20:38 24.04.2020
4321 Thunderstorm 20 1008 82 8000 5.7 140 20:18 24.04.2020
4322 Thunderstorm 20 1009 82 9000 4.1 140 19:43 24.04.2020
4323 Thunderstorm 20 1009 82 9000 4.1 140 19:24 24.04.2020
4324 Clouds 21 1009 73 10000 4.6 150 18:46 24.04.2020
4325 Clouds 21 1009 73 10000 4.6 150 18:28 24.04.2020
4326 Clouds 22 1008 68 10000 5.1 110 17:59 24.04.2020
4327 Clouds 22 1008 68 10000 5.1 110 17:39 24.04.2020
4328 Clouds 22 1008 68 10000 5.1 110 17:20 24.04.2020
4329 Clouds 22 1008 68 10000 3.6 110 16:58 24.04.2020
4330 Clouds 22 1008 68 10000 3.6 110 16:40 24.04.2020
4331 Clouds 22 1008 68 10000 3.6 110 16:21 24.04.2020
4332 Clouds 22 1009 73 10000 4.6 110 15:42 24.04.2020
4333 Rain 22 1009 73 10000 4.6 110 15:22 24.04.2020
4334 Rain 22 1009 73 10000 2.6 90 14:59 24.04.2020
4335 Rain 21 1009 73 10000 2.6 90 14:39 24.04.2020
4336 Rain 21 1008 68 10000 4.1 50 14:20 24.04.2020
4337 Rain 21 1008 68 10000 4.1 50 13:42 24.04.2020
4338 Rain 21 1008 68 10000 4.1 70 13:22 24.04.2020
4339 Rain 21 1008 68 10000 4.1 70 12:59 24.04.2020
4340 Rain 21 1008 68 10000 4.1 70 12:40 24.04.2020
4341 Rain 21 1008 68 10000 4.1 70 12:20 24.04.2020
4342 Rain 21 1008 73 10000 2.1 110 11:55 24.04.2020
4343 Rain 21 1008 73 10000 2.1 110 11:36 24.04.2020
4344 Rain 21 1007 77 10000 5.7 360 11:18 24.04.2020
4345 Rain 21 1007 77 10000 5.7 360 10:38 24.04.2020
4346 Rain 21 1007 77 10000 5.7 360 10:20 24.04.2020
4347 Rain 21 1008 77 10000 4.1 10 09:57 24.04.2020
4348 Rain 21 1008 77 10000 4.1 10 09:37 24.04.2020
4349 Clouds 22 1008 77 10000 4.1 10 09:19 24.04.2020
4350 Clouds 22 1008 77 10000 4.1 10 08:42 24.04.2020
4351 Clouds 22 1009 77 10000 2.1 10 08:20 24.04.2020
4352 Clouds 22 1009 77 10000 2.1 10 07:56 24.04.2020
4353 Clouds 21 1009 77 10000 2.1 10 07:38 24.04.2020
4354 Clouds 21 1009 77 10000 2.1 10 07:20 24.04.2020
4355 Clouds 21 1009 77 10000 3.6 10 06:43 24.04.2020
4356 Rain 21 1010 83 10000 2.1 30 05:51 24.04.2020
4357 Rain 21 1011 83 10000 4.1 60 05:18 24.04.2020
4358 Rain 21 1011 83 10000 2.6 70 03:28 24.04.2020
4359 Rain 20 1011 88 10000 4.1 120 02:50 24.04.2020
4360 Rain 20 1011 88 10000 4.1 120 02:30 24.04.2020
4361 Clouds 20 1012 88 10000 5.7 120 01:46 24.04.2020
4362 Clouds 20 1011 88 10000 6.2 130 00:50 24.04.2020
4363 Clouds 21 1012 82 10000 5.7 130 00:19 24.04.2020
4364 Clouds 21 1012 82 10000 5.7 130 23:46 23.04.2020
4365 Clouds 21 1012 82 10000 5.7 130 23:27 23.04.2020
4366 Clouds 22 1012 77 10000 5.7 120 22:57 23.04.2020
4367 Clouds 22 1012 77 10000 5.7 120 22:38 23.04.2020
4368 Clouds 22 1013 83 10000 5.7 100 22:19 23.04.2020
4369 Clouds 23 1013 83 10000 5.7 100 21:57 23.04.2020
4370 Clouds 23 1013 83 10000 5.7 100 21:57 23.04.2020
4371 Clouds 23 1013 83 10000 5.7 100 21:38 23.04.2020
4372 Clouds 23 1013 83 10000 5.7 100 21:38 23.04.2020
4373 Clouds 23 1013 83 10000 4.1 90 21:20 23.04.2020
4374 Clouds 23 1013 83 10000 4.1 90 20:54 23.04.2020
4375 Clouds 23 1013 83 10000 4.1 90 20:54 23.04.2020
4376 Clouds 23 1013 83 10000 4.1 90 20:36 23.04.2020
4377 Clouds 22 1014 82 10000 4.1 100 20:18 23.04.2020
4378 Clouds 22 1014 82 10000 4.1 100 19:42 23.04.2020
4379 Clouds 21 1015 88 10000 4.6 100 19:23 23.04.2020
4380 Clouds 21 1015 88 10000 4.6 100 19:00 23.04.2020
4381 Clouds 21 1015 88 10000 4.6 100 19:00 23.04.2020
4382 Clouds 22 1015 88 10000 4.6 100 18:39 23.04.2020
4383 Clouds 22 1016 78 10000 3.1 60 18:21 23.04.2020
4384 Clouds 21 1016 82 10000 3.6 90 17:57 23.04.2020
4385 Clouds 21 1016 82 10000 3.6 90 17:38 23.04.2020
4386 Clouds 21 1016 82 10000 3.6 90 17:20 23.04.2020
4387 Clouds 20 1016 88 10000 4.1 100 16:44 23.04.2020
4388 Clouds 20 1016 88 10000 4.1 100 16:44 23.04.2020
4389 Clouds 20 1016 88 10000 4.1 100 16:21 23.04.2020
4390 Clouds 19 1017 88 10000 4.6 100 15:43 23.04.2020
4391 Clouds 19 1017 88 10000 4.6 100 15:24 23.04.2020
4392 Clouds 19 1016 93 10000 5.1 100 14:59 23.04.2020
4393 Clouds 19 1016 93 10000 4.6 100 14:40 23.04.2020
4394 Clouds 19 1016 93 10000 4.6 100 14:21 23.04.2020
4395 Clouds 18 1016 93 10000 4.6 100 13:58 23.04.2020
4396 Clouds 18 1016 93 10000 4.6 100 13:39 23.04.2020
4397 Clouds 18 1016 93 10000 4.6 100 13:20 23.04.2020
4398 Clouds 18 1015 93 10000 4.6 100 12:56 23.04.2020
4399 Clouds 18 1015 93 10000 4.6 100 12:38 23.04.2020
4400 Clouds 17 1015 93 10000 4.6 100 12:19 23.04.2020
4401 Clouds 17 1015 93 10000 3.6 110 11:44 23.04.2020
4402 Clouds 17 1015 93 10000 3.6 110 11:26 23.04.2020
4403 Clouds 17 1015 93 10000 3.6 110 10:56 23.04.2020
4404 Clouds 17 1015 93 10000 3.6 110 10:56 23.04.2020
4405 Clouds 17 1015 93 10000 3.6 110 10:38 23.04.2020
4406 Clouds 18 1015 93 10000 4.6 100 10:19 23.04.2020
4407 Clouds 18 1015 93 10000 4.6 100 09:37 23.04.2020
4408 Rain 17 1015 93 10000 3.6 100 09:18 23.04.2020
4409 Rain 17 1015 93 10000 3.6 100 08:46 23.04.2020
4410 Rain 17 1015 93 10000 3.6 100 08:27 23.04.2020
4411 Rain 17 1016 88 10000 4.1 110 07:43 23.04.2020
4412 Rain 18 1016 88 10000 4.1 110 07:24 23.04.2020
4413 Rain 18 1016 88 10000 4.1 100 06:49 23.04.2020
4414 Rain 18 1016 88 10000 4.1 100 06:28 23.04.2020
4415 Rain 18 1016 88 10000 4.6 100 05:31 23.04.2020
4416 Rain 18 1016 88 10000 4.6 100 04:53 23.04.2020
4417 Clouds 18 1016 82 10000 5.7 110 02:25 23.04.2020
4418 Clouds 18 1016 82 10000 5.7 110 01:51 23.04.2020
4419 Clouds 18 1016 82 10000 5.7 110 01:33 23.04.2020
4420 Clouds 18 1016 82 10000 6.2 120 00:47 23.04.2020
4421 Clouds 18 1016 82 10000 5.1 130 00:23 23.04.2020
4422 Clouds 18 1016 82 10000 5.1 130 23:50 22.04.2020
4423 Clouds 19 1016 82 10000 5.1 130 23:24 22.04.2020
4424 Clouds 19 1017 77 10000 6.2 130 22:57 22.04.2020
4425 Clouds 19 1017 77 10000 6.2 130 22:37 22.04.2020
4426 Clouds 19 1017 77 10000 6.2 130 22:19 22.04.2020
4427 Clouds 20 1017 77 10000 5.7 100 21:56 22.04.2020
4428 Clouds 20 1017 77 10000 5.7 100 21:37 22.04.2020
4429 Clouds 19 1017 77 10000 5.7 100 21:19 22.04.2020
4430 Clouds 19 1017 77 10000 5.1 110 20:43 22.04.2020
4431 Clouds 20 1017 77 10000 5.1 110 20:19 22.04.2020
4432 Clouds 20 1018 68 10000 6.2 100 19:58 22.04.2020
4433 Clouds 20 1018 68 10000 6.2 100 19:38 22.04.2020
4434 Clouds 20 1018 68 10000 6.2 100 19:19 22.04.2020
4435 Clouds 20 1019 72 10000 6.2 100 18:58 22.04.2020
4436 Clouds 19 1019 72 10000 6.2 100 18:58 22.04.2020
4437 Clouds 19 1019 72 10000 6.2 100 18:40 22.04.2020
4438 Clouds 19 1019 72 10000 6.2 100 18:22 22.04.2020
4439 Clouds 19 1019 72 10000 5.7 100 17:55 22.04.2020
4440 Clouds 19 1019 72 10000 5.7 100 17:37 22.04.2020
4441 Clouds 18 1020 77 10000 6.2 100 17:18 22.04.2020
4442 Clouds 18 1020 77 10000 6.2 100 16:42 22.04.2020
4443 Clouds 18 1020 82 10000 4.6 130 16:22 22.04.2020
4444 Clouds 18 1020 82 10000 4.6 130 15:43 22.04.2020
4445 Clouds 17 1020 82 10000 4.6 130 15:24 22.04.2020
4446 Clouds 17 1020 77 10000 4.1 130 14:59 22.04.2020
4447 Clouds 17 1020 77 10000 4.1 130 14:59 22.04.2020
4448 Clouds 17 1020 77 10000 4.1 130 14:38 22.04.2020
4449 Clouds 16 1020 77 10000 4.1 130 14:20 22.04.2020
4450 Clouds 16 1019 82 10000 3.6 130 13:56 22.04.2020
4451 Clouds 16 1019 82 10000 3.6 130 13:37 22.04.2020
4452 Clouds 15 1019 82 10000 3.6 140 13:19 22.04.2020
4453 Clouds 15 1019 82 10000 3.6 140 12:40 22.04.2020
4454 Clouds 15 1019 82 10000 3.6 140 12:22 22.04.2020
4455 Clouds 15 1019 82 10000 2.6 140 11:41 22.04.2020
4456 Clouds 15 1019 82 10000 2.6 140 11:22 22.04.2020
4457 Clouds 15 1019 82 10000 3.6 140 10:59 22.04.2020
4458 Clouds 15 1019 82 10000 3.6 140 10:39 22.04.2020
4459 Clouds 15 1019 77 10000 4.6 130 10:20 22.04.2020
4460 Clouds 15 1019 77 10000 4.6 130 09:39 22.04.2020
4461 Clouds 15 1019 77 10000 4.6 130 09:21 22.04.2020
4462 Clouds 15 1019 77 10000 4.6 130 09:21 22.04.2020
4463 Clouds 15 1020 77 10000 4.1 130 08:57 22.04.2020
4464 Clouds 15 1020 77 10000 4.1 130 08:38 22.04.2020
4465 Clouds 15 1020 77 10000 4.1 130 08:20 22.04.2020
4466 Clouds 15 1020 77 10000 4.1 140 07:53 22.04.2020
4467 Clouds 15 1020 77 10000 4.1 140 07:28 22.04.2020
4468 Clouds 15 1020 77 10000 4.1 140 07:28 22.04.2020
4469 Clouds 16 1020 77 10000 5.1 130 06:53 22.04.2020
4470 Clouds 16 1020 77 10000 5.1 130 06:53 22.04.2020
4471 Clouds 15 1020 77 10000 5.1 130 06:18 22.04.2020
4472 Clouds 15 1020 77 10000 5.1 130 05:35 22.04.2020
4473 Clouds 15 1020 72 10000 6.7 130 04:20 22.04.2020
4474 Clouds 16 1020 72 10000 6.7 130 02:40 22.04.2020
4475 Clouds 17 1020 72 10000 8.2 120 01:44 22.04.2020
4476 Clouds 17 1020 72 10000 8.2 120 01:24 22.04.2020
4477 Clouds 17 1019 72 10000 7.7 120 00:47 22.04.2020
4478 Clear 17 1019 72 10000 7.7 120 00:22 22.04.2020
4479 Clear 17 1019 77 10000 8.7 110 23:56 21.04.2020
4480 Clear 18 1019 77 10000 8.7 110 23:37 21.04.2020
4481 Clear 18 1019 68 10000 8.2 100 23:18 21.04.2020
4482 Clear 19 1019 68 10000 8.2 100 22:40 21.04.2020
4483 Clear 19 1019 68 10000 8.2 100 22:21 21.04.2020
4484 Clear 20 1019 68 10000 8.2 100 21:58 21.04.2020
4485 Clear 20 1019 68 10000 8.2 100 21:58 21.04.2020
4486 Clear 20 1019 68 10000 8.2 100 21:40 21.04.2020
4487 Clear 20 1019 63 10000 7.7 100 21:22 21.04.2020
4488 Clear 20 1019 63 10000 7.7 100 20:42 21.04.2020
4489 Clear 21 1019 63 10000 7.7 100 20:23 21.04.2020
4490 Clear 21 1019 68 10000 7.7 100 19:59 21.04.2020
4491 Clear 20 1019 68 10000 7.7 100 19:40 21.04.2020
4492 Clear 21 1019 68 10000 7.7 100 19:19 21.04.2020
4493 Clear 21 1019 68 10000 7.7 100 19:19 21.04.2020
4494 Clouds 20 1020 68 10000 6.7 100 18:56 21.04.2020
4495 Clouds 20 1020 68 10000 6.7 100 18:38 21.04.2020
4496 Clouds 21 1020 68 10000 6.7 100 18:18 21.04.2020
4497 Clouds 21 1020 68 10000 6.7 100 18:18 21.04.2020
4498 Clouds 20 1020 68 10000 7.2 110 17:41 21.04.2020
4499 Clouds 20 1020 68 10000 7.2 110 17:21 21.04.2020
4500 Clouds 20 1020 72 10000 7.7 130 16:59 21.04.2020
4501 Clouds 19 1020 72 10000 7.7 130 16:38 21.04.2020
4502 Clouds 19 1020 72 10000 7.7 130 16:19 21.04.2020
4503 Clouds 19 1020 72 10000 7.2 130 15:55 21.04.2020
4504 Clouds 19 1020 72 10000 7.2 130 15:55 21.04.2020
4505 Clouds 18 1020 72 10000 7.2 130 15:37 21.04.2020
4506 Clouds 18 1020 72 10000 7.2 130 15:37 21.04.2020
4507 Clouds 18 1020 72 10000 7.2 130 15:19 21.04.2020
4508 Clouds 17 1020 77 10000 4.6 140 14:45 21.04.2020
4509 Clouds 17 1020 77 10000 4.6 140 14:24 21.04.2020
4510 Clouds 17 1019 77 10000 4.1 150 13:56 21.04.2020
4511 Clouds 17 1019 77 10000 4.1 150 13:56 21.04.2020
4512 Clouds 16 1019 77 10000 4.1 150 13:37 21.04.2020
4513 Clouds 16 1019 82 10000 4.6 140 13:18 21.04.2020
4514 Clouds 16 1019 82 10000 4.6 140 13:18 21.04.2020
4515 Clouds 16 1019 77 10000 4.1 150 13:18 21.04.2020
4516 Clouds 16 1019 82 10000 4.6 140 12:39 21.04.2020
4517 Clouds 16 1019 82 10000 4.6 140 12:19 21.04.2020
4518 Clouds 16 1019 82 10000 4.1 150 11:57 21.04.2020
4519 Clouds 16 1018 82 10000 4.6 150 11:38 21.04.2020
4520 Clouds 16 1018 93 10000 2.1 170 11:19 21.04.2020
4521 Clouds 16 1017 82 10000 4.6 150 10:59 21.04.2020
4522 Clouds 16 1017 82 10000 4.6 150 10:39 21.04.2020
4523 Clouds 16 1017 82 10000 3.6 140 10:21 21.04.2020
4524 Clouds 16 1017 82 10000 3.6 140 09:57 21.04.2020
4525 Clouds 17 1017 77 10000 4.1 160 09:36 21.04.2020
4526 Clouds 17 1017 77 9000 4.1 170 09:18 21.04.2020
4527 Clouds 17 1017 77 9000 4.1 170 08:43 21.04.2020
4528 Clouds 18 1017 77 9000 4.1 170 08:24 21.04.2020
4529 Clouds 19 1016 77 10000 2.1 190 07:51 21.04.2020
4530 Clouds 19 1016 77 10000 2.1 190 07:27 21.04.2020
4531 Clouds 19 1016 88 10000 4.48 163 06:50 21.04.2020
4532 Clouds 19 1016 88 10000 4.48 163 06:31 21.04.2020
4533 Fog 19 1016 88 10000 0.98 359 05:49 21.04.2020
4534 Fog 19 1015 88 10000 0.98 359 04:54 21.04.2020
4535 Clear 21 1015 82 10000 0.98 359 03:45 21.04.2020
4536 Clear 21 1014 83 10000 2.52 48 01:53 21.04.2020
4537 Clear 21 1014 83 10000 2.52 48 01:29 21.04.2020
4538 Clear 22 1014 73 10000 2.52 48 00:38 21.04.2020
4539 Clear 25 1014 69 10000 1 0 23:48 20.04.2020
4540 Clear 25 1014 69 10000 1 0 23:26 20.04.2020
4541 Clear 27 1014 73 10000 1 340 22:59 20.04.2020
4542 Clear 27 1014 73 10000 1 340 22:41 20.04.2020
4543 Clear 27 1014 73 10000 1 340 22:21 20.04.2020
4544 Clear 27 1014 73 10000 1 340 22:21 20.04.2020
4545 Clear 27 1014 73 10000 1.5 70 21:59 20.04.2020
4546 Clear 28 1014 73 10000 1.5 70 21:39 20.04.2020
4547 Clear 27 1014 73 10000 1.5 70 21:20 20.04.2020
4548 Clear 27 1014 61 10000 1 20 20:59 20.04.2020
4549 Clear 27 1014 61 10000 1 20 20:40 20.04.2020
4550 Clear 27 1015 73 10000 2.1 20 20:19 20.04.2020
4551 Clear 27 1015 73 10000 2.1 20 19:58 20.04.2020
4552 Clear 27 1015 47 10000 4.6 290 19:39 20.04.2020
4553 Clear 27 1016 50 10000 4.6 320 19:19 20.04.2020
4554 Clear 26 1016 78 10000 2.1 20 18:43 20.04.2020
4555 Clear 26 1016 50 10000 4.6 320 18:24 20.04.2020
4556 Clear 25 1017 77 10000 2.6 10 17:58 20.04.2020
4557 Clear 25 1017 77 10000 2.6 10 17:40 20.04.2020
4558 Clear 24 1017 77 10000 2.6 10 17:21 20.04.2020
4559 Clear 24 1017 77 10000 3.6 360 16:59 20.04.2020
4560 Clear 24 1017 77 10000 3.6 360 16:59 20.04.2020
4561 Clear 24 1017 64 10000 2.6 320 16:39 20.04.2020
4562 Clear 24 1017 77 10000 3.6 360 16:19 20.04.2020
4563 Clear 22 1017 77 10000 2.6 360 15:45 20.04.2020
4564 Clear 21 1017 77 10000 2.6 360 15:24 20.04.2020
4565 Clear 19 1017 82 10000 2.6 340 14:58 20.04.2020
4566 Clear 19 1017 82 10000 2.6 340 14:40 20.04.2020
4567 Clear 19 1017 82 10000 2.6 340 14:19 20.04.2020
4568 Clear 19 1017 88 10000 2.1 320 13:54 20.04.2020
4569 Clear 19 1017 88 10000 2.1 320 13:54 20.04.2020
4570 Clear 19 1017 88 10000 2.1 320 13:54 20.04.2020
4571 Clear 18 1017 88 10000 2.1 320 13:36 20.04.2020
4572 Fog 17 1016 93 9000 1.5 320 13:18 20.04.2020
4573 Fog 17 1016 93 9000 1.5 320 12:42 20.04.2020
4574 Fog 17 1016 93 9000 1.5 320 12:21 20.04.2020
4575 Fog 17 1016 93 9000 1 290 11:42 20.04.2020
4576 Fog 17 1016 93 10000 0.5 310 11:22 20.04.2020
4577 Fog 17 1016 93 10000 0.5 310 10:57 20.04.2020
4578 Fog 17 1016 93 10000 0.5 310 10:39 20.04.2020
4579 Fog 17 1016 93 10000 0.5 310 10:20 20.04.2020
4580 Fog 17 1016 93 10000 0.5 180 09:58 20.04.2020
4581 Fog 17 1016 93 10000 0.5 180 09:39 20.04.2020
4582 Fog 17 1016 93 10000 0.5 180 09:21 20.04.2020
4583 Clear 18 1016 93 10000 1.5 40 08:41 20.04.2020
4584 Clear 18 1016 93 10000 1.5 40 08:23 20.04.2020
4585 Fog 17 1017 100 10000 2.89 3 07:53 20.04.2020
4586 Fog 17 1017 100 10000 2.89 3 07:29 20.04.2020
4587 Fog 18 1017 93 10000 0.5 200 06:58 20.04.2020
4588 Fog 18 1017 93 10000 0.5 200 06:36 20.04.2020
4589 Clear 18 1017 93 10000 1 0 05:44 20.04.2020
4590 Clear 19 1016 82 10000 0.5 150 04:21 20.04.2020
4591 Clear 20 1016 82 10000 1 0 02:47 20.04.2020
4592 Clear 20 1017 77 10000 0.5 220 01:54 20.04.2020
4593 Clear 21 1017 77 10000 0.5 220 01:28 20.04.2020
4594 Clear 22 1016 68 10000 0.5 10 00:37 20.04.2020
4595 Clear 23 1016 69 10000 1.5 50 23:59 19.04.2020
4596 Clear 23 1016 69 10000 1.5 50 23:39 19.04.2020
4597 Clear 24 1016 64 10000 2.1 40 23:20 19.04.2020
4598 Clear 25 1016 64 10000 2.1 40 22:41 19.04.2020
4599 Clear 25 1016 64 10000 2.1 40 22:23 19.04.2020
4600 Clear 25 1016 69 10000 3.1 60 21:58 19.04.2020
4601 Clear 25 1016 69 10000 3.1 60 21:40 19.04.2020
4602 Clear 24 1017 69 10000 2.6 60 21:21 19.04.2020
4603 Clear 25 1017 69 10000 2.6 60 20:55 19.04.2020
4604 Clear 25 1017 69 10000 2.6 60 20:36 19.04.2020
4605 Clear 25 1018 64 10000 2.1 40 20:18 19.04.2020
4606 Clear 24 1018 64 10000 2.1 40 19:41 19.04.2020
4607 Clear 24 1018 64 10000 2.1 40 19:22 19.04.2020
4608 Clear 24 1019 68 10000 3.6 10 18:58 19.04.2020
4609 Clear 23 1019 68 10000 3.6 10 18:40 19.04.2020
4610 Clear 23 1019 68 10000 3.6 10 18:40 19.04.2020
4611 Clear 23 1019 68 10000 3.6 10 18:20 19.04.2020
4612 Clear 22 1020 73 10000 2.6 20 17:58 19.04.2020
4613 Clear 22 1020 73 10000 2.6 20 17:40 19.04.2020
4614 Clear 22 1020 73 10000 2.6 20 17:21 19.04.2020
4615 Clear 21 1020 72 10000 3.1 360 16:58 19.04.2020
4616 Clear 21 1020 72 10000 3.1 360 16:38 19.04.2020
4617 Clear 21 1020 72 10000 4.1 340 16:20 19.04.2020
4618 Clear 20 1020 72 10000 4.1 340 15:43 19.04.2020
4619 Clouds 20 1020 72 10000 4.1 340 15:22 19.04.2020
4620 Clouds 20 1020 82 10000 4.6 340 14:55 19.04.2020
4621 Clouds 19 1020 82 10000 4.6 340 14:37 19.04.2020
4622 Clouds 19 1020 82 10000 4.6 340 14:19 19.04.2020
4623 Clouds 18 1019 82 10000 6.2 340 13:40 19.04.2020
4624 Clouds 18 1019 82 10000 6.2 340 13:21 19.04.2020
4625 Clouds 18 1018 82 10000 5.7 360 12:50 19.04.2020
4626 Clear 18 1018 82 10000 5.7 360 12:25 19.04.2020
4627 Clear 18 1018 82 10000 5.1 360 11:59 19.04.2020
4628 Clear 18 1018 82 10000 5.1 360 11:37 19.04.2020
4629 Clear 18 1018 82 10000 5.1 360 11:37 19.04.2020
4630 Clear 18 1018 82 10000 4.1 350 11:19 19.04.2020
4631 Clear 18 1018 82 10000 4.1 350 10:55 19.04.2020
4632 Clear 18 1018 82 10000 4.1 350 10:37 19.04.2020
4633 Clear 18 1018 77 10000 4.1 350 10:18 19.04.2020
4634 Clear 18 1018 77 10000 4.1 350 09:45 19.04.2020
4635 Clear 18 1018 77 10000 4.1 350 09:27 19.04.2020
4636 Clear 18 1019 82 10000 4.6 360 08:41 19.04.2020
4637 Clear 18 1019 82 10000 4.6 360 08:22 19.04.2020
4638 Clear 19 1021 89 0 0.45 90 07:59 19.04.2020
4639 Clear 19 1020 77 10000 5.1 360 07:41 19.04.2020
4640 Clear 19 1020 77 10000 5.1 360 07:21 19.04.2020
4641 Clear 19 1020 77 10000 5.1 360 06:28 19.04.2020
4642 Clear 19 1020 72 10000 5.1 20 05:47 19.04.2020
4643 Clear 20 1020 68 10000 3.6 30 04:28 19.04.2020
4644 Clear 20 1020 82 10000 2.6 90 02:59 19.04.2020
4645 Clear 19 1020 82 10000 2.6 90 02:21 19.04.2020
4646 Clear 19 1020 82 10000 3.1 120 01:37 19.04.2020
4647 Clear 20 1020 77 10000 3.6 120 00:42 19.04.2020
4648 Clear 20 1020 77 10000 3.6 120 00:22 19.04.2020
4649 Clear 21 1020 77 10000 3.1 100 23:46 18.04.2020
4650 Clear 22 1020 77 10000 3.1 100 23:21 18.04.2020
4651 Clear 22 1020 68 10000 2.6 60 22:58 18.04.2020
4652 Clear 23 1020 68 10000 2.6 60 22:38 18.04.2020
4653 Clear 24 1020 64 10000 2.6 20 22:20 18.04.2020
4654 Clear 24 1020 64 10000 2.6 20 21:56 18.04.2020
4655 Clear 24 1020 64 10000 2.6 20 21:37 18.04.2020
4656 Clear 24 1020 64 10000 2.6 20 21:19 18.04.2020
4657 Clear 24 1021 60 10000 3.1 350 20:40 18.04.2020
4658 Clouds 23 1022 68 10000 3.1 20 20:21 18.04.2020
4659 Clouds 23 1022 68 10000 3.1 20 19:44 18.04.2020
4660 Clouds 23 1022 68 10000 3.1 20 19:25 18.04.2020
4661 -273 0 0 0 0 0 18:59 18.04.2020
4662 Clear 23 1023 68 10000 4.1 20 18:37 18.04.2020
4663 Clear 23 1023 68 10000 4.1 20 18:37 18.04.2020
4664 Clear 22 1024 68 10000 4.1 360 18:19 18.04.2020
4665 Clear 21 1024 68 10000 4.1 360 17:41 18.04.2020
4666 Clear 21 1024 68 10000 4.1 360 17:21 18.04.2020
4667 Clear 20 1024 77 10000 4.6 350 16:56 18.04.2020
4668 Clear 20 1024 77 10000 4.6 350 16:37 18.04.2020
4669 Clear 20 1024 77 10000 4.6 350 16:19 18.04.2020
4670 Clear 19 1025 82 10000 5.7 350 15:38 18.04.2020
4671 Clear 19 1025 82 10000 5.7 350 15:20 18.04.2020
4672 Clear 19 1025 77 10000 4.6 350 14:45 18.04.2020
4673 Clear 18 1025 77 10000 4.6 350 14:26 18.04.2020
4674 Clear 18 1024 77 10000 4.6 360 13:56 18.04.2020
4675 Clear 18 1024 77 10000 4.6 360 13:38 18.04.2020
4676 Clear 17 1023 77 10000 3.6 340 13:18 18.04.2020
4677 Clear 16 1023 77 10000 3.6 340 12:41 18.04.2020
4678 Clear 16 1023 77 10000 3.6 340 12:22 18.04.2020
4679 Clear 16 1023 77 10000 3.6 350 11:43 18.04.2020
4680 Clear 16 1023 77 10000 3.6 350 11:24 18.04.2020
4681 Clear 16 1023 77 10000 3.6 350 10:58 18.04.2020
4682 Clear 16 1023 77 10000 3.6 350 10:37 18.04.2020
4683 Clear 16 1023 77 10000 2.1 350 10:19 18.04.2020
4684 Clear 16 1023 77 10000 2.1 350 09:42 18.04.2020
4685 Clear 16 1023 77 10000 2.1 350 09:24 18.04.2020
4686 Clear 16 1023 77 10000 2.1 360 08:56 18.04.2020
4687 Clear 16 1023 77 10000 2.1 360 08:38 18.04.2020
4688 Clear 16 1024 82 10000 1.5 10 08:18 18.04.2020
4689 Clear 17 1024 82 10000 1.5 10 07:37 18.04.2020
4690 Clear 17 1024 82 10000 1.5 10 07:37 18.04.2020
4691 Clear 16 1024 88 10000 3.58 19 06:59 18.04.2020
4692 Clear 16 1024 88 10000 3.2 37 06:29 18.04.2020
4693 Clear 17 1024 88 10000 2.6 90 05:36 18.04.2020
4694 Clear 17 1024 88 10000 3.1 90 04:47 18.04.2020
4695 Clear 17 1024 88 10000 3.1 90 04:25 18.04.2020
4696 Clear 17 1024 88 10000 2.6 110 02:48 18.04.2020
4697 Clear 17 1024 88 10000 2.6 110 02:23 18.04.2020
4698 Clear 17 1024 88 10000 2.1 120 01:53 18.04.2020
4699 Clear 17 1024 88 10000 2.1 120 01:33 18.04.2020
4700 Clear 17 1024 93 10000 2.6 100 00:41 18.04.2020
4701 Clear 18 1024 82 10000 3.1 100 00:20 18.04.2020
4702 Clear 18 1024 82 10000 3.1 100 23:55 17.04.2020
4703 Clear 18 1024 82 10000 3.1 100 23:36 17.04.2020
4704 Clear 19 1024 82 10000 3.6 110 23:18 17.04.2020
4705 Clear 19 1024 82 10000 3.6 110 22:54 17.04.2020
4706 Clear 20 1024 82 10000 3.6 110 22:36 17.04.2020
4707 Clear 20 1025 77 10000 4.1 110 22:18 17.04.2020
4708 Clear 20 1025 77 10000 4.1 110 21:40 17.04.2020
4709 Clear 21 1025 72 10000 2.6 90 21:20 17.04.2020
4710 Clear 20 1025 77 10000 4.1 110 21:20 17.04.2020
4711 Clear 21 1025 72 10000 2.6 90 20:56 17.04.2020
4712 Clear 21 1025 72 10000 2.6 90 20:37 17.04.2020
4713 Clear 20 1025 72 10000 2.6 90 20:18 17.04.2020
4714 Clear 21 1026 72 10000 3.1 50 19:55 17.04.2020
4715 Clear 20 1026 72 10000 3.1 50 19:37 17.04.2020
4716 Clear 20 1026 77 10000 2.6 50 19:18 17.04.2020
4717 Clear 20 1026 77 10000 2.6 50 18:40 17.04.2020
4718 Clear 20 1026 77 10000 2.6 50 18:21 17.04.2020
4719 Clear 19 1027 82 10000 2.6 20 17:38 17.04.2020
4720 Clouds 19 1027 82 10000 2.6 360 17:20 17.04.2020
4721 Clouds 19 1027 82 10000 2.6 360 16:59 17.04.2020
4722 Clouds 19 1027 82 10000 2.6 360 16:41 17.04.2020
4723 Clouds 19 1027 82 10000 2.6 360 16:21 17.04.2020
4724 Clouds 18 1027 87 10000 2.6 340 15:39 17.04.2020
4725 Clouds 18 1027 82 10000 2.6 20 15:21 17.04.2020
4726 Clouds 17 1027 82 10000 2.6 20 14:54 17.04.2020
4727 Clouds 18 1027 82 10000 2.6 20 14:36 17.04.2020
4728 Clouds 17 1026 87 10000 2.6 20 14:18 17.04.2020
4729 Clouds 13 1026 87 10000 2.6 20 13:40 17.04.2020
4730 Clouds 12 1026 93 10000 1 340 13:20 17.04.2020
4731 Clouds 12 1026 93 10000 1 340 12:48 17.04.2020
4732 Clouds 11 1026 93 10000 1 340 12:27 17.04.2020
4733 Clear 12 1026 82 10000 2.1 50 11:59 17.04.2020
4734 Clear 12 1026 82 10000 2.1 50 11:39 17.04.2020
4735 Clear 12 1025 77 10000 2.6 50 11:19 17.04.2020
4736 Clear 12 1025 77 10000 2.6 50 10:40 17.04.2020
4737 Clear 12 1025 77 10000 2.6 50 10:20 17.04.2020
4738 Clear 12 1025 82 10000 3.1 60 09:55 17.04.2020
4739 Clear 12 1025 82 10000 3.1 60 09:36 17.04.2020
4740 Clear 13 1025 82 10000 2.6 60 09:18 17.04.2020
4741 Clear 13 1025 82 10000 2.6 60 08:45 17.04.2020
4742 Clear 12 1025 82 10000 2.6 60 08:26 17.04.2020
4743 Clear 13 1026 72 10000 2.6 60 07:54 17.04.2020
4744 Clear 13 1026 72 10000 2.6 60 07:36 17.04.2020
4745 Clear 12 1025 77 10000 1 0 07:18 17.04.2020
4746 Clear 12 1025 77 10000 1 0 06:28 17.04.2020
4747 Clear 12 1025 82 10000 2.46 48 05:42 17.04.2020
4748 Clear 14 1025 67 10000 1.07 81 03:22 17.04.2020
4749 Clear 14 1025 67 10000 1.07 81 02:49 17.04.2020
4750 Clear 15 1025 67 10000 1 60 01:30 17.04.2020
4751 Clear 16 1024 59 10000 2.1 80 00:59 17.04.2020
4752 Clear 17 1024 59 10000 1.5 50 00:20 17.04.2020
4753 Clear 18 1024 59 10000 1.5 50 23:46 16.04.2020
4754 Clear 19 1024 59 10000 1.5 50 23:23 16.04.2020
4755 Clear 20 1024 59 10000 2.1 30 22:58 16.04.2020
4756 Clear 20 1024 59 10000 2.1 30 22:39 16.04.2020
4757 Clear 20 1024 59 10000 2.1 30 22:20 16.04.2020
4758 Clear 20 1024 55 10000 2.1 30 21:56 16.04.2020
4759 Clear 20 1024 55 10000 2.1 30 21:38 16.04.2020
4760 Clear 20 1024 55 10000 2.1 30 21:38 16.04.2020
4761 Clear 21 1024 55 10000 2.1 30 21:18 16.04.2020
4762 Clear 21 1024 59 10000 2.6 20 20:41 16.04.2020
4763 Clear 21 1024 59 10000 2.6 20 20:22 16.04.2020
4764 Clear 20 1025 59 10000 3.1 40 19:56 16.04.2020
4765 Clear 21 1025 59 10000 3.1 40 19:38 16.04.2020
4766 Clear 20 1025 63 10000 2.6 10 19:19 16.04.2020
4767 Clear 20 1025 63 10000 2.6 10 18:45 16.04.2020
4768 Clear 19 1025 63 10000 2.6 10 18:26 16.04.2020
4769 Clear 19 1025 67 10000 3.1 50 17:58 16.04.2020
4770 Clear 18 1025 67 10000 3.1 50 17:40 16.04.2020
4771 Clear 18 1025 48 10000 1 0 17:21 16.04.2020
4772 Clear 18 1025 48 10000 1 0 16:44 16.04.2020
4773 Clear 17 1025 48 10000 1 0 16:26 16.04.2020
4774 Clear 16 1025 62 10000 2.1 160 15:55 16.04.2020
4775 Clear 16 1025 62 10000 2.1 160 15:36 16.04.2020
4776 Clear 15 1025 62 10000 2.1 160 15:18 16.04.2020
4777 Clear 13 1024 67 10000 1 0 14:45 16.04.2020
4778 Clear 13 1024 67 10000 1 0 14:25 16.04.2020
4779 Clear 12 1023 76 10000 1 0 13:59 16.04.2020
4780 Clear 11 1023 76 10000 1 0 13:40 16.04.2020
4781 Clear 11 1023 76 10000 1 0 13:40 16.04.2020
4782 Clear 11 1023 76 10000 1 0 13:21 16.04.2020
4783 Clear 9 1022 76 10000 1 0 12:58 16.04.2020
4784 Clear 8 1022 76 10000 1 0 12:39 16.04.2020
4785 Clear 8 1022 76 10000 1 0 12:19 16.04.2020
4786 Clear 8 1022 76 10000 1 0 11:56 16.04.2020
4787 Clear 9 1022 76 10000 1 0 11:38 16.04.2020
4788 Clear 9 1022 76 10000 1 0 11:19 16.04.2020
4789 Clear 9 1021 81 10000 1 210 10:55 16.04.2020
4790 -273 0 0 0 0 0 10:36 16.04.2020
4791 Clear 9 1021 81 10000 1 210 10:18 16.04.2020
4792 Clear 9 1021 76 10000 1 0 09:39 16.04.2020
4793 Clear 9 1021 76 10000 1 0 09:20 16.04.2020
4794 Clear 10 1021 66 10000 1 0 09:20 16.04.2020
4795 Clear 10 1021 66 10000 1 0 08:45 16.04.2020
4796 Clear 10 1021 66 10000 1 0 08:26 16.04.2020
4797 Clear 10 1021 62 10000 1 0 07:58 16.04.2020
4798 Clear 10 1021 62 10000 1 0 07:39 16.04.2020
4799 Clear 11 1021 62 10000 1 0 07:20 16.04.2020
4800 Clear 11 1021 62 10000 1 0 06:40 16.04.2020
4801 Clear 11 1021 62 10000 1 0 06:22 16.04.2020
4802 Clear 12 1020 58 10000 1 0 04:48 16.04.2020
4803 Clear 15 1020 55 10000 1 0 03:25 16.04.2020
4804 Clear 15 1019 51 10000 1 0 02:57 16.04.2020
4805 Clear 15 1019 51 10000 1 0 02:33 16.04.2020
4806 Clear 16 1019 48 10000 1 190 01:22 16.04.2020
4807 Clear 16 1018 42 10000 1.5 210 00:49 16.04.2020
4808 Clear 18 1018 37 10000 2.6 200 00:18 16.04.2020
4809 Clear 18 1018 37 10000 2.6 200 23:43 15.04.2020
4810 Clear 19 1018 37 10000 2.6 200 23:24 15.04.2020
4811 Clear 20 1018 37 10000 2.6 180 22:58 15.04.2020
4812 Clear 20 1018 37 10000 2.6 180 22:37 15.04.2020
4813 Clear 20 1018 37 10000 2.6 180 22:19 15.04.2020
4814 Clear 20 1017 37 10000 3.1 200 21:42 15.04.2020
4815 Clear 20 1017 37 10000 3.1 200 21:23 15.04.2020
4816 Clear 20 1017 40 10000 3.6 170 20:59 15.04.2020
4817 Clear 20 1017 40 10000 3.6 170 20:41 15.04.2020
4818 Clear 20 1017 40 10000 3.6 170 20:22 15.04.2020
4819 Clear 20 1017 40 10000 3.1 190 19:59 15.04.2020
4820 Clear 20 1017 40 10000 3.1 190 19:39 15.04.2020
4821 Clear 20 1018 42 10000 3.1 190 19:18 15.04.2020
4822 Clear 19 1018 42 10000 3.1 190 18:41 15.04.2020
4823 Clouds 19 1018 52 10000 3.1 180 18:22 15.04.2020
4824 Clouds 18 1018 52 10000 3.1 180 17:56 15.04.2020
4825 Clouds 18 1018 52 10000 3.1 180 17:38 15.04.2020
4826 Clouds 18 1018 52 10000 3.1 180 17:20 15.04.2020
4827 Clouds 17 1018 63 10000 3.6 180 16:55 15.04.2020
4828 Clouds 16 1018 63 10000 3.6 180 16:37 15.04.2020
4829 Clouds 16 1018 63 10000 3.6 180 16:18 15.04.2020
4830 Clear 15 1017 71 10000 3.1 180 15:56 15.04.2020
4831 Clear 14 1017 71 10000 3.1 180 15:37 15.04.2020
4832 Clear 14 1017 71 10000 3.1 180 15:18 15.04.2020
4833 Clear 12 1017 76 10000 3.1 220 14:54 15.04.2020
4834 Clear 12 1017 76 10000 3.1 220 14:36 15.04.2020
4835 Clear 11 1017 81 10000 2.6 200 14:18 15.04.2020
4836 Clear 10 1017 81 10000 2.6 200 13:40 15.04.2020
4837 Clear 10 1017 81 10000 2.6 200 13:40 15.04.2020
4838 Clear 10 1017 81 10000 2.6 200 13:21 15.04.2020
4839 Clear 9 1016 76 10000 3.1 210 12:59 15.04.2020
4840 Clear 9 1016 76 10000 3.1 210 12:59 15.04.2020
4841 Clear 9 1016 76 10000 3.1 210 12:40 15.04.2020
4842 Clear 9 1016 76 10000 3.1 210 12:22 15.04.2020
4843 Clear 9 1016 76 10000 4.1 210 11:58 15.04.2020
4844 Clear 9 1016 76 10000 4.1 210 11:38 15.04.2020
4845 Clear 9 1016 76 10000 4.1 210 11:38 15.04.2020
4846 Clear 9 1016 76 10000 4.1 210 11:20 15.04.2020
4847 Clear 9 1015 71 10000 2.6 210 10:38 15.04.2020
4848 Clear 10 1015 71 10000 2.6 210 10:20 15.04.2020
4849 Clear 10 1015 66 10000 2.6 200 09:57 15.04.2020
4850 Clear 10 1015 66 10000 2.6 200 09:38 15.04.2020
4851 Clear 10 1015 66 10000 2.6 200 09:20 15.04.2020
4852 Clear 10 1015 71 10000 3.1 190 08:54 15.04.2020
4853 Clear 11 1015 71 10000 3.1 190 08:36 15.04.2020
4854 Clear 11 1015 71 10000 3.1 190 08:18 15.04.2020
4855 Clear 11 1015 71 10000 3.1 200 07:44 15.04.2020
4856 Clear 11 1015 71 10000 3.1 200 07:26 15.04.2020
4857 Clear 11 1015 71 10000 2.6 180 06:25 15.04.2020
4858 Clear 12 1014 62 10000 2.1 180 05:48 15.04.2020
4859 Clear 13 1014 54 10000 2.6 180 04:47 15.04.2020
4860 Clear 14 1014 51 10000 3.6 180 04:22 15.04.2020
4861 Clear 14 1014 51 10000 3.6 180 03:22 15.04.2020
4862 Clear 14 1014 71 10000 2.6 190 02:49 15.04.2020
4863 Clear 15 1013 55 10000 2.6 220 01:51 15.04.2020
4864 Clear 16 1013 55 10000 2.6 220 01:25 15.04.2020
4865 Clear 16 1012 52 10000 4.1 220 00:48 15.04.2020
4866 Clear 17 1012 52 10000 4.1 220 00:25 15.04.2020
4867 Clouds 18 1012 45 10000 4.6 210 23:56 14.04.2020
4868 Clouds 18 1012 45 10000 4.6 210 23:38 14.04.2020
4869 Clouds 18 1012 45 10000 4.6 210 23:20 14.04.2020
4870 Clouds 19 1012 45 10000 4.1 230 22:56 14.04.2020
4871 Clouds 19 1012 45 10000 4.1 230 22:56 14.04.2020
4872 Clouds 19 1012 45 10000 4.1 230 22:38 14.04.2020
4873 Clouds 19 1012 45 10000 4.1 230 22:20 14.04.2020
4874 Clouds 20 1012 42 10000 4.1 220 21:56 14.04.2020
4875 Clouds 20 1012 42 10000 4.1 220 21:37 14.04.2020
4876 Clouds 20 1012 42 10000 4.1 220 21:19 14.04.2020
4877 Clouds 19 1013 45 10000 4.1 230 20:41 14.04.2020
4878 Clouds 19 1013 45 10000 4.1 230 20:41 14.04.2020
4879 Clouds 19 1013 45 10000 4.1 230 20:23 14.04.2020
4880 Clouds 19 1013 39 10000 4.1 200 20:00 14.04.2020
4881 Clouds 19 1013 39 10000 4.1 200 19:40 14.04.2020
4882 Clouds 19 1013 39 10000 4.1 200 19:21 14.04.2020
4883 Clear 18 1013 48 10000 3.6 220 18:57 14.04.2020
4884 Clear 18 1013 48 10000 3.6 220 18:39 14.04.2020
4885 Clear 18 1013 48 10000 3.6 220 18:20 14.04.2020
4886 Clear 17 1014 51 10000 4.1 200 17:57 14.04.2020
4887 Clear 17 1014 51 10000 4.1 200 17:38 14.04.2020
4888 Clear 16 1014 55 10000 4.1 200 17:19 14.04.2020
4889 Clear 16 1014 55 10000 4.1 200 16:54 14.04.2020
4890 Clear 16 1014 55 10000 4.1 200 16:36 14.04.2020
4891 Clear 16 1014 55 10000 4.1 200 16:18 14.04.2020
4892 Clear 14 1014 58 10000 3.1 200 15:41 14.04.2020
4893 Clear 14 1014 58 10000 3.1 200 15:23 14.04.2020
4894 Clear 13 1014 62 10000 2.6 200 14:59 14.04.2020
4895 Rain 13 1014 62 10000 2.6 200 14:40 14.04.2020
4896 Clouds 12 1014 62 10000 2.6 200 14:40 14.04.2020
4897 Rain 12 1014 62 10000 2.6 200 14:22 14.04.2020
4898 Clear 11 1013 76 10000 2.6 210 13:56 14.04.2020
4899 Clear 10 1013 76 10000 2.6 210 13:38 14.04.2020
4900 Clear 10 1013 76 10000 2.6 210 13:20 14.04.2020
4901 Clear 10 1013 76 10000 2.1 200 12:41 14.04.2020
4902 Clouds 10 1013 76 10000 2.1 200 12:21 14.04.2020
4903 Clouds 10 1013 76 10000 2.1 200 12:21 14.04.2020
4904 Clouds 10 1013 76 10000 2.6 200 11:55 14.04.2020
4905 Clouds 10 1013 76 10000 2.6 200 11:55 14.04.2020
4906 Clouds 10 1013 76 10000 2.6 200 11:37 14.04.2020
4907 Clouds 10 1013 76 10000 2.6 200 11:18 14.04.2020
4908 Clouds 10 1013 81 10000 3.6 230 10:43 14.04.2020
4909 Clouds 10 1013 71 10000 2.6 210 10:23 14.04.2020
4910 Clouds 10 1013 87 10000 3.1 180 09:43 14.04.2020
4911 Rain 10 1013 87 10000 3.1 180 09:25 14.04.2020
4912 Rain 10 1013 93 10000 4.1 180 08:59 14.04.2020
4913 Clouds 10 1013 81 10000 3.1 210 08:41 14.04.2020
4914 Rain 10 1013 93 10000 4.1 180 08:22 14.04.2020
4915 Rain 11 1013 81 10000 3.6 200 07:53 14.04.2020
4916 Rain 11 1013 81 10000 3.6 200 07:30 14.04.2020
4917 Clouds 11 1012 87 10000 3.6 200 06:48 14.04.2020
4918 Clouds 12 1012 87 10000 4.1 200 05:55 14.04.2020
4919 Rain 12 1012 93 6000 4.1 200 03:52 14.04.2020
4920 Rain 13 1013 99 0 1.34 225 02:53 14.04.2020
4921 Rain 13 1011 93 3700 4.6 210 01:39 14.04.2020
4922 Rain 13 1011 93 3700 4.6 210 01:18 14.04.2020
4923 Rain 15 1010 87 7000 5.1 150 00:33 14.04.2020
4924 Rain 15 1010 93 5000 3.6 140 23:59 13.04.2020
4925 Rain 16 1010 93 5000 3.6 140 23:39 13.04.2020
4926 Rain 16 1010 93 5000 3.6 140 23:21 13.04.2020
4927 Rain 16 1010 88 9000 2.1 160 22:56 13.04.2020
4928 Rain 16 1010 88 9000 2.1 160 22:37 13.04.2020
4929 Rain 16 1010 88 9000 2.1 160 22:18 13.04.2020
4930 Rain 17 1010 88 9000 1 170 21:42 13.04.2020
4931 Rain 17 1010 88 9000 1 170 21:21 13.04.2020
4932 Rain 17 1011 88 8000 1.5 150 20:59 13.04.2020
4933 Rain 17 1011 88 8000 1.5 150 20:40 13.04.2020
4934 Rain 17 1011 88 8000 1.5 150 20:20 13.04.2020
4935 Rain 17 1012 77 7000 1 40 19:58 13.04.2020
4936 Rain 18 1012 77 7000 1 40 19:37 13.04.2020
4937 Rain 18 1013 68 9000 1.5 0 19:19 13.04.2020
4938 Rain 18 1013 68 9000 1.5 0 19:19 13.04.2020
4939 Rain 18 1013 68 9000 1.5 0 18:57 13.04.2020
4940 Rain 18 1013 68 9000 1.5 0 18:37 13.04.2020
4941 Rain 18 1013 60 10000 2.1 260 18:19 13.04.2020
4942 Rain 18 1013 60 10000 2.1 260 17:56 13.04.2020
4943 Rain 18 1013 60 10000 2.1 260 17:37 13.04.2020
4944 Rain 18 1012 60 10000 2.1 270 17:19 13.04.2020
4945 Rain 18 1012 60 10000 2.1 270 17:19 13.04.2020
4946 Rain 18 1013 60 10000 2.1 260 17:19 13.04.2020
4947 Rain 18 1012 60 10000 2.1 270 16:57 13.04.2020
4948 Rain 18 1012 60 10000 2.1 270 16:37 13.04.2020
4949 Rain 18 1012 60 10000 2.1 270 16:19 13.04.2020
4950 Rain 18 1013 72 10000 3.1 320 15:46 13.04.2020
4951 Rain 17 1013 72 10000 3.1 320 15:28 13.04.2020
4952 Rain 18 1013 72 10000 2.1 320 14:59 13.04.2020
4953 Rain 18 1013 72 10000 2.1 320 14:40 13.04.2020
4954 Rain 18 1013 72 10000 2.1 320 14:22 13.04.2020
4955 Rain 17 1012 72 10000 2.1 10 13:56 13.04.2020
4956 Rain 17 1012 72 10000 2.1 10 13:38 13.04.2020
4957 Rain 17 1012 72 10000 2.1 10 13:38 13.04.2020
4958 Rain 17 1012 72 10000 2.1 10 13:20 13.04.2020
4959 Rain 17 1012 72 10000 2.6 20 12:58 13.04.2020
4960 Rain 17 1012 72 10000 2.6 20 12:39 13.04.2020
4961 Clouds 18 1012 68 10000 3.1 10 12:19 13.04.2020
4962 Clouds 18 1012 68 10000 3.1 10 11:57 13.04.2020
4963 Clouds 18 1012 68 10000 3.1 10 11:39 13.04.2020
4964 Clouds 18 1012 68 10000 3.1 10 11:18 13.04.2020
4965 Clouds 18 1012 68 10000 3.1 360 10:55 13.04.2020
4966 Clouds 18 1012 68 10000 3.1 360 10:36 13.04.2020
4967 Clouds 18 1012 68 10000 3.1 360 10:18 13.04.2020
4968 Clouds 18 1013 68 10000 5.7 360 09:43 13.04.2020
4969 Clouds 19 1013 68 10000 5.7 360 09:24 13.04.2020
4970 Clouds 19 1013 68 10000 3.1 360 08:45 13.04.2020
4971 Clouds 19 1013 68 10000 3.1 360 08:26 13.04.2020
4972 Clouds 19 1013 68 10000 2.6 30 07:45 13.04.2020
4973 Clouds 19 1013 68 10000 2.6 30 07:26 13.04.2020
4974 Clouds 19 1014 88 10000 2.6 120 06:56 13.04.2020
4975 Clouds 18 1014 88 10000 2.6 120 06:37 13.04.2020
4976 Clouds 19 1014 88 10000 4.6 110 05:40 13.04.2020
4977 Clouds 19 1014 88 10000 4.6 110 05:19 13.04.2020
4978 Clouds 20 1014 72 10000 7.2 100 04:31 13.04.2020
4979 Clouds 20 1014 77 10000 6.2 110 03:54 13.04.2020
4980 Clouds 20 1014 77 10000 6.2 110 03:34 13.04.2020
4981 Clouds 20 1014 68 10000 5.1 110 02:40 13.04.2020
4982 Clouds 20 1014 68 10000 4.6 110 01:46 13.04.2020
4983 Clouds 20 1014 68 10000 4.6 110 01:27 13.04.2020
4984 Clouds 20 1014 64 10000 3.1 120 00:46 13.04.2020
4985 Clouds 21 1014 64 10000 3.1 120 00:24 13.04.2020
4986 Clouds 21 1014 68 10000 4.1 100 23:55 12.04.2020
4987 Clouds 22 1014 68 10000 4.1 100 23:36 12.04.2020
4988 Clouds 22 1014 68 10000 4.1 100 23:18 12.04.2020
4989 Clouds 23 1014 64 10000 4.1 100 22:39 12.04.2020
4990 Clouds 23 1014 64 10000 4.1 100 22:19 12.04.2020
4991 Clouds 24 1014 68 10000 3.6 90 21:57 12.04.2020
4992 Clouds 24 1014 68 10000 3.6 90 21:36 12.04.2020
4993 Clouds 24 1014 44 10000 4.1 360 21:18 12.04.2020
4994 Clouds 24 1015 44 10000 4.6 360 20:42 12.04.2020
4995 Clouds 24 1015 44 10000 4.6 360 20:23 12.04.2020
4996 Clouds 24 1016 64 10000 2.6 40 19:57 12.04.2020
4997 Clouds 24 1016 64 10000 2.6 40 19:38 12.04.2020
4998 Clouds 24 1017 68 10000 2.6 60 19:19 12.04.2020
4999 Clouds 24 1017 68 10000 2.6 60 18:41 12.04.2020
5000 Clouds 23 1018 68 10000 2.6 10 18:23 12.04.2020
5001 Clouds 23 1018 68 10000 2.6 10 17:58 12.04.2020
5002 Clouds 23 1018 68 10000 2.6 10 17:40 12.04.2020
5003 Clouds 23 1018 68 10000 2.6 10 17:21 12.04.2020
5004 Clouds 22 1018 77 10000 2.6 20 16:58 12.04.2020
5005 Clouds 22 1018 77 10000 2.6 20 16:39 12.04.2020
5006 Clouds 22 1018 77 10000 2.6 20 16:20 12.04.2020
5007 Clouds 20 1019 72 10000 2.6 10 15:47 12.04.2020
5008 Clouds 19 1019 72 10000 2.6 10 15:29 12.04.2020
5009 Clouds 18 1018 77 10000 3.6 40 14:54 12.04.2020
5010 Clouds 17 1018 77 10000 3.6 40 14:36 12.04.2020
5011 Clouds 17 1018 77 10000 3.6 40 14:18 12.04.2020
5012 Clouds 16 1018 72 10000 2.6 360 13:41 12.04.2020
5013 Clouds 16 1018 72 10000 2.6 360 13:22 12.04.2020
5014 Clouds 15 1018 77 10000 1.5 360 12:49 12.04.2020
5015 Clouds 14 1018 77 10000 1.5 360 12:23 12.04.2020
5016 Clouds 14 1018 77 10000 1.5 360 12:23 12.04.2020
5017 Clouds 14 1018 77 10000 1.5 360 12:23 12.04.2020
5018 Clouds 15 1018 72 10000 1.5 340 11:59 12.04.2020
5019 Clouds 15 1018 72 10000 1.5 340 11:40 12.04.2020
5020 Clouds 15 1018 72 10000 1.5 340 11:21 12.04.2020
5021 Clouds 15 1018 88 10000 2.1 350 10:58 12.04.2020
5022 Clouds 15 1018 88 10000 2.1 350 10:39 12.04.2020
5023 Clouds 14 1018 88 10000 2.1 350 10:21 12.04.2020
5024 Clouds 14 1018 88 10000 2.1 350 10:21 12.04.2020
5025 Clouds 15 1017 93 10000 1.5 120 09:59 12.04.2020
5026 Clouds 15 1017 93 10000 1.5 120 09:39 12.04.2020
5027 Clouds 15 1017 93 10000 1.5 120 09:20 12.04.2020
5028 Clouds 16 1018 93 10000 2.1 90 08:51 12.04.2020
5029 Clouds 16 1018 93 10000 2.1 90 08:33 12.04.2020
5030 Clouds 17 1018 93 10000 4.1 110 07:55 12.04.2020
5031 Clouds 17 1018 93 10000 4.1 110 07:36 12.04.2020
5032 Clouds 17 1018 88 10000 4.1 110 07:18 12.04.2020
5033 Clouds 17 1018 88 10000 4.1 110 06:31 12.04.2020
5034 Clouds 17 1018 88 10000 5.1 110 05:49 12.04.2020
5035 Clouds 17 1018 88 10000 5.1 110 05:27 12.04.2020
5036 Clouds 18 1018 77 10000 5.1 100 03:31 12.04.2020
5037 Clouds 18 1018 82 10000 4.6 120 02:49 12.04.2020
5038 Clouds 18 1018 82 10000 4.6 120 02:30 12.04.2020
5039 Clouds 19 1018 77 10000 3.6 120 01:31 12.04.2020
5040 Clouds 19 1017 77 10000 4.6 110 00:55 12.04.2020
5041 Clouds 20 1017 77 10000 4.6 110 00:37 12.04.2020
5042 Clear 20 1017 77 10000 4.6 110 00:18 12.04.2020
5043 Clear 20 1017 77 10000 4.6 110 00:18 12.04.2020
5044 Clear 21 1017 77 10000 4.6 100 23:43 11.04.2020
5045 Clear 22 1017 77 10000 4.6 100 23:22 11.04.2020
5046 Clear 21 1017 77 10000 4.6 100 23:22 11.04.2020
5047 Clouds 23 1017 60 10000 1.5 60 22:39 11.04.2020
5048 Clouds 23 1017 60 10000 1.5 60 22:20 11.04.2020
5049 Clouds 23 1017 60 10000 1.5 40 21:56 11.04.2020
5050 Clouds 23 1017 60 10000 1.5 40 21:37 11.04.2020
5051 Clouds 23 1017 60 10000 1.5 40 21:18 11.04.2020
5052 Clouds 23 1018 60 10000 2.6 40 20:56 11.04.2020
5053 Clouds 23 1018 60 10000 2.6 40 20:38 11.04.2020
5054 Clouds 23 1018 60 10000 2.6 40 20:19 11.04.2020
5055 Clouds 23 1018 60 10000 2.6 40 20:19 11.04.2020
5056 Clouds 23 1019 68 10000 3.1 10 19:57 11.04.2020
5057 Clouds 23 1019 68 10000 3.1 10 19:38 11.04.2020
5058 Clouds 23 1019 68 10000 3.1 10 19:18 11.04.2020
5059 Clouds 22 1019 73 10000 3.1 10 18:55 11.04.2020
5060 Clouds 22 1019 73 10000 3.1 10 18:37 11.04.2020
5061 Clouds 23 1020 60 10000 4.1 330 18:18 11.04.2020
5062 Clouds 22 1020 60 10000 4.1 330 17:57 11.04.2020
5063 Clouds 22 1020 60 10000 4.1 330 17:37 11.04.2020
5064 Clouds 22 1020 60 10000 4.1 330 17:19 11.04.2020
5065 Clear 21 1020 64 10000 4.1 340 16:42 11.04.2020
5066 Clear 21 1020 64 10000 4.1 340 16:21 11.04.2020
5067 Clouds 19 1021 82 10000 4.6 360 15:42 11.04.2020
5068 Clouds 18 1021 82 10000 4.6 360 15:21 11.04.2020
5069 Clouds 17 1020 82 10000 4.6 360 14:59 11.04.2020
5070 Clouds 17 1020 82 10000 4.6 360 14:40 11.04.2020
5071 Clouds 16 1020 82 10000 4.6 360 14:22 11.04.2020
5072 Clear 15 1020 82 10000 3.6 10 13:43 11.04.2020
5073 Clear 15 1020 82 10000 3.6 10 13:25 11.04.2020
5074 Clouds 15 1019 77 10000 4.1 360 12:59 11.04.2020
5075 Clouds 14 1019 77 10000 4.1 360 12:37 11.04.2020
5076 Clouds 14 1019 77 10000 4.1 360 12:18 11.04.2020
5077 Clouds 14 1019 77 10000 4.1 360 11:43 11.04.2020
5078 Clouds 14 1019 77 10000 4.1 360 11:21 11.04.2020
5079 Clear 14 1019 77 10000 5.1 10 10:57 11.04.2020
5080 Clear 14 1019 77 10000 5.1 10 10:37 11.04.2020
5081 Clear 15 1019 77 10000 5.1 10 10:19 11.04.2020
5082 Clouds 15 1018 77 10000 4.6 30 09:57 11.04.2020
5083 Clouds 15 1018 77 10000 4.6 30 09:37 11.04.2020
5084 Clouds 15 1018 77 10000 4.6 30 09:37 11.04.2020
5085 Clouds 15 1018 77 10000 4.6 30 09:18 11.04.2020
5086 Clear 15 1019 93 10000 1 50 08:42 11.04.2020
5087 Clouds 15 1019 82 10000 5.1 60 08:23 11.04.2020
5088 Clouds 16 1019 82 10000 5.1 60 07:48 11.04.2020
5089 Clouds 15 1019 82 10000 5.1 60 07:27 11.04.2020
5090 Clear 16 1020 77 10000 5.1 70 06:42 11.04.2020
5091 Clouds 16 1020 77 10000 5.7 80 05:58 11.04.2020
5092 Clouds 17 1020 82 10000 5.7 90 04:31 11.04.2020
5093 Clear 17 1020 77 10000 7.2 100 03:30 11.04.2020
5094 Clear 17 1020 72 10000 6.2 110 01:41 11.04.2020
5095 Clear 17 1020 72 10000 6.2 110 01:18 11.04.2020
5096 Clear 18 1020 72 10000 6.7 110 00:42 11.04.2020
5097 Clouds 18 1020 72 10000 7.2 110 00:18 11.04.2020
5098 Clouds 19 1020 72 10000 7.2 110 23:54 10.04.2020
5099 Clouds 19 1020 72 10000 7.2 110 23:36 10.04.2020
5100 Clouds 20 1020 68 10000 6.7 110 23:18 10.04.2020
5101 Clouds 20 1020 68 10000 6.7 110 22:42 10.04.2020
5102 Clouds 21 1021 68 10000 6.2 110 22:20 10.04.2020
5103 Clouds 21 1021 68 10000 6.2 110 21:42 10.04.2020
5104 Clouds 21 1021 68 10000 6.2 110 21:42 10.04.2020
5105 Clouds 21 1021 68 10000 6.2 110 21:22 10.04.2020
5106 Clouds 21 1021 64 10000 5.1 110 20:59 10.04.2020
5107 Clouds 21 1021 64 10000 5.1 110 20:40 10.04.2020
5108 Clouds 21 1021 64 10000 5.1 110 20:21 10.04.2020
5109 Clouds 21 1022 60 10000 4.6 110 19:56 10.04.2020
5110 Clouds 21 1022 60 10000 4.6 110 19:38 10.04.2020
5111 Clouds 21 1022 60 10000 4.6 110 19:38 10.04.2020
5112 Clouds 20 1023 60 0 3.6 110 19:19 10.04.2020
5113 Clouds 20 1023 60 0 3.6 110 18:56 10.04.2020
5114 Clouds 20 1023 60 0 3.6 110 18:38 10.04.2020
5115 Clouds 20 1023 60 0 3.6 110 18:38 10.04.2020
5116 Clouds 20 1023 60 0 3.6 110 18:20 10.04.2020
5117 Clouds 20 1023 63 10000 3.1 100 17:57 10.04.2020
5118 Clouds 20 1023 63 10000 3.1 100 17:39 10.04.2020
5119 Clouds 20 1023 63 10000 3.1 100 17:19 10.04.2020
5120 Clouds 20 1024 63 10000 3.6 70 16:45 10.04.2020
5121 Clouds 19 1024 63 10000 3.6 70 16:24 10.04.2020
5122 Clouds 18 1024 72 10000 2.1 70 15:59 10.04.2020
5123 Clouds 18 1024 72 10000 2.1 70 15:39 10.04.2020
5124 Clouds 17 1024 72 10000 2.1 70 15:21 10.04.2020
5125 Clouds 16 1023 82 9000 1 160 14:59 10.04.2020
5126 Clouds 16 1023 82 9000 1 160 14:40 10.04.2020
5127 Clouds 15 1023 82 9000 1 160 14:22 10.04.2020
5128 Clouds 14 1023 87 9000 1 200 13:56 10.04.2020
5129 Clouds 13 1023 87 9000 1 200 13:38 10.04.2020
5130 Clouds 13 1023 87 9000 1 200 13:19 10.04.2020
5131 Clouds 12 1022 87 9000 1 180 12:41 10.04.2020
5132 Clouds 12 1022 87 9000 1 180 12:21 10.04.2020
5133 Clouds 12 1022 87 9000 1 180 12:21 10.04.2020
5134 Clouds 11 1022 82 10000 1 140 11:44 10.04.2020
5135 Clouds 12 1022 82 10000 1 140 11:25 10.04.2020
5136 Clouds 12 1022 87 10000 1 0 10:59 10.04.2020
5137 Clouds 12 1022 87 10000 1 0 10:41 10.04.2020
5138 Clouds 12 1022 87 10000 1 0 10:22 10.04.2020
5139 Clouds 12 1022 87 10000 1 0 09:43 10.04.2020
5140 Clouds 12 1022 87 10000 1 0 09:24 10.04.2020
5141 Clouds 13 1022 82 10000 1.5 160 08:50 10.04.2020
5142 Clouds 13 1022 82 10000 1.5 160 08:27 10.04.2020
5143 Clouds 13 1023 77 10000 2.1 150 07:58 10.04.2020
5144 Clouds 13 1023 77 10000 2.1 150 07:40 10.04.2020
5145 Clouds 13 1023 77 10000 2.1 150 07:21 10.04.2020
5146 Clouds 13 1023 77 10000 2.6 150 06:39 10.04.2020
5147 Clouds 13 1023 77 10000 2.6 150 06:21 10.04.2020
5148 Clouds 14 1023 77 10000 3.1 140 05:33 10.04.2020
5149 Clouds 15 1023 72 10000 4.1 140 04:56 10.04.2020
5150 Clouds 16 1023 72 10000 5.7 140 03:36 10.04.2020
5151 Clouds 16 1023 72 10000 5.1 130 02:51 10.04.2020
5152 Clouds 16 1023 72 10000 5.1 130 02:33 10.04.2020
5153 Clouds 17 1023 72 10000 5.7 120 01:47 10.04.2020
5154 Clouds 17 1023 72 10000 5.7 120 01:27 10.04.2020
5155 Clouds 17 1023 68 10000 5.1 110 00:46 10.04.2020
5156 Clouds 18 1023 68 10000 5.1 110 00:20 10.04.2020
5157 Clouds 18 1023 68 10000 5.1 110 23:42 09.04.2020
5158 Clouds 19 1023 68 10000 5.1 110 23:24 09.04.2020
5159 Clouds 19 1023 59 10000 6.2 100 22:57 09.04.2020
5160 Clouds 19 1023 59 10000 6.2 100 22:39 09.04.2020
5161 Clouds 19 1023 59 10000 6.2 100 22:21 09.04.2020
5162 Clouds 20 1023 60 10000 5.7 100 21:38 09.04.2020
5163 Clouds 20 1023 60 10000 5.7 100 21:20 09.04.2020
5164 Clouds 20 1023 56 10000 4.6 100 20:47 09.04.2020
5165 Clouds 20 1023 56 10000 4.6 100 20:23 09.04.2020
5166 Clouds 20 1024 63 10000 5.1 100 19:59 09.04.2020
5167 Clouds 20 1024 63 10000 5.1 100 19:39 09.04.2020
5168 Clouds 20 1024 63 10000 5.1 100 19:21 09.04.2020
5169 Clouds 20 1024 59 10000 5.7 100 18:42 09.04.2020
5170 Clouds 20 1024 59 10000 5.7 100 18:21 09.04.2020
5171 Clouds 19 1025 59 10000 3.6 150 17:57 09.04.2020
5172 Clouds 19 1025 59 10000 3.6 150 17:38 09.04.2020
5173 Clouds 19 1025 59 10000 3.6 150 17:18 09.04.2020
5174 Clouds 18 1025 59 10000 3.6 150 16:39 09.04.2020
5175 Clouds 18 1025 59 10000 3.6 150 16:19 09.04.2020
5176 Clear 17 1025 63 10000 3.6 160 15:56 09.04.2020
5177 Clear 17 1025 63 10000 3.6 160 15:56 09.04.2020
5178 Clear 16 1025 63 10000 3.6 160 15:37 09.04.2020
5179 Clouds 16 1025 63 10000 3.6 160 15:19 09.04.2020
5180 Clouds 14 1025 67 10000 2.6 180 14:42 09.04.2020
5181 Clouds 14 1025 67 10000 2.6 180 14:21 09.04.2020
5182 Clouds 12 1025 71 10000 2.1 180 13:57 09.04.2020
5183 Clouds 11 1025 71 10000 2.1 180 13:39 09.04.2020
5184 Clouds 10 1025 71 10000 2.1 180 13:21 09.04.2020
5185 Clear 9 1024 81 10000 1.5 180 12:43 09.04.2020
5186 Clear 9 1024 81 10000 1.5 180 12:24 09.04.2020
5187 Clear 10 1024 71 10000 1.5 190 11:59 09.04.2020
5188 Clear 10 1024 71 10000 1.5 190 11:59 09.04.2020
5189 Clear 10 1024 71 10000 1.5 190 11:41 09.04.2020
5190 Clear 10 1024 71 10000 1.5 190 11:20 09.04.2020
5191 Clear 10 1024 76 10000 1.5 170 10:57 09.04.2020
5192 Clear 10 1024 76 10000 1.5 170 10:39 09.04.2020
5193 Clear 10 1024 76 10000 1.5 170 10:20 09.04.2020
5194 Clear 10 1024 76 10000 1.5 170 09:55 09.04.2020
5195 Clear 10 1024 76 10000 1.5 170 09:37 09.04.2020
5196 Clear 9 1024 71 10000 1 180 09:19 09.04.2020
5197 Clear 10 1024 71 10000 1 180 08:43 09.04.2020
5198 Clear 10 1024 71 10000 1 180 08:23 09.04.2020
5199 Clear 10 1024 71 10000 0.5 180 07:55 09.04.2020
5200 Clear 11 1024 62 10000 2.1 150 07:24 09.04.2020
5201 Clear 11 1024 62 10000 2.1 150 06:52 09.04.2020
5202 Clouds 11 1025 67 10000 2.1 150 05:59 09.04.2020
5203 Clouds 12 1025 67 10000 2.1 150 05:38 09.04.2020
5204 Clouds 13 1025 67 10000 4.1 100 03:36 09.04.2020
5205 Clear 13 1024 67 10000 2.6 90 02:21 09.04.2020
5206 Clear 14 1024 67 10000 2.6 90 01:40 09.04.2020
5207 Clear 14 1024 67 10000 2.6 90 01:19 09.04.2020
5208 Clear 15 1024 67 10000 3.1 80 00:39 09.04.2020
5209 Clear 16 1024 63 10000 3.1 90 00:19 09.04.2020
5210 Clear 16 1024 63 10000 3.1 90 00:19 09.04.2020
5211 Clear 16 1024 63 10000 3.1 90 23:55 08.04.2020
5212 Clear 17 1024 63 10000 3.1 90 23:37 08.04.2020
5213 Clear 17 1024 63 10000 4.1 90 23:19 08.04.2020
5214 Clear 18 1024 63 10000 4.1 90 22:42 08.04.2020
5215 Clear 18 1024 63 10000 5.7 110 22:23 08.04.2020
5216 Clear 18 1024 63 10000 5.7 110 21:56 08.04.2020
5217 Clear 19 1024 63 10000 5.7 110 21:37 08.04.2020
5218 Clear 19 1024 63 10000 5.7 110 21:19 08.04.2020
5219 Clear 18 1025 55 10000 5.1 70 20:54 08.04.2020
5220 Clear 18 1025 55 10000 5.1 70 20:54 08.04.2020
5221 Clear 18 1025 55 10000 5.1 70 20:54 08.04.2020
5222 Clear 18 1025 55 10000 5.1 70 20:36 08.04.2020
5223 Clear 18 1025 55 10000 5.1 70 20:18 08.04.2020
5224 Clear 18 1025 55 10000 4.1 80 19:41 08.04.2020
5225 Clear 18 1025 55 10000 4.1 80 19:21 08.04.2020
5226 Clear 18 1026 51 10000 4.1 100 19:21 08.04.2020
5227 Clear 17 1026 51 10000 4.1 100 18:55 08.04.2020
5228 Clear 17 1026 51 10000 4.1 100 18:37 08.04.2020
5229 Clear 17 1027 48 10000 3.6 200 18:19 08.04.2020
5230 Clear 17 1027 48 10000 3.6 200 18:19 08.04.2020
5231 Clear 16 1027 48 10000 3.6 200 17:42 08.04.2020
5232 Clear 16 1027 48 10000 3.6 200 17:20 08.04.2020
5233 Clear 15 1027 54 10000 3.1 160 16:57 08.04.2020
5234 Clear 15 1027 54 10000 3.1 160 16:39 08.04.2020
5235 Clear 15 1027 54 10000 1.5 160 16:19 08.04.2020
5236 Clear 14 1027 62 10000 2.1 160 15:39 08.04.2020
5237 Clear 13 1027 62 10000 2.1 160 15:21 08.04.2020
5238 Clear 13 1027 62 10000 2.1 160 14:57 08.04.2020
5239 Clear 13 1027 62 10000 2.1 160 14:39 08.04.2020
5240 Clear 12 1027 62 10000 2.1 160 14:21 08.04.2020
5241 Clear 11 1026 66 10000 1 200 13:44 08.04.2020
5242 Clear 11 1026 66 10000 1 200 13:21 08.04.2020
5243 Clear 9 1026 71 10000 1.5 200 12:54 08.04.2020
5244 Clear 9 1026 71 10000 1.5 200 12:36 08.04.2020
5245 Clear 8 1026 71 10000 1.5 200 12:18 08.04.2020
5246 Clear 8 1026 71 10000 1 200 11:41 08.04.2020
5247 Clear 8 1026 71 10000 1 200 11:41 08.04.2020
5248 Clear 9 1026 71 10000 1 200 11:22 08.04.2020
5249 Clear 9 1026 62 10000 1 0 10:58 08.04.2020
5250 Clear 9 1026 62 10000 1 0 10:39 08.04.2020
5251 Clear 10 1026 62 10000 1 0 10:20 08.04.2020
5252 Clear 10 1026 62 10000 2.6 160 09:56 08.04.2020
5253 Clear 10 1026 62 10000 2.6 160 09:38 08.04.2020
5254 Clear 10 1026 62 10000 2.6 160 09:18 08.04.2020
5255 Clear 10 1026 66 10000 2.6 150 08:42 08.04.2020
5256 Clear 10 1026 66 10000 2.6 150 08:23 08.04.2020
5257 Clear 11 1026 62 10000 3.1 150 07:57 08.04.2020
5258 Clear 11 1026 62 10000 3.1 150 07:39 08.04.2020
5259 Clear 11 1025 62 10000 1 0 07:19 08.04.2020
5260 Clear 11 1025 58 10000 1 0 06:21 08.04.2020
5261 Clear 12 1025 54 10000 1.5 150 04:20 08.04.2020
5262 Clear 14 1025 51 10000 2.6 160 02:49 08.04.2020
5263 Clear 14 1025 51 10000 2.6 160 02:20 08.04.2020
5264 Clear 14 1024 48 10000 2.1 160 01:51 08.04.2020
5265 Clear 15 1024 48 10000 2.1 160 01:27 08.04.2020
5266 Clear 15 1024 45 10000 3.6 150 00:41 08.04.2020
5267 Clear 16 1024 45 10000 3.6 150 00:22 08.04.2020
5268 Clear 17 1024 42 10000 2.1 170 23:40 07.04.2020
5269 Clear 17 1024 42 10000 2.1 170 23:21 07.04.2020
5270 Clouds 18 1024 42 10000 4.1 150 22:57 07.04.2020
5271 Clouds 18 1024 42 10000 4.1 150 22:39 07.04.2020
5272 Clouds 18 1024 42 10000 4.1 150 22:19 07.04.2020
5273 Clouds 18 1025 42 10000 2.6 210 21:56 07.04.2020
5274 Clouds 18 1025 42 10000 2.6 210 21:56 07.04.2020
5275 Clouds 18 1025 42 10000 2.6 210 21:38 07.04.2020
5276 Clouds 18 1025 42 10000 2.6 210 21:19 07.04.2020
5277 Clouds 18 1025 42 10000 2.6 190 20:56 07.04.2020
5278 Clouds 19 1025 42 10000 2.6 190 20:37 07.04.2020
5279 Clouds 18 1025 42 10000 2.6 190 20:19 07.04.2020
5280 Clouds 18 1025 42 10000 2.6 150 19:56 07.04.2020
5281 Clouds 18 1025 42 10000 2.6 150 19:36 07.04.2020
5282 Clouds 18 1026 42 10000 2.1 210 19:18 07.04.2020
5283 Clouds 18 1026 42 10000 2.1 210 18:42 07.04.2020
5284 Clouds 17 1026 42 10000 2.1 210 18:22 07.04.2020
5285 Clouds 17 1026 48 10000 3.6 190 17:59 07.04.2020
5286 Clouds 17 1026 48 10000 3.6 190 17:40 07.04.2020
5287 Clouds 17 1026 48 10000 3.6 190 17:20 07.04.2020
5288 Clouds 17 1026 48 10000 3.6 190 17:20 07.04.2020
5289 Clouds 16 1026 51 10000 2.1 180 16:45 07.04.2020
5290 Clouds 16 1026 51 10000 2.1 180 16:26 07.04.2020
5291 Clear 14 1026 58 10000 2.6 210 15:46 07.04.2020
5292 Clear 13 1026 62 10000 2.1 200 15:27 07.04.2020
5293 Clear 13 1026 62 10000 2.1 200 14:57 07.04.2020
5294 Clear 12 1026 62 10000 2.1 200 14:38 07.04.2020
5295 Clear 12 1026 62 10000 2.1 200 14:20 07.04.2020
5296 Clear 10 1025 66 10000 2.1 210 13:43 07.04.2020
5297 Clear 10 1025 66 10000 2.1 210 13:20 07.04.2020
5298 Clear 9 1025 71 10000 1.5 0 12:58 07.04.2020
5299 Clear 9 1025 71 10000 1.5 0 12:39 07.04.2020
5300 Clear 9 1025 71 10000 1.5 0 12:21 07.04.2020
5301 Clear 9 1024 71 10000 2.1 200 11:58 07.04.2020
5302 Clear 9 1024 71 10000 2.1 200 11:40 07.04.2020
5303 Clear 9 1024 71 10000 2.1 200 11:19 07.04.2020
5304 Clear 9 1024 62 10000 2.6 200 10:39 07.04.2020
5305 Clear 10 1023 62 10000 2.6 200 10:21 07.04.2020
5306 Clear 10 1023 62 10000 2.6 200 09:56 07.04.2020
5307 Clear 10 1023 62 10000 2.6 200 09:38 07.04.2020
5308 Clear 10 1023 62 10000 2.6 200 09:18 07.04.2020
5309 Clear 10 1024 66 10000 2.1 180 08:40 07.04.2020
5310 Clear 11 1024 66 10000 2.1 180 08:21 07.04.2020
5311 Clear 11 1024 62 10000 2.6 200 07:46 07.04.2020
5312 Clear 11 1024 62 10000 2.6 200 07:26 07.04.2020
5313 Clear 11 1024 58 10000 2.6 190 06:53 07.04.2020
5314 Clear 11 1024 58 10000 2.6 190 06:26 07.04.2020
5315 Clear 11 1024 54 10000 2.6 200 05:56 07.04.2020
5316 Clear 12 1024 54 10000 2.6 200 05:26 07.04.2020
5317 Clear 12 1024 50 10000 2.6 200 04:18 07.04.2020
5318 Clear 13 1023 44 10000 3.1 190 03:21 07.04.2020
5319 Clear 14 1022 41 10000 2.1 200 02:45 07.04.2020
5320 Clear 15 1022 37 10000 3.6 200 01:38 07.04.2020
5321 Clear 15 1021 37 10000 3.6 200 01:20 07.04.2020
5322 Clear 16 1021 31 10000 3.6 200 00:25 07.04.2020
5323 Clear 17 1021 31 10000 3.6 230 23:42 06.04.2020
5324 Clear 18 1021 31 10000 3.6 230 23:21 06.04.2020
5325 Clear 18 1021 34 10000 7.7 200 22:54 06.04.2020
5326 Clear 18 1021 31 10000 4.6 220 22:36 06.04.2020
5327 Clear 19 1020 29 10000 4.6 210 22:18 06.04.2020
5328 Clear 19 1020 29 10000 4.6 210 21:43 06.04.2020
5329 Clear 19 1020 29 10000 4.6 210 21:20 06.04.2020
5330 Clear 19 1020 29 10000 4.6 210 20:57 06.04.2020
5331 Clear 19 1020 29 10000 4.6 210 20:39 06.04.2020
5332 Clear 19 1020 29 10000 4.6 210 20:39 06.04.2020
5333 Clear 19 1020 29 10000 4.6 210 20:21 06.04.2020
5334 Clear 19 1020 29 10000 5.1 210 19:57 06.04.2020
5335 Clear 19 1020 29 10000 5.1 210 19:38 06.04.2020
5336 Clouds 19 1020 32 10000 5.1 180 19:20 06.04.2020
5337 Clouds 19 1020 32 10000 5.1 180 18:42 06.04.2020
5338 Clouds 19 1020 32 10000 5.1 180 18:23 06.04.2020
5339 Clouds 19 1020 45 10000 4.1 170 17:57 06.04.2020
5340 Clouds 18 1020 45 10000 4.1 170 17:39 06.04.2020
5341 Clouds 18 1020 45 10000 4.1 170 17:18 06.04.2020
5342 Clouds 17 1020 55 10000 4.1 190 16:47 06.04.2020
5343 Clouds 17 1020 55 10000 4.1 190 16:29 06.04.2020
5344 Clear 16 1018 72 10000 4.1 180 14:46 06.04.2020
5345 Clear 16 1018 72 10000 4.1 180 14:46 06.04.2020
5346 Clear 16 1018 72 10000 4.1 180 14:46 06.04.2020
5347 Clear 16 1018 72 10000 4.1 180 14:46 06.04.2020
5348 Clear 16 1018 72 10000 4.1 180 14:46 06.04.2020
5349 Clouds 15 1017 77 10000 4.1 190 13:44 06.04.2020
5350 Clouds 15 1017 77 10000 4.1 190 13:22 06.04.2020
5351 Clear 15 1015 67 10000 4.6 190 12:46 06.04.2020
5352 Clear 15 1015 67 10000 4.6 190 12:46 06.04.2020
5353 Clear 15 1015 67 10000 4.6 190 12:46 06.04.2020
5354 Clear 15 1015 67 10000 4.6 190 12:46 06.04.2020
5355 Clear 15 1015 67 10000 4.6 190 12:46 06.04.2020
5356 Clear 15 1015 67 10000 4.6 190 12:19 06.04.2020
5357 Clear 14 1015 67 10000 4.6 190 12:19 06.04.2020
5358 Clear 15 1015 67 10000 4.6 190 12:19 06.04.2020
5359 Clear 15 1013 59 10000 4.6 210 11:40 06.04.2020
5360 Clear 17 1012 77 10000 2.1 230 10:56 06.04.2020
5361 Clear 17 1012 77 10000 2.1 230 10:37 06.04.2020
5362 Clear 18 1012 77 10000 2.1 230 10:19 06.04.2020
5363 Clear 18 1012 77 10000 2.1 230 10:19 06.04.2020
5364 Clear 18 1012 77 10000 2.1 230 10:19 06.04.2020
5365 Clear 18 1012 77 10000 2.1 230 10:19 06.04.2020
5366 Clear 18 1012 77 10000 2.1 230 10:19 06.04.2020
5367 Clear 17 1012 82 10000 2.1 270 09:38 06.04.2020
5368 Clear 17 1012 82 10000 2.1 270 09:38 06.04.2020
5369 Clear 17 1012 82 10000 2.1 270 09:38 06.04.2020
5370 Clear 17 1012 82 10000 2.1 270 09:38 06.04.2020
5371 Clouds 18 1011 72 10000 3.1 250 09:19 06.04.2020
5372 Clouds 18 1012 88 10000 2.6 270 08:43 06.04.2020
5373 Clouds 18 1012 88 10000 2.6 270 08:43 06.04.2020
5374 Clouds 18 1012 88 10000 2.6 270 08:43 06.04.2020
5375 Clouds 18 1012 88 10000 2.6 270 08:43 06.04.2020
5376 Clouds 19 1011 77 10000 1.5 270 07:59 06.04.2020
5377 Clouds 18 1011 77 10000 1.5 270 07:59 06.04.2020
5378 Clouds 19 1011 77 10000 1.5 270 07:20 06.04.2020
5379 Clouds 19 1011 88 10000 1 300 06:26 06.04.2020
5380 Rain 19 1011 94 10000 1 270 05:43 06.04.2020
5381 Rain 19 1011 94 10000 1 270 05:43 06.04.2020
5382 Rain 19 1011 94 10000 1 270 05:43 06.04.2020
5383 Rain 20 1011 78 10000 1.5 340 03:35 06.04.2020
5384 Rain 20 1010 77 10000 0.5 10 02:49 06.04.2020
5385 Rain 21 1010 78 10000 1 0 01:53 06.04.2020
5386 Rain 22 1009 73 10000 1 340 00:52 06.04.2020
5387 Rain 22 1009 73 10000 1 340 00:27 06.04.2020
5388 Rain 22 1009 73 10000 1 340 00:27 06.04.2020
5389 Clouds 22 1009 68 10000 1.5 330 23:50 05.04.2020
5390 Clouds 22 1009 68 10000 1.5 330 23:32 05.04.2020
5391 Clouds 22 1009 68 10000 1.5 330 23:32 05.04.2020
5392 Clouds 22 1009 68 10000 1.5 330 23:32 05.04.2020
5393 Clouds 23 1009 64 10000 2.6 330 22:56 05.04.2020
5394 Clouds 23 1009 64 10000 2.6 330 22:38 05.04.2020
5395 Clouds 23 1009 64 10000 2.6 330 22:38 05.04.2020
5396 Clouds 23 1009 64 10000 2.6 330 22:19 05.04.2020
5397 Clouds 24 1009 64 10000 4.1 340 21:58 05.04.2020
5398 Clouds 24 1009 64 10000 4.1 340 21:39 05.04.2020
5399 Clouds 24 1009 64 10000 4.1 340 21:21 05.04.2020
5400 Clouds 24 1009 69 10000 2.1 350 20:20 05.04.2020
5401 Clouds 24 1010 64 10000 2.1 340 19:41 05.04.2020
5402 Clouds 24 1010 64 10000 2.1 340 19:22 05.04.2020
5403 Clouds 24 1011 68 10000 1.5 340 18:46 05.04.2020
5404 Clouds 24 1011 68 10000 1.5 340 18:46 05.04.2020
5405 Clouds 23 1011 64 10000 3.1 350 17:58 05.04.2020
5406 Clouds 23 1011 64 10000 3.1 350 17:58 05.04.2020
5407 Clouds 24 1011 64 10000 3.1 350 17:39 05.04.2020
5408 -273 0 0 0 0 0 17:20 05.04.2020
5409 Clouds 24 1011 64 10000 3.1 350 17:20 05.04.2020
5410 Clouds 22 1011 68 10000 2.6 350 16:46 05.04.2020
5411 Clouds 22 1011 68 10000 2.6 350 16:46 05.04.2020
5412 Clouds 22 1011 68 10000 2.6 350 16:46 05.04.2020
5413 Clouds 22 1011 68 10000 2.6 350 16:46 05.04.2020
5414 Clouds 22 1011 68 10000 2.6 350 16:46 05.04.2020
5415 Clouds 22 1011 68 10000 2.6 350 16:18 05.04.2020
5416 Clouds 21 1011 68 10000 2.1 320 15:44 05.04.2020
5417 Clouds 21 1011 72 10000 2.6 320 15:25 05.04.2020
5418 Clouds 21 1011 72 10000 2.6 320 15:25 05.04.2020
5419 Clouds 20 1011 72 10000 2.6 320 14:47 05.04.2020
5420 Clouds 20 1011 72 10000 2.6 320 14:47 05.04.2020
5421 Clouds 20 1011 72 10000 2.6 320 14:47 05.04.2020
5422 Clouds 20 1011 72 10000 2.6 320 14:47 05.04.2020
5423 Clouds 20 1011 72 10000 2.6 320 14:47 05.04.2020
5424 Clouds 18 1010 72 10000 3.1 330 13:45 05.04.2020
5425 Clouds 15 1010 77 10000 1.5 290 12:56 05.04.2020
5426 Clouds 16 1010 72 10000 3.1 330 11:58 05.04.2020
5427 Clouds 16 1010 72 10000 3.1 330 11:58 05.04.2020
5428 Clouds 16 1010 72 10000 3.1 330 11:58 05.04.2020
5429 Clouds 16 1010 72 10000 3.1 330 11:58 05.04.2020
5430 Clouds 16 1010 72 10000 3.1 330 11:58 05.04.2020
5431 Clouds 16 1010 72 10000 3.1 330 11:37 05.04.2020
5432 Clouds 16 1010 72 10000 3.1 330 11:18 05.04.2020
5433 Clouds 16 1010 77 10000 3.6 330 10:42 05.04.2020
5434 Clouds 16 1010 77 10000 3.6 330 10:19 05.04.2020
5435 Clouds 16 1010 77 10000 3.6 330 10:19 05.04.2020
5436 Clouds 16 1010 77 10000 2.6 310 09:44 05.04.2020
5437 Clouds 16 1010 77 10000 2.6 310 09:24 05.04.2020
5438 Clear 16 1010 77 10000 2.6 310 09:24 05.04.2020
5439 Clear 16 1010 77 10000 2.6 310 09:24 05.04.2020
5440 Clear 16 1010 77 10000 2.6 310 09:24 05.04.2020
5441 Clouds 16 1010 77 10000 2.6 310 09:24 05.04.2020
5442 Clear 17 1011 68 10000 3.1 340 07:44 05.04.2020
5443 Clear 17 1011 68 10000 3.1 340 07:44 05.04.2020
5444 Clear 18 1011 77 10000 1 290 04:40 05.04.2020
5445 Clear 18 1010 72 10000 2.1 320 03:33 05.04.2020
5446 Clear 19 1010 64 10000 2.1 320 02:52 05.04.2020
5447 Clear 21 1010 56 10000 3.1 340 01:48 05.04.2020
5448 Clear 21 1010 56 10000 3.1 340 01:28 05.04.2020
5449 Clear 21 1010 56 10000 2.6 340 00:44 05.04.2020
5450 Clear 22 1010 56 10000 2.6 340 00:21 05.04.2020
5451 Clear 22 1010 56 10000 3.1 350 23:55 04.04.2020
5452 Clear 22 1010 56 10000 3.1 350 23:55 04.04.2020
5453 Clear 23 1010 56 10000 3.1 350 23:37 04.04.2020
5454 Clear 24 1010 56 10000 3.1 350 23:19 04.04.2020
5455 Clear 25 1010 50 10000 3.6 360 22:40 04.04.2020
5456 Clear 25 1010 50 10000 3.6 360 22:21 04.04.2020
5457 Clear 25 1010 44 10000 4.1 350 21:58 04.04.2020
5458 Clear 25 1010 44 10000 4.1 350 21:39 04.04.2020
5459 Clear 25 1010 44 10000 4.1 350 21:19 04.04.2020
5460 Clear 25 1010 44 10000 4.6 360 20:58 04.04.2020
5461 Clear 25 1010 44 10000 4.6 360 20:58 04.04.2020
5462 Clear 25 1010 44 10000 4.6 360 20:39 04.04.2020
5463 Clear 25 1010 44 10000 4.6 360 20:20 04.04.2020
5464 Clear 24 1011 46 10000 4.6 350 19:57 04.04.2020
5465 Clear 24 1011 46 10000 4.6 350 19:37 04.04.2020
5466 Clear 24 1011 46 10000 4.6 350 19:19 04.04.2020
5467 Clear 24 1012 49 10000 5.1 350 18:55 04.04.2020
5468 Clear 24 1012 49 10000 5.1 350 18:37 04.04.2020
5469 Clear 23 1012 49 10000 5.1 350 18:18 04.04.2020
5470 Clear 23 1012 49 10000 4.6 350 17:40 04.04.2020
5471 Clear 22 1012 49 10000 4.6 350 17:20 04.04.2020
5472 Clear 22 1013 68 10000 4.6 340 16:55 04.04.2020
5473 Clear 22 1013 68 10000 4.6 340 16:37 04.04.2020
5474 Clear 22 1013 68 10000 4.6 340 16:37 04.04.2020
5475 Clear 22 1013 68 10000 4.6 340 16:18 04.04.2020
5476 Clear 20 1013 72 10000 3.6 330 15:40 04.04.2020
5477 Clear 21 1013 72 10000 3.6 330 15:40 04.04.2020
5478 Clouds 19 1013 72 10000 3.6 330 15:22 04.04.2020
5479 Clouds 18 1013 82 10000 5.1 330 14:57 04.04.2020
5480 Clouds 18 1013 82 10000 5.1 330 14:57 04.04.2020
5481 Clouds 18 1013 82 10000 5.1 330 14:39 04.04.2020
5482 Clouds 18 1013 82 10000 5.1 330 14:20 04.04.2020
5483 Clouds 17 1013 82 10000 5.7 330 13:55 04.04.2020
5484 Clouds 16 1013 82 10000 5.7 330 13:37 04.04.2020
5485 Clouds 16 1013 82 10000 5.7 330 13:18 04.04.2020
5486 Clouds 15 1012 77 10000 5.7 340 12:43 04.04.2020
5487 Clouds 15 1012 77 10000 5.7 340 12:23 04.04.2020
5488 Clouds 15 1012 82 10000 4.6 340 11:55 04.04.2020
5489 Clouds 15 1012 82 10000 4.6 340 11:36 04.04.2020
5490 Clouds 15 1012 82 10000 4.6 340 11:18 04.04.2020
5491 Clouds 15 1012 77 10000 5.1 350 10:55 04.04.2020
5492 Clouds 15 1012 77 10000 5.1 350 10:37 04.04.2020
5493 Clouds 15 1012 77 10000 5.1 350 10:18 04.04.2020
5494 Clouds 15 1012 72 10000 4.1 360 09:44 04.04.2020
5495 Clouds 15 1012 72 10000 4.1 360 09:25 04.04.2020
5496 Clouds 15 1013 72 10000 3.6 30 08:58 04.04.2020
5497 Clouds 15 1013 72 10000 3.6 30 08:38 04.04.2020
5498 Clouds 16 1013 72 10000 3.6 30 08:19 04.04.2020
5499 Clouds 16 1013 72 10000 4.1 40 07:40 04.04.2020
5500 Clouds 16 1013 72 10000 4.1 40 07:22 04.04.2020
5501 Clouds 16 1013 68 10000 4.1 40 06:46 04.04.2020
5502 Clear 16 1013 72 10000 3.6 40 05:57 04.04.2020
5503 Clear 16 1013 72 10000 3.6 40 05:39 04.04.2020
5504 Clear 16 1013 72 10000 3.6 40 05:21 04.04.2020
5505 Clear 16 1014 72 10000 4.1 50 04:24 04.04.2020
5506 Clear 17 1014 72 10000 3.6 60 03:45 04.04.2020
5507 Clear 17 1014 68 10000 2.6 60 02:49 04.04.2020
5508 Clear 18 1014 68 10000 2.6 60 02:30 04.04.2020
5509 Clear 18 1014 68 10000 2.1 60 01:50 04.04.2020
5510 Clear 18 1014 68 10000 2.1 60 01:22 04.04.2020
5511 Clear 18 1014 68 10000 2.1 50 00:47 04.04.2020
5512 Clear 19 1014 68 10000 2.1 50 00:26 04.04.2020
5513 Clear 20 1015 64 10000 2.1 50 23:39 03.04.2020
5514 Clear 21 1015 64 10000 2.1 50 23:20 03.04.2020
5515 Clouds 22 1016 64 10000 2.6 40 22:55 03.04.2020
5516 Clouds 22 1016 64 10000 2.6 40 22:36 03.04.2020
5517 Clouds 22 1016 64 10000 2.6 40 22:18 03.04.2020
5518 Clouds 22 1016 64 10000 2.6 40 21:42 03.04.2020
5519 Clouds 22 1016 64 10000 2.6 40 21:22 03.04.2020
5520 Clouds 22 1017 64 10000 3.1 50 20:56 03.04.2020
5521 Clouds 22 1017 64 10000 3.1 50 20:36 03.04.2020
5522 Clouds 22 1017 64 10000 3.1 50 20:18 03.04.2020
5523 Clouds 22 1017 64 10000 3.1 50 20:18 03.04.2020
5524 Clouds 22 1018 64 10000 3.1 50 19:56 03.04.2020
5525 Clouds 22 1018 64 10000 3.1 50 19:37 03.04.2020
5526 Clouds 21 1018 64 10000 3.1 50 19:19 03.04.2020
5527 Clouds 22 1019 64 10000 3.6 60 18:58 03.04.2020
5528 Clouds 22 1019 64 10000 3.6 60 18:40 03.04.2020
5529 Clouds 22 1019 64 10000 3.6 60 18:21 03.04.2020
5530 Clouds 21 1019 64 10000 2.6 60 17:42 03.04.2020
5531 Clouds 20 1019 64 10000 2.6 60 17:20 03.04.2020
5532 Clear 20 1019 63 10000 2.1 150 16:56 03.04.2020
5533 Clear 20 1019 63 10000 2.1 150 16:38 03.04.2020
5534 Clear 19 1019 63 10000 2.1 150 16:20 03.04.2020
5535 Clear 18 1019 67 10000 2.6 200 15:56 03.04.2020
5536 Clear 18 1019 67 10000 2.6 200 15:37 03.04.2020
5537 Clear 16 1019 67 10000 2.6 200 15:19 03.04.2020
5538 Clear 15 1035 78 0 1.34 259 14:40 03.04.2020
5539 Clear 14 1019 82 10000 2.1 200 14:22 03.04.2020
5540 Clear 14 1019 82 10000 2.1 200 13:54 03.04.2020
5541 Clear 13 1019 82 10000 2.1 200 13:36 03.04.2020
5542 Clear 12 1019 82 10000 2.1 200 13:18 03.04.2020
5543 Clear 11 1019 82 10000 2.6 200 12:42 03.04.2020
5544 Clear 11 1019 82 10000 2.6 200 12:19 03.04.2020
5545 Clear 10 1019 87 10000 2.6 200 11:56 03.04.2020
5546 Clear 10 1019 87 10000 2.6 200 11:37 03.04.2020
5547 Clear 10 1019 87 10000 2.6 200 11:18 03.04.2020
5548 Clear 11 1019 93 10000 1.5 0 10:57 03.04.2020
5549 Clear 11 1019 93 10000 1.5 0 10:57 03.04.2020
5550 Clear 11 1019 71 10000 2.1 200 10:38 03.04.2020
5551 Clear 11 1019 71 10000 2.1 200 10:19 03.04.2020
5552 Clear 12 1019 71 10000 2.6 170 09:56 03.04.2020
5553 Clear 11 1019 81 10000 2.6 180 09:37 03.04.2020
5554 Clear 12 1019 71 10000 2.6 170 09:19 03.04.2020
5555 Clear 12 1020 67 10000 2.1 190 08:44 03.04.2020
5556 Clear 12 1020 67 10000 2.1 190 08:24 03.04.2020
5557 Clear 13 1020 67 10000 3.1 180 07:55 03.04.2020
5558 Clear 13 1020 67 10000 3.1 180 07:33 03.04.2020
5559 Clear 13 1020 67 10000 6.2 160 06:58 03.04.2020
5560 Clear 14 1020 67 10000 6.2 160 06:28 03.04.2020
5561 Clear 14 1020 59 10000 6.2 160 05:42 03.04.2020
5562 Clear 15 1020 48 10000 5.1 160 04:18 03.04.2020
5563 Clear 16 1020 52 10000 1 180 03:32 03.04.2020
5564 Clouds 17 1020 52 10000 4.1 200 02:31 03.04.2020
5565 Clouds 18 1019 52 10000 3.1 180 01:24 03.04.2020
5566 Clouds 19 1019 49 10000 4.1 180 00:46 03.04.2020
5567 Clouds 19 1019 49 10000 4.1 180 00:27 03.04.2020
5568 Clouds 20 1019 43 10000 3.6 200 23:43 02.04.2020
5569 Clouds 21 1019 43 10000 3.6 200 23:24 02.04.2020
5570 Clouds 21 1019 43 10000 3.6 200 23:24 02.04.2020
5571 Clouds 21 1019 46 10000 4.1 190 22:59 02.04.2020
5572 Clouds 21 1019 46 10000 4.1 190 22:41 02.04.2020
5573 Clouds 22 1019 46 10000 4.1 190 22:21 02.04.2020
5574 Clouds 22 1018 40 10000 4.6 200 21:55 02.04.2020
5575 Clouds 22 1018 40 10000 4.6 200 21:36 02.04.2020
5576 Clouds 22 1018 40 10000 4.6 200 21:18 02.04.2020
5577 Clouds 22 1018 40 10000 3.6 200 20:42 02.04.2020
5578 Clouds 22 1018 40 10000 3.6 200 20:23 02.04.2020
5579 Clouds 22 1019 43 10000 5.1 190 19:55 02.04.2020
5580 Clouds 22 1019 43 10000 5.1 190 19:37 02.04.2020
5581 Clouds 21 1019 43 10000 5.1 190 19:18 02.04.2020
5582 Clouds 21 1019 49 10000 4.6 220 18:41 02.04.2020
5583 Clouds 21 1019 49 10000 4.6 220 18:21 02.04.2020
5584 Clouds 20 1019 55 10000 4.1 220 17:57 02.04.2020
5585 Clouds 20 1019 55 10000 4.1 220 17:39 02.04.2020
5586 Clouds 20 1019 55 10000 4.1 220 17:20 02.04.2020
5587 Clouds 19 1019 59 10000 4.6 200 16:56 02.04.2020
5588 Clouds 19 1019 59 10000 4.6 200 16:37 02.04.2020
5589 Clouds 19 1019 59 10000 4.6 200 16:19 02.04.2020
5590 Clouds 18 1019 63 10000 4.6 200 15:45 02.04.2020
5591 Clouds 17 1019 63 10000 4.6 200 15:22 02.04.2020
5592 Clouds 16 1019 72 10000 3.6 200 14:59 02.04.2020
5593 Clouds 16 1019 72 10000 3.6 200 14:40 02.04.2020
5594 Clouds 16 1019 72 10000 3.6 200 14:20 02.04.2020
5595 Clouds 16 1018 77 10000 4.1 200 13:58 02.04.2020
5596 Clouds 15 1018 77 10000 4.1 200 13:39 02.04.2020
5597 Clouds 15 1018 77 10000 4.1 200 13:20 02.04.2020
5598 Clouds 14 1017 82 10000 3.6 220 12:56 02.04.2020
5599 Clouds 14 1017 82 10000 3.6 220 12:37 02.04.2020
5600 Clouds 14 1017 82 10000 3.6 220 12:19 02.04.2020
5601 Clouds 13 1017 82 10000 6.2 180 11:56 02.04.2020
5602 Clouds 13 1017 82 10000 6.2 180 11:37 02.04.2020
5603 Clouds 13 1017 82 10000 6.2 180 11:37 02.04.2020
5604 Clouds 14 1017 82 10000 6.2 180 11:18 02.04.2020
5605 Clouds 14 1016 82 10000 3.6 210 10:54 02.04.2020
5606 Clouds 14 1016 82 10000 3.6 210 10:36 02.04.2020
5607 Clouds 14 1016 82 10000 3.6 210 10:36 02.04.2020
5608 Clouds 14 1016 82 10000 3.6 210 10:18 02.04.2020
5609 Clouds 15 1015 77 10000 4.6 200 09:42 02.04.2020
5610 Clouds 15 1015 77 10000 4.6 200 09:24 02.04.2020
5611 Clouds 15 1015 82 10000 5.1 210 08:58 02.04.2020
5612 Clouds 15 1015 82 10000 5.1 210 08:39 02.04.2020
5613 Clouds 15 1015 82 10000 5.1 210 08:19 02.04.2020
5614 Clouds 16 1015 82 10000 7.2 180 07:42 02.04.2020
5615 Clouds 16 1015 87 10000 7.2 220 07:19 02.04.2020
5616 Clouds 17 1014 82 10000 6.7 200 06:46 02.04.2020
5617 Clouds 17 1014 82 10000 6.7 200 06:20 02.04.2020
5618 Clouds 18 1013 82 10000 3.6 200 05:42 02.04.2020
5619 Clouds 21 1013 83 10000 2.6 230 02:59 02.04.2020
5620 Rain 22 1012 88 10000 3.1 200 01:31 02.04.2020
5621 Clouds 23 1011 78 10000 1 0 00:42 02.04.2020
5622 Clouds 23 1011 78 10000 1 0 00:24 02.04.2020
5623 Rain 23 1011 83 10000 0.5 170 23:41 01.04.2020
5624 Rain 23 1011 83 10000 0.5 170 23:20 01.04.2020
5625 Clouds 24 1011 83 10000 2.6 100 22:58 01.04.2020
5626 Clouds 24 1011 83 10000 2.6 100 22:58 01.04.2020
5627 Clouds 24 1011 83 10000 2.6 100 22:39 01.04.2020
5628 Clouds 24 1011 83 10000 2.6 100 22:21 01.04.2020
5629 Clouds 25 1011 83 10000 1.5 100 21:42 01.04.2020
5630 Clouds 25 1011 83 10000 1.5 100 21:22 01.04.2020
5631 Clouds 25 1011 78 10000 2.1 20 20:58 01.04.2020
5632 Clouds 25 1011 78 10000 2.1 20 20:58 01.04.2020
5633 Clouds 25 1011 78 10000 2.1 20 20:40 01.04.2020
5634 Clouds 25 1011 78 10000 2.1 20 20:21 01.04.2020
5635 Clouds 24 1012 83 10000 3.1 40 20:00 01.04.2020
5636 Clouds 24 1012 83 10000 3.1 40 19:41 01.04.2020
5637 Clouds 24 1012 83 10000 3.1 40 19:20 01.04.2020
5638 Clouds 23 1013 83 10000 5.1 60 18:44 01.04.2020
5639 Clouds 23 1013 83 10000 5.1 60 18:26 01.04.2020
5640 Clouds 22 1014 88 10000 3.1 100 17:58 01.04.2020
5641 Clouds 22 1014 88 10000 3.1 100 17:38 01.04.2020
5642 Clouds 21 1014 88 10000 3.1 100 17:19 01.04.2020
5643 Clouds 21 1014 94 10000 2.6 160 16:58 01.04.2020
5644 Clouds 21 1014 94 10000 2.6 160 16:58 01.04.2020
5645 Clouds 20 1014 94 10000 2.6 160 16:39 01.04.2020
5646 Rain 20 1014 94 10000 2.6 160 16:21 01.04.2020
5647 Rain 20 1015 94 4000 2.1 180 15:57 01.04.2020
5648 Rain 20 1015 94 4000 2.1 180 15:57 01.04.2020
5649 Rain 20 1013 88 5000 5.1 330 15:38 01.04.2020
5650 Rain 20 1013 88 5000 5.1 330 15:18 01.04.2020
5651 Clouds 20 1013 88 10000 4.1 330 14:55 01.04.2020
5652 Clouds 20 1013 88 10000 4.1 330 14:55 01.04.2020
5653 Clouds 21 1013 88 10000 4.1 330 14:36 01.04.2020
5654 Clouds 21 1013 88 10000 4.1 330 14:18 01.04.2020
5655 Clouds 20 1013 88 10000 5.1 340 13:55 01.04.2020
5656 Clouds 20 1013 88 10000 5.1 340 13:36 01.04.2020
5657 Clouds 20 1013 88 10000 5.1 340 13:18 01.04.2020
5658 Clouds 20 1013 88 10000 5.7 360 12:42 01.04.2020
5659 Clouds 20 1013 88 10000 5.7 360 12:23 01.04.2020
5660 Clouds 20 1012 83 10000 6.2 360 11:59 01.04.2020
5661 Clouds 20 1012 83 10000 6.2 360 11:59 01.04.2020
5662 Clouds 20 1012 83 10000 6.2 360 11:39 01.04.2020
5663 Clouds 20 1012 83 10000 6.2 360 11:20 01.04.2020
5664 Clouds 20 1013 83 10000 5.1 10 10:41 01.04.2020
5665 Clouds 20 1013 83 10000 5.1 10 10:22 01.04.2020
5666 Clouds 20 1013 83 10000 5.1 30 09:59 01.04.2020
5667 Clouds 21 1013 83 10000 5.1 30 09:40 01.04.2020
5668 Clouds 20 1013 83 10000 5.1 30 09:21 01.04.2020
5669 Clouds 21 1015 78 10000 4.6 40 08:56 01.04.2020
5670 Clouds 20 1014 77 10000 4.1 40 08:37 01.04.2020
5671 Clouds 21 1014 77 10000 4.1 40 08:18 01.04.2020
5672 Clouds 21 1015 73 10000 5.7 40 07:41 01.04.2020
5673 Clouds 21 1015 73 10000 5.7 40 07:19 01.04.2020
5674 Clouds 21 1016 73 10000 6.7 40 06:43 01.04.2020
5675 Clouds 22 1016 73 10000 6.7 40 06:21 01.04.2020
5676 Clouds 22 1016 78 10000 6.2 70 05:41 01.04.2020
5677 Clouds 22 1016 78 10000 7.2 90 04:29 01.04.2020
5678 Clouds 22 1016 83 10000 9.8 100 03:20 01.04.2020
5679 Clouds 22 1016 83 10000 8.7 110 02:37 01.04.2020
5680 Clouds 22 1016 83 10000 7.7 110 01:53 01.04.2020
5681 Clouds 22 1016 83 10000 7.7 110 01:25 01.04.2020
5682 Clouds 22 1016 83 10000 8.2 110 00:47 01.04.2020
5683 Clouds 22 1016 83 10000 8.2 110 00:22 01.04.2020
5684 Clouds 22 1016 83 10000 8.7 110 23:57 31.03.2020
5685 Clouds 22 1016 83 10000 8.7 110 23:57 31.03.2020
5686 Clouds 22 1016 83 10000 8.7 110 23:38 31.03.2020
5687 Clouds 22 1016 83 10000 8.7 110 23:19 31.03.2020
5688 Clouds 23 1016 73 10000 8.7 120 22:41 31.03.2020
5689 Clouds 23 1016 73 10000 8.7 120 22:21 31.03.2020
5690 Clouds 23 1017 73 10000 8.2 100 21:58 31.03.2020
5691 Clouds 23 1017 73 10000 8.2 100 21:40 31.03.2020
5692 Clouds 23 1017 73 10000 8.2 100 21:21 31.03.2020
5693 Clouds 23 1017 69 10000 7.7 100 20:57 31.03.2020
5694 Clouds 23 1017 69 10000 7.7 100 20:57 31.03.2020
5695 Clouds 23 1017 69 10000 7.7 100 20:37 31.03.2020
5696 Clouds 23 1017 69 10000 7.7 100 20:19 31.03.2020
5697 Clouds 23 1018 69 10000 6.2 100 19:55 31.03.2020
5698 Clouds 23 1018 69 10000 6.2 100 19:37 31.03.2020
5699 Clouds 23 1019 73 10000 7.2 100 19:18 31.03.2020
5700 Clouds 23 1019 73 10000 7.2 100 18:43 31.03.2020
5701 Clouds 22 1019 73 10000 6.7 100 18:20 31.03.2020
5702 Clouds 22 1019 73 10000 6.7 100 17:56 31.03.2020
5703 Clouds 22 1019 73 10000 6.7 100 17:56 31.03.2020
5704 Clouds 22 1019 73 10000 6.7 100 17:38 31.03.2020
5705 Clouds 22 1019 73 10000 6.7 100 17:38 31.03.2020
5706 Clouds 22 1019 73 10000 6.7 100 17:20 31.03.2020
5707 Drizzle 21 1019 73 9000 8.7 100 16:42 31.03.2020
5708 Drizzle 21 1019 73 9000 8.7 100 16:20 31.03.2020
5709 Rain 21 1019 83 8000 11.3 110 15:59 31.03.2020
5710 Rain 21 1019 83 8000 11.3 110 15:41 31.03.2020
5711 Rain 21 1019 83 8000 11.3 110 15:23 31.03.2020
5712 Rain 20 1019 88 4000 8.2 130 15:00 31.03.2020
5713 Rain 20 1019 88 4000 8.2 130 15:00 31.03.2020
5714 Rain 20 1019 88 2000 12.3 100 14:41 31.03.2020
5715 Rain 20 1019 88 2000 12.3 100 14:22 31.03.2020
5716 Rain 19 1019 88 8000 7.7 100 13:55 31.03.2020
5717 Rain 19 1019 88 2500 8.7 100 13:37 31.03.2020
5718 Rain 19 1019 88 2500 8.7 100 13:18 31.03.2020
5719 Rain 19 1018 93 9000 7.2 130 12:44 31.03.2020
5720 Clouds 20 1017 83 10000 7.2 100 12:20 31.03.2020
5721 Clouds 20 1017 83 10000 7.2 100 12:20 31.03.2020
5722 Clouds 21 1017 83 10000 7.2 100 11:55 31.03.2020
5723 Clouds 21 1017 83 10000 7.2 100 11:36 31.03.2020
5724 Clouds 21 1017 83 10000 7.2 100 11:36 31.03.2020
5725 Clouds 21 1017 83 10000 7.2 100 11:18 31.03.2020
5726 Clouds 22 1017 83 10000 7.2 100 10:55 31.03.2020
5727 Clouds 22 1017 83 10000 7.2 100 10:37 31.03.2020
5728 Clouds 22 1017 83 10000 7.2 100 10:37 31.03.2020
5729 Clouds 22 1017 83 10000 7.2 100 10:18 31.03.2020
5730 Clouds 23 1016 83 10000 7.7 100 09:43 31.03.2020
5731 Clouds 23 1016 83 10000 7.7 100 09:24 31.03.2020
5732 Clouds 23 1017 83 10000 7.2 100 08:57 31.03.2020
5733 Clouds 23 1017 83 10000 7.2 100 08:39 31.03.2020
5734 Clouds 22 1017 83 10000 7.2 100 08:19 31.03.2020
5735 Clouds 22 1017 78 10000 7.7 100 07:56 31.03.2020
5736 Clouds 22 1017 78 10000 7.7 100 07:38 31.03.2020
5737 Clouds 22 1017 78 10000 7.7 100 07:19 31.03.2020
5738 Clouds 22 1017 83 10000 7.7 100 06:47 31.03.2020
5739 Clouds 22 1017 83 10000 7.7 100 06:22 31.03.2020
5740 Clouds 23 1017 78 10000 7.2 100 05:39 31.03.2020
5741 Clouds 23 1017 78 10000 7.7 110 03:34 31.03.2020
5742 Clouds 23 1017 83 10000 7.2 120 02:18 31.03.2020
5743 Clouds 23 1016 83 10000 7.2 110 01:45 31.03.2020
5744 Clouds 24 1015 78 10000 6.7 110 00:47 31.03.2020
5745 Clouds 24 1015 78 10000 6.7 110 00:25 31.03.2020
5746 Clouds 25 1015 78 10000 6.7 110 23:42 30.03.2020
5747 Clouds 25 1015 78 10000 6.7 110 23:42 30.03.2020
5748 Clouds 25 1015 78 10000 6.7 110 23:21 30.03.2020
5749 Clouds 26 1015 78 10000 6.2 110 22:59 30.03.2020
5750 Clouds 26 1015 78 10000 6.2 110 22:41 30.03.2020
5751 Clouds 26 1015 78 10000 6.2 110 22:22 30.03.2020
5752 Clouds 27 1016 74 10000 5.1 110 21:58 30.03.2020
5753 Clouds 27 1016 74 10000 5.1 110 21:39 30.03.2020
5754 Clouds 27 1016 74 10000 5.1 110 21:21 30.03.2020
5755 Clouds 27 1016 74 10000 4.1 110 20:59 30.03.2020
5756 Clouds 27 1016 74 10000 4.1 110 20:39 30.03.2020
5757 Clouds 27 1016 74 10000 4.1 110 20:21 30.03.2020
5758 Clouds 27 1016 78 10000 5.1 110 19:57 30.03.2020
5759 Clouds 27 1016 78 10000 5.1 110 19:39 30.03.2020
5760 Clouds 27 1016 78 10000 5.1 110 19:20 30.03.2020
5761 Clouds 27 1017 78 10000 5.1 110 18:44 30.03.2020
5762 Clouds 27 1017 78 10000 5.1 110 18:26 30.03.2020
5763 Clouds 27 1017 78 10000 5.1 110 17:58 30.03.2020
5764 Clouds 27 1017 78 10000 5.1 110 17:58 30.03.2020
5765 Clouds 27 1017 78 10000 5.1 110 17:40 30.03.2020
5766 Clouds 26 1017 78 10000 5.1 110 17:22 30.03.2020
5767 Clouds 26 1018 83 9000 5.1 110 16:59 30.03.2020
5768 Clouds 26 1018 83 9000 5.1 110 16:40 30.03.2020
5769 Clouds 25 1018 83 9000 5.1 110 16:21 30.03.2020
5770 Clouds 25 1018 88 9000 4.1 120 15:56 30.03.2020
5771 Clouds 25 1018 88 9000 4.1 120 15:56 30.03.2020
5772 Clouds 25 1018 88 9000 4.1 120 15:38 30.03.2020
5773 Clouds 24 1018 88 9000 4.1 120 15:20 30.03.2020
5774 Clouds 24 1018 88 8000 3.6 150 14:56 30.03.2020
5775 Clouds 23 1018 88 8000 3.6 150 14:37 30.03.2020
5776 Clouds 23 1018 88 8000 3.6 150 14:18 30.03.2020
5777 Clouds 23 1017 88 6000 3.6 160 13:55 30.03.2020
5778 Clouds 23 1017 88 6000 3.6 160 13:37 30.03.2020
5779 Clouds 22 1017 88 6000 3.6 160 13:19 30.03.2020
5780 Clouds 22 1017 88 6000 2.6 160 12:44 30.03.2020
5781 Clouds 22 1017 88 6000 2.6 160 12:21 30.03.2020
5782 Clouds 22 1017 88 6000 2.6 160 12:21 30.03.2020
5783 Clouds 22 1017 94 8000 4.6 120 11:57 30.03.2020
5784 Clouds 22 1017 94 8000 4.6 120 11:39 30.03.2020
5785 Clouds 22 1017 94 8000 4.6 120 11:21 30.03.2020
5786 Clouds 22 1016 94 10000 3.6 110 10:41 30.03.2020
5787 Clouds 22 1016 94 10000 3.6 110 10:23 30.03.2020
5788 Clouds 22 1016 94 10000 1.5 90 09:59 30.03.2020
5789 Clouds 22 1016 94 10000 1.5 90 09:59 30.03.2020
5790 Clouds 22 1016 94 10000 1.5 90 09:40 30.03.2020
5791 Clouds 22 1017 88 10000 3.1 100 09:19 30.03.2020
5792 Clouds 22 1017 88 10000 3.1 100 08:47 30.03.2020
5793 Clear 22 1017 94 10000 3.1 120 08:28 30.03.2020
5794 Clear 22 1017 94 10000 3.1 120 07:55 30.03.2020
5795 Clear 22 1017 94 10000 3.1 120 07:37 30.03.2020
5796 Clear 22 1017 88 10000 2.6 110 06:59 30.03.2020
5797 Clear 23 1017 88 10000 2.6 110 06:34 30.03.2020
5798 Clear 23 1017 83 10000 3.1 110 05:59 30.03.2020
5799 Clear 23 1017 83 10000 3.1 110 05:34 30.03.2020
5800 Clear 24 1017 83 10000 3.1 120 04:26 30.03.2020
5801 Clear 24 1016 83 10000 1 0 03:44 30.03.2020
5802 Clouds 24 1016 88 10000 2.6 120 02:42 30.03.2020
5803 Clouds 25 1015 83 10000 1.5 90 01:48 30.03.2020
5804 Clouds 25 1015 78 10000 1.5 70 00:55 30.03.2020
5805 Clouds 26 1015 78 10000 1.5 70 00:24 30.03.2020
5806 Clouds 27 1015 78 10000 2.1 50 23:43 29.03.2020
5807 Clouds 27 1015 78 10000 2.1 50 23:24 29.03.2020
5808 Clouds 28 1014 78 10000 2.6 50 22:59 29.03.2020
5809 Clouds 28 1014 78 10000 2.6 50 22:39 29.03.2020
5810 Clouds 29 1014 61 10000 2.6 50 22:19 29.03.2020
5811 Clouds 29 1014 69 10000 2.6 50 21:57 29.03.2020
5812 Clouds 28 1014 78 10000 2.6 40 21:36 29.03.2020
5813 Clouds 29 1014 78 10000 2.6 40 21:18 29.03.2020
5814 Clouds 29 1014 83 10000 2.6 360 20:55 29.03.2020
5815 Clouds 29 1014 83 10000 2.6 360 20:36 29.03.2020
5816 Clouds 29 1014 83 10000 2.6 360 20:18 29.03.2020
5817 Clouds 29 1015 78 10000 3.1 60 19:42 29.03.2020
5818 Clouds 29 1015 78 10000 3.1 60 19:42 29.03.2020
5819 Clouds 29 1015 48 10000 4.1 180 19:24 29.03.2020
5820 Clouds 29 1015 48 10000 4.1 180 18:58 29.03.2020
5821 Clouds 29 1015 48 10000 4.1 180 18:40 29.03.2020
5822 Clouds 29 1015 48 10000 4.1 180 18:20 29.03.2020
5823 Clouds 29 1015 48 10000 4.1 180 18:20 29.03.2020
5824 Clouds 28 1015 58 10000 2.1 270 17:58 29.03.2020
5825 Clouds 28 1015 58 10000 2.1 270 17:40 29.03.2020
5826 Clouds 28 1015 58 10000 2.1 270 17:20 29.03.2020
5827 Clear 27 1016 61 10000 2.1 260 16:58 29.03.2020
5828 Clear 27 1016 61 10000 2.1 260 16:39 29.03.2020
5829 Clear 27 1016 61 10000 2.1 260 16:20 29.03.2020
5830 Clear 26 1015 69 10000 2.1 330 15:43 29.03.2020
5831 Clear 25 1015 69 10000 2.1 330 15:25 29.03.2020
5832 Clear 23 1015 78 10000 2.1 310 14:59 29.03.2020
5833 Clear 24 1015 78 10000 2.1 310 14:40 29.03.2020
5834 Clear 23 1015 78 10000 2.1 310 14:21 29.03.2020
5835 Clear 21 1015 83 9000 2.1 310 13:59 29.03.2020
5836 Clear 22 1015 83 9000 2.1 310 13:41 29.03.2020
5837 Clear 21 1015 83 9000 2.1 310 13:21 29.03.2020
5838 Clear 21 1014 88 10000 2.1 320 12:57 29.03.2020
5839 Clear 20 1014 88 10000 2.1 320 12:38 29.03.2020
5840 Clear 20 1014 88 10000 2.1 320 12:19 29.03.2020
5841 Clear 20 1013 83 10000 3.1 340 11:55 29.03.2020
5842 Clear 20 1013 83 10000 3.1 340 11:37 29.03.2020
5843 Clear 20 1013 83 10000 3.1 340 11:19 29.03.2020
5844 Clear 20 1013 83 10000 3.1 340 10:38 29.03.2020
5845 Clear 20 1013 83 10000 3.1 340 10:19 29.03.2020
5846 Clear 21 1013 83 10000 3.1 340 09:42 29.03.2020
5847 Clear 21 1013 83 10000 3.1 340 09:23 29.03.2020
5848 Clear 21 1013 83 10000 4.1 340 08:57 29.03.2020
5849 Clear 21 1013 83 10000 4.1 340 08:39 29.03.2020
5850 Clear 22 1013 78 10000 5.1 360 08:20 29.03.2020
5851 Clear 22 1013 78 10000 5.1 360 07:44 29.03.2020
5852 Clear 22 1013 78 10000 5.1 360 07:21 29.03.2020
5853 Clear 23 1013 78 10000 3.6 360 05:58 29.03.2020
5854 Clear 23 1012 83 10000 2.1 340 04:55 29.03.2020
5855 Clear 24 1012 83 10000 1 90 03:33 29.03.2020
5856 Rain 23 1012 83 10000 5.1 80 01:52 29.03.2020
5857 Clouds 24 1012 83 10000 5.1 80 01:24 29.03.2020
5858 Clouds 24 1011 83 10000 4.1 90 00:58 29.03.2020
5859 Clouds 24 1011 83 10000 4.1 90 00:33 29.03.2020
5860 Clouds 25 1011 83 10000 2.6 70 23:57 28.03.2020
5861 Clouds 25 1011 83 10000 2.6 70 23:39 28.03.2020
5862 Clouds 25 1011 83 10000 2.6 70 23:19 28.03.2020
5863 Clouds 26 1010 78 10000 3.6 70 22:41 28.03.2020
5864 Clouds 27 1010 78 10000 3.6 70 22:22 28.03.2020
5865 Clouds 27 1010 78 10000 3.6 70 22:22 28.03.2020
5866 Clouds 27 1010 83 10000 2.1 60 21:56 28.03.2020
5867 Clouds 27 1010 83 10000 2.1 60 21:37 28.03.2020
5868 Clouds 27 1010 83 10000 2.1 60 21:18 28.03.2020
5869 Clouds 28 1011 78 10000 3.1 60 20:42 28.03.2020
5870 Clouds 28 1011 78 10000 3.1 60 20:24 28.03.2020
5871 Clouds 28 1011 78 10000 3.6 90 19:58 28.03.2020
5872 Clouds 28 1011 78 10000 3.6 90 19:58 28.03.2020
5873 Clouds 28 1011 78 10000 3.6 90 19:39 28.03.2020
5874 Clouds 28 1011 65 10000 3.6 50 19:21 28.03.2020
5875 Clouds 28 1012 78 10000 2.6 60 18:58 28.03.2020
5876 Clouds 28 1012 78 10000 2.6 60 18:39 28.03.2020
5877 Clouds 28 1012 78 10000 2.6 60 18:19 28.03.2020
5878 Clouds 28 1012 78 10000 3.1 40 17:39 28.03.2020
5879 Clouds 26 1013 83 10000 2.6 40 17:20 28.03.2020
5880 Clouds 26 1013 83 10000 2.6 40 16:55 28.03.2020
5881 Clouds 26 1013 83 10000 2.6 40 16:37 28.03.2020
5882 Clouds 26 1013 83 10000 2.6 40 16:18 28.03.2020
5883 Clouds 26 1013 78 10000 1.5 40 15:39 28.03.2020
5884 Clouds 25 1013 78 10000 1.5 40 15:19 28.03.2020
5885 Clouds 24 1013 78 10000 1.5 10 14:55 28.03.2020
5886 Clouds 24 1013 78 10000 1.5 10 14:37 28.03.2020
5887 Clouds 24 1013 78 10000 1.5 10 14:18 28.03.2020
5888 Clouds 23 1013 83 10000 3.6 340 13:38 28.03.2020
5889 Clouds 22 1013 83 10000 3.6 340 13:20 28.03.2020
5890 Clouds 22 1013 83 10000 2.6 50 12:39 28.03.2020
5891 Clouds 22 1013 83 10000 2.6 50 12:21 28.03.2020
5892 Clouds 21 1012 83 10000 3.1 70 11:42 28.03.2020
5893 Clouds 21 1012 83 10000 3.1 70 11:23 28.03.2020
5894 Clouds 21 1011 83 10000 2.6 50 10:56 28.03.2020
5895 Clouds 21 1011 83 10000 2.6 50 10:38 28.03.2020
5896 Clouds 21 1011 83 10000 2.6 50 10:18 28.03.2020
5897 Clouds 22 1011 83 10000 4.1 330 09:41 28.03.2020
5898 Clouds 22 1011 83 10000 4.1 330 09:23 28.03.2020
5899 Clouds 22 1012 83 10000 4.1 350 08:46 28.03.2020
5900 Rain 22 1012 83 10000 4.1 350 08:27 28.03.2020
5901 Rain 22 1012 78 10000 3.6 40 07:59 28.03.2020
5902 Rain 22 1012 78 10000 3.6 40 07:41 28.03.2020
5903 Rain 23 1013 78 10000 4.1 50 06:55 28.03.2020
5904 Rain 23 1013 78 10000 4.1 50 06:32 28.03.2020
5905 Rain 22 1012 88 10000 1.97 3 05:39 28.03.2020
5906 Clouds 22 1012 88 10000 2.04 99 05:19 28.03.2020
5907 Clouds 22 1012 83 10000 2.1 130 04:39 28.03.2020
5908 Clouds 24 1012 83 10000 2.1 160 02:55 28.03.2020
5909 Rain 24 1012 83 10000 3.1 130 01:48 28.03.2020
5910 Rain 24 1012 83 10000 3.1 130 01:24 28.03.2020
5911 Rain 24 1012 83 10000 3.1 130 00:52 28.03.2020
5912 Rain 25 1012 83 10000 3.1 130 00:28 28.03.2020
5913 Rain 25 1011 83 10000 4.1 110 23:44 27.03.2020
5914 Rain 26 1011 83 10000 4.1 110 23:26 27.03.2020
5915 Rain 26 1011 78 10000 4.6 100 22:57 27.03.2020
5916 Rain 27 1011 78 10000 4.6 100 22:39 27.03.2020
5917 Rain 27 1011 78 10000 4.6 100 22:20 27.03.2020
5918 Rain 28 1011 74 10000 4.6 100 21:58 27.03.2020
5919 Rain 28 1011 74 10000 4.6 100 21:40 27.03.2020
5920 Rain 28 1011 74 10000 4.6 100 21:22 27.03.2020
5921 Rain 28 1011 74 10000 4.6 100 21:22 27.03.2020
5922 Clouds 28 1012 74 10000 4.1 110 20:56 27.03.2020
5923 Clouds 28 1012 74 10000 4.1 110 20:37 27.03.2020
5924 Clouds 28 1012 74 10000 4.1 110 20:19 27.03.2020
5925 Clouds 28 1013 74 10000 5.1 110 19:43 27.03.2020
5926 Clouds 28 1013 74 10000 5.1 110 19:23 27.03.2020
5927 Rain 28 1013 69 10000 3.1 90 18:57 27.03.2020
5928 Rain 28 1013 69 10000 3.1 90 18:38 27.03.2020
5929 Rain 28 1013 69 10000 3.1 90 18:19 27.03.2020
5930 Rain 28 1014 69 10000 3.6 80 17:40 27.03.2020
5931 Rain 27 1014 69 10000 3.6 80 17:20 27.03.2020
5932 -273 0 0 0 0 0 16:54 27.03.2020
5933 Rain 27 1014 69 10000 3.6 60 16:36 27.03.2020
5934 Rain 27 1014 69 10000 3.6 60 16:36 27.03.2020
5935 Rain 27 1014 69 10000 3.6 60 16:18 27.03.2020
5936 Rain 26 1014 73 10000 2.6 50 15:41 27.03.2020
5937 Rain 25 1014 73 10000 2.6 50 15:23 27.03.2020
5938 Rain 25 1014 73 10000 3.1 40 14:46 27.03.2020
5939 Rain 25 1014 73 10000 3.1 40 14:25 27.03.2020
5940 Rain 25 1014 73 10000 3.1 40 14:25 27.03.2020
5941 Rain 24 1014 78 10000 3.1 20 13:56 27.03.2020
5942 Rain 24 1014 78 10000 3.1 20 13:37 27.03.2020
5943 Rain 24 1014 78 10000 3.1 20 13:18 27.03.2020
5944 Rain 24 1014 78 10000 3.1 30 12:49 27.03.2020
5945 Rain 24 1014 78 10000 3.1 30 12:21 27.03.2020
5946 Rain 23 1014 78 10000 4.1 20 11:59 27.03.2020
5947 Rain 23 1014 78 10000 4.1 20 11:59 27.03.2020
5948 Rain 23 1014 78 10000 4.1 20 11:59 27.03.2020
5949 Rain 23 1014 78 10000 4.1 20 11:59 27.03.2020
5950 Rain 23 1014 78 10000 4.1 20 11:59 27.03.2020
5951 Rain 23 1014 78 10000 4.1 20 11:40 27.03.2020
5952 Rain 22 1014 73 10000 4.6 50 11:22 27.03.2020
5953 Rain 23 1014 73 10000 4.6 50 10:54 27.03.2020
5954 Rain 23 1014 73 10000 4.6 50 10:36 27.03.2020
5955 Rain 23 1014 73 10000 4.6 50 10:36 27.03.2020
5956 Rain 23 1014 73 10000 4.6 50 10:18 27.03.2020
5957 Rain 23 1014 78 10000 5.1 60 09:54 27.03.2020
5958 Rain 23 1014 78 10000 5.1 60 09:36 27.03.2020
5959 Rain 23 1014 78 10000 5.1 60 09:18 27.03.2020
5960 Rain 23 1014 78 10000 4.6 60 08:54 27.03.2020
5961 Rain 23 1014 78 10000 4.6 60 08:36 27.03.2020
5962 Clouds 23 1014 78 10000 4.6 60 08:18 27.03.2020
5963 Clouds 23 1014 73 10000 4.1 70 07:41 27.03.2020
5964 Clouds 23 1014 73 10000 4.1 70 07:21 27.03.2020
5965 Clouds 24 1015 73 10000 4.1 50 06:41 27.03.2020
5966 Clouds 24 1014 78 10000 3.6 60 05:57 27.03.2020
5967 Clouds 24 1014 83 10000 5.1 120 03:34 27.03.2020
5968 Rain 23 1014 83 10000 6.2 130 01:56 27.03.2020
5969 Rain 23 1014 83 10000 6.2 130 01:19 27.03.2020
5970 Clouds 23 1014 88 10000 6.7 130 00:42 27.03.2020
5971 Clouds 23 1014 88 10000 6.7 130 00:19 27.03.2020
5972 Rain 24 1014 83 10000 7.7 130 23:37 26.03.2020
5973 Clouds 24 1015 83 10000 6.7 110 23:18 26.03.2020
5974 Clouds 24 1015 83 10000 6.7 110 22:56 26.03.2020
5975 Clouds 24 1015 83 10000 6.7 110 22:36 26.03.2020
5976 Clouds 25 1015 83 10000 6.7 110 22:18 26.03.2020
5977 Clouds 26 1014 73 10000 6.2 110 21:40 26.03.2020
5978 Clouds 26 1014 73 10000 6.2 110 21:21 26.03.2020
5979 Clouds 25 1015 78 10000 5.7 110 20:59 26.03.2020
5980 Clouds 25 1015 78 10000 5.7 110 20:39 26.03.2020
5981 Clouds 25 1015 78 10000 5.7 110 20:21 26.03.2020
5982 Clouds 25 1015 78 10000 5.7 110 20:21 26.03.2020
5983 Clouds 26 1015 78 10000 6.2 110 19:58 26.03.2020
5984 Clouds 26 1015 78 10000 6.2 110 19:39 26.03.2020
5985 Clouds 26 1015 78 10000 6.2 110 19:20 26.03.2020
5986 -273 0 0 0 0 0 19:20 26.03.2020
5987 -273 0 0 0 0 0 19:20 26.03.2020
5988 Clouds 26 1016 78 10000 6.7 110 18:58 26.03.2020
5989 Clouds 26 1016 78 10000 6.7 110 18:58 26.03.2020
5990 Clouds 25 1016 78 10000 6.7 110 18:39 26.03.2020
5991 Clouds 25 1017 78 10000 6.2 110 18:21 26.03.2020
5992 Clouds 25 1017 78 10000 6.2 110 17:43 26.03.2020
5993 Clouds 25 1017 78 10000 6.2 110 17:19 26.03.2020
5994 Clouds 25 1017 78 10000 6.2 100 16:46 26.03.2020
5995 Clouds 25 1017 78 10000 6.2 100 16:28 26.03.2020
5996 Clouds 24 1017 83 9000 5.1 140 15:59 26.03.2020
5997 Clouds 24 1017 83 9000 5.1 140 15:41 26.03.2020
5998 Clouds 24 1017 83 9000 5.1 140 15:22 26.03.2020
5999 Clouds 24 1033 84 0 1.34 117 14:58 26.03.2020
6000 Clouds 23 1033 84 0 1.79 131 14:39 26.03.2020
6001 Clouds 22 1017 88 9000 4.1 140 14:19 26.03.2020
6002 Clouds 22 1017 88 9000 4.1 140 13:43 26.03.2020
6003 Clouds 22 1017 88 9000 4.1 140 13:23 26.03.2020
6004 Clouds 21 1017 88 9000 3.1 140 12:57 26.03.2020
6005 Clouds 21 1017 88 9000 3.1 140 12:38 26.03.2020
6006 Clouds 21 1017 88 9000 3.1 150 12:19 26.03.2020
6007 Clouds 21 1017 88 9000 3.1 150 11:45 26.03.2020
6008 Clouds 21 1017 88 9000 3.1 150 11:21 26.03.2020
6009 Clouds 21 1016 88 10000 5.1 130 10:56 26.03.2020
6010 Clouds 21 1016 88 10000 5.1 130 10:37 26.03.2020
6011 Clouds 21 1016 88 10000 5.1 130 10:18 26.03.2020
6012 Clouds 21 1016 88 10000 5.1 130 10:18 26.03.2020
6013 Clouds 21 1016 88 10000 3.1 140 09:42 26.03.2020
6014 Clouds 21 1016 88 10000 3.1 140 09:19 26.03.2020
6015 Clouds 21 1016 88 10000 3.1 140 09:19 26.03.2020
6016 Clouds 21 1016 88 10000 4.1 140 08:46 26.03.2020
6017 Clouds 21 1016 88 10000 4.1 140 08:27 26.03.2020
6018 Clouds 21 1017 88 10000 3.6 130 07:58 26.03.2020
6019 Clouds 21 1017 88 10000 3.6 130 07:40 26.03.2020
6020 Clouds 21 1017 88 10000 3.6 130 07:20 26.03.2020
6021 Clouds 21 1017 88 10000 4.1 130 06:38 26.03.2020
6022 Clouds 21 1017 73 10000 5.1 140 05:51 26.03.2020
6023 Clouds 22 1017 73 10000 4.6 130 03:48 26.03.2020
6024 Clouds 22 1017 73 10000 4.6 130 03:26 26.03.2020
6025 Clouds 22 1018 78 10000 5.1 140 02:52 26.03.2020
6026 Clouds 22 1017 83 10000 7.2 130 01:19 26.03.2020
6027 Clouds 23 1016 78 10000 3.6 150 00:33 26.03.2020
6028 Clouds 23 1016 83 10000 4.6 160 23:44 25.03.2020
6029 Clouds 23 1016 83 10000 4.6 160 23:26 25.03.2020
6030 Clouds 23 1015 78 10000 2.1 130 22:55 25.03.2020
6031 Clouds 23 1015 78 10000 2.1 130 22:37 25.03.2020
6032 Clouds 24 1015 78 10000 2.1 130 22:18 25.03.2020
6033 Clouds 25 1015 73 10000 5.1 130 21:43 25.03.2020
6034 Clouds 25 1015 73 10000 5.1 130 21:24 25.03.2020
6035 Clouds 25 1015 78 10000 4.6 100 20:59 25.03.2020
6036 Clouds 25 1015 78 10000 4.6 100 20:39 25.03.2020
6037 Clouds 25 1015 78 10000 4.6 100 20:19 25.03.2020
6038 Clouds 25 1015 78 10000 4.6 110 19:55 25.03.2020
6039 Clouds 24 1015 78 10000 4.6 110 19:37 25.03.2020
6040 Clouds 24 1015 83 10000 4.1 130 19:18 25.03.2020
6041 Clouds 24 1015 83 10000 4.1 130 18:43 25.03.2020
6042 Clouds 24 1015 83 10000 4.1 130 18:43 25.03.2020
6043 Clouds 24 1015 83 10000 4.1 130 18:25 25.03.2020
6044 Clouds 24 1015 78 10000 4.1 130 17:58 25.03.2020
6045 Clouds 24 1015 78 10000 4.1 130 17:40 25.03.2020
6046 Clouds 24 1015 78 10000 4.1 130 17:21 25.03.2020
6047 Clouds 23 1016 83 10000 2.1 180 16:56 25.03.2020
6048 Clouds 23 1016 83 10000 2.1 180 16:38 25.03.2020
6049 Clouds 23 1016 83 10000 2.1 180 16:20 25.03.2020
6050 Clouds 22 1016 83 10000 3.1 170 15:42 25.03.2020
6051 Clouds 22 1016 83 10000 3.1 170 15:20 25.03.2020
6052 Clouds 22 1016 83 10000 3.6 180 14:56 25.03.2020
6053 Clouds 22 1016 83 10000 3.6 180 14:37 25.03.2020
6054 Clouds 22 1016 83 10000 3.6 180 14:19 25.03.2020
6055 Clouds 22 1016 88 10000 4.1 160 13:44 25.03.2020
6056 Clouds 22 1016 88 10000 4.1 160 13:22 25.03.2020
6057 Clouds 22 1015 88 10000 4.6 170 12:38 25.03.2020
6058 Clouds 22 1015 88 10000 4.6 170 12:20 25.03.2020
6059 Rain 23 1014 69 7000 3.1 230 11:57 25.03.2020
6060 Rain 23 1014 69 7000 3.1 230 11:39 25.03.2020
6061 Rain 24 1014 69 7000 3.1 230 11:20 25.03.2020
6062 Clouds 24 1012 69 10000 3.6 360 10:57 25.03.2020
6063 Clouds 24 1012 69 10000 3.6 360 10:39 25.03.2020
6064 Clouds 25 1012 69 10000 3.6 360 10:18 25.03.2020
6065 Clouds 25 1011 69 10000 4.6 350 09:43 25.03.2020
6066 Clouds 26 1011 69 10000 4.6 350 09:25 25.03.2020
6067 Clouds 26 1010 61 10000 5.1 350 08:57 25.03.2020
6068 Clouds 26 1010 61 10000 5.1 350 08:39 25.03.2020
6069 Clouds 26 1010 61 10000 5.1 350 08:19 25.03.2020
6070 Clouds 26 1010 61 10000 5.1 350 08:19 25.03.2020
6071 Clouds 26 1011 65 10000 4.1 350 07:41 25.03.2020
6072 Clouds 26 1011 65 10000 4.1 350 07:22 25.03.2020
6073 Clouds 26 1011 78 10000 1 0 06:50 25.03.2020
6074 Clouds 26 1011 78 10000 1 0 06:28 25.03.2020
6075 Clouds 26 1011 78 10000 1 0 06:28 25.03.2020
6076 Clouds 26 1012 74 10000 2.6 350 05:56 25.03.2020
6077 Clouds 26 1012 74 10000 2.6 350 05:30 25.03.2020
6078 Clouds 26 1012 78 10000 1.5 350 04:39 25.03.2020
6079 Clouds 27 1012 78 10000 1 0 03:36 25.03.2020
6080 Clouds 27 1013 78 10000 2.1 80 02:40 25.03.2020
6081 Clouds 26 1012 78 10000 2.6 120 01:21 25.03.2020
6082 Clouds 26 1012 78 10000 3.6 110 00:48 25.03.2020
6083 Clouds 26 1012 78 10000 3.6 110 00:23 25.03.2020
6084 Clouds 26 1012 78 10000 4.1 120 23:45 24.03.2020
6085 Clouds 27 1012 78 10000 4.1 120 23:26 24.03.2020
6086 Clouds 28 1012 78 10000 4.6 100 22:56 24.03.2020
6087 Clouds 28 1012 78 10000 4.6 100 22:37 24.03.2020
6088 Clouds 28 1012 78 10000 4.6 100 22:19 24.03.2020
6089 Clouds 28 1012 69 10000 4.6 110 21:55 24.03.2020
6090 Clouds 28 1012 69 10000 4.6 110 21:55 24.03.2020
6091 Clouds 29 1012 69 10000 4.6 110 21:37 24.03.2020
6092 Clouds 30 1012 69 10000 4.6 110 21:18 24.03.2020
6093 Clouds 30 1012 69 10000 4.6 110 21:18 24.03.2020
6094 Clouds 29 1012 61 10000 3.6 110 20:43 24.03.2020
6095 Clear 29 1012 61 10000 3.6 110 20:24 24.03.2020
6096 Clear 30 1012 61 10000 3.6 90 19:57 24.03.2020
6097 Clear 30 1012 61 10000 3.6 90 19:39 24.03.2020
6098 Clear 29 1012 61 10000 3.6 90 19:18 24.03.2020
6099 Clear 28 1013 65 10000 3.6 70 18:55 24.03.2020
6100 Clear 28 1013 65 10000 3.6 70 18:55 24.03.2020
6101 Clear 29 1013 65 10000 3.6 70 18:36 24.03.2020
6102 Clear 28 1014 65 10000 3.1 50 18:18 24.03.2020
6103 Clear 29 1014 65 10000 3.1 50 17:42 24.03.2020
6104 Clear 28 1014 65 10000 3.1 50 17:22 24.03.2020
6105 Clear 29 1015 65 10000 4.1 20 16:58 24.03.2020
6106 Clear 29 1015 58 10000 5.1 10 16:39 24.03.2020
6107 -273 0 0 0 0 0 16:20 24.03.2020
6108 -273 0 0 0 0 0 16:20 24.03.2020
6109 Clear 28 1015 69 10000 3.1 10 15:55 24.03.2020
6110 Clear 28 1015 57 10000 4.1 360 15:37 24.03.2020
6111 Clear 27 1015 57 10000 4.1 360 15:19 24.03.2020
6112 Clear 26 1016 73 10000 2.6 20 14:42 24.03.2020
6113 Clear 24 1016 73 10000 2.6 20 14:18 24.03.2020
6114 Clear 24 1015 78 10000 3.6 40 13:42 24.03.2020
6115 Clear 24 1015 78 10000 3.6 40 13:23 24.03.2020
6116 Clear 24 1015 78 10000 3.6 40 13:23 24.03.2020
6117 Clear 24 1015 78 10000 3.6 40 13:23 24.03.2020
6118 Clear 24 1015 78 10000 3.6 40 12:47 24.03.2020
6119 Clear 23 1015 78 10000 3.6 40 12:28 24.03.2020
6120 Clear 23 1015 78 10000 2.6 40 11:59 24.03.2020
6121 Clear 22 1015 78 10000 2.6 40 11:39 24.03.2020
6122 Clear 19 1015 78 10000 2.6 40 11:19 24.03.2020
6123 Clear 19 1014 78 10000 2.6 20 10:42 24.03.2020
6124 Clear 20 1014 78 10000 2.6 20 10:19 24.03.2020
6125 Clear 20 1014 78 10000 3.1 50 09:57 24.03.2020
6126 Clear 20 1014 78 10000 3.1 50 09:39 24.03.2020
6127 Clear 20 1014 78 10000 3.1 50 09:20 24.03.2020
6128 Clear 20 1014 78 10000 2.6 40 08:38 24.03.2020
6129 Clear 21 1014 78 10000 2.6 40 08:20 24.03.2020
6130 Clear 21 1015 73 10000 3.1 50 07:47 24.03.2020
6131 Clear 20 1015 73 10000 3.1 50 07:23 24.03.2020
6132 -273 0 0 0 0 0 06:50 24.03.2020
6133 Clear 21 1015 78 10000 4.6 70 06:24 24.03.2020
6134 Clear 21 1015 69 10000 3.6 50 04:57 24.03.2020
6135 Clear 21 1015 69 10000 4.1 50 03:46 24.03.2020
6136 Clear 23 1015 61 10000 5.1 60 02:45 24.03.2020
6137 Clear 23 1015 65 10000 5.7 70 01:38 24.03.2020
6138 Clear 24 1014 78 10000 4.6 90 00:42 24.03.2020
6139 Clear 24 1014 78 10000 4.6 90 00:22 24.03.2020
6140 Clear 25 1015 69 10000 5.1 100 23:39 23.03.2020
6141 Clear 26 1015 69 10000 5.1 100 23:21 23.03.2020
6142 Clear 28 1015 54 10000 4.6 110 22:45 23.03.2020
6143 Clear 28 1015 54 10000 4.6 110 22:24 23.03.2020
6144 Clear 29 1015 57 10000 4.6 100 21:58 23.03.2020
6145 Clear 29 1015 57 10000 4.6 100 21:40 23.03.2020
6146 Clear 30 1015 39 10000 3.6 20 21:20 23.03.2020
6147 Clear 29 1015 54 10000 2.1 80 20:56 23.03.2020
6148 Clear 30 1015 54 10000 2.1 80 20:38 23.03.2020
6149 Clear 30 1015 35 10000 4.6 20 20:19 23.03.2020
6150 Clear 30 1016 51 10000 3.1 350 19:44 23.03.2020
6151 Clear 30 1016 35 10000 5.1 20 19:24 23.03.2020
6152 Smoke 30 1016 35 10000 3.1 90 18:56 23.03.2020
6153 Clear 29 1017 57 10000 3.1 340 18:38 23.03.2020
6154 Clear 29 1017 57 10000 3.1 340 18:20 23.03.2020
6155 Clear 29 1018 45 10000 6.2 20 17:42 23.03.2020
6156 Smoke 29 1018 35 3000 5.1 30 17:21 23.03.2020
6157 Smoke 28 1018 35 3000 5.1 30 16:56 23.03.2020
6158 Clear 28 1018 51 10000 5.7 20 16:38 23.03.2020
6159 Clear 28 1018 51 10000 5.7 20 16:19 23.03.2020
6160 Clear 27 1019 57 10000 4.6 360 15:41 23.03.2020
6161 Clear 26 1019 57 10000 4.6 360 15:19 23.03.2020
6162 Clear 25 1019 60 10000 4.6 10 14:38 23.03.2020
6163 Clear 24 1019 60 10000 4.6 10 14:20 23.03.2020
6164 Clear 24 1019 60 10000 4.6 10 14:20 23.03.2020
6165 Clear 23 1019 60 10000 6.2 360 13:58 23.03.2020
6166 Clear 23 1019 60 10000 6.2 360 13:40 23.03.2020
6167 Clear 23 1019 60 10000 6.2 360 13:40 23.03.2020
6168 Clear 23 1019 60 10000 6.2 360 13:20 23.03.2020
6169 Clear 21 1019 60 10000 5.7 10 12:44 23.03.2020
6170 Clear 21 1019 60 10000 5.7 10 12:25 23.03.2020
6171 Clear 20 1018 68 10000 7.2 40 11:58 23.03.2020
6172 Clear 20 1018 60 10000 5.1 20 11:38 23.03.2020
6173 Clear 19 1018 60 10000 5.1 20 11:19 23.03.2020
6174 Clear 19 1018 56 10000 5.1 360 10:56 23.03.2020
6175 Clear 19 1018 56 10000 5.1 360 10:37 23.03.2020
6176 Clear 19 1018 56 10000 5.1 360 10:19 23.03.2020
6177 Clear 19 1017 56 10000 6.2 360 09:43 23.03.2020
6178 Clear 19 1017 56 10000 6.2 360 09:21 23.03.2020
6179 Clear 20 1017 57 10000 5.7 20 08:40 23.03.2020
6180 Clear 20 1017 57 10000 5.7 20 08:20 23.03.2020
6181 Clear 20 1017 57 10000 5.7 20 08:20 23.03.2020
6182 Clear 20 1017 69 10000 3.1 360 07:58 23.03.2020
6183 Clear 20 1017 69 10000 3.1 360 07:37 23.03.2020
6184 Clear 20 1017 69 10000 3.1 360 07:18 23.03.2020
6185 Clear 19 1017 68 10000 2.6 20 06:48 23.03.2020
6186 Clear 21 1017 61 10000 4.6 20 05:45 23.03.2020
6187 Clear 22 1017 61 10000 3.1 40 04:41 23.03.2020
6188 Clear 22 1017 83 10000 4.1 80 03:23 23.03.2020
6189 Clouds 23 1017 73 10000 3.6 110 01:50 23.03.2020
6190 Clear 23 1016 69 10000 4.6 100 00:50 23.03.2020
6191 Clear 24 1016 69 10000 4.6 100 00:29 23.03.2020
6192 Clear 25 1016 65 10000 5.1 100 23:44 22.03.2020
6193 Clear 25 1016 65 10000 5.1 100 23:24 22.03.2020
6194 Clouds 27 1015 61 10000 3.1 90 22:42 22.03.2020
6195 Clouds 27 1015 61 10000 3.1 90 22:22 22.03.2020
6196 Clouds 28 1016 54 10000 2.6 70 21:54 22.03.2020
6197 Clouds 28 1016 54 10000 2.6 70 21:36 22.03.2020
6198 Clouds 28 1016 54 10000 2.6 70 21:18 22.03.2020
6199 Clouds 29 1016 51 10000 2.6 70 20:42 22.03.2020
6200 Clouds 28 1016 51 10000 2.6 70 20:24 22.03.2020
6201 Clouds 29 1016 44 10000 2.6 70 19:56 22.03.2020
6202 Clouds 28 1016 44 10000 2.6 70 19:38 22.03.2020
6203 Clouds 29 1016 44 10000 2.6 70 19:19 22.03.2020
6204 Clouds 28 1017 54 10000 3.1 60 18:57 22.03.2020
6205 Clouds 29 1017 54 10000 3.1 60 18:39 22.03.2020
6206 Clouds 29 1018 65 10000 3.1 40 18:20 22.03.2020
6207 Clouds 29 1017 42 10000 3.1 320 17:57 22.03.2020
6208 Clouds 28 1018 65 10000 3.1 40 17:38 22.03.2020
6209 Clouds 28 1018 65 10000 3.1 40 17:20 22.03.2020
6210 Clouds 29 1018 39 10000 3.6 360 16:57 22.03.2020
6211 Clouds 29 1018 39 10000 3.6 360 16:57 22.03.2020
6212 Clouds 29 1018 39 10000 3.6 360 16:39 22.03.2020
6213 Clouds 28 1018 39 10000 3.6 360 16:20 22.03.2020
6214 Clouds 27 1018 61 10000 2.1 360 15:40 22.03.2020
6215 Clouds 26 1018 61 10000 2.1 360 15:19 22.03.2020
6216 Clouds 25 1018 64 10000 2.1 350 14:46 22.03.2020
6217 Clouds 25 1018 64 10000 2.1 350 14:46 22.03.2020
6218 Clouds 24 1018 64 10000 2.1 350 14:18 22.03.2020
6219 Clouds 23 1017 68 10000 2.6 320 13:42 22.03.2020
6220 Clear 22 1017 68 10000 2.6 320 13:20 22.03.2020
6221 Clear 20 1016 77 10000 2.67 351 12:47 22.03.2020
6222 Clear 19 1016 77 10000 2.67 351 12:23 22.03.2020
6223 Clear 18 1016 77 10000 1 0 11:59 22.03.2020
6224 Clear 17 1016 77 10000 1 0 11:41 22.03.2020
6225 Clear 16 1015 68 10000 2.1 310 11:23 22.03.2020
6226 Clear 16 1015 68 10000 2.1 310 10:57 22.03.2020
6227 Clear 16 1015 68 10000 2.1 310 10:39 22.03.2020
6228 Clear 16 1015 68 10000 2.1 310 10:21 22.03.2020
6229 Clear 16 1014 77 10000 1 0 09:43 22.03.2020
6230 Clear 17 1014 77 10000 1 0 09:23 22.03.2020
6231 Clear 17 1014 73 10000 2.1 310 08:44 22.03.2020
6232 Clear 18 1014 73 10000 2.1 310 08:25 22.03.2020
6233 Clear 18 1014 73 10000 2.6 360 07:53 22.03.2020
6234 Clear 17 1015 82 10000 1.5 360 07:28 22.03.2020
6235 Clear 17 1014 88 10000 3.4 351 06:40 22.03.2020
6236 Clear 19 1014 83 10000 1 270 05:35 22.03.2020
6237 Clear 21 1014 73 10000 2.1 10 03:46 22.03.2020
6238 Clear 22 1013 69 10000 1 320 01:28 22.03.2020
6239 Clear 23 1012 61 10000 2.1 350 00:48 22.03.2020
6240 Clear 23 1012 61 10000 2.1 350 00:28 22.03.2020
6241 Clear 24 1012 65 10000 3.1 360 23:43 21.03.2020
6242 Clear 25 1012 65 10000 3.1 360 23:19 21.03.2020
6243 Clear 26 1012 57 10000 2.6 40 22:55 21.03.2020
6244 Clear 27 1012 57 10000 2.6 40 22:37 21.03.2020
6245 Clear 27 1012 57 10000 2.6 40 22:18 21.03.2020
6246 Clear 29 1011 45 10000 4.1 360 21:42 21.03.2020
6247 Clear 29 1011 45 10000 4.1 360 21:23 21.03.2020
6248 Clouds 29 1011 57 10000 2.6 30 20:56 21.03.2020
6249 Clouds 29 1011 57 10000 2.6 30 20:38 21.03.2020
6250 Clouds 28 1011 57 10000 2.6 30 20:19 21.03.2020
6251 Clear 29 1012 57 10000 3.6 20 19:43 21.03.2020
6252 Clear 28 1012 57 10000 3.6 20 19:25 21.03.2020
6253 Clear 28 1012 57 10000 3.6 20 19:25 21.03.2020
6254 Clear 28 1012 57 10000 2.6 20 18:55 21.03.2020
6255 Clear 28 1012 57 10000 2.6 20 18:37 21.03.2020
6256 Clear 29 1012 57 10000 2.6 20 18:19 21.03.2020
6257 Clear 28 1013 61 10000 4.6 360 17:55 21.03.2020
6258 Clear 28 1013 61 10000 4.6 360 17:37 21.03.2020
6259 Clear 27 1013 61 10000 4.6 360 17:18 21.03.2020
6260 Clear 27 1013 61 10000 4.6 360 16:40 21.03.2020
6261 Clear 27 1013 61 10000 4.6 360 16:19 21.03.2020
6262 Clear 27 1013 64 10000 3.6 340 15:55 21.03.2020
6263 Clear 26 1013 64 10000 3.6 340 15:36 21.03.2020
6264 Clear 26 1013 64 10000 3.6 340 15:18 21.03.2020
6265 Clear 25 1013 57 10000 3.6 340 14:54 21.03.2020
6266 Clear 24 1013 57 10000 3.6 340 14:36 21.03.2020
6267 Clear 23 1013 57 10000 3.6 340 14:18 21.03.2020
6268 Clear 21 1013 60 10000 2.6 320 13:54 21.03.2020
6269 Clear 22 1013 60 10000 2.6 320 13:36 21.03.2020
6270 Clear 20 1012 64 10000 1.5 320 13:18 21.03.2020
6271 Clear 20 1012 64 10000 1.5 320 12:39 21.03.2020
6272 Clear 19 1012 64 10000 1.5 320 12:19 21.03.2020
6273 Clear 18 1011 72 10000 2.6 340 11:56 21.03.2020
6274 Clear 17 1011 72 10000 2.6 340 11:38 21.03.2020
6275 Clear 17 1011 68 10000 3.6 320 11:19 21.03.2020
6276 Clear 18 1011 68 10000 3.6 320 10:57 21.03.2020
6277 Clear 18 1011 68 10000 3.6 320 10:38 21.03.2020
6278 Clear 18 1011 68 10000 3.6 320 10:19 21.03.2020
6279 Clear 19 1011 68 10000 1.5 310 09:55 21.03.2020
6280 Clear 18 1011 68 10000 1.5 310 09:37 21.03.2020
6281 Clear 19 1011 68 10000 1.5 310 09:18 21.03.2020
6282 Clear 19 1011 72 10000 3.6 310 08:43 21.03.2020
6283 Clear 19 1011 72 10000 3.6 310 08:24 21.03.2020
6284 Clear 19 1011 77 10000 1.5 320 07:43 21.03.2020
6285 Clear 19 1011 77 10000 1.5 320 07:23 21.03.2020
6286 Clear 18 1011 82 10000 2.42 314 06:47 21.03.2020
6287 Clear 18 1011 82 10000 2.42 314 06:27 21.03.2020
6288 Clear 19 1011 77 10000 2.42 314 05:46 21.03.2020
6289 Clear 20 1011 82 10000 1.68 205 04:46 21.03.2020
6290 Clear 21 1011 83 10000 1.68 205 02:48 21.03.2020
6291 Clear 21 1011 83 10000 1.68 205 02:30 21.03.2020
6292 Clear 21 1011 83 10000 0.88 163 01:32 21.03.2020
6293 Clear 22 1010 78 10000 1.5 70 00:48 21.03.2020
6294 Clear 23 1010 78 10000 1.5 70 00:25 21.03.2020
6295 Clear 24 1010 73 10000 1 40 23:49 20.03.2020
6296 Clear 25 1010 73 10000 1 40 23:26 20.03.2020
6297 Clear 26 1010 65 10000 2.6 40 22:56 20.03.2020
6298 Clear 27 1010 65 10000 2.6 40 22:37 20.03.2020
6299 Clear 27 1010 65 10000 2.6 40 22:19 20.03.2020
6300 Clouds 28 1010 69 10000 3.1 50 21:54 20.03.2020
6301 Clouds 28 1010 69 10000 3.1 50 21:36 20.03.2020
6302 Clouds 29 1010 69 10000 3.1 50 21:18 20.03.2020
6303 Clouds 29 1010 51 10000 3.6 360 20:41 20.03.2020
6304 Clouds 28 1010 51 10000 3.6 360 20:21 20.03.2020
6305 Clouds 29 1011 57 10000 3.1 360 19:58 20.03.2020
6306 Clouds 29 1011 57 10000 3.1 360 19:40 20.03.2020
6307 Clouds 28 1011 57 10000 3.1 360 19:18 20.03.2020
6308 Clouds 28 1011 57 10000 4.1 360 18:39 20.03.2020
6309 Clouds 28 1011 57 10000 4.1 360 18:20 20.03.2020
6310 Clouds 27 1012 57 10000 4.6 360 17:57 20.03.2020
6311 Clouds 28 1012 57 10000 4.6 360 17:39 20.03.2020
6312 Clear 27 1012 44 10000 4.1 300 17:19 20.03.2020
6313 Clear 27 1012 44 10000 4.1 300 16:43 20.03.2020
6314 Clear 26 1012 44 10000 4.1 300 16:21 20.03.2020
6315 Clear 25 1013 50 10000 4.1 290 15:58 20.03.2020
6316 Clear 25 1013 50 10000 4.1 290 15:39 20.03.2020
6317 Clear 25 1013 50 10000 4.1 290 15:20 20.03.2020
6318 Clear 23 1013 56 10000 3.1 290 14:42 20.03.2020
6319 Clear 22 1013 56 10000 3.1 290 14:21 20.03.2020
6320 Clear 21 1013 64 10000 4.1 290 13:51 20.03.2020
6321 Clear 20 1013 64 10000 4.1 290 13:26 20.03.2020
6322 Clear 19 1013 68 10000 3.1 310 12:59 20.03.2020
6323 Clear 18 1013 68 10000 3.1 310 12:38 20.03.2020
6324 Clear 17 1012 88 10000 4.6 330 12:20 20.03.2020
6325 Clear 16 1013 77 10000 1 0 11:41 20.03.2020
6326 Clear 15 1013 77 10000 3.5 283 11:21 20.03.2020
6327 Clear 15 1013 77 10000 3.5 283 10:58 20.03.2020
6328 Clear 15 1013 77 10000 3.5 283 10:40 20.03.2020
6329 Clear 15 1013 77 10000 3.5 283 10:18 20.03.2020
6330 Clear 15 1012 77 10000 1 290 09:46 20.03.2020
6331 Clear 15 1012 77 10000 1 290 09:21 20.03.2020
6332 Clear 15 1012 77 10000 1 300 08:58 20.03.2020
6333 Clear 15 1012 77 10000 1 300 08:39 20.03.2020
6334 Clear 16 1012 77 10000 1 300 08:19 20.03.2020
6335 Mist 15 1013 93 2000 1 0 07:43 20.03.2020
6336 Clear 16 1012 82 10000 1.5 270 07:25 20.03.2020
6337 Clear 16 1013 82 10000 1 0 06:43 20.03.2020
6338 Clear 16 1013 82 10000 1 0 06:22 20.03.2020
6339 Clear 17 1013 68 10000 1 260 04:48 20.03.2020
6340 Clear 18 1013 64 10000 1.84 228 02:54 20.03.2020
6341 Clear 19 1012 60 10000 1 240 01:50 20.03.2020
6342 Clear 20 1012 56 10000 1 0 00:45 20.03.2020
6343 Clear 21 1012 56 10000 1 0 00:24 20.03.2020
6344 Clear 22 1011 56 10000 2.6 220 23:42 19.03.2020
6345 Clear 22 1011 56 10000 2.6 220 23:23 19.03.2020
6346 Clear 23 1011 50 10000 2.6 210 22:54 19.03.2020
6347 Clear 24 1011 50 10000 2.6 210 22:36 19.03.2020
6348 Clear 24 1011 50 10000 2.6 210 22:18 19.03.2020
6349 Clouds 24 1011 50 10000 4.6 200 21:39 19.03.2020
6350 Clouds 24 1011 50 10000 4.6 200 21:20 19.03.2020
6351 Clouds 24 1011 53 10000 3.6 180 20:54 19.03.2020
6352 Clouds 24 1011 53 10000 3.6 180 20:36 19.03.2020
6353 Clouds 24 1011 53 10000 3.6 180 20:36 19.03.2020
6354 Clouds 24 1011 53 10000 3.6 180 20:18 19.03.2020
6355 Clouds 24 1011 53 10000 3.1 220 19:39 19.03.2020
6356 Clouds 24 1011 53 10000 3.1 220 19:21 19.03.2020
6357 Clouds 23 1012 53 10000 3.1 200 18:59 19.03.2020
6358 Clouds 23 1012 53 10000 3.1 200 18:41 19.03.2020
6359 Clouds 23 1012 53 10000 3.1 200 18:22 19.03.2020
6360 Clouds 23 1012 56 10000 4.1 200 17:55 19.03.2020
6361 Clouds 23 1012 56 10000 4.1 200 17:37 19.03.2020
6362 Clouds 22 1012 60 10000 5.7 200 17:18 19.03.2020
6363 Clouds 22 1012 60 10000 5.7 200 16:42 19.03.2020
6364 Clouds 22 1012 60 10000 5.7 200 16:21 19.03.2020
6365 Clouds 21 1012 64 10000 3.6 220 15:43 19.03.2020
6366 Clouds 21 1012 64 10000 3.6 220 15:23 19.03.2020
6367 Clouds 19 1011 72 10000 4.1 240 14:43 19.03.2020
6368 Clouds 19 1011 72 10000 4.1 240 14:23 19.03.2020
6369 Clouds 18 1011 77 10000 3.1 230 13:57 19.03.2020
6370 Clouds 17 1011 77 10000 3.1 230 13:37 19.03.2020
6371 Clouds 17 1011 77 10000 3.1 230 13:18 19.03.2020
6372 Clouds 17 1011 82 10000 5.7 230 12:41 19.03.2020
6373 Clouds 16 1010 88 10000 3.1 250 12:22 19.03.2020
6374 Clouds 16 1010 88 10000 3.1 250 11:57 19.03.2020
6375 Clouds 16 1010 88 10000 3.1 250 11:57 19.03.2020
6376 Clouds 16 1011 87 10000 5.7 230 11:38 19.03.2020
6377 Clouds 16 1010 100 8000 3.1 260 11:20 19.03.2020
6378 Clear 15 1010 93 10000 2.6 260 10:41 19.03.2020
6379 Clear 16 1010 93 10000 2.6 260 10:21 19.03.2020
6380 Clouds 16 1009 100 7000 3.1 260 09:58 19.03.2020
6381 Clouds 16 1009 100 7000 3.1 260 09:38 19.03.2020
6382 Clear 17 1009 82 10000 2.6 230 09:19 19.03.2020
6383 Clouds 16 1010 100 10000 1.5 240 08:45 19.03.2020
6384 Clear 17 1010 93 10000 3.1 250 08:21 19.03.2020
6385 Mist 17 1009 100 5000 3.1 280 07:46 19.03.2020
6386 Mist 17 1009 100 3000 2.1 270 07:28 19.03.2020
6387 Fog 17 1010 100 100 2.6 290 06:48 19.03.2020
6388 Fog 18 1011 93 6000 4.59 237 05:49 19.03.2020
6389 Fog 18 1010 100 300 1 270 04:58 19.03.2020
6390 Clear 18 1011 88 10000 1 0 04:40 19.03.2020
6391 Mist 19 1011 100 5000 3.44 218 02:50 19.03.2020
6392 Rain 20 1011 88 10000 0.5 230 01:21 19.03.2020
6393 Clouds 21 1010 88 10000 1 0 00:28 19.03.2020
6394 Clouds 21 1010 83 10000 1.5 30 23:51 18.03.2020
6395 Clouds 22 1010 83 10000 1.5 30 23:30 18.03.2020
6396 Clouds 22 1010 83 10000 1.5 30 23:30 18.03.2020
6397 Clouds 23 1009 88 10000 2.6 210 22:56 18.03.2020
6398 Clouds 23 1010 83 10000 3.1 90 22:38 18.03.2020
6399 Clouds 23 1010 83 10000 3.1 90 22:20 18.03.2020
6400 Clouds 24 1010 78 10000 3.6 110 21:42 18.03.2020
6401 Clouds 24 1010 78 10000 3.6 110 21:21 18.03.2020
6402 Clouds 24 1010 83 10000 4.1 80 20:59 18.03.2020
6403 Clouds 24 1010 83 10000 4.1 80 20:40 18.03.2020
6404 Clouds 24 1010 83 10000 4.1 80 20:40 18.03.2020
6405 Clouds 24 1010 83 10000 4.1 80 20:20 18.03.2020
6406 Clouds 25 1011 78 10000 3.6 140 19:56 18.03.2020
6407 Clouds 24 1011 78 10000 3.6 140 19:38 18.03.2020
6408 Clouds 24 1011 78 10000 3.6 140 19:19 18.03.2020
6409 Clouds 24 1011 78 10000 3.6 140 19:19 18.03.2020
6410 Clouds 23 1011 83 10000 5.1 140 18:41 18.03.2020
6411 Clouds 23 1010 83 10000 5.7 150 18:20 18.03.2020
6412 Clouds 23 1010 83 10000 5.7 150 17:58 18.03.2020
6413 Clouds 23 1011 73 10000 2.1 170 17:39 18.03.2020
6414 Drizzle 22 1012 83 7000 2.1 190 17:21 18.03.2020
6415 Drizzle 22 1012 83 7000 2.1 190 16:55 18.03.2020
6416 Drizzle 22 1012 83 7000 2.1 190 16:37 18.03.2020
6417 Drizzle 22 1012 83 7000 2.1 190 16:19 18.03.2020
6418 Clouds 21 1013 83 10000 2.6 180 15:45 18.03.2020
6419 Clouds 21 1013 83 10000 2.6 180 15:20 18.03.2020
6420 Clouds 21 1012 88 10000 3.6 170 14:45 18.03.2020
6421 Clouds 20 1012 88 10000 3.6 170 14:22 18.03.2020
6422 Clouds 20 1012 93 10000 5.1 160 13:58 18.03.2020
6423 Drizzle 20 1012 93 8000 3.1 160 13:36 18.03.2020
6424 Drizzle 19 1012 93 8000 3.1 160 13:18 18.03.2020
6425 Drizzle 19 1012 93 8000 4.1 160 12:41 18.03.2020
6426 Rain 19 1012 93 2500 5.1 140 12:19 18.03.2020
6427 Drizzle 19 1011 93 2000 3.6 170 11:40 18.03.2020
6428 Drizzle 19 1011 93 9000 2.6 160 11:21 18.03.2020
6429 Drizzle 19 1011 93 9000 2.6 160 10:58 18.03.2020
6430 Drizzle 19 1011 93 9000 2.6 160 10:39 18.03.2020
6431 Drizzle 19 1011 93 9000 2.6 160 10:20 18.03.2020
6432 Drizzle 19 1011 93 2000 2.6 190 09:44 18.03.2020
6433 Drizzle 19 1011 93 2000 2.6 190 09:26 18.03.2020
6434 Drizzle 18 1011 93 4000 1.5 200 08:57 18.03.2020
6435 Drizzle 18 1011 93 4000 1.5 200 08:39 18.03.2020
6436 Drizzle 18 1011 93 4000 1.5 200 08:39 18.03.2020
6437 Drizzle 18 1011 93 4000 1.5 200 08:20 18.03.2020
6438 Drizzle 18 1012 93 4000 1.5 200 07:46 18.03.2020
6439 Drizzle 18 1012 93 4000 1.5 200 07:28 18.03.2020
6440 Drizzle 18 1012 88 2000 5.1 110 06:44 18.03.2020
6441 Drizzle 19 1012 83 3500 6.2 110 06:22 18.03.2020
6442 Rain 19 1013 100 5000 1.5 230 05:35 18.03.2020
6443 Clouds 20 1011 77 10000 7.7 90 04:25 18.03.2020
6444 Clouds 20 1012 83 10000 8.2 110 02:44 18.03.2020
6445 Rain 18 1014 88 10000 1.5 190 01:48 18.03.2020
6446 Rain 18 1014 88 10000 1.5 190 01:26 18.03.2020
6447 Drizzle 17 1013 88 9000 5.1 180 00:24 18.03.2020
6448 Drizzle 17 1013 88 9000 5.1 180 23:48 17.03.2020
6449 Drizzle 17 1013 88 9000 5.1 180 23:27 17.03.2020
6450 Drizzle 17 1013 93 9000 5.1 170 22:55 17.03.2020
6451 Rain 17 1013 93 5000 6.7 160 22:37 17.03.2020
6452 Rain 18 1013 93 5000 6.7 160 22:18 17.03.2020
6453 Drizzle 19 1013 93 2500 6.7 160 21:39 17.03.2020
6454 Drizzle 19 1013 93 2500 6.7 160 21:21 17.03.2020
6455 Clouds 21 1012 88 10000 6.7 120 20:40 17.03.2020
6456 Clouds 21 1012 88 10000 6.7 120 20:21 17.03.2020
6457 Drizzle 22 1012 88 8000 6.2 120 19:58 17.03.2020
6458 Drizzle 22 1012 88 8000 6.2 120 19:39 17.03.2020
6459 Rain 22 1014 83 5000 2.1 80 19:18 17.03.2020
6460 Rain 22 1014 83 5000 2.1 80 18:55 17.03.2020
6461 Rain 22 1014 83 5000 2.1 80 18:37 17.03.2020
6462 Rain 22 1014 83 5000 2.1 80 18:19 17.03.2020
6463 Clouds 22 1013 83 10000 3.6 110 17:40 17.03.2020
6464 Clouds 22 1013 83 10000 3.6 110 17:21 17.03.2020
6465 Drizzle 21 1014 88 9000 2.1 50 16:45 17.03.2020
6466 Drizzle 21 1014 88 9000 2.1 50 16:20 17.03.2020
6467 Drizzle 21 1014 88 9000 2.1 30 15:58 17.03.2020
6468 Drizzle 20 1014 88 9000 2.1 30 15:39 17.03.2020
6469 Drizzle 20 1014 88 9000 2.1 30 15:18 17.03.2020
6470 Rain 20 1015 88 3000 1.5 20 14:41 17.03.2020
6471 Rain 20 1015 88 3000 1.5 20 14:41 17.03.2020
6472 Rain 20 1015 88 3000 1.5 20 14:18 17.03.2020
6473 Rain 19 1015 94 5000 1.5 0 13:43 17.03.2020
6474 Clouds 19 1010 88 10000 1.5 360 13:24 17.03.2020
6475 Thunderstorm 19 1015 88 9000 2.6 360 12:48 17.03.2020
6476 Clouds 19 1014 77 10000 3.1 10 12:26 17.03.2020
6477 Clouds 19 1014 77 10000 3.1 10 12:26 17.03.2020
6478 Clear 18 1014 88 10000 4.1 60 11:59 17.03.2020
6479 Clear 18 1014 77 10000 5.1 360 11:40 17.03.2020
6480 Clear 18 1013 82 10000 3.1 30 11:22 17.03.2020
6481 Clear 17 1013 82 10000 3.1 30 10:56 17.03.2020
6482 Clear 17 1013 82 10000 3.1 30 10:37 17.03.2020
6483 Clear 17 1013 82 10000 3.1 30 10:18 17.03.2020
6484 Clear 17 1013 73 10000 4.1 50 09:45 17.03.2020
6485 Clear 18 1013 73 10000 4.1 50 09:20 17.03.2020
6486 Clear 17 1014 77 10000 3.6 60 08:58 17.03.2020
6487 Clear 16 1014 93 10000 2.6 50 08:40 17.03.2020
6488 Clear 16 1014 93 10000 2.6 50 08:18 17.03.2020
6489 Clear 16 1014 93 10000 2.6 50 08:18 17.03.2020
6490 Clear 17 1014 77 10000 4.1 60 07:49 17.03.2020
6491 Clear 18 1014 77 10000 4.1 60 07:20 17.03.2020
6492 Clear 17 1014 77 10000 4.6 70 06:45 17.03.2020
6493 Clear 17 1014 77 10000 4.6 70 06:25 17.03.2020
6494 Clear 17 1015 93 10000 2.6 70 05:20 17.03.2020
6495 Clear 19 1015 77 10000 6.2 100 03:27 17.03.2020
6496 Clear 20 1015 73 10000 5.7 100 01:50 17.03.2020
6497 Clear 20 1015 73 10000 5.7 100 01:30 17.03.2020
6498 Clear 20 1014 72 10000 4.6 110 00:51 17.03.2020
6499 Clear 21 1014 72 10000 4.6 100 23:52 16.03.2020
6500 Clear 21 1014 72 10000 4.6 100 23:34 16.03.2020
6501 Clear 22 1014 64 10000 5.1 100 22:55 16.03.2020
6502 Clear 22 1014 64 10000 5.1 100 22:36 16.03.2020
6503 Clear 23 1014 64 10000 5.1 100 22:18 16.03.2020
6504 Clear 23 1015 64 10000 4.6 100 21:41 16.03.2020
6505 Clear 23 1015 64 10000 4.6 100 21:23 16.03.2020
6506 Clear 23 1015 64 10000 4.1 100 20:58 16.03.2020
6507 Clear 24 1015 64 10000 4.1 100 20:38 16.03.2020
6508 Clear 23 1015 64 10000 4.1 100 20:20 16.03.2020
6509 Clouds 23 1016 64 10000 4.1 110 19:43 16.03.2020
6510 Clouds 23 1016 64 10000 4.1 110 19:23 16.03.2020
6511 Clouds 23 1016 64 10000 5.1 90 18:57 16.03.2020
6512 Clouds 23 1016 64 10000 5.1 90 18:37 16.03.2020
6513 Clouds 23 1016 64 10000 5.1 90 18:18 16.03.2020
6514 Clouds 23 1017 64 10000 4.6 90 17:43 16.03.2020
6515 Clouds 23 1017 64 10000 4.6 90 17:24 16.03.2020
6516 Clouds 22 1018 64 10000 4.6 80 16:47 16.03.2020
6517 Clouds 22 1018 64 10000 4.6 80 16:29 16.03.2020
6518 Clouds 22 1019 64 10000 3.6 70 15:57 16.03.2020
6519 Clouds 21 1019 64 10000 3.6 70 15:39 16.03.2020
6520 Clouds 21 1019 64 10000 3.6 70 15:19 16.03.2020
6521 Clouds 21 1019 68 10000 3.6 60 14:43 16.03.2020
6522 Clouds 21 1019 68 10000 3.6 60 14:19 16.03.2020
6523 Clouds 20 1019 68 10000 4.1 60 13:42 16.03.2020
6524 Clouds 19 1019 68 10000 4.1 60 13:24 16.03.2020
6525 Clouds 18 1018 72 10000 4.6 60 12:46 16.03.2020
6526 Clouds 17 1018 72 10000 4.6 60 12:27 16.03.2020
6527 Clouds 16 1018 72 10000 4.1 60 11:59 16.03.2020
6528 Clouds 16 1018 72 10000 4.1 60 11:41 16.03.2020
6529 Clouds 14 1018 87 10000 4.91 62 11:18 16.03.2020
6530 Clouds 14 1018 87 10000 4.91 62 10:42 16.03.2020
6531 Clouds 14 1018 87 10000 4.91 62 10:24 16.03.2020
6532 Clouds 14 1018 87 10000 4.91 62 09:45 16.03.2020
6533 Clouds 14 1018 87 10000 4.91 62 09:27 16.03.2020
6534 Clouds 15 1018 72 10000 3.6 70 08:56 16.03.2020
6535 Clouds 15 1018 72 10000 3.6 70 08:25 16.03.2020
6536 Clouds 16 1018 64 10000 4.1 90 07:50 16.03.2020
6537 Clouds 15 1018 82 10000 2.6 50 07:27 16.03.2020
6538 Clouds 16 1018 68 10000 5.7 100 06:54 16.03.2020
6539 Clouds 16 1018 68 10000 5.7 100 06:25 16.03.2020
6540 Clouds 17 1018 77 10000 3.6 130 05:42 16.03.2020
6541 Clouds 19 1019 68 10000 5.7 110 02:44 16.03.2020
6542 Clouds 19 1019 72 10000 5.1 100 01:20 16.03.2020
6543 Clouds 20 1018 68 10000 4.6 100 00:39 16.03.2020
6544 Clouds 20 1018 68 10000 4.6 100 00:39 16.03.2020
6545 Clouds 20 1018 68 10000 3.6 80 23:47 15.03.2020
6546 Clouds 21 1018 68 10000 3.6 80 23:20 15.03.2020
6547 Clouds 22 1018 64 10000 3.6 70 22:43 15.03.2020
6548 Clouds 23 1018 64 10000 3.6 70 22:23 15.03.2020
6549 Clouds 23 1018 64 10000 4.1 70 21:58 15.03.2020
6550 Clouds 23 1018 64 10000 4.1 70 21:38 15.03.2020
6551 Clouds 23 1018 64 10000 4.1 70 21:18 15.03.2020
6552 Clouds 23 1018 64 10000 4.6 70 20:42 15.03.2020
6553 Clouds 23 1018 64 10000 4.6 70 20:20 15.03.2020
6554 Clouds 23 1018 64 10000 4.1 100 19:58 15.03.2020
6555 Clouds 24 1018 64 10000 4.1 100 19:39 15.03.2020
6556 Clouds 24 1018 64 10000 4.1 100 19:19 15.03.2020
6557 Clouds 23 1019 68 10000 3.1 80 18:55 15.03.2020
6558 Clouds 23 1019 68 10000 3.1 80 18:37 15.03.2020
6559 Clouds 23 1019 68 10000 3.1 80 18:19 15.03.2020
6560 Clouds 22 1019 68 10000 1.5 160 17:41 15.03.2020
6561 Clouds 22 1019 68 10000 1.5 160 17:21 15.03.2020
6562 Clouds 22 1019 72 10000 2.6 150 16:58 15.03.2020
6563 Clouds 22 1019 72 10000 2.6 150 16:58 15.03.2020
6564 Clouds 21 1019 72 10000 2.6 150 16:38 15.03.2020
6565 Clouds 21 1019 72 10000 2.6 150 16:19 15.03.2020
6566 Clouds 20 1019 77 10000 2.1 170 15:45 15.03.2020
6567 Clouds 19 1019 77 10000 2.1 170 15:27 15.03.2020
6568 Clouds 18 1019 77 10000 2.1 170 14:57 15.03.2020
6569 Clouds 18 1019 77 10000 2.1 170 14:38 15.03.2020
6570 Clouds 18 1019 77 10000 2.1 170 14:18 15.03.2020
6571 Clouds 18 1019 77 10000 2.1 170 14:18 15.03.2020
6572 Clouds 18 1019 82 10000 3.1 170 13:54 15.03.2020
6573 Clouds 17 1019 82 10000 3.1 170 13:36 15.03.2020
6574 Rain 17 1019 82 10000 3.1 170 13:18 15.03.2020
6575 Rain 17 1019 82 10000 3.1 170 13:18 15.03.2020
6576 Rain 17 1019 82 10000 2.1 180 12:39 15.03.2020
6577 Rain 17 1019 82 10000 2.1 180 12:21 15.03.2020
6578 Rain 17 1018 77 10000 2.1 170 11:43 15.03.2020
6579 Rain 17 1018 77 10000 2.1 170 11:24 15.03.2020
6580 Rain 17 1018 77 10000 3.6 160 10:57 15.03.2020
6581 Rain 17 1018 77 10000 3.6 160 10:39 15.03.2020
6582 Rain 17 1018 77 10000 3.6 160 10:20 15.03.2020
6583 Rain 17 1018 82 10000 3.6 170 09:42 15.03.2020
6584 Rain 17 1018 82 10000 3.6 170 09:23 15.03.2020
6585 Rain 17 1017 82 10000 3.6 140 08:58 15.03.2020
6586 Rain 17 1017 82 10000 3.6 140 08:39 15.03.2020
6587 Rain 18 1017 82 10000 3.6 140 08:18 15.03.2020
6588 Rain 18 1017 77 10000 3.1 150 07:44 15.03.2020
6589 Clouds 18 1018 77 10000 2.6 180 06:55 15.03.2020
6590 Clouds 18 1018 77 10000 2.6 180 06:34 15.03.2020
6591 Clouds 18 1018 72 10000 2.1 170 05:43 15.03.2020
6592 Rain 18 1017 82 9000 2.6 170 04:47 15.03.2020
6593 Rain 18 1017 82 9000 2.6 170 04:28 15.03.2020
6594 Rain 19 1018 82 7000 2.6 170 03:54 15.03.2020
6595 Rain 19 1017 82 5000 3.1 180 02:47 15.03.2020
6596 Clouds 20 1015 83 10000 2.6 160 01:40 15.03.2020
6597 Clouds 20 1015 88 10000 2.1 200 00:47 15.03.2020
6598 Clouds 20 1015 88 10000 2.1 200 00:27 15.03.2020
6599 Clouds 21 1014 88 10000 2.1 180 23:56 14.03.2020
6600 Clouds 20 1014 88 10000 2.1 180 23:37 14.03.2020
6601 Clouds 21 1013 88 9000 2.6 190 23:18 14.03.2020
6602 Clouds 21 1013 88 9000 2.6 190 22:44 14.03.2020
6603 Clouds 22 1013 88 9000 2.6 190 22:26 14.03.2020
6604 Rain 22 1012 94 9000 3.1 180 21:57 14.03.2020
6605 Rain 22 1012 94 9000 3.1 180 21:36 14.03.2020
6606 Rain 22 1012 94 9000 3.1 180 21:18 14.03.2020
6607 Clouds 22 1014 94 10000 4.6 210 20:58 14.03.2020
6608 Rain 22 1012 88 9000 1 0 20:40 14.03.2020
6609 Rain 22 1012 88 9000 1 0 20:19 14.03.2020
6610 Rain 22 1013 94 8000 4.1 190 19:43 14.03.2020
6611 Rain 22 1013 83 9000 4.1 20 19:25 14.03.2020
6612 Rain 21 1013 94 7000 6.2 50 18:42 14.03.2020
6613 Rain 21 1013 94 7000 6.2 50 18:24 14.03.2020
6614 Rain 21 1014 94 2000 4.6 40 17:58 14.03.2020
6615 Rain 21 1016 88 3000 4.1 40 17:38 14.03.2020
6616 Rain 21 1016 88 3000 4.1 40 17:20 14.03.2020
6617 Rain 21 1016 88 3000 4.1 40 17:20 14.03.2020
6618 Rain 20 1013 94 8000 6.2 80 16:41 14.03.2020
6619 Rain 20 1015 94 8000 9.8 110 16:23 14.03.2020
6620 Thunderstorm 20 1017 88 2500 5.1 100 15:56 14.03.2020
6621 Thunderstorm 20 1017 94 7000 5.1 130 15:26 14.03.2020
6622 Thunderstorm 20 1017 94 6000 5.7 130 14:55 14.03.2020
6623 Thunderstorm 20 1016 94 4000 5.1 140 14:36 14.03.2020
6624 Thunderstorm 20 1016 94 4000 5.1 140 14:18 14.03.2020
6625 Thunderstorm 21 1016 94 750 4.6 220 13:42 14.03.2020
6626 Thunderstorm 21 1016 94 750 4.6 220 13:23 14.03.2020
6627 Thunderstorm 22 1015 83 1500 5.7 190 12:47 14.03.2020
6628 Thunderstorm 22 1012 88 10000 4.6 150 12:27 14.03.2020
6629 Clouds 24 1011 83 10000 6.7 140 11:57 14.03.2020
6630 Rain 25 1010 74 5000 6.2 180 11:38 14.03.2020
6631 Clouds 26 1010 78 10000 2.6 200 11:20 14.03.2020
6632 Thunderstorm 25 1009 78 10000 2.1 90 10:44 14.03.2020
6633 Thunderstorm 25 1009 78 10000 2.1 90 10:25 14.03.2020
6634 Thunderstorm 25 1008 83 10000 1 0 09:47 14.03.2020
6635 Clouds 25 1008 88 10000 2.6 340 09:24 14.03.2020
6636 Clouds 25 1008 83 10000 3.1 350 08:54 14.03.2020
6637 Rain 26 1008 83 10000 3.1 350 08:35 14.03.2020
6638 Clouds 26 1008 88 10000 2.6 360 07:56 14.03.2020
6639 Clouds 26 1008 88 10000 2.6 360 07:38 14.03.2020
6640 Clouds 26 1008 88 10000 2.6 360 07:19 14.03.2020
6641 Clouds 26 1009 88 10000 2.6 320 06:40 14.03.2020
6642 Clouds 26 1009 88 10000 2.6 320 06:40 14.03.2020
6643 Clouds 26 1009 83 10000 2.1 320 05:43 14.03.2020
6644 Clouds 26 1010 78 10000 1.5 120 03:49 14.03.2020
6645 Clouds 26 1010 78 10000 1.5 120 03:24 14.03.2020
6646 Clouds 26 1010 83 10000 3.6 120 02:22 14.03.2020
6647 Clear 26 1010 83 10000 5.1 120 00:46 14.03.2020
6648 Clear 27 1010 83 10000 5.7 110 23:46 13.03.2020
6649 Clear 27 1010 83 10000 5.7 110 23:28 13.03.2020
6650 Clear 29 1010 83 10000 6.2 110 22:49 13.03.2020
6651 Clear 29 1010 83 10000 6.2 110 22:26 13.03.2020
6652 Clear 30 1011 78 10000 5.7 100 21:44 13.03.2020
6653 Clear 31 1011 78 10000 5.7 100 21:21 13.03.2020
6654 Clear 31 1011 78 10000 5.7 100 20:59 13.03.2020
6655 Clear 31 1011 78 10000 5.7 100 20:39 13.03.2020
6656 Clear 31 1011 78 10000 5.7 100 20:39 13.03.2020
6657 Clear 30 1011 78 10000 5.7 100 20:20 13.03.2020
6658 Clear 30 1012 78 10000 5.1 100 19:47 13.03.2020
6659 Clear 30 1012 78 10000 5.1 100 19:47 13.03.2020
6660 Clear 31 1011 66 10000 4.6 50 19:28 13.03.2020
6661 Clear 30 1013 74 10000 2.6 100 18:47 13.03.2020
6662 Clear 31 1013 74 10000 2.6 100 18:29 13.03.2020
6663 Clear 31 1013 66 10000 3.1 90 17:57 13.03.2020
6664 Clear 31 1013 66 10000 3.1 90 17:38 13.03.2020
6665 Clear 30 1014 74 10000 3.1 40 17:19 13.03.2020
6666 Clear 29 1014 74 10000 3.1 40 16:42 13.03.2020
6667 Clear 29 1014 74 10000 3.1 40 16:24 13.03.2020
6668 Clear 28 1014 78 10000 3.1 50 15:56 13.03.2020
6669 Clear 28 1014 78 10000 3.1 50 15:37 13.03.2020
6670 Clear 27 1014 78 10000 3.1 50 15:19 13.03.2020
6671 Clear 26 1014 78 10000 3.6 40 14:41 13.03.2020
6672 Clear 26 1014 78 10000 3.6 40 14:41 13.03.2020
6673 Clear 26 1014 74 10000 4.6 40 14:22 13.03.2020
6674 Clear 26 1014 74 10000 4.6 40 14:22 13.03.2020
6675 Clear 25 1014 83 10000 4.1 60 13:56 13.03.2020
6676 Clear 25 1014 83 10000 4.1 60 13:38 13.03.2020
6677 Clear 24 1014 83 10000 4.1 60 13:19 13.03.2020
6678 Clear 24 1014 83 10000 4.1 60 12:40 13.03.2020
6679 Clouds 23 1013 94 10000 3.1 60 12:22 13.03.2020
6680 Clouds 22 1013 94 10000 3.1 60 11:57 13.03.2020
6681 Clear 22 1013 83 10000 4.6 80 11:39 13.03.2020
6682 Clear 22 1013 83 10000 5.1 70 11:21 13.03.2020
6683 Clear 22 1013 83 10000 5.1 70 10:47 13.03.2020
6684 Clear